<?xml version="1.0" encoding="UTF-8" standalone="no" ?>
<gpx xmlns="http://www.topografix.com/GPX/1/1" xmlns:xsi="http://www.w3.org/2001/XMLSchema-instance" xsi:schemaLocation="http://www.topografix.com/GPX/1/1 http://www.topografix.com/GPX/1/1/gpx.xsd" version="1.1" creator="VisuGPX - https://www.visugpx.com">
  <metadata>
    <name>week end entrainement veo</name>
    <desc><![CDATA[sortie trail ]]></desc>
  </metadata>
  <trk>
    <name><![CDATA[trail week end ]]></name>
    <trkseg>
      <trkpt lat="45.56314" lon="6.69279">
        <ele>721.40002441406</ele>
        <time>2013-05-12T06:50:03Z</time>
      </trkpt>
      <trkpt lat="45.56304" lon="6.69258">
        <ele>720.40002441406</ele>
        <time>2013-05-12T06:50:13Z</time>
      </trkpt>
      <trkpt lat="45.56303" lon="6.69254">
        <ele>720.40002441406</ele>
        <time>2013-05-12T06:50:15Z</time>
      </trkpt>
      <trkpt lat="45.56301" lon="6.69243">
        <ele>720.40002441406</ele>
        <time>2013-05-12T06:50:19Z</time>
      </trkpt>
      <trkpt lat="45.563" lon="6.69233">
        <ele>720.40002441406</ele>
        <time>2013-05-12T06:50:22Z</time>
      </trkpt>
      <trkpt lat="45.56297" lon="6.69223">
        <ele>720.40002441406</ele>
        <time>2013-05-12T06:50:26Z</time>
      </trkpt>
      <trkpt lat="45.56291" lon="6.69209">
        <ele>720.40002441406</ele>
        <time>2013-05-12T06:50:31Z</time>
      </trkpt>
      <trkpt lat="45.56284" lon="6.69188">
        <ele>720.40002441406</ele>
        <time>2013-05-12T06:50:38Z</time>
      </trkpt>
      <trkpt lat="45.56277" lon="6.69169">
        <ele>720.40002441406</ele>
        <time>2013-05-12T06:50:44Z</time>
      </trkpt>
      <trkpt lat="45.56273" lon="6.69161">
        <ele>720.40002441406</ele>
        <time>2013-05-12T06:50:47Z</time>
      </trkpt>
      <trkpt lat="45.56259" lon="6.69138">
        <ele>720.40002441406</ele>
        <time>2013-05-12T06:50:56Z</time>
      </trkpt>
      <trkpt lat="45.56254" lon="6.69128">
        <ele>720.40002441406</ele>
        <time>2013-05-12T06:51:01Z</time>
      </trkpt>
      <trkpt lat="45.56242" lon="6.69106">
        <ele>720.40002441406</ele>
        <time>2013-05-12T06:51:09Z</time>
      </trkpt>
      <trkpt lat="45.5624" lon="6.691">
        <ele>720.40002441406</ele>
        <time>2013-05-12T06:51:12Z</time>
      </trkpt>
      <trkpt lat="45.56232" lon="6.69077">
        <ele>720.40002441406</ele>
        <time>2013-05-12T06:51:21Z</time>
      </trkpt>
      <trkpt lat="45.56226" lon="6.69064">
        <ele>720.40002441406</ele>
        <time>2013-05-12T06:51:27Z</time>
      </trkpt>
      <trkpt lat="45.56223" lon="6.69049">
        <ele>720.40002441406</ele>
        <time>2013-05-12T06:51:33Z</time>
      </trkpt>
      <trkpt lat="45.56222" lon="6.69047">
        <ele>720.40002441406</ele>
        <time>2013-05-12T06:51:35Z</time>
      </trkpt>
      <trkpt lat="45.5622" lon="6.69042">
        <ele>720.40002441406</ele>
        <time>2013-05-12T06:51:37Z</time>
      </trkpt>
      <trkpt lat="45.56217" lon="6.69027">
        <ele>720.40002441406</ele>
        <time>2013-05-12T06:51:42Z</time>
      </trkpt>
      <trkpt lat="45.56216" lon="6.69017">
        <ele>720.40002441406</ele>
        <time>2013-05-12T06:51:46Z</time>
      </trkpt>
      <trkpt lat="45.56212" lon="6.69005">
        <ele>720.40002441406</ele>
        <time>2013-05-12T06:51:50Z</time>
      </trkpt>
      <trkpt lat="45.56208" lon="6.68983">
        <ele>720.40002441406</ele>
        <time>2013-05-12T06:51:57Z</time>
      </trkpt>
      <trkpt lat="45.56205" lon="6.6897">
        <ele>720.40002441406</ele>
        <time>2013-05-12T06:52:01Z</time>
      </trkpt>
      <trkpt lat="45.56203" lon="6.68963">
        <ele>720.40002441406</ele>
        <time>2013-05-12T06:52:03Z</time>
      </trkpt>
      <trkpt lat="45.56199" lon="6.6895">
        <ele>720.40002441406</ele>
        <time>2013-05-12T06:52:07Z</time>
      </trkpt>
      <trkpt lat="45.56198" lon="6.68943">
        <ele>720.40002441406</ele>
        <time>2013-05-12T06:52:09Z</time>
      </trkpt>
      <trkpt lat="45.56196" lon="6.68938">
        <ele>720.40002441406</ele>
        <time>2013-05-12T06:52:11Z</time>
      </trkpt>
      <trkpt lat="45.56194" lon="6.68921">
        <ele>720.40002441406</ele>
        <time>2013-05-12T06:52:15Z</time>
      </trkpt>
      <trkpt lat="45.56192" lon="6.68897">
        <ele>720.40002441406</ele>
        <time>2013-05-12T06:52:22Z</time>
      </trkpt>
      <trkpt lat="45.5619" lon="6.68885">
        <ele>720.40002441406</ele>
        <time>2013-05-12T06:52:26Z</time>
      </trkpt>
      <trkpt lat="45.56187" lon="6.68847">
        <ele>720.40002441406</ele>
        <time>2013-05-12T06:52:39Z</time>
      </trkpt>
      <trkpt lat="45.56188" lon="6.68841">
        <ele>720.40002441406</ele>
        <time>2013-05-12T06:52:41Z</time>
      </trkpt>
      <trkpt lat="45.56189" lon="6.68835">
        <ele>719.40002441406</ele>
        <time>2013-05-12T06:52:43Z</time>
      </trkpt>
      <trkpt lat="45.5619" lon="6.68828">
        <ele>718.59997558594</ele>
        <time>2013-05-12T06:52:45Z</time>
      </trkpt>
      <trkpt lat="45.56193" lon="6.68809">
        <ele>718.40002441406</ele>
        <time>2013-05-12T06:52:51Z</time>
      </trkpt>
      <trkpt lat="45.56196" lon="6.68764">
        <ele>718.40002441406</ele>
        <time>2013-05-12T06:53:07Z</time>
      </trkpt>
      <trkpt lat="45.56201" lon="6.68745">
        <ele>718.40002441406</ele>
        <time>2013-05-12T06:53:14Z</time>
      </trkpt>
      <trkpt lat="45.56206" lon="6.68728">
        <ele>718.40002441406</ele>
        <time>2013-05-12T06:53:20Z</time>
      </trkpt>
      <trkpt lat="45.56209" lon="6.68716">
        <ele>718.40002441406</ele>
        <time>2013-05-12T06:53:24Z</time>
      </trkpt>
      <trkpt lat="45.56212" lon="6.68703">
        <ele>718.40002441406</ele>
        <time>2013-05-12T06:53:28Z</time>
      </trkpt>
      <trkpt lat="45.56214" lon="6.68697">
        <ele>717.40002441406</ele>
        <time>2013-05-12T06:53:30Z</time>
      </trkpt>
      <trkpt lat="45.56216" lon="6.68691">
        <ele>716.59997558594</ele>
        <time>2013-05-12T06:53:32Z</time>
      </trkpt>
      <trkpt lat="45.56221" lon="6.68679">
        <ele>716.40002441406</ele>
        <time>2013-05-12T06:53:36Z</time>
      </trkpt>
      <trkpt lat="45.56232" lon="6.68654">
        <ele>716.40002441406</ele>
        <time>2013-05-12T06:53:45Z</time>
      </trkpt>
      <trkpt lat="45.56236" lon="6.68642">
        <ele>716.40002441406</ele>
        <time>2013-05-12T06:53:49Z</time>
      </trkpt>
      <trkpt lat="45.56243" lon="6.68628">
        <ele>716.40002441406</ele>
        <time>2013-05-12T06:53:54Z</time>
      </trkpt>
      <trkpt lat="45.56254" lon="6.68602">
        <ele>716.40002441406</ele>
        <time>2013-05-12T06:54:04Z</time>
      </trkpt>
      <trkpt lat="45.56265" lon="6.68572">
        <ele>716.40002441406</ele>
        <time>2013-05-12T06:54:15Z</time>
      </trkpt>
      <trkpt lat="45.5627" lon="6.68558">
        <ele>716.40002441406</ele>
        <time>2013-05-12T06:54:20Z</time>
      </trkpt>
      <trkpt lat="45.56285" lon="6.68521">
        <ele>716.40002441406</ele>
        <time>2013-05-12T06:54:33Z</time>
      </trkpt>
      <trkpt lat="45.56291" lon="6.68514">
        <ele>716.40002441406</ele>
        <time>2013-05-12T06:54:36Z</time>
      </trkpt>
      <trkpt lat="45.56304" lon="6.68498">
        <ele>716.40002441406</ele>
        <time>2013-05-12T06:54:44Z</time>
      </trkpt>
      <trkpt lat="45.56311" lon="6.68491">
        <ele>716.40002441406</ele>
        <time>2013-05-12T06:54:48Z</time>
      </trkpt>
      <trkpt lat="45.56321" lon="6.68483">
        <ele>716.40002441406</ele>
        <time>2013-05-12T06:54:53Z</time>
      </trkpt>
      <trkpt lat="45.56343" lon="6.68453">
        <ele>716.40002441406</ele>
        <time>2013-05-12T06:55:05Z</time>
      </trkpt>
      <trkpt lat="45.56347" lon="6.68433">
        <ele>716.40002441406</ele>
        <time>2013-05-12T06:55:11Z</time>
      </trkpt>
      <trkpt lat="45.56348" lon="6.68413">
        <ele>716.40002441406</ele>
        <time>2013-05-12T06:55:18Z</time>
      </trkpt>
      <trkpt lat="45.56346" lon="6.68388">
        <ele>716.40002441406</ele>
        <time>2013-05-12T06:55:26Z</time>
      </trkpt>
      <trkpt lat="45.56346" lon="6.68381">
        <ele>716.40002441406</ele>
        <time>2013-05-12T06:55:28Z</time>
      </trkpt>
      <trkpt lat="45.56349" lon="6.68352">
        <ele>716.40002441406</ele>
        <time>2013-05-12T06:55:37Z</time>
      </trkpt>
      <trkpt lat="45.56356" lon="6.68314">
        <ele>716.40002441406</ele>
        <time>2013-05-12T06:55:49Z</time>
      </trkpt>
      <trkpt lat="45.56358" lon="6.68309">
        <ele>716.40002441406</ele>
        <time>2013-05-12T06:55:51Z</time>
      </trkpt>
      <trkpt lat="45.5636" lon="6.68304">
        <ele>716.40002441406</ele>
        <time>2013-05-12T06:55:53Z</time>
      </trkpt>
      <trkpt lat="45.56364" lon="6.68287">
        <ele>716.40002441406</ele>
        <time>2013-05-12T06:55:58Z</time>
      </trkpt>
      <trkpt lat="45.56368" lon="6.6827">
        <ele>716.40002441406</ele>
        <time>2013-05-12T06:56:03Z</time>
      </trkpt>
      <trkpt lat="45.56372" lon="6.68259">
        <ele>716.40002441406</ele>
        <time>2013-05-12T06:56:07Z</time>
      </trkpt>
      <trkpt lat="45.56375" lon="6.68248">
        <ele>716.40002441406</ele>
        <time>2013-05-12T06:56:11Z</time>
      </trkpt>
      <trkpt lat="45.56373" lon="6.68227">
        <ele>716.40002441406</ele>
        <time>2013-05-12T06:56:17Z</time>
      </trkpt>
      <trkpt lat="45.56373" lon="6.68217">
        <ele>715.59997558594</ele>
        <time>2013-05-12T06:56:20Z</time>
      </trkpt>
      <trkpt lat="45.56371" lon="6.6821">
        <ele>715</ele>
        <time>2013-05-12T06:56:22Z</time>
      </trkpt>
      <trkpt lat="45.56366" lon="6.68175">
        <ele>714.40002441406</ele>
        <time>2013-05-12T06:56:32Z</time>
      </trkpt>
      <trkpt lat="45.56362" lon="6.6816">
        <ele>714.40002441406</ele>
        <time>2013-05-12T06:56:37Z</time>
      </trkpt>
      <trkpt lat="45.56357" lon="6.6814">
        <ele>714.40002441406</ele>
        <time>2013-05-12T06:56:43Z</time>
      </trkpt>
      <trkpt lat="45.56353" lon="6.68123">
        <ele>714</ele>
        <time>2013-05-12T06:56:48Z</time>
      </trkpt>
      <trkpt lat="45.56352" lon="6.68117">
        <ele>713</ele>
        <time>2013-05-12T06:56:50Z</time>
      </trkpt>
      <trkpt lat="45.5635" lon="6.68109">
        <ele>712.40002441406</ele>
        <time>2013-05-12T06:56:52Z</time>
      </trkpt>
      <trkpt lat="45.56341" lon="6.68071">
        <ele>712.40002441406</ele>
        <time>2013-05-12T06:57:03Z</time>
      </trkpt>
      <trkpt lat="45.56331" lon="6.68042">
        <ele>712.40002441406</ele>
        <time>2013-05-12T06:57:13Z</time>
      </trkpt>
      <trkpt lat="45.56327" lon="6.68021">
        <ele>712.40002441406</ele>
        <time>2013-05-12T06:57:19Z</time>
      </trkpt>
      <trkpt lat="45.56325" lon="6.68015">
        <ele>712.40002441406</ele>
        <time>2013-05-12T06:57:21Z</time>
      </trkpt>
      <trkpt lat="45.5632" lon="6.67994">
        <ele>712.40002441406</ele>
        <time>2013-05-12T06:57:28Z</time>
      </trkpt>
      <trkpt lat="45.56318" lon="6.67984">
        <ele>712.40002441406</ele>
        <time>2013-05-12T06:57:31Z</time>
      </trkpt>
      <trkpt lat="45.56316" lon="6.67978">
        <ele>712.40002441406</ele>
        <time>2013-05-12T06:57:33Z</time>
      </trkpt>
      <trkpt lat="45.56312" lon="6.67963">
        <ele>712.40002441406</ele>
        <time>2013-05-12T06:57:38Z</time>
      </trkpt>
      <trkpt lat="45.56302" lon="6.6794">
        <ele>712.40002441406</ele>
        <time>2013-05-12T06:57:46Z</time>
      </trkpt>
      <trkpt lat="45.56299" lon="6.67928">
        <ele>712.40002441406</ele>
        <time>2013-05-12T06:57:50Z</time>
      </trkpt>
      <trkpt lat="45.56294" lon="6.67912">
        <ele>712.40002441406</ele>
        <time>2013-05-12T06:57:55Z</time>
      </trkpt>
      <trkpt lat="45.56292" lon="6.67901">
        <ele>712.40002441406</ele>
        <time>2013-05-12T06:57:58Z</time>
      </trkpt>
      <trkpt lat="45.56291" lon="6.67894">
        <ele>712.40002441406</ele>
        <time>2013-05-12T06:58:00Z</time>
      </trkpt>
      <trkpt lat="45.5629" lon="6.67883">
        <ele>712.40002441406</ele>
        <time>2013-05-12T06:58:03Z</time>
      </trkpt>
      <trkpt lat="45.56289" lon="6.67867">
        <ele>712.40002441406</ele>
        <time>2013-05-12T06:58:08Z</time>
      </trkpt>
      <trkpt lat="45.56288" lon="6.67856">
        <ele>712</ele>
        <time>2013-05-12T06:58:11Z</time>
      </trkpt>
      <trkpt lat="45.56287" lon="6.67847">
        <ele>711.40002441406</ele>
        <time>2013-05-12T06:58:13Z</time>
      </trkpt>
      <trkpt lat="45.56286" lon="6.67839">
        <ele>710.40002441406</ele>
        <time>2013-05-12T06:58:15Z</time>
      </trkpt>
      <trkpt lat="45.56283" lon="6.67828">
        <ele>709.59997558594</ele>
        <time>2013-05-12T06:58:18Z</time>
      </trkpt>
      <trkpt lat="45.56281" lon="6.67822">
        <ele>709</ele>
        <time>2013-05-12T06:58:20Z</time>
      </trkpt>
      <trkpt lat="45.56279" lon="6.67815">
        <ele>708.20001220703</ele>
        <time>2013-05-12T06:58:22Z</time>
      </trkpt>
      <trkpt lat="45.56274" lon="6.67796">
        <ele>708.20001220703</ele>
        <time>2013-05-12T06:58:28Z</time>
      </trkpt>
      <trkpt lat="45.56271" lon="6.67786">
        <ele>707.40002441406</ele>
        <time>2013-05-12T06:58:31Z</time>
      </trkpt>
      <trkpt lat="45.56269" lon="6.6778">
        <ele>706.59997558594</ele>
        <time>2013-05-12T06:58:33Z</time>
      </trkpt>
      <trkpt lat="45.56267" lon="6.67775">
        <ele>706.40002441406</ele>
        <time>2013-05-12T06:58:35Z</time>
      </trkpt>
      <trkpt lat="45.56261" lon="6.67763">
        <ele>706</ele>
        <time>2013-05-12T06:58:39Z</time>
      </trkpt>
      <trkpt lat="45.56248" lon="6.67728">
        <ele>706</ele>
        <time>2013-05-12T06:58:50Z</time>
      </trkpt>
      <trkpt lat="45.56233" lon="6.67695">
        <ele>706</ele>
        <time>2013-05-12T06:59:01Z</time>
      </trkpt>
      <trkpt lat="45.5623" lon="6.6769">
        <ele>705.40002441406</ele>
        <time>2013-05-12T06:59:03Z</time>
      </trkpt>
      <trkpt lat="45.56222" lon="6.6768">
        <ele>704</ele>
        <time>2013-05-12T06:59:07Z</time>
      </trkpt>
      <trkpt lat="45.56211" lon="6.67664">
        <ele>704</ele>
        <time>2013-05-12T06:59:13Z</time>
      </trkpt>
      <trkpt lat="45.56187" lon="6.67639">
        <ele>704</ele>
        <time>2013-05-12T06:59:25Z</time>
      </trkpt>
      <trkpt lat="45.56179" lon="6.67629">
        <ele>704</ele>
        <time>2013-05-12T06:59:29Z</time>
      </trkpt>
      <trkpt lat="45.56168" lon="6.67617">
        <ele>704</ele>
        <time>2013-05-12T06:59:34Z</time>
      </trkpt>
      <trkpt lat="45.56155" lon="6.67604">
        <ele>703.40002441406</ele>
        <time>2013-05-12T06:59:41Z</time>
      </trkpt>
      <trkpt lat="45.56151" lon="6.676">
        <ele>702.59997558594</ele>
        <time>2013-05-12T06:59:43Z</time>
      </trkpt>
      <trkpt lat="45.56147" lon="6.67595">
        <ele>702</ele>
        <time>2013-05-12T06:59:45Z</time>
      </trkpt>
      <trkpt lat="45.56139" lon="6.67582">
        <ele>701.59997558594</ele>
        <time>2013-05-12T06:59:50Z</time>
      </trkpt>
      <trkpt lat="45.5612" lon="6.67548">
        <ele>701.59997558594</ele>
        <time>2013-05-12T07:00:02Z</time>
      </trkpt>
      <trkpt lat="45.56111" lon="6.67529">
        <ele>701.59997558594</ele>
        <time>2013-05-12T07:00:09Z</time>
      </trkpt>
      <trkpt lat="45.56096" lon="6.6749">
        <ele>701.59997558594</ele>
        <time>2013-05-12T07:00:21Z</time>
      </trkpt>
      <trkpt lat="45.56086" lon="6.67469">
        <ele>701</ele>
        <time>2013-05-12T07:00:28Z</time>
      </trkpt>
      <trkpt lat="45.56085" lon="6.67463">
        <ele>700.20001220703</ele>
        <time>2013-05-12T07:00:30Z</time>
      </trkpt>
      <trkpt lat="45.56083" lon="6.67458">
        <ele>699.59997558594</ele>
        <time>2013-05-12T07:00:32Z</time>
      </trkpt>
      <trkpt lat="45.56076" lon="6.67443">
        <ele>699.59997558594</ele>
        <time>2013-05-12T07:00:37Z</time>
      </trkpt>
      <trkpt lat="45.56063" lon="6.67406">
        <ele>699.59997558594</ele>
        <time>2013-05-12T07:00:49Z</time>
      </trkpt>
      <trkpt lat="45.56052" lon="6.67371">
        <ele>699.40002441406</ele>
        <time>2013-05-12T07:01:00Z</time>
      </trkpt>
      <trkpt lat="45.56049" lon="6.67366">
        <ele>698.40002441406</ele>
        <time>2013-05-12T07:01:02Z</time>
      </trkpt>
      <trkpt lat="45.56048" lon="6.67359">
        <ele>697.59997558594</ele>
        <time>2013-05-12T07:01:04Z</time>
      </trkpt>
      <trkpt lat="45.56043" lon="6.67341">
        <ele>697.40002441406</ele>
        <time>2013-05-12T07:01:10Z</time>
      </trkpt>
      <trkpt lat="45.56037" lon="6.6731">
        <ele>697.40002441406</ele>
        <time>2013-05-12T07:01:19Z</time>
      </trkpt>
      <trkpt lat="45.56031" lon="6.67261">
        <ele>697.40002441406</ele>
        <time>2013-05-12T07:01:32Z</time>
      </trkpt>
      <trkpt lat="45.5603" lon="6.67244">
        <ele>697.20001220703</ele>
        <time>2013-05-12T07:01:37Z</time>
      </trkpt>
      <trkpt lat="45.56029" lon="6.67236">
        <ele>696.40002441406</ele>
        <time>2013-05-12T07:01:39Z</time>
      </trkpt>
      <trkpt lat="45.56028" lon="6.6723">
        <ele>695.40002441406</ele>
        <time>2013-05-12T07:01:41Z</time>
      </trkpt>
      <trkpt lat="45.5603" lon="6.6721">
        <ele>695.40002441406</ele>
        <time>2013-05-12T07:01:47Z</time>
      </trkpt>
      <trkpt lat="45.56043" lon="6.67172">
        <ele>695.40002441406</ele>
        <time>2013-05-12T07:01:58Z</time>
      </trkpt>
      <trkpt lat="45.56048" lon="6.67144">
        <ele>695.40002441406</ele>
        <time>2013-05-12T07:02:06Z</time>
      </trkpt>
      <trkpt lat="45.56047" lon="6.67138">
        <ele>694.40002441406</ele>
        <time>2013-05-12T07:02:08Z</time>
      </trkpt>
      <trkpt lat="45.56045" lon="6.6713">
        <ele>694</ele>
        <time>2013-05-12T07:02:10Z</time>
      </trkpt>
      <trkpt lat="45.56042" lon="6.67119">
        <ele>693.40002441406</ele>
        <time>2013-05-12T07:02:13Z</time>
      </trkpt>
      <trkpt lat="45.5603" lon="6.67085">
        <ele>693.40002441406</ele>
        <time>2013-05-12T07:02:24Z</time>
      </trkpt>
      <trkpt lat="45.56015" lon="6.67051">
        <ele>693.40002441406</ele>
        <time>2013-05-12T07:02:36Z</time>
      </trkpt>
      <trkpt lat="45.56004" lon="6.67023">
        <ele>693.40002441406</ele>
        <time>2013-05-12T07:02:46Z</time>
      </trkpt>
      <trkpt lat="45.55978" lon="6.66951">
        <ele>693.40002441406</ele>
        <time>2013-05-12T07:03:10Z</time>
      </trkpt>
      <trkpt lat="45.55967" lon="6.66928">
        <ele>693.40002441406</ele>
        <time>2013-05-12T07:03:18Z</time>
      </trkpt>
      <trkpt lat="45.55963" lon="6.66919">
        <ele>693.40002441406</ele>
        <time>2013-05-12T07:03:21Z</time>
      </trkpt>
      <trkpt lat="45.55956" lon="6.66904">
        <ele>693.40002441406</ele>
        <time>2013-05-12T07:03:26Z</time>
      </trkpt>
      <trkpt lat="45.55942" lon="6.66869">
        <ele>693.40002441406</ele>
        <time>2013-05-12T07:03:37Z</time>
      </trkpt>
      <trkpt lat="45.55937" lon="6.66854">
        <ele>693.20001220703</ele>
        <time>2013-05-12T07:03:42Z</time>
      </trkpt>
      <trkpt lat="45.55935" lon="6.66847">
        <ele>692.40002441406</ele>
        <time>2013-05-12T07:03:44Z</time>
      </trkpt>
      <trkpt lat="45.55933" lon="6.66841">
        <ele>691.59997558594</ele>
        <time>2013-05-12T07:03:46Z</time>
      </trkpt>
      <trkpt lat="45.5593" lon="6.66833">
        <ele>691.40002441406</ele>
        <time>2013-05-12T07:03:48Z</time>
      </trkpt>
      <trkpt lat="45.55924" lon="6.66795">
        <ele>691.40002441406</ele>
        <time>2013-05-12T07:04:00Z</time>
      </trkpt>
      <trkpt lat="45.55915" lon="6.66758">
        <ele>691.40002441406</ele>
        <time>2013-05-12T07:04:11Z</time>
      </trkpt>
      <trkpt lat="45.55909" lon="6.66718">
        <ele>691.40002441406</ele>
        <time>2013-05-12T07:04:23Z</time>
      </trkpt>
      <trkpt lat="45.55901" lon="6.66684">
        <ele>691.40002441406</ele>
        <time>2013-05-12T07:04:34Z</time>
      </trkpt>
      <trkpt lat="45.55884" lon="6.66658">
        <ele>691.40002441406</ele>
        <time>2013-05-12T07:04:44Z</time>
      </trkpt>
      <trkpt lat="45.55875" lon="6.66649">
        <ele>690.59997558594</ele>
        <time>2013-05-12T07:04:48Z</time>
      </trkpt>
      <trkpt lat="45.55872" lon="6.66645">
        <ele>690.40002441406</ele>
        <time>2013-05-12T07:04:50Z</time>
      </trkpt>
      <trkpt lat="45.55867" lon="6.66641">
        <ele>689.40002441406</ele>
        <time>2013-05-12T07:04:52Z</time>
      </trkpt>
      <trkpt lat="45.55863" lon="6.66638">
        <ele>689.40002441406</ele>
        <time>2013-05-12T07:04:54Z</time>
      </trkpt>
      <trkpt lat="45.55842" lon="6.6661">
        <ele>689.40002441406</ele>
        <time>2013-05-12T07:05:06Z</time>
      </trkpt>
      <trkpt lat="45.5583" lon="6.66599">
        <ele>689.40002441406</ele>
        <time>2013-05-12T07:05:12Z</time>
      </trkpt>
      <trkpt lat="45.55812" lon="6.66572">
        <ele>689.40002441406</ele>
        <time>2013-05-12T07:05:22Z</time>
      </trkpt>
      <trkpt lat="45.55802" lon="6.66557">
        <ele>689</ele>
        <time>2013-05-12T07:05:28Z</time>
      </trkpt>
      <trkpt lat="45.55798" lon="6.66552">
        <ele>688.40002441406</ele>
        <time>2013-05-12T07:05:30Z</time>
      </trkpt>
      <trkpt lat="45.55795" lon="6.66547">
        <ele>687.59997558594</ele>
        <time>2013-05-12T07:05:32Z</time>
      </trkpt>
      <trkpt lat="45.55792" lon="6.66541">
        <ele>687.40002441406</ele>
        <time>2013-05-12T07:05:34Z</time>
      </trkpt>
      <trkpt lat="45.55785" lon="6.6653">
        <ele>687.40002441406</ele>
        <time>2013-05-12T07:05:38Z</time>
      </trkpt>
      <trkpt lat="45.5578" lon="6.66523">
        <ele>687.40002441406</ele>
        <time>2013-05-12T07:05:41Z</time>
      </trkpt>
      <trkpt lat="45.55759" lon="6.66491">
        <ele>687.40002441406</ele>
        <time>2013-05-12T07:05:53Z</time>
      </trkpt>
      <trkpt lat="45.55741" lon="6.66461">
        <ele>687</ele>
        <time>2013-05-12T07:06:04Z</time>
      </trkpt>
      <trkpt lat="45.55737" lon="6.66456">
        <ele>686.20001220703</ele>
        <time>2013-05-12T07:06:06Z</time>
      </trkpt>
      <trkpt lat="45.55734" lon="6.66451">
        <ele>685.40002441406</ele>
        <time>2013-05-12T07:06:08Z</time>
      </trkpt>
      <trkpt lat="45.55731" lon="6.66446">
        <ele>685.40002441406</ele>
        <time>2013-05-12T07:06:10Z</time>
      </trkpt>
      <trkpt lat="45.55717" lon="6.66417">
        <ele>685.40002441406</ele>
        <time>2013-05-12T07:06:20Z</time>
      </trkpt>
      <trkpt lat="45.55703" lon="6.66393">
        <ele>685.40002441406</ele>
        <time>2013-05-12T07:06:30Z</time>
      </trkpt>
      <trkpt lat="45.55699" lon="6.66369">
        <ele>685.40002441406</ele>
        <time>2013-05-12T07:06:37Z</time>
      </trkpt>
      <trkpt lat="45.55693" lon="6.66337">
        <ele>685.40002441406</ele>
        <time>2013-05-12T07:06:47Z</time>
      </trkpt>
      <trkpt lat="45.55689" lon="6.6632">
        <ele>685.40002441406</ele>
        <time>2013-05-12T07:06:52Z</time>
      </trkpt>
      <trkpt lat="45.55682" lon="6.66292">
        <ele>685.40002441406</ele>
        <time>2013-05-12T07:07:01Z</time>
      </trkpt>
      <trkpt lat="45.55681" lon="6.66284">
        <ele>685</ele>
        <time>2013-05-12T07:07:03Z</time>
      </trkpt>
      <trkpt lat="45.5568" lon="6.66278">
        <ele>684.40002441406</ele>
        <time>2013-05-12T07:07:05Z</time>
      </trkpt>
      <trkpt lat="45.55679" lon="6.66271">
        <ele>683.40002441406</ele>
        <time>2013-05-12T07:07:07Z</time>
      </trkpt>
      <trkpt lat="45.55674" lon="6.66252">
        <ele>683.20001220703</ele>
        <time>2013-05-12T07:07:13Z</time>
      </trkpt>
      <trkpt lat="45.55665" lon="6.66215">
        <ele>683.20001220703</ele>
        <time>2013-05-12T07:07:24Z</time>
      </trkpt>
      <trkpt lat="45.55653" lon="6.66196">
        <ele>683.20001220703</ele>
        <time>2013-05-12T07:07:31Z</time>
      </trkpt>
      <trkpt lat="45.5563" lon="6.66189">
        <ele>683.20001220703</ele>
        <time>2013-05-12T07:07:41Z</time>
      </trkpt>
      <trkpt lat="45.55601" lon="6.66183">
        <ele>683.20001220703</ele>
        <time>2013-05-12T07:07:53Z</time>
      </trkpt>
      <trkpt lat="45.55571" lon="6.66166">
        <ele>683.20001220703</ele>
        <time>2013-05-12T07:08:08Z</time>
      </trkpt>
      <trkpt lat="45.55556" lon="6.66157">
        <ele>683.20001220703</ele>
        <time>2013-05-12T07:08:17Z</time>
      </trkpt>
      <trkpt lat="45.55548" lon="6.66151">
        <ele>683.20001220703</ele>
        <time>2013-05-12T07:08:21Z</time>
      </trkpt>
      <trkpt lat="45.55533" lon="6.66154">
        <ele>683.20001220703</ele>
        <time>2013-05-12T07:08:27Z</time>
      </trkpt>
      <trkpt lat="45.55507" lon="6.66152">
        <ele>683.20001220703</ele>
        <time>2013-05-12T07:08:39Z</time>
      </trkpt>
      <trkpt lat="45.55494" lon="6.66135">
        <ele>683.40002441406</ele>
        <time>2013-05-12T07:08:47Z</time>
      </trkpt>
      <trkpt lat="45.55492" lon="6.66129">
        <ele>684.40002441406</ele>
        <time>2013-05-12T07:08:49Z</time>
      </trkpt>
      <trkpt lat="45.5549" lon="6.66124">
        <ele>685</ele>
        <time>2013-05-12T07:08:51Z</time>
      </trkpt>
      <trkpt lat="45.55484" lon="6.66105">
        <ele>685.40002441406</ele>
        <time>2013-05-12T07:08:58Z</time>
      </trkpt>
      <trkpt lat="45.55479" lon="6.66092">
        <ele>686.20001220703</ele>
        <time>2013-05-12T07:09:03Z</time>
      </trkpt>
      <trkpt lat="45.55477" lon="6.66087">
        <ele>687</ele>
        <time>2013-05-12T07:09:05Z</time>
      </trkpt>
      <trkpt lat="45.55469" lon="6.66074">
        <ele>687.40002441406</ele>
        <time>2013-05-12T07:09:11Z</time>
      </trkpt>
      <trkpt lat="45.55462" lon="6.66066">
        <ele>688</ele>
        <time>2013-05-12T07:09:15Z</time>
      </trkpt>
      <trkpt lat="45.55459" lon="6.66063">
        <ele>688.59997558594</ele>
        <time>2013-05-12T07:09:17Z</time>
      </trkpt>
      <trkpt lat="45.55456" lon="6.66059">
        <ele>689.40002441406</ele>
        <time>2013-05-12T07:09:19Z</time>
      </trkpt>
      <trkpt lat="45.55452" lon="6.66056">
        <ele>689.59997558594</ele>
        <time>2013-05-12T07:09:21Z</time>
      </trkpt>
      <trkpt lat="45.55443" lon="6.66044">
        <ele>690</ele>
        <time>2013-05-12T07:09:27Z</time>
      </trkpt>
      <trkpt lat="45.5544" lon="6.6604">
        <ele>690.59997558594</ele>
        <time>2013-05-12T07:09:29Z</time>
      </trkpt>
      <trkpt lat="45.55436" lon="6.66036">
        <ele>691.40002441406</ele>
        <time>2013-05-12T07:09:31Z</time>
      </trkpt>
      <trkpt lat="45.55428" lon="6.66027">
        <ele>692</ele>
        <time>2013-05-12T07:09:36Z</time>
      </trkpt>
      <trkpt lat="45.55421" lon="6.66022">
        <ele>692.40002441406</ele>
        <time>2013-05-12T07:09:40Z</time>
      </trkpt>
      <trkpt lat="45.55417" lon="6.66018">
        <ele>693.40002441406</ele>
        <time>2013-05-12T07:09:42Z</time>
      </trkpt>
      <trkpt lat="45.55414" lon="6.66015">
        <ele>694</ele>
        <time>2013-05-12T07:09:44Z</time>
      </trkpt>
      <trkpt lat="45.55408" lon="6.66007">
        <ele>694</ele>
        <time>2013-05-12T07:09:48Z</time>
      </trkpt>
      <trkpt lat="45.55394" lon="6.65992">
        <ele>695.59997558594</ele>
        <time>2013-05-12T07:09:57Z</time>
      </trkpt>
      <trkpt lat="45.55389" lon="6.65987">
        <ele>696.20001220703</ele>
        <time>2013-05-12T07:10:00Z</time>
      </trkpt>
      <trkpt lat="45.55379" lon="6.65978">
        <ele>696.40002441406</ele>
        <time>2013-05-12T07:10:06Z</time>
      </trkpt>
      <trkpt lat="45.55376" lon="6.65974">
        <ele>697.20001220703</ele>
        <time>2013-05-12T07:10:08Z</time>
      </trkpt>
      <trkpt lat="45.55373" lon="6.65971">
        <ele>697.59997558594</ele>
        <time>2013-05-12T07:10:10Z</time>
      </trkpt>
      <trkpt lat="45.5537" lon="6.65968">
        <ele>698.20001220703</ele>
        <time>2013-05-12T07:10:12Z</time>
      </trkpt>
      <trkpt lat="45.55354" lon="6.65952">
        <ele>698.40002441406</ele>
        <time>2013-05-12T07:10:22Z</time>
      </trkpt>
      <trkpt lat="45.55351" lon="6.65948">
        <ele>699.20001220703</ele>
        <time>2013-05-12T07:10:24Z</time>
      </trkpt>
      <trkpt lat="45.55347" lon="6.65945">
        <ele>700</ele>
        <time>2013-05-12T07:10:26Z</time>
      </trkpt>
      <trkpt lat="45.5534" lon="6.65936">
        <ele>700.40002441406</ele>
        <time>2013-05-12T07:10:31Z</time>
      </trkpt>
      <trkpt lat="45.55337" lon="6.65933">
        <ele>701.40002441406</ele>
        <time>2013-05-12T07:10:33Z</time>
      </trkpt>
      <trkpt lat="45.55333" lon="6.6593">
        <ele>701.59997558594</ele>
        <time>2013-05-12T07:10:35Z</time>
      </trkpt>
      <trkpt lat="45.55325" lon="6.65921">
        <ele>702.20001220703</ele>
        <time>2013-05-12T07:10:40Z</time>
      </trkpt>
      <trkpt lat="45.55316" lon="6.65912">
        <ele>702.59997558594</ele>
        <time>2013-05-12T07:10:45Z</time>
      </trkpt>
      <trkpt lat="45.55313" lon="6.65908">
        <ele>703.40002441406</ele>
        <time>2013-05-12T07:10:47Z</time>
      </trkpt>
      <trkpt lat="45.5531" lon="6.65905">
        <ele>704.40002441406</ele>
        <time>2013-05-12T07:10:49Z</time>
      </trkpt>
      <trkpt lat="45.55303" lon="6.65898">
        <ele>705.20001220703</ele>
        <time>2013-05-12T07:10:53Z</time>
      </trkpt>
      <trkpt lat="45.553" lon="6.65894">
        <ele>706</ele>
        <time>2013-05-12T07:10:55Z</time>
      </trkpt>
      <trkpt lat="45.55292" lon="6.65886">
        <ele>706.40002441406</ele>
        <time>2013-05-12T07:11:00Z</time>
      </trkpt>
      <trkpt lat="45.55284" lon="6.6588">
        <ele>707</ele>
        <time>2013-05-12T07:11:05Z</time>
      </trkpt>
      <trkpt lat="45.5528" lon="6.65878">
        <ele>707.59997558594</ele>
        <time>2013-05-12T07:11:07Z</time>
      </trkpt>
      <trkpt lat="45.55276" lon="6.65875">
        <ele>708.40002441406</ele>
        <time>2013-05-12T07:11:09Z</time>
      </trkpt>
      <trkpt lat="45.5527" lon="6.65868">
        <ele>708.40002441406</ele>
        <time>2013-05-12T07:11:13Z</time>
      </trkpt>
      <trkpt lat="45.55266" lon="6.65864">
        <ele>708.40002441406</ele>
        <time>2013-05-12T07:11:15Z</time>
      </trkpt>
      <trkpt lat="45.55259" lon="6.65857">
        <ele>708.40002441406</ele>
        <time>2013-05-12T07:11:19Z</time>
      </trkpt>
      <trkpt lat="45.55251" lon="6.65854">
        <ele>708.40002441406</ele>
        <time>2013-05-12T07:11:23Z</time>
      </trkpt>
      <trkpt lat="45.55245" lon="6.65856">
        <ele>708.40002441406</ele>
        <time>2013-05-12T07:11:26Z</time>
      </trkpt>
      <trkpt lat="45.55239" lon="6.65857">
        <ele>708.40002441406</ele>
        <time>2013-05-12T07:11:29Z</time>
      </trkpt>
      <trkpt lat="45.55229" lon="6.65861">
        <ele>708.59997558594</ele>
        <time>2013-05-12T07:11:36Z</time>
      </trkpt>
      <trkpt lat="45.55226" lon="6.65862">
        <ele>709.40002441406</ele>
        <time>2013-05-12T07:11:38Z</time>
      </trkpt>
      <trkpt lat="45.55223" lon="6.65863">
        <ele>710.40002441406</ele>
        <time>2013-05-12T07:11:40Z</time>
      </trkpt>
      <trkpt lat="45.55219" lon="6.65864">
        <ele>710.59997558594</ele>
        <time>2013-05-12T07:11:43Z</time>
      </trkpt>
      <trkpt lat="45.55215" lon="6.65866">
        <ele>711.40002441406</ele>
        <time>2013-05-12T07:11:45Z</time>
      </trkpt>
      <trkpt lat="45.55212" lon="6.65868">
        <ele>712.40002441406</ele>
        <time>2013-05-12T07:11:47Z</time>
      </trkpt>
      <trkpt lat="45.55202" lon="6.65874">
        <ele>712.59997558594</ele>
        <time>2013-05-12T07:11:53Z</time>
      </trkpt>
      <trkpt lat="45.55196" lon="6.65879">
        <ele>714.20001220703</ele>
        <time>2013-05-12T07:11:57Z</time>
      </trkpt>
      <trkpt lat="45.55194" lon="6.65881">
        <ele>714.40002441406</ele>
        <time>2013-05-12T07:11:59Z</time>
      </trkpt>
      <trkpt lat="45.55187" lon="6.65885">
        <ele>715.20001220703</ele>
        <time>2013-05-12T07:12:03Z</time>
      </trkpt>
      <trkpt lat="45.55184" lon="6.65887">
        <ele>716</ele>
        <time>2013-05-12T07:12:05Z</time>
      </trkpt>
      <trkpt lat="45.55182" lon="6.65888">
        <ele>716.40002441406</ele>
        <time>2013-05-12T07:12:07Z</time>
      </trkpt>
      <trkpt lat="45.55173" lon="6.65895">
        <ele>717</ele>
        <time>2013-05-12T07:12:13Z</time>
      </trkpt>
      <trkpt lat="45.5517" lon="6.65897">
        <ele>717.59997558594</ele>
        <time>2013-05-12T07:12:15Z</time>
      </trkpt>
      <trkpt lat="45.55168" lon="6.659">
        <ele>718.40002441406</ele>
        <time>2013-05-12T07:12:17Z</time>
      </trkpt>
      <trkpt lat="45.55161" lon="6.65906">
        <ele>719</ele>
        <time>2013-05-12T07:12:22Z</time>
      </trkpt>
      <trkpt lat="45.55158" lon="6.65908">
        <ele>719.59997558594</ele>
        <time>2013-05-12T07:12:24Z</time>
      </trkpt>
      <trkpt lat="45.55156" lon="6.65911">
        <ele>720.59997558594</ele>
        <time>2013-05-12T07:12:26Z</time>
      </trkpt>
      <trkpt lat="45.55151" lon="6.65915">
        <ele>721.20001220703</ele>
        <time>2013-05-12T07:12:29Z</time>
      </trkpt>
      <trkpt lat="45.55149" lon="6.65918">
        <ele>722</ele>
        <time>2013-05-12T07:12:31Z</time>
      </trkpt>
      <trkpt lat="45.55146" lon="6.6592">
        <ele>722.59997558594</ele>
        <time>2013-05-12T07:12:33Z</time>
      </trkpt>
      <trkpt lat="45.5514" lon="6.65926">
        <ele>723.20001220703</ele>
        <time>2013-05-12T07:12:38Z</time>
      </trkpt>
      <trkpt lat="45.55137" lon="6.65928">
        <ele>723.40002441406</ele>
        <time>2013-05-12T07:12:40Z</time>
      </trkpt>
      <trkpt lat="45.55134" lon="6.65931">
        <ele>724.20001220703</ele>
        <time>2013-05-12T07:12:42Z</time>
      </trkpt>
      <trkpt lat="45.55131" lon="6.65933">
        <ele>724.59997558594</ele>
        <time>2013-05-12T07:12:44Z</time>
      </trkpt>
      <trkpt lat="45.55128" lon="6.65936">
        <ele>725</ele>
        <time>2013-05-12T07:12:46Z</time>
      </trkpt>
      <trkpt lat="45.55125" lon="6.65938">
        <ele>726</ele>
        <time>2013-05-12T07:12:48Z</time>
      </trkpt>
      <trkpt lat="45.55122" lon="6.6594">
        <ele>726.59997558594</ele>
        <time>2013-05-12T07:12:50Z</time>
      </trkpt>
      <trkpt lat="45.55112" lon="6.6595">
        <ele>727</ele>
        <time>2013-05-12T07:12:57Z</time>
      </trkpt>
      <trkpt lat="45.55108" lon="6.65952">
        <ele>727.40002441406</ele>
        <time>2013-05-12T07:12:59Z</time>
      </trkpt>
      <trkpt lat="45.55105" lon="6.65954">
        <ele>728.20001220703</ele>
        <time>2013-05-12T07:13:01Z</time>
      </trkpt>
      <trkpt lat="45.55103" lon="6.65957">
        <ele>728.40002441406</ele>
        <time>2013-05-12T07:13:03Z</time>
      </trkpt>
      <trkpt lat="45.55101" lon="6.65959">
        <ele>729</ele>
        <time>2013-05-12T07:13:05Z</time>
      </trkpt>
      <trkpt lat="45.55096" lon="6.65963">
        <ele>729.40002441406</ele>
        <time>2013-05-12T07:13:08Z</time>
      </trkpt>
      <trkpt lat="45.55094" lon="6.65965">
        <ele>730.40002441406</ele>
        <time>2013-05-12T07:13:10Z</time>
      </trkpt>
      <trkpt lat="45.5509" lon="6.65967">
        <ele>731</ele>
        <time>2013-05-12T07:13:12Z</time>
      </trkpt>
      <trkpt lat="45.55084" lon="6.65972">
        <ele>731.40002441406</ele>
        <time>2013-05-12T07:13:16Z</time>
      </trkpt>
      <trkpt lat="45.55082" lon="6.65974">
        <ele>732.40002441406</ele>
        <time>2013-05-12T07:13:18Z</time>
      </trkpt>
      <trkpt lat="45.55079" lon="6.65976">
        <ele>733.20001220703</ele>
        <time>2013-05-12T07:13:20Z</time>
      </trkpt>
      <trkpt lat="45.55073" lon="6.6598">
        <ele>733.40002441406</ele>
        <time>2013-05-12T07:13:24Z</time>
      </trkpt>
      <trkpt lat="45.5507" lon="6.65984">
        <ele>734.20001220703</ele>
        <time>2013-05-12T07:13:26Z</time>
      </trkpt>
      <trkpt lat="45.55068" lon="6.65985">
        <ele>735</ele>
        <time>2013-05-12T07:13:28Z</time>
      </trkpt>
      <trkpt lat="45.55058" lon="6.65993">
        <ele>736</ele>
        <time>2013-05-12T07:13:35Z</time>
      </trkpt>
      <trkpt lat="45.55055" lon="6.65995">
        <ele>736.59997558594</ele>
        <time>2013-05-12T07:13:37Z</time>
      </trkpt>
      <trkpt lat="45.55052" lon="6.65997">
        <ele>737.40002441406</ele>
        <time>2013-05-12T07:13:39Z</time>
      </trkpt>
      <trkpt lat="45.55049" lon="6.65999">
        <ele>738</ele>
        <time>2013-05-12T07:13:41Z</time>
      </trkpt>
      <trkpt lat="45.55045" lon="6.66002">
        <ele>738.59997558594</ele>
        <time>2013-05-12T07:13:43Z</time>
      </trkpt>
      <trkpt lat="45.55042" lon="6.66005">
        <ele>739.40002441406</ele>
        <time>2013-05-12T07:13:45Z</time>
      </trkpt>
      <trkpt lat="45.55033" lon="6.66013">
        <ele>740</ele>
        <time>2013-05-12T07:13:51Z</time>
      </trkpt>
      <trkpt lat="45.5503" lon="6.66015">
        <ele>740.59997558594</ele>
        <time>2013-05-12T07:13:53Z</time>
      </trkpt>
      <trkpt lat="45.55027" lon="6.66018">
        <ele>741.40002441406</ele>
        <time>2013-05-12T07:13:55Z</time>
      </trkpt>
      <trkpt lat="45.55019" lon="6.66025">
        <ele>742.20001220703</ele>
        <time>2013-05-12T07:14:00Z</time>
      </trkpt>
      <trkpt lat="45.55016" lon="6.66027">
        <ele>743</ele>
        <time>2013-05-12T07:14:02Z</time>
      </trkpt>
      <trkpt lat="45.55011" lon="6.66031">
        <ele>743.40002441406</ele>
        <time>2013-05-12T07:14:05Z</time>
      </trkpt>
      <trkpt lat="45.55008" lon="6.66033">
        <ele>744.20001220703</ele>
        <time>2013-05-12T07:14:08Z</time>
      </trkpt>
      <trkpt lat="45.55006" lon="6.66035">
        <ele>745</ele>
        <time>2013-05-12T07:14:10Z</time>
      </trkpt>
      <trkpt lat="45.55003" lon="6.66036">
        <ele>745.40002441406</ele>
        <time>2013-05-12T07:14:12Z</time>
      </trkpt>
      <trkpt lat="45.54999" lon="6.66038">
        <ele>746</ele>
        <time>2013-05-12T07:14:14Z</time>
      </trkpt>
      <trkpt lat="45.54996" lon="6.66039">
        <ele>746.59997558594</ele>
        <time>2013-05-12T07:14:16Z</time>
      </trkpt>
      <trkpt lat="45.54992" lon="6.66041">
        <ele>747.40002441406</ele>
        <time>2013-05-12T07:14:18Z</time>
      </trkpt>
      <trkpt lat="45.54986" lon="6.66043">
        <ele>748.20001220703</ele>
        <time>2013-05-12T07:14:22Z</time>
      </trkpt>
      <trkpt lat="45.54983" lon="6.66045">
        <ele>749</ele>
        <time>2013-05-12T07:14:24Z</time>
      </trkpt>
      <trkpt lat="45.54979" lon="6.66046">
        <ele>749.59997558594</ele>
        <time>2013-05-12T07:14:26Z</time>
      </trkpt>
      <trkpt lat="45.54973" lon="6.66048">
        <ele>750.20001220703</ele>
        <time>2013-05-12T07:14:30Z</time>
      </trkpt>
      <trkpt lat="45.5497" lon="6.66049">
        <ele>751</ele>
        <time>2013-05-12T07:14:32Z</time>
      </trkpt>
      <trkpt lat="45.54966" lon="6.66051">
        <ele>751.59997558594</ele>
        <time>2013-05-12T07:14:34Z</time>
      </trkpt>
      <trkpt lat="45.54955" lon="6.66057">
        <ele>752.40002441406</ele>
        <time>2013-05-12T07:14:40Z</time>
      </trkpt>
      <trkpt lat="45.54951" lon="6.66059">
        <ele>753.20001220703</ele>
        <time>2013-05-12T07:14:42Z</time>
      </trkpt>
      <trkpt lat="45.54947" lon="6.66061">
        <ele>753.59997558594</ele>
        <time>2013-05-12T07:14:44Z</time>
      </trkpt>
      <trkpt lat="45.54937" lon="6.66067">
        <ele>754.40002441406</ele>
        <time>2013-05-12T07:14:51Z</time>
      </trkpt>
      <trkpt lat="45.54934" lon="6.66069">
        <ele>755.20001220703</ele>
        <time>2013-05-12T07:14:53Z</time>
      </trkpt>
      <trkpt lat="45.54931" lon="6.66072">
        <ele>756</ele>
        <time>2013-05-12T07:14:55Z</time>
      </trkpt>
      <trkpt lat="45.54926" lon="6.66078">
        <ele>756.59997558594</ele>
        <time>2013-05-12T07:14:59Z</time>
      </trkpt>
      <trkpt lat="45.54922" lon="6.66081">
        <ele>757.40002441406</ele>
        <time>2013-05-12T07:15:01Z</time>
      </trkpt>
      <trkpt lat="45.54917" lon="6.66085">
        <ele>758</ele>
        <time>2013-05-12T07:15:04Z</time>
      </trkpt>
      <trkpt lat="45.54911" lon="6.6609">
        <ele>758.59997558594</ele>
        <time>2013-05-12T07:15:09Z</time>
      </trkpt>
      <trkpt lat="45.54908" lon="6.66092">
        <ele>759.40002441406</ele>
        <time>2013-05-12T07:15:11Z</time>
      </trkpt>
      <trkpt lat="45.549" lon="6.66099">
        <ele>760.59997558594</ele>
        <time>2013-05-12T07:15:17Z</time>
      </trkpt>
      <trkpt lat="45.54898" lon="6.661">
        <ele>761.59997558594</ele>
        <time>2013-05-12T07:15:19Z</time>
      </trkpt>
      <trkpt lat="45.54895" lon="6.66103">
        <ele>762.40002441406</ele>
        <time>2013-05-12T07:15:21Z</time>
      </trkpt>
      <trkpt lat="45.54893" lon="6.66106">
        <ele>763.40002441406</ele>
        <time>2013-05-12T07:15:24Z</time>
      </trkpt>
      <trkpt lat="45.54891" lon="6.66107">
        <ele>764.40002441406</ele>
        <time>2013-05-12T07:15:26Z</time>
      </trkpt>
      <trkpt lat="45.54887" lon="6.66106">
        <ele>764.40002441406</ele>
        <time>2013-05-12T07:15:29Z</time>
      </trkpt>
      <trkpt lat="45.54884" lon="6.66102">
        <ele>765.40002441406</ele>
        <time>2013-05-12T07:15:31Z</time>
      </trkpt>
      <trkpt lat="45.54882" lon="6.66099">
        <ele>766.20001220703</ele>
        <time>2013-05-12T07:15:33Z</time>
      </trkpt>
      <trkpt lat="45.54874" lon="6.66092">
        <ele>766.40002441406</ele>
        <time>2013-05-12T07:15:38Z</time>
      </trkpt>
      <trkpt lat="45.54863" lon="6.66086">
        <ele>766.40002441406</ele>
        <time>2013-05-12T07:15:46Z</time>
      </trkpt>
      <trkpt lat="45.5486" lon="6.66089">
        <ele>767</ele>
        <time>2013-05-12T07:15:49Z</time>
      </trkpt>
      <trkpt lat="45.5486" lon="6.66091">
        <ele>767.59997558594</ele>
        <time>2013-05-12T07:15:51Z</time>
      </trkpt>
      <trkpt lat="45.5486" lon="6.66094">
        <ele>768.40002441406</ele>
        <time>2013-05-12T07:15:53Z</time>
      </trkpt>
      <trkpt lat="45.5486" lon="6.66099">
        <ele>768.40002441406</ele>
        <time>2013-05-12T07:15:56Z</time>
      </trkpt>
      <trkpt lat="45.54859" lon="6.66106">
        <ele>768.40002441406</ele>
        <time>2013-05-12T07:16:00Z</time>
      </trkpt>
      <trkpt lat="45.54858" lon="6.6611">
        <ele>768.59997558594</ele>
        <time>2013-05-12T07:16:04Z</time>
      </trkpt>
      <trkpt lat="45.54859" lon="6.66113">
        <ele>769.59997558594</ele>
        <time>2013-05-12T07:16:06Z</time>
      </trkpt>
      <trkpt lat="45.54859" lon="6.66115">
        <ele>770.40002441406</ele>
        <time>2013-05-12T07:16:08Z</time>
      </trkpt>
      <trkpt lat="45.54859" lon="6.66116">
        <ele>770.40002441406</ele>
        <time>2013-05-12T07:16:10Z</time>
      </trkpt>
      <trkpt lat="45.54859" lon="6.66118">
        <ele>770.40002441406</ele>
        <time>2013-05-12T07:16:22Z</time>
      </trkpt>
      <trkpt lat="45.54859" lon="6.6612">
        <ele>770.40002441406</ele>
        <time>2013-05-12T07:16:32Z</time>
      </trkpt>
      <trkpt lat="45.54856" lon="6.66122">
        <ele>770.40002441406</ele>
        <time>2013-05-12T07:16:38Z</time>
      </trkpt>
      <trkpt lat="45.54855" lon="6.66124">
        <ele>770.40002441406</ele>
        <time>2013-05-12T07:16:40Z</time>
      </trkpt>
      <trkpt lat="45.54853" lon="6.66126">
        <ele>770.40002441406</ele>
        <time>2013-05-12T07:16:43Z</time>
      </trkpt>
      <trkpt lat="45.54852" lon="6.66127">
        <ele>770.40002441406</ele>
        <time>2013-05-12T07:16:46Z</time>
      </trkpt>
      <trkpt lat="45.54849" lon="6.6613">
        <ele>771.40002441406</ele>
        <time>2013-05-12T07:16:51Z</time>
      </trkpt>
      <trkpt lat="45.54846" lon="6.6613">
        <ele>772.20001220703</ele>
        <time>2013-05-12T07:16:53Z</time>
      </trkpt>
      <trkpt lat="45.54846" lon="6.6613">
        <ele>772.40002441406</ele>
        <time>2013-05-12T07:16:55Z</time>
      </trkpt>
      <trkpt lat="45.54841" lon="6.66132">
        <ele>772.40002441406</ele>
        <time>2013-05-12T07:17:03Z</time>
      </trkpt>
      <trkpt lat="45.54838" lon="6.6613">
        <ele>773</ele>
        <time>2013-05-12T07:17:07Z</time>
      </trkpt>
      <trkpt lat="45.54834" lon="6.66131">
        <ele>773.59997558594</ele>
        <time>2013-05-12T07:17:09Z</time>
      </trkpt>
      <trkpt lat="45.54832" lon="6.66133">
        <ele>774.40002441406</ele>
        <time>2013-05-12T07:17:11Z</time>
      </trkpt>
      <trkpt lat="45.54829" lon="6.66136">
        <ele>775.40002441406</ele>
        <time>2013-05-12T07:17:15Z</time>
      </trkpt>
      <trkpt lat="45.54828" lon="6.66137">
        <ele>776.20001220703</ele>
        <time>2013-05-12T07:17:17Z</time>
      </trkpt>
      <trkpt lat="45.54826" lon="6.66139">
        <ele>777</ele>
        <time>2013-05-12T07:17:20Z</time>
      </trkpt>
      <trkpt lat="45.54824" lon="6.66141">
        <ele>778.40002441406</ele>
        <time>2013-05-12T07:17:24Z</time>
      </trkpt>
      <trkpt lat="45.54821" lon="6.66144">
        <ele>778.59997558594</ele>
        <time>2013-05-12T07:17:30Z</time>
      </trkpt>
      <trkpt lat="45.54819" lon="6.66148">
        <ele>779.40002441406</ele>
        <time>2013-05-12T07:17:34Z</time>
      </trkpt>
      <trkpt lat="45.54818" lon="6.6615">
        <ele>780</ele>
        <time>2013-05-12T07:17:36Z</time>
      </trkpt>
      <trkpt lat="45.54818" lon="6.66149">
        <ele>780.59997558594</ele>
        <time>2013-05-12T07:17:38Z</time>
      </trkpt>
      <trkpt lat="45.54814" lon="6.66154">
        <ele>781.59997558594</ele>
        <time>2013-05-12T07:17:42Z</time>
      </trkpt>
      <trkpt lat="45.54812" lon="6.66156">
        <ele>782.40002441406</ele>
        <time>2013-05-12T07:17:44Z</time>
      </trkpt>
      <trkpt lat="45.5481" lon="6.66153">
        <ele>783.40002441406</ele>
        <time>2013-05-12T07:17:46Z</time>
      </trkpt>
      <trkpt lat="45.54808" lon="6.66153">
        <ele>784.40002441406</ele>
        <time>2013-05-12T07:17:48Z</time>
      </trkpt>
      <trkpt lat="45.54806" lon="6.66154">
        <ele>785.40002441406</ele>
        <time>2013-05-12T07:17:50Z</time>
      </trkpt>
      <trkpt lat="45.54802" lon="6.66156">
        <ele>786.40002441406</ele>
        <time>2013-05-12T07:17:52Z</time>
      </trkpt>
      <trkpt lat="45.54801" lon="6.66156">
        <ele>787.40002441406</ele>
        <time>2013-05-12T07:17:54Z</time>
      </trkpt>
      <trkpt lat="45.548" lon="6.66156">
        <ele>788.20001220703</ele>
        <time>2013-05-12T07:17:56Z</time>
      </trkpt>
      <trkpt lat="45.54798" lon="6.66157">
        <ele>789.40002441406</ele>
        <time>2013-05-12T07:17:58Z</time>
      </trkpt>
      <trkpt lat="45.54797" lon="6.66158">
        <ele>790.40002441406</ele>
        <time>2013-05-12T07:18:00Z</time>
      </trkpt>
      <trkpt lat="45.54795" lon="6.6616">
        <ele>791.20001220703</ele>
        <time>2013-05-12T07:18:02Z</time>
      </trkpt>
      <trkpt lat="45.54792" lon="6.66163">
        <ele>791.40002441406</ele>
        <time>2013-05-12T07:18:07Z</time>
      </trkpt>
      <trkpt lat="45.5479" lon="6.66163">
        <ele>792.40002441406</ele>
        <time>2013-05-12T07:18:09Z</time>
      </trkpt>
      <trkpt lat="45.54789" lon="6.66161">
        <ele>793.40002441406</ele>
        <time>2013-05-12T07:18:11Z</time>
      </trkpt>
      <trkpt lat="45.54788" lon="6.66158">
        <ele>793.59997558594</ele>
        <time>2013-05-12T07:18:16Z</time>
      </trkpt>
      <trkpt lat="45.54787" lon="6.66157">
        <ele>794.40002441406</ele>
        <time>2013-05-12T07:18:18Z</time>
      </trkpt>
      <trkpt lat="45.54786" lon="6.66156">
        <ele>795.40002441406</ele>
        <time>2013-05-12T07:18:20Z</time>
      </trkpt>
      <trkpt lat="45.54783" lon="6.66154">
        <ele>796.20001220703</ele>
        <time>2013-05-12T07:18:25Z</time>
      </trkpt>
      <trkpt lat="45.54784" lon="6.66155">
        <ele>797.20001220703</ele>
        <time>2013-05-12T07:18:27Z</time>
      </trkpt>
      <trkpt lat="45.54783" lon="6.66155">
        <ele>797.40002441406</ele>
        <time>2013-05-12T07:18:30Z</time>
      </trkpt>
      <trkpt lat="45.54781" lon="6.66158">
        <ele>798</ele>
        <time>2013-05-12T07:18:33Z</time>
      </trkpt>
      <trkpt lat="45.5478" lon="6.66157">
        <ele>798.59997558594</ele>
        <time>2013-05-12T07:18:35Z</time>
      </trkpt>
      <trkpt lat="45.54779" lon="6.66158">
        <ele>799.40002441406</ele>
        <time>2013-05-12T07:18:37Z</time>
      </trkpt>
      <trkpt lat="45.54778" lon="6.66161">
        <ele>800.20001220703</ele>
        <time>2013-05-12T07:18:41Z</time>
      </trkpt>
      <trkpt lat="45.54778" lon="6.66162">
        <ele>801</ele>
        <time>2013-05-12T07:18:43Z</time>
      </trkpt>
      <trkpt lat="45.54776" lon="6.66162">
        <ele>801.59997558594</ele>
        <time>2013-05-12T07:18:45Z</time>
      </trkpt>
      <trkpt lat="45.54775" lon="6.66159">
        <ele>802.40002441406</ele>
        <time>2013-05-12T07:18:49Z</time>
      </trkpt>
      <trkpt lat="45.54777" lon="6.6616">
        <ele>803.20001220703</ele>
        <time>2013-05-12T07:18:51Z</time>
      </trkpt>
      <trkpt lat="45.54773" lon="6.6616">
        <ele>803.59997558594</ele>
        <time>2013-05-12T07:18:53Z</time>
      </trkpt>
      <trkpt lat="45.54771" lon="6.66166">
        <ele>804.40002441406</ele>
        <time>2013-05-12T07:18:58Z</time>
      </trkpt>
      <trkpt lat="45.54767" lon="6.66171">
        <ele>806</ele>
        <time>2013-05-12T07:19:04Z</time>
      </trkpt>
      <trkpt lat="45.54767" lon="6.6617">
        <ele>806.59997558594</ele>
        <time>2013-05-12T07:19:06Z</time>
      </trkpt>
      <trkpt lat="45.54765" lon="6.66173">
        <ele>807.59997558594</ele>
        <time>2013-05-12T07:19:08Z</time>
      </trkpt>
      <trkpt lat="45.54763" lon="6.66177">
        <ele>807.59997558594</ele>
        <time>2013-05-12T07:19:12Z</time>
      </trkpt>
      <trkpt lat="45.5476" lon="6.66178">
        <ele>808.40002441406</ele>
        <time>2013-05-12T07:19:15Z</time>
      </trkpt>
      <trkpt lat="45.54759" lon="6.66179">
        <ele>809.40002441406</ele>
        <time>2013-05-12T07:19:17Z</time>
      </trkpt>
      <trkpt lat="45.54755" lon="6.66183">
        <ele>809.59997558594</ele>
        <time>2013-05-12T07:19:21Z</time>
      </trkpt>
      <trkpt lat="45.5475" lon="6.66185">
        <ele>810.20001220703</ele>
        <time>2013-05-12T07:19:25Z</time>
      </trkpt>
      <trkpt lat="45.54747" lon="6.66185">
        <ele>811</ele>
        <time>2013-05-12T07:19:27Z</time>
      </trkpt>
      <trkpt lat="45.54744" lon="6.66188">
        <ele>812</ele>
        <time>2013-05-12T07:19:29Z</time>
      </trkpt>
      <trkpt lat="45.54738" lon="6.66194">
        <ele>812.20001220703</ele>
        <time>2013-05-12T07:19:34Z</time>
      </trkpt>
      <trkpt lat="45.54737" lon="6.66195">
        <ele>812.59997558594</ele>
        <time>2013-05-12T07:19:36Z</time>
      </trkpt>
      <trkpt lat="45.54734" lon="6.66198">
        <ele>813.40002441406</ele>
        <time>2013-05-12T07:19:38Z</time>
      </trkpt>
      <trkpt lat="45.54731" lon="6.662">
        <ele>814.40002441406</ele>
        <time>2013-05-12T07:19:40Z</time>
      </trkpt>
      <trkpt lat="45.54728" lon="6.66201">
        <ele>815.20001220703</ele>
        <time>2013-05-12T07:19:42Z</time>
      </trkpt>
      <trkpt lat="45.54727" lon="6.66199">
        <ele>816.20001220703</ele>
        <time>2013-05-12T07:19:44Z</time>
      </trkpt>
      <trkpt lat="45.54729" lon="6.66197">
        <ele>816.40002441406</ele>
        <time>2013-05-12T07:19:48Z</time>
      </trkpt>
      <trkpt lat="45.5473" lon="6.66196">
        <ele>817.40002441406</ele>
        <time>2013-05-12T07:19:50Z</time>
      </trkpt>
      <trkpt lat="45.54731" lon="6.66194">
        <ele>818.20001220703</ele>
        <time>2013-05-12T07:19:52Z</time>
      </trkpt>
      <trkpt lat="45.54734" lon="6.66188">
        <ele>818.20001220703</ele>
        <time>2013-05-12T07:19:58Z</time>
      </trkpt>
      <trkpt lat="45.54736" lon="6.66187">
        <ele>819.20001220703</ele>
        <time>2013-05-12T07:20:00Z</time>
      </trkpt>
      <trkpt lat="45.54737" lon="6.66185">
        <ele>820</ele>
        <time>2013-05-12T07:20:02Z</time>
      </trkpt>
      <trkpt lat="45.54738" lon="6.66181">
        <ele>820.40002441406</ele>
        <time>2013-05-12T07:20:05Z</time>
      </trkpt>
      <trkpt lat="45.54738" lon="6.66179">
        <ele>821.40002441406</ele>
        <time>2013-05-12T07:20:07Z</time>
      </trkpt>
      <trkpt lat="45.54739" lon="6.66177">
        <ele>822.20001220703</ele>
        <time>2013-05-12T07:20:09Z</time>
      </trkpt>
      <trkpt lat="45.54738" lon="6.66173">
        <ele>822.40002441406</ele>
        <time>2013-05-12T07:20:11Z</time>
      </trkpt>
      <trkpt lat="45.54738" lon="6.66169">
        <ele>823.40002441406</ele>
        <time>2013-05-12T07:20:14Z</time>
      </trkpt>
      <trkpt lat="45.54738" lon="6.66167">
        <ele>824.20001220703</ele>
        <time>2013-05-12T07:20:16Z</time>
      </trkpt>
      <trkpt lat="45.54738" lon="6.66164">
        <ele>824.59997558594</ele>
        <time>2013-05-12T07:20:19Z</time>
      </trkpt>
      <trkpt lat="45.54738" lon="6.66162">
        <ele>825.40002441406</ele>
        <time>2013-05-12T07:20:21Z</time>
      </trkpt>
      <trkpt lat="45.54739" lon="6.66161">
        <ele>826.20001220703</ele>
        <time>2013-05-12T07:20:23Z</time>
      </trkpt>
      <trkpt lat="45.54739" lon="6.66157">
        <ele>827</ele>
        <time>2013-05-12T07:20:26Z</time>
      </trkpt>
      <trkpt lat="45.54738" lon="6.66156">
        <ele>827.59997558594</ele>
        <time>2013-05-12T07:20:28Z</time>
      </trkpt>
      <trkpt lat="45.54736" lon="6.66154">
        <ele>828.40002441406</ele>
        <time>2013-05-12T07:20:30Z</time>
      </trkpt>
      <trkpt lat="45.54734" lon="6.66154">
        <ele>829</ele>
        <time>2013-05-12T07:20:34Z</time>
      </trkpt>
      <trkpt lat="45.54731" lon="6.66157">
        <ele>830.40002441406</ele>
        <time>2013-05-12T07:20:38Z</time>
      </trkpt>
      <trkpt lat="45.5473" lon="6.66159">
        <ele>831</ele>
        <time>2013-05-12T07:20:41Z</time>
      </trkpt>
      <trkpt lat="45.54729" lon="6.6616">
        <ele>831.59997558594</ele>
        <time>2013-05-12T07:20:43Z</time>
      </trkpt>
      <trkpt lat="45.54729" lon="6.6616">
        <ele>832.40002441406</ele>
        <time>2013-05-12T07:20:45Z</time>
      </trkpt>
      <trkpt lat="45.54727" lon="6.66161">
        <ele>832.59997558594</ele>
        <time>2013-05-12T07:20:48Z</time>
      </trkpt>
      <trkpt lat="45.54725" lon="6.66162">
        <ele>833.40002441406</ele>
        <time>2013-05-12T07:20:50Z</time>
      </trkpt>
      <trkpt lat="45.54724" lon="6.66162">
        <ele>834.40002441406</ele>
        <time>2013-05-12T07:20:52Z</time>
      </trkpt>
      <trkpt lat="45.54724" lon="6.66161">
        <ele>835</ele>
        <time>2013-05-12T07:20:54Z</time>
      </trkpt>
      <trkpt lat="45.54721" lon="6.66161">
        <ele>835.40002441406</ele>
        <time>2013-05-12T07:20:58Z</time>
      </trkpt>
      <trkpt lat="45.54722" lon="6.6616">
        <ele>836.20001220703</ele>
        <time>2013-05-12T07:21:00Z</time>
      </trkpt>
      <trkpt lat="45.54722" lon="6.6616">
        <ele>837</ele>
        <time>2013-05-12T07:21:02Z</time>
      </trkpt>
      <trkpt lat="45.54723" lon="6.66156">
        <ele>837.20001220703</ele>
        <time>2013-05-12T07:21:08Z</time>
      </trkpt>
      <trkpt lat="45.54723" lon="6.66155">
        <ele>838.20001220703</ele>
        <time>2013-05-12T07:21:10Z</time>
      </trkpt>
      <trkpt lat="45.54724" lon="6.66154">
        <ele>839</ele>
        <time>2013-05-12T07:21:12Z</time>
      </trkpt>
      <trkpt lat="45.54722" lon="6.66153">
        <ele>839.40002441406</ele>
        <time>2013-05-12T07:21:15Z</time>
      </trkpt>
      <trkpt lat="45.54722" lon="6.66152">
        <ele>840.40002441406</ele>
        <time>2013-05-12T07:21:17Z</time>
      </trkpt>
      <trkpt lat="45.5472" lon="6.66152">
        <ele>841.20001220703</ele>
        <time>2013-05-12T07:21:19Z</time>
      </trkpt>
      <trkpt lat="45.54717" lon="6.66151">
        <ele>841.40002441406</ele>
        <time>2013-05-12T07:21:24Z</time>
      </trkpt>
      <trkpt lat="45.54716" lon="6.66151">
        <ele>842</ele>
        <time>2013-05-12T07:21:26Z</time>
      </trkpt>
      <trkpt lat="45.54715" lon="6.66151">
        <ele>842.40002441406</ele>
        <time>2013-05-12T07:21:28Z</time>
      </trkpt>
      <trkpt lat="45.54714" lon="6.66151">
        <ele>843.20001220703</ele>
        <time>2013-05-12T07:21:30Z</time>
      </trkpt>
      <trkpt lat="45.54711" lon="6.66153">
        <ele>844</ele>
        <time>2013-05-12T07:21:33Z</time>
      </trkpt>
      <trkpt lat="45.5471" lon="6.66152">
        <ele>844.59997558594</ele>
        <time>2013-05-12T07:21:35Z</time>
      </trkpt>
      <trkpt lat="45.54709" lon="6.66152">
        <ele>845.40002441406</ele>
        <time>2013-05-12T07:21:37Z</time>
      </trkpt>
      <trkpt lat="45.5471" lon="6.6615">
        <ele>846</ele>
        <time>2013-05-12T07:21:41Z</time>
      </trkpt>
      <trkpt lat="45.5471" lon="6.66149">
        <ele>846.59997558594</ele>
        <time>2013-05-12T07:21:43Z</time>
      </trkpt>
      <trkpt lat="45.54711" lon="6.66148">
        <ele>847.40002441406</ele>
        <time>2013-05-12T07:21:45Z</time>
      </trkpt>
      <trkpt lat="45.54715" lon="6.66145">
        <ele>847.59997558594</ele>
        <time>2013-05-12T07:21:51Z</time>
      </trkpt>
      <trkpt lat="45.54717" lon="6.66144">
        <ele>848.40002441406</ele>
        <time>2013-05-12T07:21:53Z</time>
      </trkpt>
      <trkpt lat="45.54718" lon="6.66142">
        <ele>849.40002441406</ele>
        <time>2013-05-12T07:21:55Z</time>
      </trkpt>
      <trkpt lat="45.5472" lon="6.6614">
        <ele>849.40002441406</ele>
        <time>2013-05-12T07:21:58Z</time>
      </trkpt>
      <trkpt lat="45.54721" lon="6.66138">
        <ele>849.59997558594</ele>
        <time>2013-05-12T07:22:00Z</time>
      </trkpt>
      <trkpt lat="45.54722" lon="6.66136">
        <ele>850.40002441406</ele>
        <time>2013-05-12T07:22:02Z</time>
      </trkpt>
      <trkpt lat="45.54722" lon="6.66132">
        <ele>851.40002441406</ele>
        <time>2013-05-12T07:22:04Z</time>
      </trkpt>
      <trkpt lat="45.54721" lon="6.66128">
        <ele>851.40002441406</ele>
        <time>2013-05-12T07:22:07Z</time>
      </trkpt>
      <trkpt lat="45.54721" lon="6.66124">
        <ele>853.20001220703</ele>
        <time>2013-05-12T07:22:11Z</time>
      </trkpt>
      <trkpt lat="45.5472" lon="6.6612">
        <ele>853.40002441406</ele>
        <time>2013-05-12T07:22:14Z</time>
      </trkpt>
      <trkpt lat="45.54719" lon="6.66116">
        <ele>854</ele>
        <time>2013-05-12T07:22:17Z</time>
      </trkpt>
      <trkpt lat="45.54719" lon="6.66114">
        <ele>854.59997558594</ele>
        <time>2013-05-12T07:22:19Z</time>
      </trkpt>
      <trkpt lat="45.54718" lon="6.66115">
        <ele>855.40002441406</ele>
        <time>2013-05-12T07:22:21Z</time>
      </trkpt>
      <trkpt lat="45.54716" lon="6.66115">
        <ele>856.40002441406</ele>
        <time>2013-05-12T07:22:24Z</time>
      </trkpt>
      <trkpt lat="45.54715" lon="6.66115">
        <ele>857.20001220703</ele>
        <time>2013-05-12T07:22:26Z</time>
      </trkpt>
      <trkpt lat="45.54712" lon="6.66118">
        <ele>857.40002441406</ele>
        <time>2013-05-12T07:22:31Z</time>
      </trkpt>
      <trkpt lat="45.5471" lon="6.66119">
        <ele>858.40002441406</ele>
        <time>2013-05-12T07:22:34Z</time>
      </trkpt>
      <trkpt lat="45.54709" lon="6.66119">
        <ele>859.20001220703</ele>
        <time>2013-05-12T07:22:36Z</time>
      </trkpt>
      <trkpt lat="45.54707" lon="6.66119">
        <ele>859.40002441406</ele>
        <time>2013-05-12T07:22:38Z</time>
      </trkpt>
      <trkpt lat="45.54705" lon="6.66115">
        <ele>860.40002441406</ele>
        <time>2013-05-12T07:22:43Z</time>
      </trkpt>
      <trkpt lat="45.54705" lon="6.66114">
        <ele>861.40002441406</ele>
        <time>2013-05-12T07:22:45Z</time>
      </trkpt>
      <trkpt lat="45.54706" lon="6.66111">
        <ele>861.59997558594</ele>
        <time>2013-05-12T07:22:47Z</time>
      </trkpt>
      <trkpt lat="45.54706" lon="6.66108">
        <ele>862.40002441406</ele>
        <time>2013-05-12T07:22:49Z</time>
      </trkpt>
      <trkpt lat="45.54707" lon="6.66106">
        <ele>863.40002441406</ele>
        <time>2013-05-12T07:22:51Z</time>
      </trkpt>
      <trkpt lat="45.54706" lon="6.66103">
        <ele>863.59997558594</ele>
        <time>2013-05-12T07:22:53Z</time>
      </trkpt>
      <trkpt lat="45.54705" lon="6.66101">
        <ele>864</ele>
        <time>2013-05-12T07:22:56Z</time>
      </trkpt>
      <trkpt lat="45.54704" lon="6.661">
        <ele>864.59997558594</ele>
        <time>2013-05-12T07:22:58Z</time>
      </trkpt>
      <trkpt lat="45.54703" lon="6.66097">
        <ele>865.40002441406</ele>
        <time>2013-05-12T07:23:00Z</time>
      </trkpt>
      <trkpt lat="45.54702" lon="6.66095">
        <ele>866</ele>
        <time>2013-05-12T07:23:02Z</time>
      </trkpt>
      <trkpt lat="45.547" lon="6.66091">
        <ele>866.40002441406</ele>
        <time>2013-05-12T07:23:07Z</time>
      </trkpt>
      <trkpt lat="45.547" lon="6.66089">
        <ele>867.40002441406</ele>
        <time>2013-05-12T07:23:09Z</time>
      </trkpt>
      <trkpt lat="45.54699" lon="6.66089">
        <ele>868.20001220703</ele>
        <time>2013-05-12T07:23:11Z</time>
      </trkpt>
      <trkpt lat="45.54698" lon="6.66087">
        <ele>869.20001220703</ele>
        <time>2013-05-12T07:23:13Z</time>
      </trkpt>
      <trkpt lat="45.54697" lon="6.66085">
        <ele>870</ele>
        <time>2013-05-12T07:23:15Z</time>
      </trkpt>
      <trkpt lat="45.54694" lon="6.66083">
        <ele>870.40002441406</ele>
        <time>2013-05-12T07:23:18Z</time>
      </trkpt>
      <trkpt lat="45.54692" lon="6.66081">
        <ele>871.40002441406</ele>
        <time>2013-05-12T07:23:20Z</time>
      </trkpt>
      <trkpt lat="45.5469" lon="6.66081">
        <ele>872</ele>
        <time>2013-05-12T07:23:22Z</time>
      </trkpt>
      <trkpt lat="45.54688" lon="6.66079">
        <ele>872.40002441406</ele>
        <time>2013-05-12T07:23:25Z</time>
      </trkpt>
      <trkpt lat="45.54685" lon="6.66079">
        <ele>873</ele>
        <time>2013-05-12T07:23:27Z</time>
      </trkpt>
      <trkpt lat="45.54683" lon="6.66079">
        <ele>874</ele>
        <time>2013-05-12T07:23:29Z</time>
      </trkpt>
      <trkpt lat="45.54681" lon="6.66077">
        <ele>874.40002441406</ele>
        <time>2013-05-12T07:23:32Z</time>
      </trkpt>
      <trkpt lat="45.54679" lon="6.66076">
        <ele>875.40002441406</ele>
        <time>2013-05-12T07:23:34Z</time>
      </trkpt>
      <trkpt lat="45.54677" lon="6.66075">
        <ele>876.20001220703</ele>
        <time>2013-05-12T07:23:36Z</time>
      </trkpt>
      <trkpt lat="45.54673" lon="6.66071">
        <ele>877.59997558594</ele>
        <time>2013-05-12T07:23:41Z</time>
      </trkpt>
      <trkpt lat="45.54671" lon="6.6607">
        <ele>878.20001220703</ele>
        <time>2013-05-12T07:23:43Z</time>
      </trkpt>
      <trkpt lat="45.54669" lon="6.66069">
        <ele>878.40002441406</ele>
        <time>2013-05-12T07:23:45Z</time>
      </trkpt>
      <trkpt lat="45.54667" lon="6.66068">
        <ele>879.40002441406</ele>
        <time>2013-05-12T07:23:47Z</time>
      </trkpt>
      <trkpt lat="45.54665" lon="6.66067">
        <ele>880.20001220703</ele>
        <time>2013-05-12T07:23:49Z</time>
      </trkpt>
      <trkpt lat="45.54663" lon="6.66065">
        <ele>880.20001220703</ele>
        <time>2013-05-12T07:23:52Z</time>
      </trkpt>
      <trkpt lat="45.54661" lon="6.66061">
        <ele>880.59997558594</ele>
        <time>2013-05-12T07:23:55Z</time>
      </trkpt>
      <trkpt lat="45.54659" lon="6.6606">
        <ele>881.40002441406</ele>
        <time>2013-05-12T07:23:57Z</time>
      </trkpt>
      <trkpt lat="45.54658" lon="6.66057">
        <ele>882.40002441406</ele>
        <time>2013-05-12T07:23:59Z</time>
      </trkpt>
      <trkpt lat="45.54656" lon="6.66055">
        <ele>882.40002441406</ele>
        <time>2013-05-12T07:24:02Z</time>
      </trkpt>
      <trkpt lat="45.54655" lon="6.66054">
        <ele>883.20001220703</ele>
        <time>2013-05-12T07:24:04Z</time>
      </trkpt>
      <trkpt lat="45.54654" lon="6.66053">
        <ele>884.20001220703</ele>
        <time>2013-05-12T07:24:06Z</time>
      </trkpt>
      <trkpt lat="45.54651" lon="6.6605">
        <ele>884.40002441406</ele>
        <time>2013-05-12T07:24:09Z</time>
      </trkpt>
      <trkpt lat="45.5465" lon="6.66049">
        <ele>885.20001220703</ele>
        <time>2013-05-12T07:24:11Z</time>
      </trkpt>
      <trkpt lat="45.54648" lon="6.66048">
        <ele>886</ele>
        <time>2013-05-12T07:24:13Z</time>
      </trkpt>
      <trkpt lat="45.54646" lon="6.66047">
        <ele>886.40002441406</ele>
        <time>2013-05-12T07:24:16Z</time>
      </trkpt>
      <trkpt lat="45.54645" lon="6.66046">
        <ele>887.40002441406</ele>
        <time>2013-05-12T07:24:18Z</time>
      </trkpt>
      <trkpt lat="45.54643" lon="6.66046">
        <ele>888</ele>
        <time>2013-05-12T07:24:20Z</time>
      </trkpt>
      <trkpt lat="45.54642" lon="6.66044">
        <ele>888.40002441406</ele>
        <time>2013-05-12T07:24:22Z</time>
      </trkpt>
      <trkpt lat="45.5464" lon="6.66043">
        <ele>889</ele>
        <time>2013-05-12T07:24:24Z</time>
      </trkpt>
      <trkpt lat="45.54639" lon="6.66041">
        <ele>889.59997558594</ele>
        <time>2013-05-12T07:24:26Z</time>
      </trkpt>
      <trkpt lat="45.54638" lon="6.66038">
        <ele>890.40002441406</ele>
        <time>2013-05-12T07:24:28Z</time>
      </trkpt>
      <trkpt lat="45.54636" lon="6.66034">
        <ele>890.40002441406</ele>
        <time>2013-05-12T07:24:32Z</time>
      </trkpt>
      <trkpt lat="45.54635" lon="6.66032">
        <ele>891</ele>
        <time>2013-05-12T07:24:34Z</time>
      </trkpt>
      <trkpt lat="45.54634" lon="6.66029">
        <ele>891.59997558594</ele>
        <time>2013-05-12T07:24:36Z</time>
      </trkpt>
      <trkpt lat="45.54634" lon="6.66028">
        <ele>892.40002441406</ele>
        <time>2013-05-12T07:24:38Z</time>
      </trkpt>
      <trkpt lat="45.54633" lon="6.66025">
        <ele>892.40002441406</ele>
        <time>2013-05-12T07:24:41Z</time>
      </trkpt>
      <trkpt lat="45.54632" lon="6.66022">
        <ele>893</ele>
        <time>2013-05-12T07:24:44Z</time>
      </trkpt>
      <trkpt lat="45.54631" lon="6.6602">
        <ele>893.40002441406</ele>
        <time>2013-05-12T07:24:46Z</time>
      </trkpt>
      <trkpt lat="45.5463" lon="6.66019">
        <ele>894.20001220703</ele>
        <time>2013-05-12T07:24:48Z</time>
      </trkpt>
      <trkpt lat="45.54628" lon="6.66017">
        <ele>894.40002441406</ele>
        <time>2013-05-12T07:24:50Z</time>
      </trkpt>
      <trkpt lat="45.54627" lon="6.66015">
        <ele>895.40002441406</ele>
        <time>2013-05-12T07:24:52Z</time>
      </trkpt>
      <trkpt lat="45.54626" lon="6.66012">
        <ele>896.40002441406</ele>
        <time>2013-05-12T07:24:54Z</time>
      </trkpt>
      <trkpt lat="45.54625" lon="6.6601">
        <ele>897.40002441406</ele>
        <time>2013-05-12T07:24:56Z</time>
      </trkpt>
      <trkpt lat="45.54624" lon="6.66009">
        <ele>898.40002441406</ele>
        <time>2013-05-12T07:24:58Z</time>
      </trkpt>
      <trkpt lat="45.54619" lon="6.66003">
        <ele>899.40002441406</ele>
        <time>2013-05-12T07:25:04Z</time>
      </trkpt>
      <trkpt lat="45.54617" lon="6.66002">
        <ele>900.40002441406</ele>
        <time>2013-05-12T07:25:06Z</time>
      </trkpt>
      <trkpt lat="45.54616" lon="6.66002">
        <ele>901</ele>
        <time>2013-05-12T07:25:08Z</time>
      </trkpt>
      <trkpt lat="45.54615" lon="6.66002">
        <ele>901.40002441406</ele>
        <time>2013-05-12T07:25:10Z</time>
      </trkpt>
      <trkpt lat="45.54615" lon="6.66002">
        <ele>902</ele>
        <time>2013-05-12T07:25:12Z</time>
      </trkpt>
      <trkpt lat="45.54614" lon="6.66004">
        <ele>902.59997558594</ele>
        <time>2013-05-12T07:25:14Z</time>
      </trkpt>
      <trkpt lat="45.54613" lon="6.66006">
        <ele>903.40002441406</ele>
        <time>2013-05-12T07:25:17Z</time>
      </trkpt>
      <trkpt lat="45.54612" lon="6.66008">
        <ele>904.40002441406</ele>
        <time>2013-05-12T07:25:19Z</time>
      </trkpt>
      <trkpt lat="45.54611" lon="6.66008">
        <ele>905</ele>
        <time>2013-05-12T07:25:21Z</time>
      </trkpt>
      <trkpt lat="45.5461" lon="6.66011">
        <ele>905.59997558594</ele>
        <time>2013-05-12T07:25:26Z</time>
      </trkpt>
      <trkpt lat="45.54609" lon="6.66013">
        <ele>906.40002441406</ele>
        <time>2013-05-12T07:25:28Z</time>
      </trkpt>
      <trkpt lat="45.54607" lon="6.66015">
        <ele>907</ele>
        <time>2013-05-12T07:25:30Z</time>
      </trkpt>
      <trkpt lat="45.54605" lon="6.66018">
        <ele>907</ele>
        <time>2013-05-12T07:25:36Z</time>
      </trkpt>
      <trkpt lat="45.54603" lon="6.66021">
        <ele>907.59997558594</ele>
        <time>2013-05-12T07:25:38Z</time>
      </trkpt>
      <trkpt lat="45.54603" lon="6.66022">
        <ele>908.40002441406</ele>
        <time>2013-05-12T07:25:40Z</time>
      </trkpt>
      <trkpt lat="45.54601" lon="6.66025">
        <ele>909.40002441406</ele>
        <time>2013-05-12T07:25:43Z</time>
      </trkpt>
      <trkpt lat="45.546" lon="6.66027">
        <ele>910.20001220703</ele>
        <time>2013-05-12T07:25:45Z</time>
      </trkpt>
      <trkpt lat="45.54599" lon="6.66028">
        <ele>911</ele>
        <time>2013-05-12T07:25:47Z</time>
      </trkpt>
      <trkpt lat="45.54597" lon="6.66031">
        <ele>912</ele>
        <time>2013-05-12T07:25:51Z</time>
      </trkpt>
      <trkpt lat="45.54596" lon="6.66033">
        <ele>912.59997558594</ele>
        <time>2013-05-12T07:25:53Z</time>
      </trkpt>
      <trkpt lat="45.54594" lon="6.66036">
        <ele>913.20001220703</ele>
        <time>2013-05-12T07:25:58Z</time>
      </trkpt>
      <trkpt lat="45.54593" lon="6.66038">
        <ele>913.40002441406</ele>
        <time>2013-05-12T07:26:00Z</time>
      </trkpt>
      <trkpt lat="45.54592" lon="6.66038">
        <ele>914.40002441406</ele>
        <time>2013-05-12T07:26:02Z</time>
      </trkpt>
      <trkpt lat="45.5459" lon="6.66039">
        <ele>915.20001220703</ele>
        <time>2013-05-12T07:26:04Z</time>
      </trkpt>
      <trkpt lat="45.54588" lon="6.66038">
        <ele>916</ele>
        <time>2013-05-12T07:26:08Z</time>
      </trkpt>
      <trkpt lat="45.54585" lon="6.66038">
        <ele>916.40002441406</ele>
        <time>2013-05-12T07:26:10Z</time>
      </trkpt>
      <trkpt lat="45.54583" lon="6.66036">
        <ele>917.20001220703</ele>
        <time>2013-05-12T07:26:14Z</time>
      </trkpt>
      <trkpt lat="45.54581" lon="6.66035">
        <ele>917.40002441406</ele>
        <time>2013-05-12T07:26:17Z</time>
      </trkpt>
      <trkpt lat="45.54579" lon="6.66034">
        <ele>918.20001220703</ele>
        <time>2013-05-12T07:26:19Z</time>
      </trkpt>
      <trkpt lat="45.54578" lon="6.66034">
        <ele>918.59997558594</ele>
        <time>2013-05-12T07:26:21Z</time>
      </trkpt>
      <trkpt lat="45.54576" lon="6.66035">
        <ele>919.40002441406</ele>
        <time>2013-05-12T07:26:23Z</time>
      </trkpt>
      <trkpt lat="45.54574" lon="6.66036">
        <ele>920.20001220703</ele>
        <time>2013-05-12T07:26:25Z</time>
      </trkpt>
      <trkpt lat="45.54573" lon="6.66038">
        <ele>921</ele>
        <time>2013-05-12T07:26:27Z</time>
      </trkpt>
      <trkpt lat="45.54572" lon="6.66039">
        <ele>921.59997558594</ele>
        <time>2013-05-12T07:26:29Z</time>
      </trkpt>
      <trkpt lat="45.54571" lon="6.66041">
        <ele>922.40002441406</ele>
        <time>2013-05-12T07:26:31Z</time>
      </trkpt>
      <trkpt lat="45.54567" lon="6.66042">
        <ele>923.40002441406</ele>
        <time>2013-05-12T07:26:36Z</time>
      </trkpt>
      <trkpt lat="45.54566" lon="6.66041">
        <ele>924.40002441406</ele>
        <time>2013-05-12T07:26:38Z</time>
      </trkpt>
      <trkpt lat="45.54565" lon="6.66042">
        <ele>925.20001220703</ele>
        <time>2013-05-12T07:26:40Z</time>
      </trkpt>
      <trkpt lat="45.54564" lon="6.66041">
        <ele>925.40002441406</ele>
        <time>2013-05-12T07:26:42Z</time>
      </trkpt>
      <trkpt lat="45.54562" lon="6.66041">
        <ele>926</ele>
        <time>2013-05-12T07:26:46Z</time>
      </trkpt>
      <trkpt lat="45.5456" lon="6.66041">
        <ele>926.59997558594</ele>
        <time>2013-05-12T07:26:48Z</time>
      </trkpt>
      <trkpt lat="45.5456" lon="6.66041">
        <ele>927.40002441406</ele>
        <time>2013-05-12T07:26:50Z</time>
      </trkpt>
      <trkpt lat="45.54557" lon="6.66042">
        <ele>928.20001220703</ele>
        <time>2013-05-12T07:26:54Z</time>
      </trkpt>
      <trkpt lat="45.54557" lon="6.66041">
        <ele>929.20001220703</ele>
        <time>2013-05-12T07:26:56Z</time>
      </trkpt>
      <trkpt lat="45.54555" lon="6.6604">
        <ele>930</ele>
        <time>2013-05-12T07:26:58Z</time>
      </trkpt>
      <trkpt lat="45.54554" lon="6.6604">
        <ele>930.40002441406</ele>
        <time>2013-05-12T07:27:00Z</time>
      </trkpt>
      <trkpt lat="45.54554" lon="6.6604">
        <ele>931.40002441406</ele>
        <time>2013-05-12T07:27:02Z</time>
      </trkpt>
      <trkpt lat="45.54548" lon="6.66041">
        <ele>931.59997558594</ele>
        <time>2013-05-12T07:27:10Z</time>
      </trkpt>
      <trkpt lat="45.54546" lon="6.66041">
        <ele>932.20001220703</ele>
        <time>2013-05-12T07:27:12Z</time>
      </trkpt>
      <trkpt lat="45.54545" lon="6.6604">
        <ele>933</ele>
        <time>2013-05-12T07:27:14Z</time>
      </trkpt>
      <trkpt lat="45.54543" lon="6.6604">
        <ele>933.59997558594</ele>
        <time>2013-05-12T07:27:16Z</time>
      </trkpt>
      <trkpt lat="45.54542" lon="6.66038">
        <ele>934.20001220703</ele>
        <time>2013-05-12T07:27:18Z</time>
      </trkpt>
      <trkpt lat="45.5454" lon="6.66037">
        <ele>935</ele>
        <time>2013-05-12T07:27:20Z</time>
      </trkpt>
      <trkpt lat="45.54538" lon="6.66036">
        <ele>935.40002441406</ele>
        <time>2013-05-12T07:27:22Z</time>
      </trkpt>
      <trkpt lat="45.54534" lon="6.66035">
        <ele>936.20001220703</ele>
        <time>2013-05-12T07:27:27Z</time>
      </trkpt>
      <trkpt lat="45.54533" lon="6.66034">
        <ele>937</ele>
        <time>2013-05-12T07:27:29Z</time>
      </trkpt>
      <trkpt lat="45.54532" lon="6.66033">
        <ele>937.59997558594</ele>
        <time>2013-05-12T07:27:31Z</time>
      </trkpt>
      <trkpt lat="45.54529" lon="6.66032">
        <ele>938</ele>
        <time>2013-05-12T07:27:34Z</time>
      </trkpt>
      <trkpt lat="45.54528" lon="6.66032">
        <ele>938.40002441406</ele>
        <time>2013-05-12T07:27:36Z</time>
      </trkpt>
      <trkpt lat="45.54527" lon="6.66032">
        <ele>939.40002441406</ele>
        <time>2013-05-12T07:27:38Z</time>
      </trkpt>
      <trkpt lat="45.54526" lon="6.66029">
        <ele>940</ele>
        <time>2013-05-12T07:27:41Z</time>
      </trkpt>
      <trkpt lat="45.54525" lon="6.66027">
        <ele>940.40002441406</ele>
        <time>2013-05-12T07:27:43Z</time>
      </trkpt>
      <trkpt lat="45.54524" lon="6.66025">
        <ele>941.40002441406</ele>
        <time>2013-05-12T07:27:45Z</time>
      </trkpt>
      <trkpt lat="45.54524" lon="6.66023">
        <ele>942</ele>
        <time>2013-05-12T07:27:47Z</time>
      </trkpt>
      <trkpt lat="45.54521" lon="6.66021">
        <ele>942.40002441406</ele>
        <time>2013-05-12T07:27:51Z</time>
      </trkpt>
      <trkpt lat="45.54521" lon="6.66022">
        <ele>943.40002441406</ele>
        <time>2013-05-12T07:27:53Z</time>
      </trkpt>
      <trkpt lat="45.5452" lon="6.66022">
        <ele>944</ele>
        <time>2013-05-12T07:27:55Z</time>
      </trkpt>
      <trkpt lat="45.54519" lon="6.66022">
        <ele>944.40002441406</ele>
        <time>2013-05-12T07:27:58Z</time>
      </trkpt>
      <trkpt lat="45.54519" lon="6.66021">
        <ele>945.40002441406</ele>
        <time>2013-05-12T07:28:00Z</time>
      </trkpt>
      <trkpt lat="45.54517" lon="6.66022">
        <ele>946</ele>
        <time>2013-05-12T07:28:02Z</time>
      </trkpt>
      <trkpt lat="45.54513" lon="6.66021">
        <ele>946</ele>
        <time>2013-05-12T07:28:20Z</time>
      </trkpt>
      <trkpt lat="45.54512" lon="6.6602">
        <ele>946</ele>
        <time>2013-05-12T07:28:27Z</time>
      </trkpt>
      <trkpt lat="45.54512" lon="6.6602">
        <ele>946</ele>
        <time>2013-05-12T07:28:31Z</time>
      </trkpt>
      <trkpt lat="45.54512" lon="6.6602">
        <ele>946</ele>
        <time>2013-05-12T07:28:36Z</time>
      </trkpt>
      <trkpt lat="45.54509" lon="6.66015">
        <ele>946.40002441406</ele>
        <time>2013-05-12T07:28:42Z</time>
      </trkpt>
      <trkpt lat="45.54508" lon="6.66013">
        <ele>947.20001220703</ele>
        <time>2013-05-12T07:28:44Z</time>
      </trkpt>
      <trkpt lat="45.54507" lon="6.66012">
        <ele>948.20001220703</ele>
        <time>2013-05-12T07:28:46Z</time>
      </trkpt>
      <trkpt lat="45.54506" lon="6.6601">
        <ele>949.20001220703</ele>
        <time>2013-05-12T07:28:48Z</time>
      </trkpt>
      <trkpt lat="45.54504" lon="6.66008">
        <ele>950</ele>
        <time>2013-05-12T07:28:50Z</time>
      </trkpt>
      <trkpt lat="45.54501" lon="6.66004">
        <ele>950.20001220703</ele>
        <time>2013-05-12T07:28:54Z</time>
      </trkpt>
      <trkpt lat="45.545" lon="6.66003">
        <ele>950.59997558594</ele>
        <time>2013-05-12T07:28:56Z</time>
      </trkpt>
      <trkpt lat="45.54499" lon="6.66001">
        <ele>951.40002441406</ele>
        <time>2013-05-12T07:28:58Z</time>
      </trkpt>
      <trkpt lat="45.54497" lon="6.66">
        <ele>952.20001220703</ele>
        <time>2013-05-12T07:29:00Z</time>
      </trkpt>
      <trkpt lat="45.54496" lon="6.65999">
        <ele>952.40002441406</ele>
        <time>2013-05-12T07:29:02Z</time>
      </trkpt>
      <trkpt lat="45.54495" lon="6.65999">
        <ele>953</ele>
        <time>2013-05-12T07:29:05Z</time>
      </trkpt>
      <trkpt lat="45.54495" lon="6.65999">
        <ele>953.59997558594</ele>
        <time>2013-05-12T07:29:07Z</time>
      </trkpt>
      <trkpt lat="45.54493" lon="6.66">
        <ele>954.40002441406</ele>
        <time>2013-05-12T07:29:09Z</time>
      </trkpt>
      <trkpt lat="45.54493" lon="6.66002">
        <ele>955.20001220703</ele>
        <time>2013-05-12T07:29:11Z</time>
      </trkpt>
      <trkpt lat="45.54491" lon="6.66005">
        <ele>956</ele>
        <time>2013-05-12T07:29:13Z</time>
      </trkpt>
      <trkpt lat="45.54491" lon="6.66007">
        <ele>956.40002441406</ele>
        <time>2013-05-12T07:29:15Z</time>
      </trkpt>
      <trkpt lat="45.54489" lon="6.66008">
        <ele>957.40002441406</ele>
        <time>2013-05-12T07:29:17Z</time>
      </trkpt>
      <trkpt lat="45.54488" lon="6.66009">
        <ele>958.20001220703</ele>
        <time>2013-05-12T07:29:19Z</time>
      </trkpt>
      <trkpt lat="45.54486" lon="6.66007">
        <ele>958.40002441406</ele>
        <time>2013-05-12T07:29:22Z</time>
      </trkpt>
      <trkpt lat="45.54483" lon="6.66003">
        <ele>959.40002441406</ele>
        <time>2013-05-12T07:29:28Z</time>
      </trkpt>
      <trkpt lat="45.54482" lon="6.66003">
        <ele>960.20001220703</ele>
        <time>2013-05-12T07:29:30Z</time>
      </trkpt>
      <trkpt lat="45.54481" lon="6.66003">
        <ele>960.59997558594</ele>
        <time>2013-05-12T07:29:32Z</time>
      </trkpt>
      <trkpt lat="45.5448" lon="6.66003">
        <ele>961.40002441406</ele>
        <time>2013-05-12T07:29:34Z</time>
      </trkpt>
      <trkpt lat="45.54478" lon="6.66004">
        <ele>962.40002441406</ele>
        <time>2013-05-12T07:29:36Z</time>
      </trkpt>
      <trkpt lat="45.54477" lon="6.66007">
        <ele>962.59997558594</ele>
        <time>2013-05-12T07:29:40Z</time>
      </trkpt>
      <trkpt lat="45.54477" lon="6.6601">
        <ele>963.59997558594</ele>
        <time>2013-05-12T07:29:42Z</time>
      </trkpt>
      <trkpt lat="45.54477" lon="6.66011">
        <ele>964.40002441406</ele>
        <time>2013-05-12T07:29:44Z</time>
      </trkpt>
      <trkpt lat="45.54477" lon="6.66012">
        <ele>964.59997558594</ele>
        <time>2013-05-12T07:29:46Z</time>
      </trkpt>
      <trkpt lat="45.54475" lon="6.66013">
        <ele>965.20001220703</ele>
        <time>2013-05-12T07:29:49Z</time>
      </trkpt>
      <trkpt lat="45.54473" lon="6.66013">
        <ele>966</ele>
        <time>2013-05-12T07:29:51Z</time>
      </trkpt>
      <trkpt lat="45.54471" lon="6.66013">
        <ele>966.59997558594</ele>
        <time>2013-05-12T07:29:53Z</time>
      </trkpt>
      <trkpt lat="45.54469" lon="6.66011">
        <ele>968.20001220703</ele>
        <time>2013-05-12T07:29:57Z</time>
      </trkpt>
      <trkpt lat="45.54468" lon="6.6601">
        <ele>968.59997558594</ele>
        <time>2013-05-12T07:29:59Z</time>
      </trkpt>
      <trkpt lat="45.54466" lon="6.66007">
        <ele>969</ele>
        <time>2013-05-12T07:30:05Z</time>
      </trkpt>
      <trkpt lat="45.54464" lon="6.66006">
        <ele>969.40002441406</ele>
        <time>2013-05-12T07:30:07Z</time>
      </trkpt>
      <trkpt lat="45.54464" lon="6.66007">
        <ele>970.20001220703</ele>
        <time>2013-05-12T07:30:09Z</time>
      </trkpt>
      <trkpt lat="45.54462" lon="6.66004">
        <ele>970.59997558594</ele>
        <time>2013-05-12T07:30:11Z</time>
      </trkpt>
      <trkpt lat="45.5446" lon="6.66003">
        <ele>971.40002441406</ele>
        <time>2013-05-12T07:30:13Z</time>
      </trkpt>
      <trkpt lat="45.54459" lon="6.66003">
        <ele>972.40002441406</ele>
        <time>2013-05-12T07:30:15Z</time>
      </trkpt>
      <trkpt lat="45.54457" lon="6.66003">
        <ele>973</ele>
        <time>2013-05-12T07:30:17Z</time>
      </trkpt>
      <trkpt lat="45.54455" lon="6.66003">
        <ele>973.59997558594</ele>
        <time>2013-05-12T07:30:20Z</time>
      </trkpt>
      <trkpt lat="45.54453" lon="6.66003">
        <ele>974.40002441406</ele>
        <time>2013-05-12T07:30:22Z</time>
      </trkpt>
      <trkpt lat="45.54451" lon="6.66002">
        <ele>975.40002441406</ele>
        <time>2013-05-12T07:30:25Z</time>
      </trkpt>
      <trkpt lat="45.54449" lon="6.66">
        <ele>976.20001220703</ele>
        <time>2013-05-12T07:30:27Z</time>
      </trkpt>
      <trkpt lat="45.54449" lon="6.65997">
        <ele>977</ele>
        <time>2013-05-12T07:30:29Z</time>
      </trkpt>
      <trkpt lat="45.54448" lon="6.65995">
        <ele>977</ele>
        <time>2013-05-12T07:30:31Z</time>
      </trkpt>
      <trkpt lat="45.54447" lon="6.65992">
        <ele>977.20001220703</ele>
        <time>2013-05-12T07:30:34Z</time>
      </trkpt>
      <trkpt lat="45.54445" lon="6.65989">
        <ele>977.59997558594</ele>
        <time>2013-05-12T07:30:36Z</time>
      </trkpt>
      <trkpt lat="45.54444" lon="6.65988">
        <ele>978.40002441406</ele>
        <time>2013-05-12T07:30:38Z</time>
      </trkpt>
      <trkpt lat="45.5444" lon="6.65984">
        <ele>979.20001220703</ele>
        <time>2013-05-12T07:30:42Z</time>
      </trkpt>
      <trkpt lat="45.54437" lon="6.65982">
        <ele>980</ele>
        <time>2013-05-12T07:30:44Z</time>
      </trkpt>
      <trkpt lat="45.54436" lon="6.6598">
        <ele>980.59997558594</ele>
        <time>2013-05-12T07:30:46Z</time>
      </trkpt>
      <trkpt lat="45.54433" lon="6.65976">
        <ele>981.20001220703</ele>
        <time>2013-05-12T07:30:50Z</time>
      </trkpt>
      <trkpt lat="45.54431" lon="6.65974">
        <ele>981.40002441406</ele>
        <time>2013-05-12T07:30:52Z</time>
      </trkpt>
      <trkpt lat="45.54429" lon="6.65972">
        <ele>982.40002441406</ele>
        <time>2013-05-12T07:30:54Z</time>
      </trkpt>
      <trkpt lat="45.54427" lon="6.6597">
        <ele>983.20001220703</ele>
        <time>2013-05-12T07:30:56Z</time>
      </trkpt>
      <trkpt lat="45.54424" lon="6.65966">
        <ele>983.40002441406</ele>
        <time>2013-05-12T07:31:00Z</time>
      </trkpt>
      <trkpt lat="45.54422" lon="6.65965">
        <ele>984</ele>
        <time>2013-05-12T07:31:02Z</time>
      </trkpt>
      <trkpt lat="45.54421" lon="6.65963">
        <ele>985</ele>
        <time>2013-05-12T07:31:04Z</time>
      </trkpt>
      <trkpt lat="45.54419" lon="6.65959">
        <ele>985.40002441406</ele>
        <time>2013-05-12T07:31:08Z</time>
      </trkpt>
      <trkpt lat="45.54418" lon="6.65956">
        <ele>986.40002441406</ele>
        <time>2013-05-12T07:31:10Z</time>
      </trkpt>
      <trkpt lat="45.54416" lon="6.65955">
        <ele>987.40002441406</ele>
        <time>2013-05-12T07:31:12Z</time>
      </trkpt>
      <trkpt lat="45.54413" lon="6.65953">
        <ele>987.40002441406</ele>
        <time>2013-05-12T07:31:15Z</time>
      </trkpt>
      <trkpt lat="45.54411" lon="6.65951">
        <ele>988.20001220703</ele>
        <time>2013-05-12T07:31:17Z</time>
      </trkpt>
      <trkpt lat="45.54409" lon="6.6595">
        <ele>988.59997558594</ele>
        <time>2013-05-12T07:31:19Z</time>
      </trkpt>
      <trkpt lat="45.54407" lon="6.65949">
        <ele>989.40002441406</ele>
        <time>2013-05-12T07:31:21Z</time>
      </trkpt>
      <trkpt lat="45.54403" lon="6.65948">
        <ele>990.20001220703</ele>
        <time>2013-05-12T07:31:26Z</time>
      </trkpt>
      <trkpt lat="45.54402" lon="6.65948">
        <ele>991</ele>
        <time>2013-05-12T07:31:28Z</time>
      </trkpt>
      <trkpt lat="45.544" lon="6.65947">
        <ele>991.40002441406</ele>
        <time>2013-05-12T07:31:30Z</time>
      </trkpt>
      <trkpt lat="45.54398" lon="6.65947">
        <ele>992.40002441406</ele>
        <time>2013-05-12T07:31:32Z</time>
      </trkpt>
      <trkpt lat="45.54396" lon="6.65945">
        <ele>993.40002441406</ele>
        <time>2013-05-12T07:31:34Z</time>
      </trkpt>
      <trkpt lat="45.54394" lon="6.65944">
        <ele>993.59997558594</ele>
        <time>2013-05-12T07:31:36Z</time>
      </trkpt>
      <trkpt lat="45.54392" lon="6.65941">
        <ele>994.40002441406</ele>
        <time>2013-05-12T07:31:39Z</time>
      </trkpt>
      <trkpt lat="45.5439" lon="6.65938">
        <ele>995</ele>
        <time>2013-05-12T07:31:41Z</time>
      </trkpt>
      <trkpt lat="45.54389" lon="6.65934">
        <ele>995.59997558594</ele>
        <time>2013-05-12T07:31:43Z</time>
      </trkpt>
      <trkpt lat="45.54386" lon="6.65928">
        <ele>996.20001220703</ele>
        <time>2013-05-12T07:31:47Z</time>
      </trkpt>
      <trkpt lat="45.54385" lon="6.65924">
        <ele>996.59997558594</ele>
        <time>2013-05-12T07:31:49Z</time>
      </trkpt>
      <trkpt lat="45.54384" lon="6.65921">
        <ele>997.40002441406</ele>
        <time>2013-05-12T07:31:51Z</time>
      </trkpt>
      <trkpt lat="45.54383" lon="6.6592">
        <ele>998</ele>
        <time>2013-05-12T07:31:53Z</time>
      </trkpt>
      <trkpt lat="45.54382" lon="6.65923">
        <ele>998.59997558594</ele>
        <time>2013-05-12T07:31:56Z</time>
      </trkpt>
      <trkpt lat="45.54381" lon="6.65925">
        <ele>999.40002441406</ele>
        <time>2013-05-12T07:31:58Z</time>
      </trkpt>
      <trkpt lat="45.54379" lon="6.65928">
        <ele>1000</ele>
        <time>2013-05-12T07:32:02Z</time>
      </trkpt>
      <trkpt lat="45.54376" lon="6.6593">
        <ele>1000.4000244141</ele>
        <time>2013-05-12T07:32:06Z</time>
      </trkpt>
      <trkpt lat="45.54373" lon="6.65929">
        <ele>1001.4000244141</ele>
        <time>2013-05-12T07:32:08Z</time>
      </trkpt>
      <trkpt lat="45.54371" lon="6.65929">
        <ele>1002.200012207</ele>
        <time>2013-05-12T07:32:10Z</time>
      </trkpt>
      <trkpt lat="45.54368" lon="6.65928">
        <ele>1002.200012207</ele>
        <time>2013-05-12T07:32:13Z</time>
      </trkpt>
      <trkpt lat="45.54366" lon="6.65927">
        <ele>1002.5999755859</ele>
        <time>2013-05-12T07:32:15Z</time>
      </trkpt>
      <trkpt lat="45.54364" lon="6.65926">
        <ele>1003.4000244141</ele>
        <time>2013-05-12T07:32:17Z</time>
      </trkpt>
      <trkpt lat="45.54362" lon="6.65924">
        <ele>1004.4000244141</ele>
        <time>2013-05-12T07:32:19Z</time>
      </trkpt>
      <trkpt lat="45.54361" lon="6.65921">
        <ele>1005.4000244141</ele>
        <time>2013-05-12T07:32:21Z</time>
      </trkpt>
      <trkpt lat="45.54359" lon="6.65918">
        <ele>1006.200012207</ele>
        <time>2013-05-12T07:32:23Z</time>
      </trkpt>
      <trkpt lat="45.54353" lon="6.6591">
        <ele>1007.200012207</ele>
        <time>2013-05-12T07:32:29Z</time>
      </trkpt>
      <trkpt lat="45.5435" lon="6.65909">
        <ele>1007.5999755859</ele>
        <time>2013-05-12T07:32:31Z</time>
      </trkpt>
      <trkpt lat="45.54348" lon="6.65907">
        <ele>1009</ele>
        <time>2013-05-12T07:32:33Z</time>
      </trkpt>
      <trkpt lat="45.54345" lon="6.65906">
        <ele>1009.4000244141</ele>
        <time>2013-05-12T07:32:35Z</time>
      </trkpt>
      <trkpt lat="45.54343" lon="6.65906">
        <ele>1010.200012207</ele>
        <time>2013-05-12T07:32:37Z</time>
      </trkpt>
      <trkpt lat="45.54339" lon="6.65907">
        <ele>1010.4000244141</ele>
        <time>2013-05-12T07:32:41Z</time>
      </trkpt>
      <trkpt lat="45.54336" lon="6.65907">
        <ele>1010.4000244141</ele>
        <time>2013-05-12T07:32:44Z</time>
      </trkpt>
      <trkpt lat="45.54335" lon="6.65907">
        <ele>1011.4000244141</ele>
        <time>2013-05-12T07:32:46Z</time>
      </trkpt>
      <trkpt lat="45.54333" lon="6.65906">
        <ele>1012.200012207</ele>
        <time>2013-05-12T07:32:48Z</time>
      </trkpt>
      <trkpt lat="45.54331" lon="6.65905">
        <ele>1012.4000244141</ele>
        <time>2013-05-12T07:32:51Z</time>
      </trkpt>
      <trkpt lat="45.54326" lon="6.65902">
        <ele>1013.5999755859</ele>
        <time>2013-05-12T07:32:58Z</time>
      </trkpt>
      <trkpt lat="45.54324" lon="6.659">
        <ele>1014.200012207</ele>
        <time>2013-05-12T07:33:00Z</time>
      </trkpt>
      <trkpt lat="45.54323" lon="6.65899">
        <ele>1014.4000244141</ele>
        <time>2013-05-12T07:33:02Z</time>
      </trkpt>
      <trkpt lat="45.54319" lon="6.65896">
        <ele>1015.200012207</ele>
        <time>2013-05-12T07:33:06Z</time>
      </trkpt>
      <trkpt lat="45.54318" lon="6.65895">
        <ele>1016</ele>
        <time>2013-05-12T07:33:08Z</time>
      </trkpt>
      <trkpt lat="45.54316" lon="6.65894">
        <ele>1016.5999755859</ele>
        <time>2013-05-12T07:33:10Z</time>
      </trkpt>
      <trkpt lat="45.54311" lon="6.65891">
        <ele>1017.200012207</ele>
        <time>2013-05-12T07:33:16Z</time>
      </trkpt>
      <trkpt lat="45.54309" lon="6.6589">
        <ele>1018.200012207</ele>
        <time>2013-05-12T07:33:18Z</time>
      </trkpt>
      <trkpt lat="45.54307" lon="6.6589">
        <ele>1018.5999755859</ele>
        <time>2013-05-12T07:33:20Z</time>
      </trkpt>
      <trkpt lat="45.54302" lon="6.65887">
        <ele>1019</ele>
        <time>2013-05-12T07:33:27Z</time>
      </trkpt>
      <trkpt lat="45.543" lon="6.65886">
        <ele>1019.4000244141</ele>
        <time>2013-05-12T07:33:29Z</time>
      </trkpt>
      <trkpt lat="45.54298" lon="6.65885">
        <ele>1020.4000244141</ele>
        <time>2013-05-12T07:33:31Z</time>
      </trkpt>
      <trkpt lat="45.54294" lon="6.65882">
        <ele>1020.5999755859</ele>
        <time>2013-05-12T07:33:36Z</time>
      </trkpt>
      <trkpt lat="45.54292" lon="6.65881">
        <ele>1021.4000244141</ele>
        <time>2013-05-12T07:33:38Z</time>
      </trkpt>
      <trkpt lat="45.5429" lon="6.65881">
        <ele>1022.200012207</ele>
        <time>2013-05-12T07:33:40Z</time>
      </trkpt>
      <trkpt lat="45.54288" lon="6.6588">
        <ele>1022.5999755859</ele>
        <time>2013-05-12T07:33:42Z</time>
      </trkpt>
      <trkpt lat="45.54286" lon="6.65879">
        <ele>1022.5999755859</ele>
        <time>2013-05-12T07:33:44Z</time>
      </trkpt>
      <trkpt lat="45.54284" lon="6.6588">
        <ele>1023.4000244141</ele>
        <time>2013-05-12T07:33:46Z</time>
      </trkpt>
      <trkpt lat="45.54282" lon="6.65879">
        <ele>1024</ele>
        <time>2013-05-12T07:33:48Z</time>
      </trkpt>
      <trkpt lat="45.5428" lon="6.6588">
        <ele>1025</ele>
        <time>2013-05-12T07:33:50Z</time>
      </trkpt>
      <trkpt lat="45.54276" lon="6.65881">
        <ele>1025.4000244141</ele>
        <time>2013-05-12T07:33:54Z</time>
      </trkpt>
      <trkpt lat="45.54275" lon="6.65883">
        <ele>1026.4000244141</ele>
        <time>2013-05-12T07:33:56Z</time>
      </trkpt>
      <trkpt lat="45.54273" lon="6.65884">
        <ele>1027</ele>
        <time>2013-05-12T07:33:58Z</time>
      </trkpt>
      <trkpt lat="45.5427" lon="6.65888">
        <ele>1027.4000244141</ele>
        <time>2013-05-12T07:34:02Z</time>
      </trkpt>
      <trkpt lat="45.54268" lon="6.6589">
        <ele>1027.8000488281</ele>
        <time>2013-05-12T07:34:04Z</time>
      </trkpt>
      <trkpt lat="45.54266" lon="6.65892">
        <ele>1028.4000244141</ele>
        <time>2013-05-12T07:34:06Z</time>
      </trkpt>
      <trkpt lat="45.54265" lon="6.65894">
        <ele>1029</ele>
        <time>2013-05-12T07:34:08Z</time>
      </trkpt>
      <trkpt lat="45.54261" lon="6.65897">
        <ele>1029.4000244141</ele>
        <time>2013-05-12T07:34:12Z</time>
      </trkpt>
      <trkpt lat="45.5426" lon="6.65898">
        <ele>1030</ele>
        <time>2013-05-12T07:34:14Z</time>
      </trkpt>
      <trkpt lat="45.54258" lon="6.65899">
        <ele>1031</ele>
        <time>2013-05-12T07:34:16Z</time>
      </trkpt>
      <trkpt lat="45.54256" lon="6.659">
        <ele>1031</ele>
        <time>2013-05-12T07:34:18Z</time>
      </trkpt>
      <trkpt lat="45.54252" lon="6.65901">
        <ele>1031</ele>
        <time>2013-05-12T07:34:22Z</time>
      </trkpt>
      <trkpt lat="45.5425" lon="6.65902">
        <ele>1031.8000488281</ele>
        <time>2013-05-12T07:34:24Z</time>
      </trkpt>
      <trkpt lat="45.54248" lon="6.65903">
        <ele>1032.4000244141</ele>
        <time>2013-05-12T07:34:26Z</time>
      </trkpt>
      <trkpt lat="45.54247" lon="6.65904">
        <ele>1033</ele>
        <time>2013-05-12T07:34:28Z</time>
      </trkpt>
      <trkpt lat="45.54238" lon="6.65908">
        <ele>1034.4000244141</ele>
        <time>2013-05-12T07:34:36Z</time>
      </trkpt>
      <trkpt lat="45.54236" lon="6.65909">
        <ele>1035.4000244141</ele>
        <time>2013-05-12T07:34:38Z</time>
      </trkpt>
      <trkpt lat="45.54232" lon="6.65911">
        <ele>1036</ele>
        <time>2013-05-12T07:34:42Z</time>
      </trkpt>
      <trkpt lat="45.54231" lon="6.65912">
        <ele>1036.8000488281</ele>
        <time>2013-05-12T07:34:44Z</time>
      </trkpt>
      <trkpt lat="45.54229" lon="6.65912">
        <ele>1037.4000244141</ele>
        <time>2013-05-12T07:34:46Z</time>
      </trkpt>
      <trkpt lat="45.54225" lon="6.65913">
        <ele>1037.4000244141</ele>
        <time>2013-05-12T07:34:50Z</time>
      </trkpt>
      <trkpt lat="45.54223" lon="6.65914">
        <ele>1038.4000244141</ele>
        <time>2013-05-12T07:34:52Z</time>
      </trkpt>
      <trkpt lat="45.54221" lon="6.65915">
        <ele>1039</ele>
        <time>2013-05-12T07:34:54Z</time>
      </trkpt>
      <trkpt lat="45.54217" lon="6.65916">
        <ele>1040</ele>
        <time>2013-05-12T07:34:58Z</time>
      </trkpt>
      <trkpt lat="45.54214" lon="6.65917">
        <ele>1040.8000488281</ele>
        <time>2013-05-12T07:35:00Z</time>
      </trkpt>
      <trkpt lat="45.54213" lon="6.65918">
        <ele>1041.4000244141</ele>
        <time>2013-05-12T07:35:02Z</time>
      </trkpt>
      <trkpt lat="45.54209" lon="6.6592">
        <ele>1041.4000244141</ele>
        <time>2013-05-12T07:35:06Z</time>
      </trkpt>
      <trkpt lat="45.54206" lon="6.65921">
        <ele>1042</ele>
        <time>2013-05-12T07:35:09Z</time>
      </trkpt>
      <trkpt lat="45.54205" lon="6.65922">
        <ele>1042.4000244141</ele>
        <time>2013-05-12T07:35:11Z</time>
      </trkpt>
      <trkpt lat="45.54203" lon="6.65922">
        <ele>1043</ele>
        <time>2013-05-12T07:35:13Z</time>
      </trkpt>
      <trkpt lat="45.54201" lon="6.65923">
        <ele>1043.8000488281</ele>
        <time>2013-05-12T07:35:15Z</time>
      </trkpt>
      <trkpt lat="45.54198" lon="6.65924">
        <ele>1044.4000244141</ele>
        <time>2013-05-12T07:35:19Z</time>
      </trkpt>
      <trkpt lat="45.54196" lon="6.65925">
        <ele>1045</ele>
        <time>2013-05-12T07:35:21Z</time>
      </trkpt>
      <trkpt lat="45.54195" lon="6.65924">
        <ele>1045.8000488281</ele>
        <time>2013-05-12T07:35:23Z</time>
      </trkpt>
      <trkpt lat="45.54193" lon="6.65926">
        <ele>1046.4000244141</ele>
        <time>2013-05-12T07:35:25Z</time>
      </trkpt>
      <trkpt lat="45.54191" lon="6.65927">
        <ele>1047</ele>
        <time>2013-05-12T07:35:27Z</time>
      </trkpt>
      <trkpt lat="45.5419" lon="6.65926">
        <ele>1047.8000488281</ele>
        <time>2013-05-12T07:35:29Z</time>
      </trkpt>
      <trkpt lat="45.54183" lon="6.65928">
        <ele>1047.8000488281</ele>
        <time>2013-05-12T07:35:36Z</time>
      </trkpt>
      <trkpt lat="45.5418" lon="6.65929">
        <ele>1048.4000244141</ele>
        <time>2013-05-12T07:35:39Z</time>
      </trkpt>
      <trkpt lat="45.54178" lon="6.65929">
        <ele>1049.4000244141</ele>
        <time>2013-05-12T07:35:41Z</time>
      </trkpt>
      <trkpt lat="45.54177" lon="6.6593">
        <ele>1050</ele>
        <time>2013-05-12T07:35:43Z</time>
      </trkpt>
      <trkpt lat="45.54175" lon="6.6593">
        <ele>1050</ele>
        <time>2013-05-12T07:35:45Z</time>
      </trkpt>
      <trkpt lat="45.54173" lon="6.65931">
        <ele>1050.4000244141</ele>
        <time>2013-05-12T07:35:48Z</time>
      </trkpt>
      <trkpt lat="45.54171" lon="6.65931">
        <ele>1051.4000244141</ele>
        <time>2013-05-12T07:35:50Z</time>
      </trkpt>
      <trkpt lat="45.54169" lon="6.65932">
        <ele>1052</ele>
        <time>2013-05-12T07:35:52Z</time>
      </trkpt>
      <trkpt lat="45.54164" lon="6.65934">
        <ele>1052.4000244141</ele>
        <time>2013-05-12T07:35:58Z</time>
      </trkpt>
      <trkpt lat="45.54162" lon="6.65934">
        <ele>1053</ele>
        <time>2013-05-12T07:36:00Z</time>
      </trkpt>
      <trkpt lat="45.5416" lon="6.65935">
        <ele>1053.8000488281</ele>
        <time>2013-05-12T07:36:02Z</time>
      </trkpt>
      <trkpt lat="45.54157" lon="6.65935">
        <ele>1054</ele>
        <time>2013-05-12T07:36:05Z</time>
      </trkpt>
      <trkpt lat="45.54155" lon="6.65935">
        <ele>1055</ele>
        <time>2013-05-12T07:36:07Z</time>
      </trkpt>
      <trkpt lat="45.54151" lon="6.65936">
        <ele>1056</ele>
        <time>2013-05-12T07:36:11Z</time>
      </trkpt>
      <trkpt lat="45.54148" lon="6.65935">
        <ele>1056.4000244141</ele>
        <time>2013-05-12T07:36:14Z</time>
      </trkpt>
      <trkpt lat="45.54146" lon="6.65935">
        <ele>1057</ele>
        <time>2013-05-12T07:36:16Z</time>
      </trkpt>
      <trkpt lat="45.54144" lon="6.65935">
        <ele>1057.8000488281</ele>
        <time>2013-05-12T07:36:18Z</time>
      </trkpt>
      <trkpt lat="45.54142" lon="6.65935">
        <ele>1058</ele>
        <time>2013-05-12T07:36:20Z</time>
      </trkpt>
      <trkpt lat="45.54139" lon="6.65935">
        <ele>1058.8000488281</ele>
        <time>2013-05-12T07:36:23Z</time>
      </trkpt>
      <trkpt lat="45.54137" lon="6.65935">
        <ele>1059.4000244141</ele>
        <time>2013-05-12T07:36:25Z</time>
      </trkpt>
      <trkpt lat="45.54134" lon="6.65934">
        <ele>1060</ele>
        <time>2013-05-12T07:36:27Z</time>
      </trkpt>
      <trkpt lat="45.54131" lon="6.65934">
        <ele>1060.4000244141</ele>
        <time>2013-05-12T07:36:30Z</time>
      </trkpt>
      <trkpt lat="45.54129" lon="6.65934">
        <ele>1061.4000244141</ele>
        <time>2013-05-12T07:36:32Z</time>
      </trkpt>
      <trkpt lat="45.54127" lon="6.65934">
        <ele>1062.4000244141</ele>
        <time>2013-05-12T07:36:34Z</time>
      </trkpt>
      <trkpt lat="45.5412" lon="6.65933">
        <ele>1062.8000488281</ele>
        <time>2013-05-12T07:36:40Z</time>
      </trkpt>
      <trkpt lat="45.54117" lon="6.65933">
        <ele>1063</ele>
        <time>2013-05-12T07:36:42Z</time>
      </trkpt>
      <trkpt lat="45.54115" lon="6.65933">
        <ele>1064</ele>
        <time>2013-05-12T07:36:44Z</time>
      </trkpt>
      <trkpt lat="45.54113" lon="6.65933">
        <ele>1064.4000244141</ele>
        <time>2013-05-12T07:36:46Z</time>
      </trkpt>
      <trkpt lat="45.5411" lon="6.65935">
        <ele>1064.8000488281</ele>
        <time>2013-05-12T07:36:49Z</time>
      </trkpt>
      <trkpt lat="45.54108" lon="6.65934">
        <ele>1065.8000488281</ele>
        <time>2013-05-12T07:36:51Z</time>
      </trkpt>
      <trkpt lat="45.54106" lon="6.65934">
        <ele>1066.4000244141</ele>
        <time>2013-05-12T07:36:53Z</time>
      </trkpt>
      <trkpt lat="45.54102" lon="6.65934">
        <ele>1067</ele>
        <time>2013-05-12T07:36:57Z</time>
      </trkpt>
      <trkpt lat="45.541" lon="6.65933">
        <ele>1067.4000244141</ele>
        <time>2013-05-12T07:36:59Z</time>
      </trkpt>
      <trkpt lat="45.54098" lon="6.65933">
        <ele>1068</ele>
        <time>2013-05-12T07:37:01Z</time>
      </trkpt>
      <trkpt lat="45.54094" lon="6.65933">
        <ele>1068.4000244141</ele>
        <time>2013-05-12T07:37:04Z</time>
      </trkpt>
      <trkpt lat="45.54092" lon="6.65934">
        <ele>1069.4000244141</ele>
        <time>2013-05-12T07:37:06Z</time>
      </trkpt>
      <trkpt lat="45.5409" lon="6.65934">
        <ele>1070.4000244141</ele>
        <time>2013-05-12T07:37:08Z</time>
      </trkpt>
      <trkpt lat="45.54088" lon="6.65934">
        <ele>1070.4000244141</ele>
        <time>2013-05-12T07:37:10Z</time>
      </trkpt>
      <trkpt lat="45.54086" lon="6.65935">
        <ele>1071</ele>
        <time>2013-05-12T07:37:12Z</time>
      </trkpt>
      <trkpt lat="45.54084" lon="6.65934">
        <ele>1072</ele>
        <time>2013-05-12T07:37:14Z</time>
      </trkpt>
      <trkpt lat="45.54082" lon="6.65934">
        <ele>1072.8000488281</ele>
        <time>2013-05-12T07:37:16Z</time>
      </trkpt>
      <trkpt lat="45.5408" lon="6.65934">
        <ele>1073</ele>
        <time>2013-05-12T07:37:19Z</time>
      </trkpt>
      <trkpt lat="45.54078" lon="6.65933">
        <ele>1073.4000244141</ele>
        <time>2013-05-12T07:37:21Z</time>
      </trkpt>
      <trkpt lat="45.54076" lon="6.65933">
        <ele>1074</ele>
        <time>2013-05-12T07:37:23Z</time>
      </trkpt>
      <trkpt lat="45.54075" lon="6.65932">
        <ele>1074.8000488281</ele>
        <time>2013-05-12T07:37:25Z</time>
      </trkpt>
      <trkpt lat="45.5407" lon="6.65929">
        <ele>1075.4000244141</ele>
        <time>2013-05-12T07:37:29Z</time>
      </trkpt>
      <trkpt lat="45.54068" lon="6.65928">
        <ele>1076.4000244141</ele>
        <time>2013-05-12T07:37:31Z</time>
      </trkpt>
      <trkpt lat="45.54067" lon="6.65927">
        <ele>1077</ele>
        <time>2013-05-12T07:37:33Z</time>
      </trkpt>
      <trkpt lat="45.54064" lon="6.65923">
        <ele>1078.8000488281</ele>
        <time>2013-05-12T07:37:37Z</time>
      </trkpt>
      <trkpt lat="45.54063" lon="6.65921">
        <ele>1079</ele>
        <time>2013-05-12T07:37:39Z</time>
      </trkpt>
      <trkpt lat="45.54062" lon="6.65919">
        <ele>1079.4000244141</ele>
        <time>2013-05-12T07:37:41Z</time>
      </trkpt>
      <trkpt lat="45.54061" lon="6.65917">
        <ele>1080</ele>
        <time>2013-05-12T07:37:43Z</time>
      </trkpt>
      <trkpt lat="45.5406" lon="6.65915">
        <ele>1080.8000488281</ele>
        <time>2013-05-12T07:37:45Z</time>
      </trkpt>
      <trkpt lat="45.54057" lon="6.6591">
        <ele>1081</ele>
        <time>2013-05-12T07:37:50Z</time>
      </trkpt>
      <trkpt lat="45.54055" lon="6.65908">
        <ele>1081.4000244141</ele>
        <time>2013-05-12T07:37:52Z</time>
      </trkpt>
      <trkpt lat="45.54053" lon="6.65907">
        <ele>1082.4000244141</ele>
        <time>2013-05-12T07:37:54Z</time>
      </trkpt>
      <trkpt lat="45.54052" lon="6.65906">
        <ele>1083</ele>
        <time>2013-05-12T07:37:56Z</time>
      </trkpt>
      <trkpt lat="45.5405" lon="6.65906">
        <ele>1083.4000244141</ele>
        <time>2013-05-12T07:37:58Z</time>
      </trkpt>
      <trkpt lat="45.54048" lon="6.65905">
        <ele>1084.4000244141</ele>
        <time>2013-05-12T07:38:00Z</time>
      </trkpt>
      <trkpt lat="45.54047" lon="6.65904">
        <ele>1085</ele>
        <time>2013-05-12T07:38:02Z</time>
      </trkpt>
      <trkpt lat="45.54043" lon="6.65903">
        <ele>1086</ele>
        <time>2013-05-12T07:38:06Z</time>
      </trkpt>
      <trkpt lat="45.54041" lon="6.65902">
        <ele>1086.8000488281</ele>
        <time>2013-05-12T07:38:08Z</time>
      </trkpt>
      <trkpt lat="45.5404" lon="6.65901">
        <ele>1087.4000244141</ele>
        <time>2013-05-12T07:38:10Z</time>
      </trkpt>
      <trkpt lat="45.54037" lon="6.659">
        <ele>1087.4000244141</ele>
        <time>2013-05-12T07:38:13Z</time>
      </trkpt>
      <trkpt lat="45.54034" lon="6.65898">
        <ele>1087.8000488281</ele>
        <time>2013-05-12T07:38:16Z</time>
      </trkpt>
      <trkpt lat="45.54032" lon="6.65897">
        <ele>1088.4000244141</ele>
        <time>2013-05-12T07:38:18Z</time>
      </trkpt>
      <trkpt lat="45.5403" lon="6.65896">
        <ele>1089.4000244141</ele>
        <time>2013-05-12T07:38:20Z</time>
      </trkpt>
      <trkpt lat="45.54028" lon="6.65894">
        <ele>1090</ele>
        <time>2013-05-12T07:38:23Z</time>
      </trkpt>
      <trkpt lat="45.54026" lon="6.65894">
        <ele>1091</ele>
        <time>2013-05-12T07:38:25Z</time>
      </trkpt>
      <trkpt lat="45.54021" lon="6.65891">
        <ele>1091.4000244141</ele>
        <time>2013-05-12T07:38:30Z</time>
      </trkpt>
      <trkpt lat="45.54019" lon="6.6589">
        <ele>1092.4000244141</ele>
        <time>2013-05-12T07:38:32Z</time>
      </trkpt>
      <trkpt lat="45.54017" lon="6.65888">
        <ele>1093.4000244141</ele>
        <time>2013-05-12T07:38:34Z</time>
      </trkpt>
      <trkpt lat="45.54014" lon="6.65885">
        <ele>1093.8000488281</ele>
        <time>2013-05-12T07:38:38Z</time>
      </trkpt>
      <trkpt lat="45.54012" lon="6.65884">
        <ele>1094.4000244141</ele>
        <time>2013-05-12T07:38:40Z</time>
      </trkpt>
      <trkpt lat="45.54011" lon="6.65883">
        <ele>1095</ele>
        <time>2013-05-12T07:38:42Z</time>
      </trkpt>
      <trkpt lat="45.5401" lon="6.65882">
        <ele>1095.4000244141</ele>
        <time>2013-05-12T07:38:44Z</time>
      </trkpt>
      <trkpt lat="45.54008" lon="6.65882">
        <ele>1096.4000244141</ele>
        <time>2013-05-12T07:38:46Z</time>
      </trkpt>
      <trkpt lat="45.54007" lon="6.65881">
        <ele>1097</ele>
        <time>2013-05-12T07:38:48Z</time>
      </trkpt>
      <trkpt lat="45.54004" lon="6.65878">
        <ele>1098</ele>
        <time>2013-05-12T07:38:52Z</time>
      </trkpt>
      <trkpt lat="45.54003" lon="6.65877">
        <ele>1098.8000488281</ele>
        <time>2013-05-12T07:38:54Z</time>
      </trkpt>
      <trkpt lat="45.54002" lon="6.65876">
        <ele>1099.4000244141</ele>
        <time>2013-05-12T07:38:56Z</time>
      </trkpt>
      <trkpt lat="45.54" lon="6.65875">
        <ele>1099.4000244141</ele>
        <time>2013-05-12T07:38:58Z</time>
      </trkpt>
      <trkpt lat="45.53998" lon="6.65873">
        <ele>1099.8000488281</ele>
        <time>2013-05-12T07:39:01Z</time>
      </trkpt>
      <trkpt lat="45.53994" lon="6.65871">
        <ele>1101</ele>
        <time>2013-05-12T07:39:05Z</time>
      </trkpt>
      <trkpt lat="45.53993" lon="6.65869">
        <ele>1101.8000488281</ele>
        <time>2013-05-12T07:39:07Z</time>
      </trkpt>
      <trkpt lat="45.53991" lon="6.65865">
        <ele>1102.4000244141</ele>
        <time>2013-05-12T07:39:11Z</time>
      </trkpt>
      <trkpt lat="45.5399" lon="6.65862">
        <ele>1103.4000244141</ele>
        <time>2013-05-12T07:39:13Z</time>
      </trkpt>
      <trkpt lat="45.53989" lon="6.65857">
        <ele>1104</ele>
        <time>2013-05-12T07:39:17Z</time>
      </trkpt>
      <trkpt lat="45.53988" lon="6.65855">
        <ele>1105</ele>
        <time>2013-05-12T07:39:19Z</time>
      </trkpt>
      <trkpt lat="45.53988" lon="6.65852">
        <ele>1105.8000488281</ele>
        <time>2013-05-12T07:39:21Z</time>
      </trkpt>
      <trkpt lat="45.53986" lon="6.65848">
        <ele>1105.8000488281</ele>
        <time>2013-05-12T07:39:25Z</time>
      </trkpt>
      <trkpt lat="45.53982" lon="6.65842">
        <ele>1106.4000244141</ele>
        <time>2013-05-12T07:39:29Z</time>
      </trkpt>
      <trkpt lat="45.5398" lon="6.65841">
        <ele>1107.4000244141</ele>
        <time>2013-05-12T07:39:31Z</time>
      </trkpt>
      <trkpt lat="45.53978" lon="6.6584">
        <ele>1108</ele>
        <time>2013-05-12T07:39:33Z</time>
      </trkpt>
      <trkpt lat="45.53974" lon="6.65841">
        <ele>1108.4000244141</ele>
        <time>2013-05-12T07:39:36Z</time>
      </trkpt>
      <trkpt lat="45.53974" lon="6.65843">
        <ele>1109</ele>
        <time>2013-05-12T07:39:38Z</time>
      </trkpt>
      <trkpt lat="45.53973" lon="6.65844">
        <ele>1109.8000488281</ele>
        <time>2013-05-12T07:39:40Z</time>
      </trkpt>
      <trkpt lat="45.53971" lon="6.65847">
        <ele>1110</ele>
        <time>2013-05-12T07:39:42Z</time>
      </trkpt>
      <trkpt lat="45.53971" lon="6.65848">
        <ele>1110.8000488281</ele>
        <time>2013-05-12T07:39:44Z</time>
      </trkpt>
      <trkpt lat="45.5397" lon="6.6585">
        <ele>1111.8000488281</ele>
        <time>2013-05-12T07:39:46Z</time>
      </trkpt>
      <trkpt lat="45.53968" lon="6.65854">
        <ele>1112</ele>
        <time>2013-05-12T07:39:49Z</time>
      </trkpt>
      <trkpt lat="45.53967" lon="6.65857">
        <ele>1112.4000244141</ele>
        <time>2013-05-12T07:39:52Z</time>
      </trkpt>
      <trkpt lat="45.53966" lon="6.65859">
        <ele>1113</ele>
        <time>2013-05-12T07:39:54Z</time>
      </trkpt>
      <trkpt lat="45.53965" lon="6.65862">
        <ele>1113.8000488281</ele>
        <time>2013-05-12T07:39:56Z</time>
      </trkpt>
      <trkpt lat="45.53963" lon="6.65866">
        <ele>1114</ele>
        <time>2013-05-12T07:40:00Z</time>
      </trkpt>
      <trkpt lat="45.53962" lon="6.65867">
        <ele>1114.8000488281</ele>
        <time>2013-05-12T07:40:02Z</time>
      </trkpt>
      <trkpt lat="45.53959" lon="6.65866">
        <ele>1115.4000244141</ele>
        <time>2013-05-12T07:40:04Z</time>
      </trkpt>
      <trkpt lat="45.53958" lon="6.65865">
        <ele>1116.4000244141</ele>
        <time>2013-05-12T07:40:06Z</time>
      </trkpt>
      <trkpt lat="45.53956" lon="6.65863">
        <ele>1117.4000244141</ele>
        <time>2013-05-12T07:40:08Z</time>
      </trkpt>
      <trkpt lat="45.53955" lon="6.6586">
        <ele>1118</ele>
        <time>2013-05-12T07:40:10Z</time>
      </trkpt>
      <trkpt lat="45.53954" lon="6.65858">
        <ele>1118.4000244141</ele>
        <time>2013-05-12T07:40:13Z</time>
      </trkpt>
      <trkpt lat="45.53952" lon="6.65856">
        <ele>1119</ele>
        <time>2013-05-12T07:40:15Z</time>
      </trkpt>
      <trkpt lat="45.5395" lon="6.65855">
        <ele>1120</ele>
        <time>2013-05-12T07:40:17Z</time>
      </trkpt>
      <trkpt lat="45.53948" lon="6.65853">
        <ele>1120.4000244141</ele>
        <time>2013-05-12T07:40:20Z</time>
      </trkpt>
      <trkpt lat="45.53947" lon="6.65852">
        <ele>1121</ele>
        <time>2013-05-12T07:40:22Z</time>
      </trkpt>
      <trkpt lat="45.53945" lon="6.65851">
        <ele>1121.8000488281</ele>
        <time>2013-05-12T07:40:24Z</time>
      </trkpt>
      <trkpt lat="45.53944" lon="6.65851">
        <ele>1122</ele>
        <time>2013-05-12T07:40:26Z</time>
      </trkpt>
      <trkpt lat="45.53942" lon="6.6585">
        <ele>1122.8000488281</ele>
        <time>2013-05-12T07:40:30Z</time>
      </trkpt>
      <trkpt lat="45.5394" lon="6.65848">
        <ele>1124.4000244141</ele>
        <time>2013-05-12T07:40:34Z</time>
      </trkpt>
      <trkpt lat="45.53937" lon="6.65844">
        <ele>1124.8000488281</ele>
        <time>2013-05-12T07:40:38Z</time>
      </trkpt>
      <trkpt lat="45.53937" lon="6.65842">
        <ele>1125.4000244141</ele>
        <time>2013-05-12T07:40:40Z</time>
      </trkpt>
      <trkpt lat="45.53936" lon="6.6584">
        <ele>1126.4000244141</ele>
        <time>2013-05-12T07:40:42Z</time>
      </trkpt>
      <trkpt lat="45.53935" lon="6.65837">
        <ele>1126.4000244141</ele>
        <time>2013-05-12T07:40:44Z</time>
      </trkpt>
      <trkpt lat="45.53934" lon="6.65835">
        <ele>1126.8000488281</ele>
        <time>2013-05-12T07:40:46Z</time>
      </trkpt>
      <trkpt lat="45.53932" lon="6.65835">
        <ele>1127.4000244141</ele>
        <time>2013-05-12T07:40:48Z</time>
      </trkpt>
      <trkpt lat="45.5393" lon="6.65834">
        <ele>1128</ele>
        <time>2013-05-12T07:40:50Z</time>
      </trkpt>
      <trkpt lat="45.53927" lon="6.65833">
        <ele>1128.8000488281</ele>
        <time>2013-05-12T07:40:53Z</time>
      </trkpt>
      <trkpt lat="45.53926" lon="6.65833">
        <ele>1129.4000244141</ele>
        <time>2013-05-12T07:40:55Z</time>
      </trkpt>
      <trkpt lat="45.53924" lon="6.65832">
        <ele>1130</ele>
        <time>2013-05-12T07:40:57Z</time>
      </trkpt>
      <trkpt lat="45.53922" lon="6.65832">
        <ele>1130.4000244141</ele>
        <time>2013-05-12T07:40:59Z</time>
      </trkpt>
      <trkpt lat="45.53919" lon="6.65833">
        <ele>1131</ele>
        <time>2013-05-12T07:41:03Z</time>
      </trkpt>
      <trkpt lat="45.53917" lon="6.65835">
        <ele>1131.4000244141</ele>
        <time>2013-05-12T07:41:05Z</time>
      </trkpt>
      <trkpt lat="45.53915" lon="6.65836">
        <ele>1132.4000244141</ele>
        <time>2013-05-12T07:41:07Z</time>
      </trkpt>
      <trkpt lat="45.53914" lon="6.65838">
        <ele>1133.4000244141</ele>
        <time>2013-05-12T07:41:09Z</time>
      </trkpt>
      <trkpt lat="45.53913" lon="6.65839">
        <ele>1134</ele>
        <time>2013-05-12T07:41:11Z</time>
      </trkpt>
      <trkpt lat="45.53912" lon="6.6584">
        <ele>1134.8000488281</ele>
        <time>2013-05-12T07:41:13Z</time>
      </trkpt>
      <trkpt lat="45.53909" lon="6.65844">
        <ele>1135</ele>
        <time>2013-05-12T07:41:17Z</time>
      </trkpt>
      <trkpt lat="45.53908" lon="6.65845">
        <ele>1136</ele>
        <time>2013-05-12T07:41:19Z</time>
      </trkpt>
      <trkpt lat="45.53907" lon="6.65846">
        <ele>1136.8000488281</ele>
        <time>2013-05-12T07:41:21Z</time>
      </trkpt>
      <trkpt lat="45.53906" lon="6.65846">
        <ele>1137</ele>
        <time>2013-05-12T07:41:23Z</time>
      </trkpt>
      <trkpt lat="45.53903" lon="6.65847">
        <ele>1137.8000488281</ele>
        <time>2013-05-12T07:41:25Z</time>
      </trkpt>
      <trkpt lat="45.53902" lon="6.65847">
        <ele>1138.4000244141</ele>
        <time>2013-05-12T07:41:27Z</time>
      </trkpt>
      <trkpt lat="45.539" lon="6.65847">
        <ele>1139</ele>
        <time>2013-05-12T07:41:30Z</time>
      </trkpt>
      <trkpt lat="45.53898" lon="6.65847">
        <ele>1139.4000244141</ele>
        <time>2013-05-12T07:41:32Z</time>
      </trkpt>
      <trkpt lat="45.53895" lon="6.65847">
        <ele>1140</ele>
        <time>2013-05-12T07:41:34Z</time>
      </trkpt>
      <trkpt lat="45.53893" lon="6.65848">
        <ele>1140.8000488281</ele>
        <time>2013-05-12T07:41:36Z</time>
      </trkpt>
      <trkpt lat="45.5389" lon="6.65847">
        <ele>1141</ele>
        <time>2013-05-12T07:41:38Z</time>
      </trkpt>
      <trkpt lat="45.5389" lon="6.65848">
        <ele>1142</ele>
        <time>2013-05-12T07:41:40Z</time>
      </trkpt>
      <trkpt lat="45.53888" lon="6.6585">
        <ele>1143</ele>
        <time>2013-05-12T07:41:42Z</time>
      </trkpt>
      <trkpt lat="45.53886" lon="6.65851">
        <ele>1143.4000244141</ele>
        <time>2013-05-12T07:41:46Z</time>
      </trkpt>
      <trkpt lat="45.53885" lon="6.65852">
        <ele>1144.4000244141</ele>
        <time>2013-05-12T07:41:48Z</time>
      </trkpt>
      <trkpt lat="45.53884" lon="6.65853">
        <ele>1145</ele>
        <time>2013-05-12T07:41:50Z</time>
      </trkpt>
      <trkpt lat="45.53881" lon="6.65855">
        <ele>1146</ele>
        <time>2013-05-12T07:41:54Z</time>
      </trkpt>
      <trkpt lat="45.53878" lon="6.65855">
        <ele>1147.4000244141</ele>
        <time>2013-05-12T07:41:58Z</time>
      </trkpt>
      <trkpt lat="45.53876" lon="6.65855">
        <ele>1148</ele>
        <time>2013-05-12T07:42:02Z</time>
      </trkpt>
      <trkpt lat="45.53874" lon="6.65854">
        <ele>1148.8000488281</ele>
        <time>2013-05-12T07:42:04Z</time>
      </trkpt>
      <trkpt lat="45.53873" lon="6.65854">
        <ele>1149.4000244141</ele>
        <time>2013-05-12T07:42:06Z</time>
      </trkpt>
      <trkpt lat="45.53872" lon="6.65856">
        <ele>1149.8000488281</ele>
        <time>2013-05-12T07:42:09Z</time>
      </trkpt>
      <trkpt lat="45.53871" lon="6.65857">
        <ele>1150.4000244141</ele>
        <time>2013-05-12T07:42:11Z</time>
      </trkpt>
      <trkpt lat="45.53872" lon="6.65858">
        <ele>1151.4000244141</ele>
        <time>2013-05-12T07:42:13Z</time>
      </trkpt>
      <trkpt lat="45.53871" lon="6.65858">
        <ele>1151.8000488281</ele>
        <time>2013-05-12T07:42:15Z</time>
      </trkpt>
      <trkpt lat="45.5387" lon="6.65859">
        <ele>1152.4000244141</ele>
        <time>2013-05-12T07:42:17Z</time>
      </trkpt>
      <trkpt lat="45.53869" lon="6.65858">
        <ele>1153.4000244141</ele>
        <time>2013-05-12T07:42:19Z</time>
      </trkpt>
      <trkpt lat="45.53864" lon="6.6586">
        <ele>1153.8000488281</ele>
        <time>2013-05-12T07:42:24Z</time>
      </trkpt>
      <trkpt lat="45.53862" lon="6.6586">
        <ele>1154.4000244141</ele>
        <time>2013-05-12T07:42:26Z</time>
      </trkpt>
      <trkpt lat="45.5386" lon="6.65859">
        <ele>1155.4000244141</ele>
        <time>2013-05-12T07:42:28Z</time>
      </trkpt>
      <trkpt lat="45.53858" lon="6.65859">
        <ele>1155.4000244141</ele>
        <time>2013-05-12T07:42:30Z</time>
      </trkpt>
      <trkpt lat="45.53856" lon="6.65859">
        <ele>1156.4000244141</ele>
        <time>2013-05-12T07:42:32Z</time>
      </trkpt>
      <trkpt lat="45.53855" lon="6.65858">
        <ele>1157</ele>
        <time>2013-05-12T07:42:34Z</time>
      </trkpt>
      <trkpt lat="45.53853" lon="6.65858">
        <ele>1157.8000488281</ele>
        <time>2013-05-12T07:42:36Z</time>
      </trkpt>
      <trkpt lat="45.53849" lon="6.65858">
        <ele>1158</ele>
        <time>2013-05-12T07:42:40Z</time>
      </trkpt>
      <trkpt lat="45.53847" lon="6.65858">
        <ele>1158.4000244141</ele>
        <time>2013-05-12T07:42:42Z</time>
      </trkpt>
      <trkpt lat="45.53846" lon="6.65858">
        <ele>1159</ele>
        <time>2013-05-12T07:42:44Z</time>
      </trkpt>
      <trkpt lat="45.53845" lon="6.65857">
        <ele>1159.8000488281</ele>
        <time>2013-05-12T07:42:46Z</time>
      </trkpt>
      <trkpt lat="45.53844" lon="6.65857">
        <ele>1159.8000488281</ele>
        <time>2013-05-12T07:42:48Z</time>
      </trkpt>
      <trkpt lat="45.53842" lon="6.65856">
        <ele>1160.4000244141</ele>
        <time>2013-05-12T07:42:50Z</time>
      </trkpt>
      <trkpt lat="45.53841" lon="6.65857">
        <ele>1161</ele>
        <time>2013-05-12T07:42:52Z</time>
      </trkpt>
      <trkpt lat="45.5384" lon="6.65856">
        <ele>1161.8000488281</ele>
        <time>2013-05-12T07:42:54Z</time>
      </trkpt>
      <trkpt lat="45.53838" lon="6.65856">
        <ele>1162.4000244141</ele>
        <time>2013-05-12T07:42:57Z</time>
      </trkpt>
      <trkpt lat="45.53836" lon="6.65856">
        <ele>1163</ele>
        <time>2013-05-12T07:42:59Z</time>
      </trkpt>
      <trkpt lat="45.53835" lon="6.65855">
        <ele>1164</ele>
        <time>2013-05-12T07:43:01Z</time>
      </trkpt>
      <trkpt lat="45.53831" lon="6.65854">
        <ele>1164.4000244141</ele>
        <time>2013-05-12T07:43:05Z</time>
      </trkpt>
      <trkpt lat="45.53831" lon="6.65854">
        <ele>1165</ele>
        <time>2013-05-12T07:43:07Z</time>
      </trkpt>
      <trkpt lat="45.53831" lon="6.65851">
        <ele>1165.4000244141</ele>
        <time>2013-05-12T07:43:09Z</time>
      </trkpt>
      <trkpt lat="45.53829" lon="6.65851">
        <ele>1166</ele>
        <time>2013-05-12T07:43:11Z</time>
      </trkpt>
      <trkpt lat="45.53826" lon="6.6585">
        <ele>1166.4000244141</ele>
        <time>2013-05-12T07:43:14Z</time>
      </trkpt>
      <trkpt lat="45.53823" lon="6.6585">
        <ele>1167.4000244141</ele>
        <time>2013-05-12T07:43:16Z</time>
      </trkpt>
      <trkpt lat="45.53822" lon="6.6585">
        <ele>1168</ele>
        <time>2013-05-12T07:43:18Z</time>
      </trkpt>
      <trkpt lat="45.53818" lon="6.65848">
        <ele>1169</ele>
        <time>2013-05-12T07:43:23Z</time>
      </trkpt>
      <trkpt lat="45.53816" lon="6.65847">
        <ele>1169.8000488281</ele>
        <time>2013-05-12T07:43:25Z</time>
      </trkpt>
      <trkpt lat="45.53813" lon="6.65846">
        <ele>1170.4000244141</ele>
        <time>2013-05-12T07:43:28Z</time>
      </trkpt>
      <trkpt lat="45.5381" lon="6.65846">
        <ele>1171</ele>
        <time>2013-05-12T07:43:30Z</time>
      </trkpt>
      <trkpt lat="45.53808" lon="6.65846">
        <ele>1172</ele>
        <time>2013-05-12T07:43:32Z</time>
      </trkpt>
      <trkpt lat="45.53806" lon="6.65845">
        <ele>1172.4000244141</ele>
        <time>2013-05-12T07:43:34Z</time>
      </trkpt>
      <trkpt lat="45.53804" lon="6.65844">
        <ele>1173</ele>
        <time>2013-05-12T07:43:36Z</time>
      </trkpt>
      <trkpt lat="45.53801" lon="6.65842">
        <ele>1174</ele>
        <time>2013-05-12T07:43:38Z</time>
      </trkpt>
      <trkpt lat="45.53801" lon="6.65841">
        <ele>1174.4000244141</ele>
        <time>2013-05-12T07:43:40Z</time>
      </trkpt>
      <trkpt lat="45.53799" lon="6.65838">
        <ele>1174.8000488281</ele>
        <time>2013-05-12T07:43:44Z</time>
      </trkpt>
      <trkpt lat="45.53798" lon="6.65837">
        <ele>1175</ele>
        <time>2013-05-12T07:43:46Z</time>
      </trkpt>
      <trkpt lat="45.53798" lon="6.65836">
        <ele>1175.8000488281</ele>
        <time>2013-05-12T07:43:48Z</time>
      </trkpt>
      <trkpt lat="45.53797" lon="6.65835">
        <ele>1176.4000244141</ele>
        <time>2013-05-12T07:43:50Z</time>
      </trkpt>
      <trkpt lat="45.53795" lon="6.65833">
        <ele>1177</ele>
        <time>2013-05-12T07:43:52Z</time>
      </trkpt>
      <trkpt lat="45.53794" lon="6.65832">
        <ele>1178</ele>
        <time>2013-05-12T07:43:54Z</time>
      </trkpt>
      <trkpt lat="45.53793" lon="6.65829">
        <ele>1178.8000488281</ele>
        <time>2013-05-12T07:43:57Z</time>
      </trkpt>
      <trkpt lat="45.53792" lon="6.65828">
        <ele>1179.4000244141</ele>
        <time>2013-05-12T07:43:59Z</time>
      </trkpt>
      <trkpt lat="45.53791" lon="6.65825">
        <ele>1180.4000244141</ele>
        <time>2013-05-12T07:44:01Z</time>
      </trkpt>
      <trkpt lat="45.53785" lon="6.65824">
        <ele>1180.8000488281</ele>
        <time>2013-05-12T07:44:05Z</time>
      </trkpt>
      <trkpt lat="45.53782" lon="6.65823">
        <ele>1181.4000244141</ele>
        <time>2013-05-12T07:44:07Z</time>
      </trkpt>
      <trkpt lat="45.5378" lon="6.65822">
        <ele>1182</ele>
        <time>2013-05-12T07:44:09Z</time>
      </trkpt>
      <trkpt lat="45.53775" lon="6.65822">
        <ele>1183</ele>
        <time>2013-05-12T07:44:13Z</time>
      </trkpt>
      <trkpt lat="45.53773" lon="6.65821">
        <ele>1184</ele>
        <time>2013-05-12T07:44:15Z</time>
      </trkpt>
      <trkpt lat="45.5377" lon="6.65821">
        <ele>1184.8000488281</ele>
        <time>2013-05-12T07:44:17Z</time>
      </trkpt>
      <trkpt lat="45.53766" lon="6.65822">
        <ele>1185</ele>
        <time>2013-05-12T07:44:20Z</time>
      </trkpt>
      <trkpt lat="45.53764" lon="6.65822">
        <ele>1185.4000244141</ele>
        <time>2013-05-12T07:44:22Z</time>
      </trkpt>
      <trkpt lat="45.53762" lon="6.65821">
        <ele>1186.4000244141</ele>
        <time>2013-05-12T07:44:24Z</time>
      </trkpt>
      <trkpt lat="45.5376" lon="6.65821">
        <ele>1186.8000488281</ele>
        <time>2013-05-12T07:44:26Z</time>
      </trkpt>
      <trkpt lat="45.53758" lon="6.65821">
        <ele>1187.4000244141</ele>
        <time>2013-05-12T07:44:28Z</time>
      </trkpt>
      <trkpt lat="45.53756" lon="6.65821">
        <ele>1187.8000488281</ele>
        <time>2013-05-12T07:44:30Z</time>
      </trkpt>
      <trkpt lat="45.53754" lon="6.65822">
        <ele>1188.4000244141</ele>
        <time>2013-05-12T07:44:32Z</time>
      </trkpt>
      <trkpt lat="45.53752" lon="6.65822">
        <ele>1189</ele>
        <time>2013-05-12T07:44:34Z</time>
      </trkpt>
      <trkpt lat="45.5375" lon="6.65822">
        <ele>1190</ele>
        <time>2013-05-12T07:44:36Z</time>
      </trkpt>
      <trkpt lat="45.53749" lon="6.65822">
        <ele>1190.8000488281</ele>
        <time>2013-05-12T07:44:38Z</time>
      </trkpt>
      <trkpt lat="45.53746" lon="6.65821">
        <ele>1191</ele>
        <time>2013-05-12T07:44:40Z</time>
      </trkpt>
      <trkpt lat="45.5374" lon="6.6582">
        <ele>1192</ele>
        <time>2013-05-12T07:44:46Z</time>
      </trkpt>
      <trkpt lat="45.53738" lon="6.6582">
        <ele>1192.4000244141</ele>
        <time>2013-05-12T07:44:48Z</time>
      </trkpt>
      <trkpt lat="45.53736" lon="6.65819">
        <ele>1193</ele>
        <time>2013-05-12T07:44:50Z</time>
      </trkpt>
      <trkpt lat="45.53733" lon="6.65816">
        <ele>1193.4000244141</ele>
        <time>2013-05-12T07:44:53Z</time>
      </trkpt>
      <trkpt lat="45.5373" lon="6.65815">
        <ele>1194.4000244141</ele>
        <time>2013-05-12T07:44:55Z</time>
      </trkpt>
      <trkpt lat="45.53729" lon="6.65814">
        <ele>1195</ele>
        <time>2013-05-12T07:44:57Z</time>
      </trkpt>
      <trkpt lat="45.53725" lon="6.6581">
        <ele>1196</ele>
        <time>2013-05-12T07:45:02Z</time>
      </trkpt>
      <trkpt lat="45.53724" lon="6.65808">
        <ele>1196.4000244141</ele>
        <time>2013-05-12T07:45:04Z</time>
      </trkpt>
      <trkpt lat="45.53722" lon="6.65806">
        <ele>1197</ele>
        <time>2013-05-12T07:45:06Z</time>
      </trkpt>
      <trkpt lat="45.5372" lon="6.65804">
        <ele>1197</ele>
        <time>2013-05-12T07:45:08Z</time>
      </trkpt>
      <trkpt lat="45.53719" lon="6.65803">
        <ele>1197.8000488281</ele>
        <time>2013-05-12T07:45:10Z</time>
      </trkpt>
      <trkpt lat="45.53717" lon="6.65801">
        <ele>1198.4000244141</ele>
        <time>2013-05-12T07:45:12Z</time>
      </trkpt>
      <trkpt lat="45.53715" lon="6.65799">
        <ele>1199</ele>
        <time>2013-05-12T07:45:14Z</time>
      </trkpt>
      <trkpt lat="45.53714" lon="6.65798">
        <ele>1199.8000488281</ele>
        <time>2013-05-12T07:45:16Z</time>
      </trkpt>
      <trkpt lat="45.53712" lon="6.65796">
        <ele>1200.4000244141</ele>
        <time>2013-05-12T07:45:18Z</time>
      </trkpt>
      <trkpt lat="45.5371" lon="6.65794">
        <ele>1201</ele>
        <time>2013-05-12T07:45:20Z</time>
      </trkpt>
      <trkpt lat="45.53708" lon="6.6579">
        <ele>1201.8000488281</ele>
        <time>2013-05-12T07:45:23Z</time>
      </trkpt>
      <trkpt lat="45.53707" lon="6.65789">
        <ele>1202.8000488281</ele>
        <time>2013-05-12T07:45:25Z</time>
      </trkpt>
      <trkpt lat="45.53705" lon="6.65787">
        <ele>1203</ele>
        <time>2013-05-12T07:45:27Z</time>
      </trkpt>
      <trkpt lat="45.53699" lon="6.65781">
        <ele>1203.8000488281</ele>
        <time>2013-05-12T07:45:33Z</time>
      </trkpt>
      <trkpt lat="45.53697" lon="6.6578">
        <ele>1204.4000244141</ele>
        <time>2013-05-12T07:45:35Z</time>
      </trkpt>
      <trkpt lat="45.53695" lon="6.65778">
        <ele>1205</ele>
        <time>2013-05-12T07:45:37Z</time>
      </trkpt>
      <trkpt lat="45.53692" lon="6.65777">
        <ele>1205.4000244141</ele>
        <time>2013-05-12T07:45:39Z</time>
      </trkpt>
      <trkpt lat="45.5369" lon="6.65776">
        <ele>1206</ele>
        <time>2013-05-12T07:45:41Z</time>
      </trkpt>
      <trkpt lat="45.53688" lon="6.65775">
        <ele>1206.8000488281</ele>
        <time>2013-05-12T07:45:43Z</time>
      </trkpt>
      <trkpt lat="45.53686" lon="6.65773">
        <ele>1207.4000244141</ele>
        <time>2013-05-12T07:45:45Z</time>
      </trkpt>
      <trkpt lat="45.5368" lon="6.65771">
        <ele>1207.4000244141</ele>
        <time>2013-05-12T07:45:49Z</time>
      </trkpt>
      <trkpt lat="45.53678" lon="6.65771">
        <ele>1208.4000244141</ele>
        <time>2013-05-12T07:45:51Z</time>
      </trkpt>
      <trkpt lat="45.53675" lon="6.6577">
        <ele>1209</ele>
        <time>2013-05-12T07:45:53Z</time>
      </trkpt>
      <trkpt lat="45.53668" lon="6.65769">
        <ele>1209.4000244141</ele>
        <time>2013-05-12T07:45:58Z</time>
      </trkpt>
      <trkpt lat="45.53664" lon="6.65768">
        <ele>1210</ele>
        <time>2013-05-12T07:46:01Z</time>
      </trkpt>
      <trkpt lat="45.53662" lon="6.65768">
        <ele>1211</ele>
        <time>2013-05-12T07:46:03Z</time>
      </trkpt>
      <trkpt lat="45.5366" lon="6.6577">
        <ele>1211.4000244141</ele>
        <time>2013-05-12T07:46:05Z</time>
      </trkpt>
      <trkpt lat="45.53652" lon="6.65768">
        <ele>1211.8000488281</ele>
        <time>2013-05-12T07:46:12Z</time>
      </trkpt>
      <trkpt lat="45.53649" lon="6.65768">
        <ele>1212.4000244141</ele>
        <time>2013-05-12T07:46:14Z</time>
      </trkpt>
      <trkpt lat="45.53645" lon="6.65767">
        <ele>1213.4000244141</ele>
        <time>2013-05-12T07:46:18Z</time>
      </trkpt>
      <trkpt lat="45.53643" lon="6.65766">
        <ele>1214</ele>
        <time>2013-05-12T07:46:20Z</time>
      </trkpt>
      <trkpt lat="45.5364" lon="6.65766">
        <ele>1215</ele>
        <time>2013-05-12T07:46:22Z</time>
      </trkpt>
      <trkpt lat="45.53638" lon="6.65767">
        <ele>1215.8000488281</ele>
        <time>2013-05-12T07:46:24Z</time>
      </trkpt>
      <trkpt lat="45.53632" lon="6.65765">
        <ele>1216.4000244141</ele>
        <time>2013-05-12T07:46:29Z</time>
      </trkpt>
      <trkpt lat="45.53629" lon="6.65765">
        <ele>1217</ele>
        <time>2013-05-12T07:46:31Z</time>
      </trkpt>
      <trkpt lat="45.53627" lon="6.65765">
        <ele>1217.4000244141</ele>
        <time>2013-05-12T07:46:33Z</time>
      </trkpt>
      <trkpt lat="45.53625" lon="6.65765">
        <ele>1218.4000244141</ele>
        <time>2013-05-12T07:46:35Z</time>
      </trkpt>
      <trkpt lat="45.53623" lon="6.65765">
        <ele>1219</ele>
        <time>2013-05-12T07:46:37Z</time>
      </trkpt>
      <trkpt lat="45.5362" lon="6.65763">
        <ele>1219.8000488281</ele>
        <time>2013-05-12T07:46:39Z</time>
      </trkpt>
      <trkpt lat="45.53617" lon="6.65761">
        <ele>1219.8000488281</ele>
        <time>2013-05-12T07:46:42Z</time>
      </trkpt>
      <trkpt lat="45.53616" lon="6.6576">
        <ele>1220.4000244141</ele>
        <time>2013-05-12T07:46:44Z</time>
      </trkpt>
      <trkpt lat="45.53615" lon="6.65758">
        <ele>1221.4000244141</ele>
        <time>2013-05-12T07:46:46Z</time>
      </trkpt>
      <trkpt lat="45.53613" lon="6.65758">
        <ele>1222</ele>
        <time>2013-05-12T07:46:48Z</time>
      </trkpt>
      <trkpt lat="45.53612" lon="6.65758">
        <ele>1222.4000244141</ele>
        <time>2013-05-12T07:46:50Z</time>
      </trkpt>
      <trkpt lat="45.5361" lon="6.65761">
        <ele>1223.4000244141</ele>
        <time>2013-05-12T07:46:52Z</time>
      </trkpt>
      <trkpt lat="45.53609" lon="6.65763">
        <ele>1224</ele>
        <time>2013-05-12T07:46:54Z</time>
      </trkpt>
      <trkpt lat="45.53609" lon="6.65766">
        <ele>1224.4000244141</ele>
        <time>2013-05-12T07:47:00Z</time>
      </trkpt>
      <trkpt lat="45.53609" lon="6.65766">
        <ele>1225.4000244141</ele>
        <time>2013-05-12T07:47:02Z</time>
      </trkpt>
      <trkpt lat="45.53609" lon="6.65767">
        <ele>1226</ele>
        <time>2013-05-12T07:47:04Z</time>
      </trkpt>
      <trkpt lat="45.53609" lon="6.65768">
        <ele>1226</ele>
        <time>2013-05-12T07:47:11Z</time>
      </trkpt>
      <trkpt lat="45.53608" lon="6.6577">
        <ele>1226</ele>
        <time>2013-05-12T07:47:17Z</time>
      </trkpt>
      <trkpt lat="45.53608" lon="6.6577">
        <ele>1226</ele>
        <time>2013-05-12T07:47:22Z</time>
      </trkpt>
      <trkpt lat="45.53608" lon="6.65771">
        <ele>1226</ele>
        <time>2013-05-12T07:47:33Z</time>
      </trkpt>
      <trkpt lat="45.53607" lon="6.65772">
        <ele>1226</ele>
        <time>2013-05-12T07:47:44Z</time>
      </trkpt>
      <trkpt lat="45.53607" lon="6.65773">
        <ele>1226</ele>
        <time>2013-05-12T07:47:59Z</time>
      </trkpt>
      <trkpt lat="45.53607" lon="6.65772">
        <ele>1226</ele>
        <time>2013-05-12T07:48:05Z</time>
      </trkpt>
      <trkpt lat="45.53607" lon="6.65773">
        <ele>1226</ele>
        <time>2013-05-12T07:48:11Z</time>
      </trkpt>
      <trkpt lat="45.53607" lon="6.65772">
        <ele>1226</ele>
        <time>2013-05-12T07:48:16Z</time>
      </trkpt>
      <trkpt lat="45.53606" lon="6.65772">
        <ele>1226</ele>
        <time>2013-05-12T07:48:22Z</time>
      </trkpt>
      <trkpt lat="45.53606" lon="6.65771">
        <ele>1226</ele>
        <time>2013-05-12T07:48:38Z</time>
      </trkpt>
      <trkpt lat="45.53606" lon="6.65771">
        <ele>1226</ele>
        <time>2013-05-12T07:48:45Z</time>
      </trkpt>
      <trkpt lat="45.53606" lon="6.6577">
        <ele>1226</ele>
        <time>2013-05-12T07:49:12Z</time>
      </trkpt>
      <trkpt lat="45.53606" lon="6.6577">
        <ele>1226</ele>
        <time>2013-05-12T07:49:18Z</time>
      </trkpt>
      <trkpt lat="45.53606" lon="6.65769">
        <ele>1226</ele>
        <time>2013-05-12T07:49:36Z</time>
      </trkpt>
      <trkpt lat="45.53605" lon="6.65769">
        <ele>1226</ele>
        <time>2013-05-12T07:50:09Z</time>
      </trkpt>
      <trkpt lat="45.53605" lon="6.6577">
        <ele>1226</ele>
        <time>2013-05-12T07:50:16Z</time>
      </trkpt>
      <trkpt lat="45.53605" lon="6.6577">
        <ele>1226</ele>
        <time>2013-05-12T07:50:20Z</time>
      </trkpt>
      <trkpt lat="45.53605" lon="6.6577">
        <ele>1226</ele>
        <time>2013-05-12T07:50:39Z</time>
      </trkpt>
      <trkpt lat="45.53605" lon="6.6577">
        <ele>1226</ele>
        <time>2013-05-12T07:50:50Z</time>
      </trkpt>
      <trkpt lat="45.53604" lon="6.65773">
        <ele>1226</ele>
        <time>2013-05-12T07:51:01Z</time>
      </trkpt>
      <trkpt lat="45.53603" lon="6.65781">
        <ele>1226</ele>
        <time>2013-05-12T07:51:04Z</time>
      </trkpt>
      <trkpt lat="45.53602" lon="6.65792">
        <ele>1226</ele>
        <time>2013-05-12T07:51:08Z</time>
      </trkpt>
      <trkpt lat="45.53601" lon="6.65803">
        <ele>1226.4000244141</ele>
        <time>2013-05-12T07:51:12Z</time>
      </trkpt>
      <trkpt lat="45.536" lon="6.65808">
        <ele>1227</ele>
        <time>2013-05-12T07:51:14Z</time>
      </trkpt>
      <trkpt lat="45.536" lon="6.65812">
        <ele>1228</ele>
        <time>2013-05-12T07:51:16Z</time>
      </trkpt>
      <trkpt lat="45.536" lon="6.65826">
        <ele>1228</ele>
        <time>2013-05-12T07:51:21Z</time>
      </trkpt>
      <trkpt lat="45.53601" lon="6.65831">
        <ele>1229</ele>
        <time>2013-05-12T07:51:23Z</time>
      </trkpt>
      <trkpt lat="45.53602" lon="6.65836">
        <ele>1230</ele>
        <time>2013-05-12T07:51:25Z</time>
      </trkpt>
      <trkpt lat="45.53603" lon="6.65841">
        <ele>1230.4000244141</ele>
        <time>2013-05-12T07:51:27Z</time>
      </trkpt>
      <trkpt lat="45.53599" lon="6.65849">
        <ele>1230.4000244141</ele>
        <time>2013-05-12T07:51:31Z</time>
      </trkpt>
      <trkpt lat="45.53596" lon="6.65846">
        <ele>1231</ele>
        <time>2013-05-12T07:51:33Z</time>
      </trkpt>
      <trkpt lat="45.53594" lon="6.65842">
        <ele>1231.8000488281</ele>
        <time>2013-05-12T07:51:35Z</time>
      </trkpt>
      <trkpt lat="45.53594" lon="6.65837">
        <ele>1232.4000244141</ele>
        <time>2013-05-12T07:51:37Z</time>
      </trkpt>
      <trkpt lat="45.53592" lon="6.65829">
        <ele>1232.4000244141</ele>
        <time>2013-05-12T07:51:41Z</time>
      </trkpt>
      <trkpt lat="45.53592" lon="6.6582">
        <ele>1233</ele>
        <time>2013-05-12T07:51:44Z</time>
      </trkpt>
      <trkpt lat="45.53591" lon="6.65816">
        <ele>1234</ele>
        <time>2013-05-12T07:51:46Z</time>
      </trkpt>
      <trkpt lat="45.5359" lon="6.6581">
        <ele>1234.4000244141</ele>
        <time>2013-05-12T07:51:48Z</time>
      </trkpt>
      <trkpt lat="45.53588" lon="6.65801">
        <ele>1234.4000244141</ele>
        <time>2013-05-12T07:51:52Z</time>
      </trkpt>
      <trkpt lat="45.53586" lon="6.65793">
        <ele>1235.4000244141</ele>
        <time>2013-05-12T07:51:55Z</time>
      </trkpt>
      <trkpt lat="45.53584" lon="6.65788">
        <ele>1236</ele>
        <time>2013-05-12T07:51:57Z</time>
      </trkpt>
      <trkpt lat="45.53583" lon="6.65782">
        <ele>1236.8000488281</ele>
        <time>2013-05-12T07:51:59Z</time>
      </trkpt>
      <trkpt lat="45.53579" lon="6.65771">
        <ele>1237.4000244141</ele>
        <time>2013-05-12T07:52:04Z</time>
      </trkpt>
      <trkpt lat="45.53577" lon="6.65766">
        <ele>1238.4000244141</ele>
        <time>2013-05-12T07:52:06Z</time>
      </trkpt>
      <trkpt lat="45.53573" lon="6.65754">
        <ele>1238.8000488281</ele>
        <time>2013-05-12T07:52:11Z</time>
      </trkpt>
      <trkpt lat="45.53571" lon="6.6575">
        <ele>1239.4000244141</ele>
        <time>2013-05-12T07:52:13Z</time>
      </trkpt>
      <trkpt lat="45.53569" lon="6.65745">
        <ele>1240</ele>
        <time>2013-05-12T07:52:15Z</time>
      </trkpt>
      <trkpt lat="45.53567" lon="6.6574">
        <ele>1240.4000244141</ele>
        <time>2013-05-12T07:52:17Z</time>
      </trkpt>
      <trkpt lat="45.53564" lon="6.6573">
        <ele>1241.4000244141</ele>
        <time>2013-05-12T07:52:21Z</time>
      </trkpt>
      <trkpt lat="45.53563" lon="6.65726">
        <ele>1242</ele>
        <time>2013-05-12T07:52:23Z</time>
      </trkpt>
      <trkpt lat="45.53556" lon="6.65717">
        <ele>1243</ele>
        <time>2013-05-12T07:52:30Z</time>
      </trkpt>
      <trkpt lat="45.53555" lon="6.65721">
        <ele>1243.8000488281</ele>
        <time>2013-05-12T07:52:32Z</time>
      </trkpt>
      <trkpt lat="45.53554" lon="6.65726">
        <ele>1244.4000244141</ele>
        <time>2013-05-12T07:52:34Z</time>
      </trkpt>
      <trkpt lat="45.53554" lon="6.65731">
        <ele>1245</ele>
        <time>2013-05-12T07:52:36Z</time>
      </trkpt>
      <trkpt lat="45.53557" lon="6.65741">
        <ele>1245.8000488281</ele>
        <time>2013-05-12T07:52:41Z</time>
      </trkpt>
      <trkpt lat="45.53559" lon="6.65745">
        <ele>1246.4000244141</ele>
        <time>2013-05-12T07:52:43Z</time>
      </trkpt>
      <trkpt lat="45.5356" lon="6.6575">
        <ele>1247.4000244141</ele>
        <time>2013-05-12T07:52:45Z</time>
      </trkpt>
      <trkpt lat="45.53553" lon="6.65742">
        <ele>1247.4000244141</ele>
        <time>2013-05-12T07:52:53Z</time>
      </trkpt>
      <trkpt lat="45.53551" lon="6.65739">
        <ele>1248</ele>
        <time>2013-05-12T07:52:55Z</time>
      </trkpt>
      <trkpt lat="45.53548" lon="6.65736">
        <ele>1249</ele>
        <time>2013-05-12T07:52:57Z</time>
      </trkpt>
      <trkpt lat="45.53546" lon="6.65735">
        <ele>1249.4000244141</ele>
        <time>2013-05-12T07:52:59Z</time>
      </trkpt>
      <trkpt lat="45.53542" lon="6.65734">
        <ele>1250</ele>
        <time>2013-05-12T07:53:03Z</time>
      </trkpt>
      <trkpt lat="45.5354" lon="6.65734">
        <ele>1250.4000244141</ele>
        <time>2013-05-12T07:53:05Z</time>
      </trkpt>
      <trkpt lat="45.53539" lon="6.65733">
        <ele>1251</ele>
        <time>2013-05-12T07:53:07Z</time>
      </trkpt>
      <trkpt lat="45.53536" lon="6.65733">
        <ele>1252</ele>
        <time>2013-05-12T07:53:10Z</time>
      </trkpt>
      <trkpt lat="45.53535" lon="6.65733">
        <ele>1252.8000488281</ele>
        <time>2013-05-12T07:53:12Z</time>
      </trkpt>
      <trkpt lat="45.53534" lon="6.65732">
        <ele>1253.4000244141</ele>
        <time>2013-05-12T07:53:14Z</time>
      </trkpt>
      <trkpt lat="45.53532" lon="6.65731">
        <ele>1254.4000244141</ele>
        <time>2013-05-12T07:53:16Z</time>
      </trkpt>
      <trkpt lat="45.53531" lon="6.65731">
        <ele>1255.4000244141</ele>
        <time>2013-05-12T07:53:18Z</time>
      </trkpt>
      <trkpt lat="45.53529" lon="6.65731">
        <ele>1255.8000488281</ele>
        <time>2013-05-12T07:53:21Z</time>
      </trkpt>
      <trkpt lat="45.53528" lon="6.6573">
        <ele>1256.4000244141</ele>
        <time>2013-05-12T07:53:23Z</time>
      </trkpt>
      <trkpt lat="45.53527" lon="6.65729">
        <ele>1257.4000244141</ele>
        <time>2013-05-12T07:53:25Z</time>
      </trkpt>
      <trkpt lat="45.53527" lon="6.65726">
        <ele>1257.8000488281</ele>
        <time>2013-05-12T07:53:28Z</time>
      </trkpt>
      <trkpt lat="45.53527" lon="6.65725">
        <ele>1258.4000244141</ele>
        <time>2013-05-12T07:53:30Z</time>
      </trkpt>
      <trkpt lat="45.53527" lon="6.65723">
        <ele>1259</ele>
        <time>2013-05-12T07:53:32Z</time>
      </trkpt>
      <trkpt lat="45.53527" lon="6.6572">
        <ele>1259.8000488281</ele>
        <time>2013-05-12T07:53:34Z</time>
      </trkpt>
      <trkpt lat="45.53525" lon="6.65716">
        <ele>1260.4000244141</ele>
        <time>2013-05-12T07:53:37Z</time>
      </trkpt>
      <trkpt lat="45.53524" lon="6.65712">
        <ele>1261</ele>
        <time>2013-05-12T07:53:39Z</time>
      </trkpt>
      <trkpt lat="45.53523" lon="6.65709">
        <ele>1261.8000488281</ele>
        <time>2013-05-12T07:53:41Z</time>
      </trkpt>
      <trkpt lat="45.53521" lon="6.65707">
        <ele>1262.4000244141</ele>
        <time>2013-05-12T07:53:43Z</time>
      </trkpt>
      <trkpt lat="45.5352" lon="6.65703">
        <ele>1263.4000244141</ele>
        <time>2013-05-12T07:53:45Z</time>
      </trkpt>
      <trkpt lat="45.53518" lon="6.65702">
        <ele>1263.8000488281</ele>
        <time>2013-05-12T07:53:47Z</time>
      </trkpt>
      <trkpt lat="45.53511" lon="6.65691">
        <ele>1264</ele>
        <time>2013-05-12T07:53:56Z</time>
      </trkpt>
      <trkpt lat="45.5351" lon="6.65689">
        <ele>1264.4000244141</ele>
        <time>2013-05-12T07:53:58Z</time>
      </trkpt>
      <trkpt lat="45.53509" lon="6.65686">
        <ele>1265</ele>
        <time>2013-05-12T07:54:00Z</time>
      </trkpt>
      <trkpt lat="45.53507" lon="6.65682">
        <ele>1266.4000244141</ele>
        <time>2013-05-12T07:54:04Z</time>
      </trkpt>
      <trkpt lat="45.53505" lon="6.65678">
        <ele>1267</ele>
        <time>2013-05-12T07:54:06Z</time>
      </trkpt>
      <trkpt lat="45.53502" lon="6.65676">
        <ele>1268</ele>
        <time>2013-05-12T07:54:08Z</time>
      </trkpt>
      <trkpt lat="45.53499" lon="6.65672">
        <ele>1268.4000244141</ele>
        <time>2013-05-12T07:54:12Z</time>
      </trkpt>
      <trkpt lat="45.53497" lon="6.65669">
        <ele>1269</ele>
        <time>2013-05-12T07:54:14Z</time>
      </trkpt>
      <trkpt lat="45.53496" lon="6.65668">
        <ele>1270</ele>
        <time>2013-05-12T07:54:16Z</time>
      </trkpt>
      <trkpt lat="45.53494" lon="6.65666">
        <ele>1270.4000244141</ele>
        <time>2013-05-12T07:54:18Z</time>
      </trkpt>
      <trkpt lat="45.53493" lon="6.65664">
        <ele>1271</ele>
        <time>2013-05-12T07:54:20Z</time>
      </trkpt>
      <trkpt lat="45.53492" lon="6.65663">
        <ele>1272</ele>
        <time>2013-05-12T07:54:22Z</time>
      </trkpt>
      <trkpt lat="45.5349" lon="6.65659">
        <ele>1272.4000244141</ele>
        <time>2013-05-12T07:54:25Z</time>
      </trkpt>
      <trkpt lat="45.53488" lon="6.65657">
        <ele>1273</ele>
        <time>2013-05-12T07:54:27Z</time>
      </trkpt>
      <trkpt lat="45.53487" lon="6.65655">
        <ele>1273.8000488281</ele>
        <time>2013-05-12T07:54:29Z</time>
      </trkpt>
      <trkpt lat="45.53486" lon="6.65654">
        <ele>1274.4000244141</ele>
        <time>2013-05-12T07:54:31Z</time>
      </trkpt>
      <trkpt lat="45.53484" lon="6.65651">
        <ele>1275</ele>
        <time>2013-05-12T07:54:33Z</time>
      </trkpt>
      <trkpt lat="45.53483" lon="6.65649">
        <ele>1276</ele>
        <time>2013-05-12T07:54:35Z</time>
      </trkpt>
      <trkpt lat="45.53481" lon="6.65645">
        <ele>1277</ele>
        <time>2013-05-12T07:54:37Z</time>
      </trkpt>
      <trkpt lat="45.5348" lon="6.65642">
        <ele>1277.8000488281</ele>
        <time>2013-05-12T07:54:39Z</time>
      </trkpt>
      <trkpt lat="45.53479" lon="6.65639">
        <ele>1278.4000244141</ele>
        <time>2013-05-12T07:54:41Z</time>
      </trkpt>
      <trkpt lat="45.53476" lon="6.65634">
        <ele>1278.4000244141</ele>
        <time>2013-05-12T07:54:44Z</time>
      </trkpt>
      <trkpt lat="45.53474" lon="6.65629">
        <ele>1279</ele>
        <time>2013-05-12T07:54:49Z</time>
      </trkpt>
      <trkpt lat="45.53472" lon="6.65627">
        <ele>1279.4000244141</ele>
        <time>2013-05-12T07:54:51Z</time>
      </trkpt>
      <trkpt lat="45.53471" lon="6.65625">
        <ele>1280.4000244141</ele>
        <time>2013-05-12T07:54:53Z</time>
      </trkpt>
      <trkpt lat="45.5347" lon="6.65621">
        <ele>1280.8000488281</ele>
        <time>2013-05-12T07:54:56Z</time>
      </trkpt>
      <trkpt lat="45.5347" lon="6.6562">
        <ele>1281.4000244141</ele>
        <time>2013-05-12T07:54:58Z</time>
      </trkpt>
      <trkpt lat="45.53469" lon="6.65617">
        <ele>1282.4000244141</ele>
        <time>2013-05-12T07:55:00Z</time>
      </trkpt>
      <trkpt lat="45.53468" lon="6.65614">
        <ele>1283</ele>
        <time>2013-05-12T07:55:02Z</time>
      </trkpt>
      <trkpt lat="45.53467" lon="6.65611">
        <ele>1283.8000488281</ele>
        <time>2013-05-12T07:55:04Z</time>
      </trkpt>
      <trkpt lat="45.53467" lon="6.65608">
        <ele>1284.4000244141</ele>
        <time>2013-05-12T07:55:06Z</time>
      </trkpt>
      <trkpt lat="45.53465" lon="6.65604">
        <ele>1284.4000244141</ele>
        <time>2013-05-12T07:55:09Z</time>
      </trkpt>
      <trkpt lat="45.53463" lon="6.65602">
        <ele>1285</ele>
        <time>2013-05-12T07:55:11Z</time>
      </trkpt>
      <trkpt lat="45.53461" lon="6.656">
        <ele>1285.8000488281</ele>
        <time>2013-05-12T07:55:13Z</time>
      </trkpt>
      <trkpt lat="45.53459" lon="6.65599">
        <ele>1286.4000244141</ele>
        <time>2013-05-12T07:55:15Z</time>
      </trkpt>
      <trkpt lat="45.53458" lon="6.65598">
        <ele>1287</ele>
        <time>2013-05-12T07:55:17Z</time>
      </trkpt>
      <trkpt lat="45.53457" lon="6.65599">
        <ele>1287.8000488281</ele>
        <time>2013-05-12T07:55:19Z</time>
      </trkpt>
      <trkpt lat="45.53455" lon="6.656">
        <ele>1288.8000488281</ele>
        <time>2013-05-12T07:55:21Z</time>
      </trkpt>
      <trkpt lat="45.53453" lon="6.65603">
        <ele>1290</ele>
        <time>2013-05-12T07:55:26Z</time>
      </trkpt>
      <trkpt lat="45.53453" lon="6.65605">
        <ele>1291</ele>
        <time>2013-05-12T07:55:28Z</time>
      </trkpt>
      <trkpt lat="45.53452" lon="6.65612">
        <ele>1291.4000244141</ele>
        <time>2013-05-12T07:55:32Z</time>
      </trkpt>
      <trkpt lat="45.53452" lon="6.65616">
        <ele>1292.4000244141</ele>
        <time>2013-05-12T07:55:34Z</time>
      </trkpt>
      <trkpt lat="45.53451" lon="6.65619">
        <ele>1293</ele>
        <time>2013-05-12T07:55:36Z</time>
      </trkpt>
      <trkpt lat="45.5345" lon="6.65623">
        <ele>1293.8000488281</ele>
        <time>2013-05-12T07:55:38Z</time>
      </trkpt>
      <trkpt lat="45.53449" lon="6.65626">
        <ele>1294.4000244141</ele>
        <time>2013-05-12T07:55:40Z</time>
      </trkpt>
      <trkpt lat="45.53449" lon="6.65629">
        <ele>1295</ele>
        <time>2013-05-12T07:55:42Z</time>
      </trkpt>
      <trkpt lat="45.53448" lon="6.65634">
        <ele>1295.4000244141</ele>
        <time>2013-05-12T07:55:46Z</time>
      </trkpt>
      <trkpt lat="45.53448" lon="6.65637">
        <ele>1296</ele>
        <time>2013-05-12T07:55:48Z</time>
      </trkpt>
      <trkpt lat="45.53449" lon="6.6564">
        <ele>1297</ele>
        <time>2013-05-12T07:55:50Z</time>
      </trkpt>
      <trkpt lat="45.53449" lon="6.65642">
        <ele>1297.8000488281</ele>
        <time>2013-05-12T07:55:52Z</time>
      </trkpt>
      <trkpt lat="45.53448" lon="6.65646">
        <ele>1298.4000244141</ele>
        <time>2013-05-12T07:55:54Z</time>
      </trkpt>
      <trkpt lat="45.53447" lon="6.6565">
        <ele>1299.4000244141</ele>
        <time>2013-05-12T07:55:56Z</time>
      </trkpt>
      <trkpt lat="45.53445" lon="6.65654">
        <ele>1299.8000488281</ele>
        <time>2013-05-12T07:55:59Z</time>
      </trkpt>
      <trkpt lat="45.53444" lon="6.65658">
        <ele>1300.4000244141</ele>
        <time>2013-05-12T07:56:01Z</time>
      </trkpt>
      <trkpt lat="45.53442" lon="6.6566">
        <ele>1301.4000244141</ele>
        <time>2013-05-12T07:56:03Z</time>
      </trkpt>
      <trkpt lat="45.53441" lon="6.65665">
        <ele>1302.4000244141</ele>
        <time>2013-05-12T07:56:07Z</time>
      </trkpt>
      <trkpt lat="45.53439" lon="6.65669">
        <ele>1303</ele>
        <time>2013-05-12T07:56:09Z</time>
      </trkpt>
      <trkpt lat="45.53438" lon="6.65675">
        <ele>1303.4000244141</ele>
        <time>2013-05-12T07:56:13Z</time>
      </trkpt>
      <trkpt lat="45.53437" lon="6.65678">
        <ele>1304.4000244141</ele>
        <time>2013-05-12T07:56:15Z</time>
      </trkpt>
      <trkpt lat="45.53436" lon="6.65681">
        <ele>1305.4000244141</ele>
        <time>2013-05-12T07:56:17Z</time>
      </trkpt>
      <trkpt lat="45.53436" lon="6.65682">
        <ele>1305.8000488281</ele>
        <time>2013-05-12T07:56:19Z</time>
      </trkpt>
      <trkpt lat="45.53435" lon="6.65685">
        <ele>1306.4000244141</ele>
        <time>2013-05-12T07:56:21Z</time>
      </trkpt>
      <trkpt lat="45.53434" lon="6.65688">
        <ele>1307</ele>
        <time>2013-05-12T07:56:23Z</time>
      </trkpt>
      <trkpt lat="45.53434" lon="6.65691">
        <ele>1307.8000488281</ele>
        <time>2013-05-12T07:56:25Z</time>
      </trkpt>
      <trkpt lat="45.53434" lon="6.65692">
        <ele>1308.4000244141</ele>
        <time>2013-05-12T07:56:27Z</time>
      </trkpt>
      <trkpt lat="45.53433" lon="6.65695">
        <ele>1309</ele>
        <time>2013-05-12T07:56:29Z</time>
      </trkpt>
      <trkpt lat="45.53432" lon="6.65698">
        <ele>1310</ele>
        <time>2013-05-12T07:56:31Z</time>
      </trkpt>
      <trkpt lat="45.53433" lon="6.657">
        <ele>1310</ele>
        <time>2013-05-12T07:56:34Z</time>
      </trkpt>
      <trkpt lat="45.53432" lon="6.65703">
        <ele>1311</ele>
        <time>2013-05-12T07:56:36Z</time>
      </trkpt>
      <trkpt lat="45.53432" lon="6.65704">
        <ele>1311.8000488281</ele>
        <time>2013-05-12T07:56:38Z</time>
      </trkpt>
      <trkpt lat="45.53431" lon="6.65707">
        <ele>1312</ele>
        <time>2013-05-12T07:56:40Z</time>
      </trkpt>
      <trkpt lat="45.5343" lon="6.65708">
        <ele>1312.8000488281</ele>
        <time>2013-05-12T07:56:43Z</time>
      </trkpt>
      <trkpt lat="45.53429" lon="6.65708">
        <ele>1313.4000244141</ele>
        <time>2013-05-12T07:56:45Z</time>
      </trkpt>
      <trkpt lat="45.53424" lon="6.6571">
        <ele>1314.4000244141</ele>
        <time>2013-05-12T07:56:50Z</time>
      </trkpt>
      <trkpt lat="45.53422" lon="6.65711">
        <ele>1315.4000244141</ele>
        <time>2013-05-12T07:56:52Z</time>
      </trkpt>
      <trkpt lat="45.5342" lon="6.65711">
        <ele>1316.4000244141</ele>
        <time>2013-05-12T07:56:54Z</time>
      </trkpt>
      <trkpt lat="45.53419" lon="6.65711">
        <ele>1317.4000244141</ele>
        <time>2013-05-12T07:56:56Z</time>
      </trkpt>
      <trkpt lat="45.53416" lon="6.65711">
        <ele>1318.4000244141</ele>
        <time>2013-05-12T07:56:58Z</time>
      </trkpt>
      <trkpt lat="45.53412" lon="6.65712">
        <ele>1318.8000488281</ele>
        <time>2013-05-12T07:57:02Z</time>
      </trkpt>
      <trkpt lat="45.53409" lon="6.65713">
        <ele>1319.4000244141</ele>
        <time>2013-05-12T07:57:04Z</time>
      </trkpt>
      <trkpt lat="45.53408" lon="6.65713">
        <ele>1320</ele>
        <time>2013-05-12T07:57:06Z</time>
      </trkpt>
      <trkpt lat="45.53406" lon="6.65715">
        <ele>1320.4000244141</ele>
        <time>2013-05-12T07:57:08Z</time>
      </trkpt>
      <trkpt lat="45.53404" lon="6.65718">
        <ele>1321</ele>
        <time>2013-05-12T07:57:10Z</time>
      </trkpt>
      <trkpt lat="45.53401" lon="6.65719">
        <ele>1322</ele>
        <time>2013-05-12T07:57:12Z</time>
      </trkpt>
      <trkpt lat="45.53399" lon="6.6572">
        <ele>1322.4000244141</ele>
        <time>2013-05-12T07:57:14Z</time>
      </trkpt>
      <trkpt lat="45.53392" lon="6.65725">
        <ele>1322.4000244141</ele>
        <time>2013-05-12T07:57:21Z</time>
      </trkpt>
      <trkpt lat="45.5339" lon="6.65728">
        <ele>1322.4000244141</ele>
        <time>2013-05-12T07:57:24Z</time>
      </trkpt>
      <trkpt lat="45.53387" lon="6.65732">
        <ele>1323.4000244141</ele>
        <time>2013-05-12T07:57:26Z</time>
      </trkpt>
      <trkpt lat="45.53386" lon="6.65735">
        <ele>1324</ele>
        <time>2013-05-12T07:57:28Z</time>
      </trkpt>
      <trkpt lat="45.53385" lon="6.65738">
        <ele>1324.4000244141</ele>
        <time>2013-05-12T07:57:30Z</time>
      </trkpt>
      <trkpt lat="45.53381" lon="6.65751">
        <ele>1324.4000244141</ele>
        <time>2013-05-12T07:57:36Z</time>
      </trkpt>
      <trkpt lat="45.5338" lon="6.65753">
        <ele>1325</ele>
        <time>2013-05-12T07:57:39Z</time>
      </trkpt>
      <trkpt lat="45.53378" lon="6.65759">
        <ele>1326</ele>
        <time>2013-05-12T07:57:41Z</time>
      </trkpt>
      <trkpt lat="45.53377" lon="6.65761">
        <ele>1326.4000244141</ele>
        <time>2013-05-12T07:57:43Z</time>
      </trkpt>
      <trkpt lat="45.53375" lon="6.6577">
        <ele>1327</ele>
        <time>2013-05-12T07:57:49Z</time>
      </trkpt>
      <trkpt lat="45.53374" lon="6.65774">
        <ele>1328</ele>
        <time>2013-05-12T07:57:51Z</time>
      </trkpt>
      <trkpt lat="45.53374" lon="6.65777">
        <ele>1328.4000244141</ele>
        <time>2013-05-12T07:57:53Z</time>
      </trkpt>
      <trkpt lat="45.53371" lon="6.65792">
        <ele>1328.4000244141</ele>
        <time>2013-05-12T07:58:01Z</time>
      </trkpt>
      <trkpt lat="45.53367" lon="6.65806">
        <ele>1328.4000244141</ele>
        <time>2013-05-12T07:58:08Z</time>
      </trkpt>
      <trkpt lat="45.53362" lon="6.65816">
        <ele>1328.4000244141</ele>
        <time>2013-05-12T07:58:16Z</time>
      </trkpt>
      <trkpt lat="45.5336" lon="6.65819">
        <ele>1329</ele>
        <time>2013-05-12T07:58:18Z</time>
      </trkpt>
      <trkpt lat="45.53358" lon="6.65823">
        <ele>1329.8000488281</ele>
        <time>2013-05-12T07:58:20Z</time>
      </trkpt>
      <trkpt lat="45.53357" lon="6.65827">
        <ele>1330.4000244141</ele>
        <time>2013-05-12T07:58:22Z</time>
      </trkpt>
      <trkpt lat="45.53354" lon="6.65833">
        <ele>1330.4000244141</ele>
        <time>2013-05-12T07:58:27Z</time>
      </trkpt>
      <trkpt lat="45.53349" lon="6.65841">
        <ele>1330.4000244141</ele>
        <time>2013-05-12T07:58:33Z</time>
      </trkpt>
      <trkpt lat="45.53345" lon="6.6585">
        <ele>1330.4000244141</ele>
        <time>2013-05-12T07:58:38Z</time>
      </trkpt>
      <trkpt lat="45.53341" lon="6.65861">
        <ele>1330.4000244141</ele>
        <time>2013-05-12T07:58:43Z</time>
      </trkpt>
      <trkpt lat="45.53332" lon="6.6589">
        <ele>1330.4000244141</ele>
        <time>2013-05-12T07:58:52Z</time>
      </trkpt>
      <trkpt lat="45.53329" lon="6.65909">
        <ele>1330.4000244141</ele>
        <time>2013-05-12T07:58:58Z</time>
      </trkpt>
      <trkpt lat="45.53326" lon="6.65925">
        <ele>1330.4000244141</ele>
        <time>2013-05-12T07:59:04Z</time>
      </trkpt>
      <trkpt lat="45.53321" lon="6.65948">
        <ele>1331</ele>
        <time>2013-05-12T07:59:13Z</time>
      </trkpt>
      <trkpt lat="45.5332" lon="6.65953">
        <ele>1331.8000488281</ele>
        <time>2013-05-12T07:59:15Z</time>
      </trkpt>
      <trkpt lat="45.53319" lon="6.6596">
        <ele>1332.4000244141</ele>
        <time>2013-05-12T07:59:17Z</time>
      </trkpt>
      <trkpt lat="45.53316" lon="6.65981">
        <ele>1333</ele>
        <time>2013-05-12T07:59:24Z</time>
      </trkpt>
      <trkpt lat="45.53316" lon="6.65986">
        <ele>1333.8000488281</ele>
        <time>2013-05-12T07:59:26Z</time>
      </trkpt>
      <trkpt lat="45.53315" lon="6.65991">
        <ele>1334.4000244141</ele>
        <time>2013-05-12T07:59:28Z</time>
      </trkpt>
      <trkpt lat="45.53315" lon="6.65997">
        <ele>1335</ele>
        <time>2013-05-12T07:59:30Z</time>
      </trkpt>
      <trkpt lat="45.53316" lon="6.66009">
        <ele>1335</ele>
        <time>2013-05-12T07:59:34Z</time>
      </trkpt>
      <trkpt lat="45.53312" lon="6.66024">
        <ele>1335.4000244141</ele>
        <time>2013-05-12T07:59:39Z</time>
      </trkpt>
      <trkpt lat="45.53311" lon="6.6603">
        <ele>1336.4000244141</ele>
        <time>2013-05-12T07:59:41Z</time>
      </trkpt>
      <trkpt lat="45.53311" lon="6.66036">
        <ele>1337</ele>
        <time>2013-05-12T07:59:43Z</time>
      </trkpt>
      <trkpt lat="45.53308" lon="6.6605">
        <ele>1337</ele>
        <time>2013-05-12T07:59:47Z</time>
      </trkpt>
      <trkpt lat="45.53305" lon="6.66062">
        <ele>1337</ele>
        <time>2013-05-12T07:59:51Z</time>
      </trkpt>
      <trkpt lat="45.53306" lon="6.66072">
        <ele>1337</ele>
        <time>2013-05-12T07:59:57Z</time>
      </trkpt>
      <trkpt lat="45.53307" lon="6.6607">
        <ele>1337</ele>
        <time>2013-05-12T08:00:02Z</time>
      </trkpt>
      <trkpt lat="45.5331" lon="6.66066">
        <ele>1337</ele>
        <time>2013-05-12T08:00:05Z</time>
      </trkpt>
      <trkpt lat="45.5331" lon="6.66057">
        <ele>1337</ele>
        <time>2013-05-12T08:00:09Z</time>
      </trkpt>
      <trkpt lat="45.53311" lon="6.66046">
        <ele>1337</ele>
        <time>2013-05-12T08:00:13Z</time>
      </trkpt>
      <trkpt lat="45.53317" lon="6.66021">
        <ele>1337</ele>
        <time>2013-05-12T08:00:20Z</time>
      </trkpt>
      <trkpt lat="45.53317" lon="6.6601">
        <ele>1337</ele>
        <time>2013-05-12T08:00:25Z</time>
      </trkpt>
      <trkpt lat="45.53315" lon="6.65995">
        <ele>1337</ele>
        <time>2013-05-12T08:00:29Z</time>
      </trkpt>
      <trkpt lat="45.53314" lon="6.65981">
        <ele>1337</ele>
        <time>2013-05-12T08:00:32Z</time>
      </trkpt>
      <trkpt lat="45.53314" lon="6.6597">
        <ele>1336</ele>
        <time>2013-05-12T08:00:35Z</time>
      </trkpt>
      <trkpt lat="45.53314" lon="6.65965">
        <ele>1335.4000244141</ele>
        <time>2013-05-12T08:00:37Z</time>
      </trkpt>
      <trkpt lat="45.53314" lon="6.65959">
        <ele>1334.8000488281</ele>
        <time>2013-05-12T08:00:39Z</time>
      </trkpt>
      <trkpt lat="45.53317" lon="6.65946">
        <ele>1334</ele>
        <time>2013-05-12T08:00:43Z</time>
      </trkpt>
      <trkpt lat="45.53319" lon="6.65941">
        <ele>1333.4000244141</ele>
        <time>2013-05-12T08:00:45Z</time>
      </trkpt>
      <trkpt lat="45.53322" lon="6.65936">
        <ele>1332.8000488281</ele>
        <time>2013-05-12T08:00:47Z</time>
      </trkpt>
      <trkpt lat="45.53326" lon="6.65919">
        <ele>1332.8000488281</ele>
        <time>2013-05-12T08:00:54Z</time>
      </trkpt>
      <trkpt lat="45.53327" lon="6.65913">
        <ele>1332.4000244141</ele>
        <time>2013-05-12T08:00:56Z</time>
      </trkpt>
      <trkpt lat="45.53329" lon="6.65909">
        <ele>1331.4000244141</ele>
        <time>2013-05-12T08:00:58Z</time>
      </trkpt>
      <trkpt lat="45.53331" lon="6.65907">
        <ele>1330.8000488281</ele>
        <time>2013-05-12T08:01:00Z</time>
      </trkpt>
      <trkpt lat="45.53334" lon="6.65906">
        <ele>1330.4000244141</ele>
        <time>2013-05-12T08:01:02Z</time>
      </trkpt>
      <trkpt lat="45.53337" lon="6.659">
        <ele>1329.4000244141</ele>
        <time>2013-05-12T08:01:07Z</time>
      </trkpt>
      <trkpt lat="45.53342" lon="6.65898">
        <ele>1329</ele>
        <time>2013-05-12T08:01:09Z</time>
      </trkpt>
      <trkpt lat="45.53345" lon="6.65893">
        <ele>1328.4000244141</ele>
        <time>2013-05-12T08:01:11Z</time>
      </trkpt>
      <trkpt lat="45.53348" lon="6.65889">
        <ele>1327.4000244141</ele>
        <time>2013-05-12T08:01:13Z</time>
      </trkpt>
      <trkpt lat="45.53351" lon="6.65886">
        <ele>1326.4000244141</ele>
        <time>2013-05-12T08:01:15Z</time>
      </trkpt>
      <trkpt lat="45.53355" lon="6.65885">
        <ele>1325.4000244141</ele>
        <time>2013-05-12T08:01:17Z</time>
      </trkpt>
      <trkpt lat="45.53358" lon="6.65883">
        <ele>1324.4000244141</ele>
        <time>2013-05-12T08:01:19Z</time>
      </trkpt>
      <trkpt lat="45.5336" lon="6.65882">
        <ele>1323.4000244141</ele>
        <time>2013-05-12T08:01:21Z</time>
      </trkpt>
      <trkpt lat="45.53364" lon="6.65881">
        <ele>1322</ele>
        <time>2013-05-12T08:01:23Z</time>
      </trkpt>
      <trkpt lat="45.53367" lon="6.65881">
        <ele>1321.4000244141</ele>
        <time>2013-05-12T08:01:25Z</time>
      </trkpt>
      <trkpt lat="45.53372" lon="6.65882">
        <ele>1320</ele>
        <time>2013-05-12T08:01:27Z</time>
      </trkpt>
      <trkpt lat="45.53374" lon="6.65882">
        <ele>1318.4000244141</ele>
        <time>2013-05-12T08:01:29Z</time>
      </trkpt>
      <trkpt lat="45.53376" lon="6.65883">
        <ele>1317</ele>
        <time>2013-05-12T08:01:31Z</time>
      </trkpt>
      <trkpt lat="45.53379" lon="6.65885">
        <ele>1315.4000244141</ele>
        <time>2013-05-12T08:01:33Z</time>
      </trkpt>
      <trkpt lat="45.53381" lon="6.65889">
        <ele>1314.4000244141</ele>
        <time>2013-05-12T08:01:35Z</time>
      </trkpt>
      <trkpt lat="45.53383" lon="6.65893">
        <ele>1313.4000244141</ele>
        <time>2013-05-12T08:01:37Z</time>
      </trkpt>
      <trkpt lat="45.53386" lon="6.65897">
        <ele>1311.4000244141</ele>
        <time>2013-05-12T08:01:39Z</time>
      </trkpt>
      <trkpt lat="45.53388" lon="6.65903">
        <ele>1309.4000244141</ele>
        <time>2013-05-12T08:01:41Z</time>
      </trkpt>
      <trkpt lat="45.5339" lon="6.65907">
        <ele>1307.8000488281</ele>
        <time>2013-05-12T08:01:43Z</time>
      </trkpt>
      <trkpt lat="45.53392" lon="6.6591">
        <ele>1306</ele>
        <time>2013-05-12T08:01:45Z</time>
      </trkpt>
      <trkpt lat="45.53393" lon="6.65915">
        <ele>1304</ele>
        <time>2013-05-12T08:01:47Z</time>
      </trkpt>
      <trkpt lat="45.53395" lon="6.65917">
        <ele>1302.4000244141</ele>
        <time>2013-05-12T08:01:49Z</time>
      </trkpt>
      <trkpt lat="45.53397" lon="6.65921">
        <ele>1301</ele>
        <time>2013-05-12T08:01:51Z</time>
      </trkpt>
      <trkpt lat="45.534" lon="6.65926">
        <ele>1300</ele>
        <time>2013-05-12T08:01:53Z</time>
      </trkpt>
      <trkpt lat="45.53402" lon="6.65929">
        <ele>1299</ele>
        <time>2013-05-12T08:01:55Z</time>
      </trkpt>
      <trkpt lat="45.53405" lon="6.65934">
        <ele>1297.4000244141</ele>
        <time>2013-05-12T08:01:57Z</time>
      </trkpt>
      <trkpt lat="45.53408" lon="6.65941">
        <ele>1295.4000244141</ele>
        <time>2013-05-12T08:01:59Z</time>
      </trkpt>
      <trkpt lat="45.5341" lon="6.65949">
        <ele>1293.4000244141</ele>
        <time>2013-05-12T08:02:01Z</time>
      </trkpt>
      <trkpt lat="45.53413" lon="6.65958">
        <ele>1291</ele>
        <time>2013-05-12T08:02:03Z</time>
      </trkpt>
      <trkpt lat="45.53416" lon="6.65967">
        <ele>1289</ele>
        <time>2013-05-12T08:02:05Z</time>
      </trkpt>
      <trkpt lat="45.53421" lon="6.65977">
        <ele>1287</ele>
        <time>2013-05-12T08:02:07Z</time>
      </trkpt>
      <trkpt lat="45.53425" lon="6.65987">
        <ele>1285</ele>
        <time>2013-05-12T08:02:09Z</time>
      </trkpt>
      <trkpt lat="45.53427" lon="6.65995">
        <ele>1283.8000488281</ele>
        <time>2013-05-12T08:02:11Z</time>
      </trkpt>
      <trkpt lat="45.5343" lon="6.66004">
        <ele>1282</ele>
        <time>2013-05-12T08:02:13Z</time>
      </trkpt>
      <trkpt lat="45.53433" lon="6.6601">
        <ele>1279.4000244141</ele>
        <time>2013-05-12T08:02:15Z</time>
      </trkpt>
      <trkpt lat="45.53431" lon="6.6603">
        <ele>1278.8000488281</ele>
        <time>2013-05-12T08:02:20Z</time>
      </trkpt>
      <trkpt lat="45.53428" lon="6.66035">
        <ele>1277.8000488281</ele>
        <time>2013-05-12T08:02:22Z</time>
      </trkpt>
      <trkpt lat="45.53425" lon="6.6604">
        <ele>1276.4000244141</ele>
        <time>2013-05-12T08:02:24Z</time>
      </trkpt>
      <trkpt lat="45.53422" lon="6.66046">
        <ele>1275</ele>
        <time>2013-05-12T08:02:26Z</time>
      </trkpt>
      <trkpt lat="45.53419" lon="6.66051">
        <ele>1273.8000488281</ele>
        <time>2013-05-12T08:02:28Z</time>
      </trkpt>
      <trkpt lat="45.53414" lon="6.66062">
        <ele>1272.8000488281</ele>
        <time>2013-05-12T08:02:31Z</time>
      </trkpt>
      <trkpt lat="45.5341" lon="6.66073">
        <ele>1272</ele>
        <time>2013-05-12T08:02:33Z</time>
      </trkpt>
      <trkpt lat="45.53406" lon="6.66085">
        <ele>1271</ele>
        <time>2013-05-12T08:02:36Z</time>
      </trkpt>
      <trkpt lat="45.53399" lon="6.66103">
        <ele>1270.4000244141</ele>
        <time>2013-05-12T08:02:41Z</time>
      </trkpt>
      <trkpt lat="45.53397" lon="6.66109">
        <ele>1269.8000488281</ele>
        <time>2013-05-12T08:02:43Z</time>
      </trkpt>
      <trkpt lat="45.53396" lon="6.66117">
        <ele>1269</ele>
        <time>2013-05-12T08:02:45Z</time>
      </trkpt>
      <trkpt lat="45.53392" lon="6.66138">
        <ele>1269</ele>
        <time>2013-05-12T08:02:51Z</time>
      </trkpt>
      <trkpt lat="45.53389" lon="6.66168">
        <ele>1269</ele>
        <time>2013-05-12T08:02:59Z</time>
      </trkpt>
      <trkpt lat="45.53392" lon="6.66173">
        <ele>1269</ele>
        <time>2013-05-12T08:03:04Z</time>
      </trkpt>
      <trkpt lat="45.53394" lon="6.66176">
        <ele>1269.8000488281</ele>
        <time>2013-05-12T08:03:06Z</time>
      </trkpt>
      <trkpt lat="45.53394" lon="6.66178">
        <ele>1270.4000244141</ele>
        <time>2013-05-12T08:03:08Z</time>
      </trkpt>
      <trkpt lat="45.53393" lon="6.66184">
        <ele>1271</ele>
        <time>2013-05-12T08:03:12Z</time>
      </trkpt>
      <trkpt lat="45.53391" lon="6.66189">
        <ele>1271</ele>
        <time>2013-05-12T08:03:16Z</time>
      </trkpt>
      <trkpt lat="45.5339" lon="6.66191">
        <ele>1271</ele>
        <time>2013-05-12T08:03:20Z</time>
      </trkpt>
      <trkpt lat="45.53391" lon="6.66194">
        <ele>1271</ele>
        <time>2013-05-12T08:03:24Z</time>
      </trkpt>
      <trkpt lat="45.53395" lon="6.66206">
        <ele>1271</ele>
        <time>2013-05-12T08:03:34Z</time>
      </trkpt>
      <trkpt lat="45.53395" lon="6.66206">
        <ele>1271</ele>
        <time>2013-05-12T08:03:37Z</time>
      </trkpt>
      <trkpt lat="45.53393" lon="6.66203">
        <ele>1271.4000244141</ele>
        <time>2013-05-12T08:03:41Z</time>
      </trkpt>
      <trkpt lat="45.53393" lon="6.66203">
        <ele>1271.4000244141</ele>
        <time>2013-05-12T08:03:46Z</time>
      </trkpt>
      <trkpt lat="45.53396" lon="6.662">
        <ele>1271.4000244141</ele>
        <time>2013-05-12T08:03:54Z</time>
      </trkpt>
      <trkpt lat="45.53389" lon="6.66198">
        <ele>1271.4000244141</ele>
        <time>2013-05-12T08:04:01Z</time>
      </trkpt>
      <trkpt lat="45.53392" lon="6.66193">
        <ele>1271.4000244141</ele>
        <time>2013-05-12T08:04:08Z</time>
      </trkpt>
      <trkpt lat="45.53389" lon="6.66199">
        <ele>1270.4000244141</ele>
        <time>2013-05-12T08:04:10Z</time>
      </trkpt>
      <trkpt lat="45.53386" lon="6.66193">
        <ele>1269.8000488281</ele>
        <time>2013-05-12T08:04:12Z</time>
      </trkpt>
      <trkpt lat="45.53386" lon="6.66193">
        <ele>1269.4000244141</ele>
        <time>2013-05-12T08:04:14Z</time>
      </trkpt>
      <trkpt lat="45.53387" lon="6.66191">
        <ele>1269.4000244141</ele>
        <time>2013-05-12T08:04:18Z</time>
      </trkpt>
      <trkpt lat="45.53388" lon="6.66191">
        <ele>1269.4000244141</ele>
        <time>2013-05-12T08:04:20Z</time>
      </trkpt>
      <trkpt lat="45.53395" lon="6.66191">
        <ele>1269.4000244141</ele>
        <time>2013-05-12T08:04:24Z</time>
      </trkpt>
      <trkpt lat="45.53399" lon="6.66192">
        <ele>1269.4000244141</ele>
        <time>2013-05-12T08:04:26Z</time>
      </trkpt>
      <trkpt lat="45.53408" lon="6.66187">
        <ele>1269.8000488281</ele>
        <time>2013-05-12T08:04:31Z</time>
      </trkpt>
      <trkpt lat="45.53415" lon="6.66187">
        <ele>1271.4000244141</ele>
        <time>2013-05-12T08:04:36Z</time>
      </trkpt>
      <trkpt lat="45.53418" lon="6.66192">
        <ele>1272.4000244141</ele>
        <time>2013-05-12T08:04:39Z</time>
      </trkpt>
      <trkpt lat="45.53422" lon="6.66194">
        <ele>1273.4000244141</ele>
        <time>2013-05-12T08:04:41Z</time>
      </trkpt>
      <trkpt lat="45.53425" lon="6.66197">
        <ele>1274.4000244141</ele>
        <time>2013-05-12T08:04:43Z</time>
      </trkpt>
      <trkpt lat="45.53428" lon="6.66197">
        <ele>1274.4000244141</ele>
        <time>2013-05-12T08:04:45Z</time>
      </trkpt>
      <trkpt lat="45.53429" lon="6.66197">
        <ele>1274</ele>
        <time>2013-05-12T08:04:47Z</time>
      </trkpt>
      <trkpt lat="45.53433" lon="6.66194">
        <ele>1273.4000244141</ele>
        <time>2013-05-12T08:04:49Z</time>
      </trkpt>
      <trkpt lat="45.53435" lon="6.66192">
        <ele>1272</ele>
        <time>2013-05-12T08:04:51Z</time>
      </trkpt>
      <trkpt lat="45.53432" lon="6.66189">
        <ele>1271</ele>
        <time>2013-05-12T08:04:53Z</time>
      </trkpt>
      <trkpt lat="45.53431" lon="6.66185">
        <ele>1269</ele>
        <time>2013-05-12T08:04:55Z</time>
      </trkpt>
      <trkpt lat="45.53433" lon="6.6618">
        <ele>1267.4000244141</ele>
        <time>2013-05-12T08:04:57Z</time>
      </trkpt>
      <trkpt lat="45.53438" lon="6.66179">
        <ele>1266</ele>
        <time>2013-05-12T08:04:59Z</time>
      </trkpt>
      <trkpt lat="45.53446" lon="6.66182">
        <ele>1264</ele>
        <time>2013-05-12T08:05:01Z</time>
      </trkpt>
      <trkpt lat="45.53453" lon="6.66182">
        <ele>1262.4000244141</ele>
        <time>2013-05-12T08:05:03Z</time>
      </trkpt>
      <trkpt lat="45.53459" lon="6.66184">
        <ele>1260.8000488281</ele>
        <time>2013-05-12T08:05:05Z</time>
      </trkpt>
      <trkpt lat="45.53466" lon="6.6617">
        <ele>1260</ele>
        <time>2013-05-12T08:05:08Z</time>
      </trkpt>
      <trkpt lat="45.53469" lon="6.66166">
        <ele>1259</ele>
        <time>2013-05-12T08:05:10Z</time>
      </trkpt>
      <trkpt lat="45.53474" lon="6.6616">
        <ele>1257.8000488281</ele>
        <time>2013-05-12T08:05:12Z</time>
      </trkpt>
      <trkpt lat="45.53479" lon="6.66156">
        <ele>1256.8000488281</ele>
        <time>2013-05-12T08:05:14Z</time>
      </trkpt>
      <trkpt lat="45.53484" lon="6.66153">
        <ele>1256</ele>
        <time>2013-05-12T08:05:16Z</time>
      </trkpt>
      <trkpt lat="45.5349" lon="6.66149">
        <ele>1254.4000244141</ele>
        <time>2013-05-12T08:05:18Z</time>
      </trkpt>
      <trkpt lat="45.53495" lon="6.66144">
        <ele>1253</ele>
        <time>2013-05-12T08:05:20Z</time>
      </trkpt>
      <trkpt lat="45.535" lon="6.66143">
        <ele>1251</ele>
        <time>2013-05-12T08:05:22Z</time>
      </trkpt>
      <trkpt lat="45.53506" lon="6.66143">
        <ele>1249.8000488281</ele>
        <time>2013-05-12T08:05:24Z</time>
      </trkpt>
      <trkpt lat="45.53511" lon="6.66143">
        <ele>1248.8000488281</ele>
        <time>2013-05-12T08:05:26Z</time>
      </trkpt>
      <trkpt lat="45.53517" lon="6.66146">
        <ele>1248</ele>
        <time>2013-05-12T08:05:28Z</time>
      </trkpt>
      <trkpt lat="45.53521" lon="6.66148">
        <ele>1247</ele>
        <time>2013-05-12T08:05:30Z</time>
      </trkpt>
      <trkpt lat="45.53527" lon="6.6615">
        <ele>1246</ele>
        <time>2013-05-12T08:05:32Z</time>
      </trkpt>
      <trkpt lat="45.53533" lon="6.66151">
        <ele>1245</ele>
        <time>2013-05-12T08:05:34Z</time>
      </trkpt>
      <trkpt lat="45.5354" lon="6.66154">
        <ele>1244</ele>
        <time>2013-05-12T08:05:36Z</time>
      </trkpt>
      <trkpt lat="45.53548" lon="6.66155">
        <ele>1242.8000488281</ele>
        <time>2013-05-12T08:05:38Z</time>
      </trkpt>
      <trkpt lat="45.53554" lon="6.66154">
        <ele>1241.4000244141</ele>
        <time>2013-05-12T08:05:40Z</time>
      </trkpt>
      <trkpt lat="45.53561" lon="6.66157">
        <ele>1240</ele>
        <time>2013-05-12T08:05:42Z</time>
      </trkpt>
      <trkpt lat="45.53567" lon="6.66161">
        <ele>1238.4000244141</ele>
        <time>2013-05-12T08:05:44Z</time>
      </trkpt>
      <trkpt lat="45.53572" lon="6.66164">
        <ele>1236.8000488281</ele>
        <time>2013-05-12T08:05:46Z</time>
      </trkpt>
      <trkpt lat="45.53583" lon="6.66173">
        <ele>1233.4000244141</ele>
        <time>2013-05-12T08:05:50Z</time>
      </trkpt>
      <trkpt lat="45.53586" lon="6.66178">
        <ele>1232.4000244141</ele>
        <time>2013-05-12T08:05:52Z</time>
      </trkpt>
      <trkpt lat="45.53587" lon="6.6618">
        <ele>1231.4000244141</ele>
        <time>2013-05-12T08:05:54Z</time>
      </trkpt>
      <trkpt lat="45.53591" lon="6.6618">
        <ele>1230.4000244141</ele>
        <time>2013-05-12T08:05:56Z</time>
      </trkpt>
      <trkpt lat="45.53596" lon="6.66185">
        <ele>1230</ele>
        <time>2013-05-12T08:05:58Z</time>
      </trkpt>
      <trkpt lat="45.53603" lon="6.66187">
        <ele>1229.4000244141</ele>
        <time>2013-05-12T08:06:01Z</time>
      </trkpt>
      <trkpt lat="45.53611" lon="6.66191">
        <ele>1228.8000488281</ele>
        <time>2013-05-12T08:06:03Z</time>
      </trkpt>
      <trkpt lat="45.53617" lon="6.66196">
        <ele>1227</ele>
        <time>2013-05-12T08:06:05Z</time>
      </trkpt>
      <trkpt lat="45.53622" lon="6.66199">
        <ele>1225.4000244141</ele>
        <time>2013-05-12T08:06:07Z</time>
      </trkpt>
      <trkpt lat="45.53628" lon="6.66204">
        <ele>1223.8000488281</ele>
        <time>2013-05-12T08:06:09Z</time>
      </trkpt>
      <trkpt lat="45.53633" lon="6.66208">
        <ele>1222</ele>
        <time>2013-05-12T08:06:11Z</time>
      </trkpt>
      <trkpt lat="45.53638" lon="6.66213">
        <ele>1220.4000244141</ele>
        <time>2013-05-12T08:06:13Z</time>
      </trkpt>
      <trkpt lat="45.53645" lon="6.66212">
        <ele>1219</ele>
        <time>2013-05-12T08:06:15Z</time>
      </trkpt>
      <trkpt lat="45.53651" lon="6.66211">
        <ele>1218.4000244141</ele>
        <time>2013-05-12T08:06:17Z</time>
      </trkpt>
      <trkpt lat="45.53658" lon="6.66212">
        <ele>1217.4000244141</ele>
        <time>2013-05-12T08:06:19Z</time>
      </trkpt>
      <trkpt lat="45.53666" lon="6.66212">
        <ele>1216.4000244141</ele>
        <time>2013-05-12T08:06:21Z</time>
      </trkpt>
      <trkpt lat="45.53672" lon="6.6621">
        <ele>1215</ele>
        <time>2013-05-12T08:06:23Z</time>
      </trkpt>
      <trkpt lat="45.53678" lon="6.66211">
        <ele>1213.8000488281</ele>
        <time>2013-05-12T08:06:25Z</time>
      </trkpt>
      <trkpt lat="45.53685" lon="6.66218">
        <ele>1212</ele>
        <time>2013-05-12T08:06:27Z</time>
      </trkpt>
      <trkpt lat="45.53686" lon="6.66228">
        <ele>1210</ele>
        <time>2013-05-12T08:06:29Z</time>
      </trkpt>
      <trkpt lat="45.53687" lon="6.66238">
        <ele>1208.4000244141</ele>
        <time>2013-05-12T08:06:31Z</time>
      </trkpt>
      <trkpt lat="45.5369" lon="6.66249">
        <ele>1206.4000244141</ele>
        <time>2013-05-12T08:06:33Z</time>
      </trkpt>
      <trkpt lat="45.53691" lon="6.66255">
        <ele>1205</ele>
        <time>2013-05-12T08:06:35Z</time>
      </trkpt>
      <trkpt lat="45.5369" lon="6.66263">
        <ele>1203.4000244141</ele>
        <time>2013-05-12T08:06:37Z</time>
      </trkpt>
      <trkpt lat="45.53687" lon="6.66271">
        <ele>1202.4000244141</ele>
        <time>2013-05-12T08:06:39Z</time>
      </trkpt>
      <trkpt lat="45.53687" lon="6.66278">
        <ele>1201.8000488281</ele>
        <time>2013-05-12T08:06:41Z</time>
      </trkpt>
      <trkpt lat="45.53686" lon="6.66287">
        <ele>1201</ele>
        <time>2013-05-12T08:06:43Z</time>
      </trkpt>
      <trkpt lat="45.53683" lon="6.66296">
        <ele>1200</ele>
        <time>2013-05-12T08:06:45Z</time>
      </trkpt>
      <trkpt lat="45.53682" lon="6.663">
        <ele>1198.4000244141</ele>
        <time>2013-05-12T08:06:47Z</time>
      </trkpt>
      <trkpt lat="45.53683" lon="6.66302">
        <ele>1197</ele>
        <time>2013-05-12T08:06:50Z</time>
      </trkpt>
      <trkpt lat="45.53683" lon="6.66303">
        <ele>1195.8000488281</ele>
        <time>2013-05-12T08:06:52Z</time>
      </trkpt>
      <trkpt lat="45.53683" lon="6.66303">
        <ele>1194</ele>
        <time>2013-05-12T08:06:54Z</time>
      </trkpt>
      <trkpt lat="45.53684" lon="6.66304">
        <ele>1194</ele>
        <time>2013-05-12T08:06:56Z</time>
      </trkpt>
      <trkpt lat="45.53691" lon="6.66303">
        <ele>1193.4000244141</ele>
        <time>2013-05-12T08:07:01Z</time>
      </trkpt>
      <trkpt lat="45.53697" lon="6.66299">
        <ele>1193</ele>
        <time>2013-05-12T08:07:03Z</time>
      </trkpt>
      <trkpt lat="45.53706" lon="6.66291">
        <ele>1191.4000244141</ele>
        <time>2013-05-12T08:07:07Z</time>
      </trkpt>
      <trkpt lat="45.53712" lon="6.66287">
        <ele>1190.8000488281</ele>
        <time>2013-05-12T08:07:09Z</time>
      </trkpt>
      <trkpt lat="45.53717" lon="6.66284">
        <ele>1189</ele>
        <time>2013-05-12T08:07:11Z</time>
      </trkpt>
      <trkpt lat="45.53723" lon="6.66283">
        <ele>1187</ele>
        <time>2013-05-12T08:07:13Z</time>
      </trkpt>
      <trkpt lat="45.53728" lon="6.66282">
        <ele>1185.4000244141</ele>
        <time>2013-05-12T08:07:15Z</time>
      </trkpt>
      <trkpt lat="45.53734" lon="6.66283">
        <ele>1183.8000488281</ele>
        <time>2013-05-12T08:07:17Z</time>
      </trkpt>
      <trkpt lat="45.53741" lon="6.66284">
        <ele>1182.4000244141</ele>
        <time>2013-05-12T08:07:19Z</time>
      </trkpt>
      <trkpt lat="45.53748" lon="6.66284">
        <ele>1181</ele>
        <time>2013-05-12T08:07:21Z</time>
      </trkpt>
      <trkpt lat="45.53753" lon="6.66284">
        <ele>1180</ele>
        <time>2013-05-12T08:07:23Z</time>
      </trkpt>
      <trkpt lat="45.5376" lon="6.66282">
        <ele>1179.4000244141</ele>
        <time>2013-05-12T08:07:25Z</time>
      </trkpt>
      <trkpt lat="45.53766" lon="6.66282">
        <ele>1178</ele>
        <time>2013-05-12T08:07:27Z</time>
      </trkpt>
      <trkpt lat="45.53771" lon="6.66284">
        <ele>1177</ele>
        <time>2013-05-12T08:07:29Z</time>
      </trkpt>
      <trkpt lat="45.53774" lon="6.66289">
        <ele>1175.8000488281</ele>
        <time>2013-05-12T08:07:31Z</time>
      </trkpt>
      <trkpt lat="45.53775" lon="6.66295">
        <ele>1174.4000244141</ele>
        <time>2013-05-12T08:07:33Z</time>
      </trkpt>
      <trkpt lat="45.53776" lon="6.66305">
        <ele>1172.8000488281</ele>
        <time>2013-05-12T08:07:35Z</time>
      </trkpt>
      <trkpt lat="45.53774" lon="6.66316">
        <ele>1171.4000244141</ele>
        <time>2013-05-12T08:07:37Z</time>
      </trkpt>
      <trkpt lat="45.53774" lon="6.66322">
        <ele>1171.4000244141</ele>
        <time>2013-05-12T08:07:39Z</time>
      </trkpt>
      <trkpt lat="45.5378" lon="6.66327">
        <ele>1171.4000244141</ele>
        <time>2013-05-12T08:07:43Z</time>
      </trkpt>
      <trkpt lat="45.53797" lon="6.66327">
        <ele>1171.4000244141</ele>
        <time>2013-05-12T08:07:51Z</time>
      </trkpt>
      <trkpt lat="45.53805" lon="6.66326">
        <ele>1171.4000244141</ele>
        <time>2013-05-12T08:07:54Z</time>
      </trkpt>
      <trkpt lat="45.53811" lon="6.66328">
        <ele>1171.4000244141</ele>
        <time>2013-05-12T08:07:56Z</time>
      </trkpt>
      <trkpt lat="45.53818" lon="6.66331">
        <ele>1170.4000244141</ele>
        <time>2013-05-12T08:07:58Z</time>
      </trkpt>
      <trkpt lat="45.53822" lon="6.66334">
        <ele>1169.4000244141</ele>
        <time>2013-05-12T08:08:00Z</time>
      </trkpt>
      <trkpt lat="45.53828" lon="6.66335">
        <ele>1168.4000244141</ele>
        <time>2013-05-12T08:08:02Z</time>
      </trkpt>
      <trkpt lat="45.53833" lon="6.66336">
        <ele>1167.4000244141</ele>
        <time>2013-05-12T08:08:04Z</time>
      </trkpt>
      <trkpt lat="45.53839" lon="6.66336">
        <ele>1166.8000488281</ele>
        <time>2013-05-12T08:08:06Z</time>
      </trkpt>
      <trkpt lat="45.53844" lon="6.66336">
        <ele>1166</ele>
        <time>2013-05-12T08:08:08Z</time>
      </trkpt>
      <trkpt lat="45.53849" lon="6.66338">
        <ele>1165.4000244141</ele>
        <time>2013-05-12T08:08:10Z</time>
      </trkpt>
      <trkpt lat="45.53853" lon="6.66337">
        <ele>1164.4000244141</ele>
        <time>2013-05-12T08:08:12Z</time>
      </trkpt>
      <trkpt lat="45.53854" lon="6.66335">
        <ele>1163.4000244141</ele>
        <time>2013-05-12T08:08:14Z</time>
      </trkpt>
      <trkpt lat="45.53853" lon="6.6633">
        <ele>1162.4000244141</ele>
        <time>2013-05-12T08:08:16Z</time>
      </trkpt>
      <trkpt lat="45.5385" lon="6.66327">
        <ele>1161.4000244141</ele>
        <time>2013-05-12T08:08:18Z</time>
      </trkpt>
      <trkpt lat="45.53847" lon="6.66322">
        <ele>1159.4000244141</ele>
        <time>2013-05-12T08:08:20Z</time>
      </trkpt>
      <trkpt lat="45.53844" lon="6.66316">
        <ele>1157.8000488281</ele>
        <time>2013-05-12T08:08:22Z</time>
      </trkpt>
      <trkpt lat="45.53842" lon="6.66311">
        <ele>1156.4000244141</ele>
        <time>2013-05-12T08:08:24Z</time>
      </trkpt>
      <trkpt lat="45.53842" lon="6.66305">
        <ele>1154</ele>
        <time>2013-05-12T08:08:28Z</time>
      </trkpt>
      <trkpt lat="45.53845" lon="6.66304">
        <ele>1153</ele>
        <time>2013-05-12T08:08:30Z</time>
      </trkpt>
      <trkpt lat="45.53844" lon="6.663">
        <ele>1151.4000244141</ele>
        <time>2013-05-12T08:08:32Z</time>
      </trkpt>
      <trkpt lat="45.53847" lon="6.66297">
        <ele>1150</ele>
        <time>2013-05-12T08:08:34Z</time>
      </trkpt>
      <trkpt lat="45.53851" lon="6.66293">
        <ele>1149</ele>
        <time>2013-05-12T08:08:36Z</time>
      </trkpt>
      <trkpt lat="45.53856" lon="6.66293">
        <ele>1147.4000244141</ele>
        <time>2013-05-12T08:08:38Z</time>
      </trkpt>
      <trkpt lat="45.53862" lon="6.66291">
        <ele>1145.4000244141</ele>
        <time>2013-05-12T08:08:40Z</time>
      </trkpt>
      <trkpt lat="45.53867" lon="6.66287">
        <ele>1143.4000244141</ele>
        <time>2013-05-12T08:08:42Z</time>
      </trkpt>
      <trkpt lat="45.53871" lon="6.66285">
        <ele>1141</ele>
        <time>2013-05-12T08:08:44Z</time>
      </trkpt>
      <trkpt lat="45.53876" lon="6.66284">
        <ele>1139</ele>
        <time>2013-05-12T08:08:46Z</time>
      </trkpt>
      <trkpt lat="45.5388" lon="6.66284">
        <ele>1136.8000488281</ele>
        <time>2013-05-12T08:08:48Z</time>
      </trkpt>
      <trkpt lat="45.53883" lon="6.66283">
        <ele>1136</ele>
        <time>2013-05-12T08:08:50Z</time>
      </trkpt>
      <trkpt lat="45.53886" lon="6.66285">
        <ele>1135.4000244141</ele>
        <time>2013-05-12T08:08:52Z</time>
      </trkpt>
      <trkpt lat="45.53888" lon="6.66287">
        <ele>1134.4000244141</ele>
        <time>2013-05-12T08:08:54Z</time>
      </trkpt>
      <trkpt lat="45.5389" lon="6.66288">
        <ele>1133</ele>
        <time>2013-05-12T08:08:56Z</time>
      </trkpt>
      <trkpt lat="45.53892" lon="6.6629">
        <ele>1132.4000244141</ele>
        <time>2013-05-12T08:08:58Z</time>
      </trkpt>
      <trkpt lat="45.53898" lon="6.66293">
        <ele>1132.4000244141</ele>
        <time>2013-05-12T08:09:03Z</time>
      </trkpt>
      <trkpt lat="45.53899" lon="6.66294">
        <ele>1131.4000244141</ele>
        <time>2013-05-12T08:09:05Z</time>
      </trkpt>
      <trkpt lat="45.53899" lon="6.66295">
        <ele>1130.8000488281</ele>
        <time>2013-05-12T08:09:07Z</time>
      </trkpt>
      <trkpt lat="45.53902" lon="6.66296">
        <ele>1130.4000244141</ele>
        <time>2013-05-12T08:09:19Z</time>
      </trkpt>
      <trkpt lat="45.53902" lon="6.66298">
        <ele>1130.4000244141</ele>
        <time>2013-05-12T08:09:25Z</time>
      </trkpt>
      <trkpt lat="45.53902" lon="6.66298">
        <ele>1130.4000244141</ele>
        <time>2013-05-12T08:09:30Z</time>
      </trkpt>
      <trkpt lat="45.53902" lon="6.66299">
        <ele>1130.4000244141</ele>
        <time>2013-05-12T08:09:35Z</time>
      </trkpt>
      <trkpt lat="45.53901" lon="6.66301">
        <ele>1130.4000244141</ele>
        <time>2013-05-12T08:09:47Z</time>
      </trkpt>
      <trkpt lat="45.53897" lon="6.66308">
        <ele>1130.4000244141</ele>
        <time>2013-05-12T08:09:55Z</time>
      </trkpt>
      <trkpt lat="45.53907" lon="6.66321">
        <ele>1130.4000244141</ele>
        <time>2013-05-12T08:09:59Z</time>
      </trkpt>
      <trkpt lat="45.53921" lon="6.66335">
        <ele>1130.4000244141</ele>
        <time>2013-05-12T08:10:04Z</time>
      </trkpt>
      <trkpt lat="45.53929" lon="6.66341">
        <ele>1129.4000244141</ele>
        <time>2013-05-12T08:10:07Z</time>
      </trkpt>
      <trkpt lat="45.53935" lon="6.66347">
        <ele>1128.4000244141</ele>
        <time>2013-05-12T08:10:09Z</time>
      </trkpt>
      <trkpt lat="45.53941" lon="6.66351">
        <ele>1127.4000244141</ele>
        <time>2013-05-12T08:10:11Z</time>
      </trkpt>
      <trkpt lat="45.53947" lon="6.66356">
        <ele>1126</ele>
        <time>2013-05-12T08:10:13Z</time>
      </trkpt>
      <trkpt lat="45.53959" lon="6.6636">
        <ele>1125</ele>
        <time>2013-05-12T08:10:16Z</time>
      </trkpt>
      <trkpt lat="45.53964" lon="6.66364">
        <ele>1124.4000244141</ele>
        <time>2013-05-12T08:10:18Z</time>
      </trkpt>
      <trkpt lat="45.53967" lon="6.66372">
        <ele>1124</ele>
        <time>2013-05-12T08:10:20Z</time>
      </trkpt>
      <trkpt lat="45.53971" lon="6.66381">
        <ele>1123.4000244141</ele>
        <time>2013-05-12T08:10:22Z</time>
      </trkpt>
      <trkpt lat="45.53985" lon="6.66393">
        <ele>1122.4000244141</ele>
        <time>2013-05-12T08:10:27Z</time>
      </trkpt>
      <trkpt lat="45.53989" lon="6.66402">
        <ele>1121</ele>
        <time>2013-05-12T08:10:29Z</time>
      </trkpt>
      <trkpt lat="45.53994" lon="6.6641">
        <ele>1120</ele>
        <time>2013-05-12T08:10:31Z</time>
      </trkpt>
      <trkpt lat="45.53996" lon="6.6642">
        <ele>1119</ele>
        <time>2013-05-12T08:10:33Z</time>
      </trkpt>
      <trkpt lat="45.53997" lon="6.66428">
        <ele>1118</ele>
        <time>2013-05-12T08:10:35Z</time>
      </trkpt>
      <trkpt lat="45.53996" lon="6.66438">
        <ele>1117</ele>
        <time>2013-05-12T08:10:37Z</time>
      </trkpt>
      <trkpt lat="45.53996" lon="6.66447">
        <ele>1116.4000244141</ele>
        <time>2013-05-12T08:10:39Z</time>
      </trkpt>
      <trkpt lat="45.53996" lon="6.66453">
        <ele>1115.8000488281</ele>
        <time>2013-05-12T08:10:41Z</time>
      </trkpt>
      <trkpt lat="45.53997" lon="6.6646">
        <ele>1115</ele>
        <time>2013-05-12T08:10:43Z</time>
      </trkpt>
      <trkpt lat="45.53997" lon="6.66465">
        <ele>1114.8000488281</ele>
        <time>2013-05-12T08:10:45Z</time>
      </trkpt>
      <trkpt lat="45.53997" lon="6.66468">
        <ele>1114</ele>
        <time>2013-05-12T08:10:47Z</time>
      </trkpt>
      <trkpt lat="45.53998" lon="6.66473">
        <ele>1113.4000244141</ele>
        <time>2013-05-12T08:10:49Z</time>
      </trkpt>
      <trkpt lat="45.54004" lon="6.66478">
        <ele>1113</ele>
        <time>2013-05-12T08:10:51Z</time>
      </trkpt>
      <trkpt lat="45.54009" lon="6.66482">
        <ele>1112.4000244141</ele>
        <time>2013-05-12T08:10:53Z</time>
      </trkpt>
      <trkpt lat="45.54012" lon="6.66487">
        <ele>1111.4000244141</ele>
        <time>2013-05-12T08:10:55Z</time>
      </trkpt>
      <trkpt lat="45.54015" lon="6.66494">
        <ele>1111</ele>
        <time>2013-05-12T08:10:57Z</time>
      </trkpt>
      <trkpt lat="45.54016" lon="6.665">
        <ele>1110.4000244141</ele>
        <time>2013-05-12T08:10:59Z</time>
      </trkpt>
      <trkpt lat="45.54017" lon="6.66508">
        <ele>1110</ele>
        <time>2013-05-12T08:11:01Z</time>
      </trkpt>
      <trkpt lat="45.54017" lon="6.66517">
        <ele>1109</ele>
        <time>2013-05-12T08:11:03Z</time>
      </trkpt>
      <trkpt lat="45.54017" lon="6.66524">
        <ele>1108</ele>
        <time>2013-05-12T08:11:05Z</time>
      </trkpt>
      <trkpt lat="45.54018" lon="6.66534">
        <ele>1107.4000244141</ele>
        <time>2013-05-12T08:11:07Z</time>
      </trkpt>
      <trkpt lat="45.5402" lon="6.66542">
        <ele>1106.8000488281</ele>
        <time>2013-05-12T08:11:09Z</time>
      </trkpt>
      <trkpt lat="45.54023" lon="6.66549">
        <ele>1106</ele>
        <time>2013-05-12T08:11:11Z</time>
      </trkpt>
      <trkpt lat="45.54026" lon="6.66557">
        <ele>1105.8000488281</ele>
        <time>2013-05-12T08:11:13Z</time>
      </trkpt>
      <trkpt lat="45.54026" lon="6.66565">
        <ele>1105</ele>
        <time>2013-05-12T08:11:15Z</time>
      </trkpt>
      <trkpt lat="45.54026" lon="6.66572">
        <ele>1104.8000488281</ele>
        <time>2013-05-12T08:11:17Z</time>
      </trkpt>
      <trkpt lat="45.54031" lon="6.66575">
        <ele>1104</ele>
        <time>2013-05-12T08:11:19Z</time>
      </trkpt>
      <trkpt lat="45.54037" lon="6.66573">
        <ele>1103</ele>
        <time>2013-05-12T08:11:21Z</time>
      </trkpt>
      <trkpt lat="45.54042" lon="6.66573">
        <ele>1102.8000488281</ele>
        <time>2013-05-12T08:11:23Z</time>
      </trkpt>
      <trkpt lat="45.54054" lon="6.66567">
        <ele>1102</ele>
        <time>2013-05-12T08:11:28Z</time>
      </trkpt>
      <trkpt lat="45.54059" lon="6.66565">
        <ele>1101.4000244141</ele>
        <time>2013-05-12T08:11:30Z</time>
      </trkpt>
      <trkpt lat="45.54063" lon="6.66563">
        <ele>1100.4000244141</ele>
        <time>2013-05-12T08:11:32Z</time>
      </trkpt>
      <trkpt lat="45.54066" lon="6.66558">
        <ele>1100</ele>
        <time>2013-05-12T08:11:35Z</time>
      </trkpt>
      <trkpt lat="45.54069" lon="6.66554">
        <ele>1099</ele>
        <time>2013-05-12T08:11:37Z</time>
      </trkpt>
      <trkpt lat="45.54074" lon="6.66555">
        <ele>1098.4000244141</ele>
        <time>2013-05-12T08:11:39Z</time>
      </trkpt>
      <trkpt lat="45.54084" lon="6.66552">
        <ele>1095</ele>
        <time>2013-05-12T08:11:43Z</time>
      </trkpt>
      <trkpt lat="45.54088" lon="6.66552">
        <ele>1093.8000488281</ele>
        <time>2013-05-12T08:11:45Z</time>
      </trkpt>
      <trkpt lat="45.54093" lon="6.66552">
        <ele>1092</ele>
        <time>2013-05-12T08:11:47Z</time>
      </trkpt>
      <trkpt lat="45.54095" lon="6.66543">
        <ele>1090</ele>
        <time>2013-05-12T08:11:49Z</time>
      </trkpt>
      <trkpt lat="45.54098" lon="6.66538">
        <ele>1089</ele>
        <time>2013-05-12T08:11:51Z</time>
      </trkpt>
      <trkpt lat="45.54103" lon="6.66536">
        <ele>1087.4000244141</ele>
        <time>2013-05-12T08:11:53Z</time>
      </trkpt>
      <trkpt lat="45.54108" lon="6.66535">
        <ele>1086</ele>
        <time>2013-05-12T08:11:55Z</time>
      </trkpt>
      <trkpt lat="45.54114" lon="6.66536">
        <ele>1085</ele>
        <time>2013-05-12T08:11:57Z</time>
      </trkpt>
      <trkpt lat="45.54117" lon="6.66533">
        <ele>1084</ele>
        <time>2013-05-12T08:11:59Z</time>
      </trkpt>
      <trkpt lat="45.54116" lon="6.66528">
        <ele>1083</ele>
        <time>2013-05-12T08:12:01Z</time>
      </trkpt>
      <trkpt lat="45.54117" lon="6.66522">
        <ele>1082</ele>
        <time>2013-05-12T08:12:03Z</time>
      </trkpt>
      <trkpt lat="45.54126" lon="6.66509">
        <ele>1080</ele>
        <time>2013-05-12T08:12:07Z</time>
      </trkpt>
      <trkpt lat="45.5413" lon="6.665">
        <ele>1079.4000244141</ele>
        <time>2013-05-12T08:12:09Z</time>
      </trkpt>
      <trkpt lat="45.54133" lon="6.66494">
        <ele>1078.4000244141</ele>
        <time>2013-05-12T08:12:11Z</time>
      </trkpt>
      <trkpt lat="45.5413" lon="6.66489">
        <ele>1077.4000244141</ele>
        <time>2013-05-12T08:12:13Z</time>
      </trkpt>
      <trkpt lat="45.54126" lon="6.66487">
        <ele>1076</ele>
        <time>2013-05-12T08:12:15Z</time>
      </trkpt>
      <trkpt lat="45.54122" lon="6.66487">
        <ele>1075</ele>
        <time>2013-05-12T08:12:17Z</time>
      </trkpt>
      <trkpt lat="45.54118" lon="6.66485">
        <ele>1073.4000244141</ele>
        <time>2013-05-12T08:12:19Z</time>
      </trkpt>
      <trkpt lat="45.54114" lon="6.66484">
        <ele>1072</ele>
        <time>2013-05-12T08:12:21Z</time>
      </trkpt>
      <trkpt lat="45.54111" lon="6.66479">
        <ele>1070.4000244141</ele>
        <time>2013-05-12T08:12:23Z</time>
      </trkpt>
      <trkpt lat="45.54112" lon="6.66474">
        <ele>1069</ele>
        <time>2013-05-12T08:12:25Z</time>
      </trkpt>
      <trkpt lat="45.54113" lon="6.6647">
        <ele>1067.4000244141</ele>
        <time>2013-05-12T08:12:27Z</time>
      </trkpt>
      <trkpt lat="45.54117" lon="6.66466">
        <ele>1066</ele>
        <time>2013-05-12T08:12:29Z</time>
      </trkpt>
      <trkpt lat="45.54125" lon="6.66462">
        <ele>1064.4000244141</ele>
        <time>2013-05-12T08:12:32Z</time>
      </trkpt>
      <trkpt lat="45.54129" lon="6.6646">
        <ele>1062.4000244141</ele>
        <time>2013-05-12T08:12:34Z</time>
      </trkpt>
      <trkpt lat="45.54128" lon="6.66458">
        <ele>1060.8000488281</ele>
        <time>2013-05-12T08:12:36Z</time>
      </trkpt>
      <trkpt lat="45.54122" lon="6.66456">
        <ele>1059</ele>
        <time>2013-05-12T08:12:38Z</time>
      </trkpt>
      <trkpt lat="45.54119" lon="6.66452">
        <ele>1057</ele>
        <time>2013-05-12T08:12:40Z</time>
      </trkpt>
      <trkpt lat="45.5412" lon="6.66445">
        <ele>1055.4000244141</ele>
        <time>2013-05-12T08:12:42Z</time>
      </trkpt>
      <trkpt lat="45.54123" lon="6.66441">
        <ele>1053.4000244141</ele>
        <time>2013-05-12T08:12:44Z</time>
      </trkpt>
      <trkpt lat="45.54127" lon="6.66435">
        <ele>1052</ele>
        <time>2013-05-12T08:12:46Z</time>
      </trkpt>
      <trkpt lat="45.54132" lon="6.66432">
        <ele>1049</ele>
        <time>2013-05-12T08:12:48Z</time>
      </trkpt>
      <trkpt lat="45.54139" lon="6.66429">
        <ele>1048.4000244141</ele>
        <time>2013-05-12T08:12:51Z</time>
      </trkpt>
      <trkpt lat="45.54145" lon="6.66427">
        <ele>1047.4000244141</ele>
        <time>2013-05-12T08:12:53Z</time>
      </trkpt>
      <trkpt lat="45.54149" lon="6.66426">
        <ele>1045.4000244141</ele>
        <time>2013-05-12T08:12:55Z</time>
      </trkpt>
      <trkpt lat="45.54145" lon="6.66421">
        <ele>1042.4000244141</ele>
        <time>2013-05-12T08:12:59Z</time>
      </trkpt>
      <trkpt lat="45.54142" lon="6.66417">
        <ele>1041.4000244141</ele>
        <time>2013-05-12T08:13:01Z</time>
      </trkpt>
      <trkpt lat="45.54138" lon="6.66413">
        <ele>1040.8000488281</ele>
        <time>2013-05-12T08:13:03Z</time>
      </trkpt>
      <trkpt lat="45.54134" lon="6.66411">
        <ele>1039.4000244141</ele>
        <time>2013-05-12T08:13:05Z</time>
      </trkpt>
      <trkpt lat="45.54132" lon="6.6641">
        <ele>1038.4000244141</ele>
        <time>2013-05-12T08:13:07Z</time>
      </trkpt>
      <trkpt lat="45.5413" lon="6.66406">
        <ele>1037</ele>
        <time>2013-05-12T08:13:09Z</time>
      </trkpt>
      <trkpt lat="45.5413" lon="6.66401">
        <ele>1035.8000488281</ele>
        <time>2013-05-12T08:13:11Z</time>
      </trkpt>
      <trkpt lat="45.54131" lon="6.66397">
        <ele>1034.4000244141</ele>
        <time>2013-05-12T08:13:13Z</time>
      </trkpt>
      <trkpt lat="45.54132" lon="6.6639">
        <ele>1033</ele>
        <time>2013-05-12T08:13:15Z</time>
      </trkpt>
      <trkpt lat="45.54137" lon="6.66384">
        <ele>1031.8000488281</ele>
        <time>2013-05-12T08:13:17Z</time>
      </trkpt>
      <trkpt lat="45.5414" lon="6.66385">
        <ele>1030.4000244141</ele>
        <time>2013-05-12T08:13:19Z</time>
      </trkpt>
      <trkpt lat="45.54143" lon="6.66382">
        <ele>1028.8000488281</ele>
        <time>2013-05-12T08:13:21Z</time>
      </trkpt>
      <trkpt lat="45.54142" lon="6.66376">
        <ele>1027</ele>
        <time>2013-05-12T08:13:23Z</time>
      </trkpt>
      <trkpt lat="45.54139" lon="6.66371">
        <ele>1025.4000244141</ele>
        <time>2013-05-12T08:13:25Z</time>
      </trkpt>
      <trkpt lat="45.54135" lon="6.66367">
        <ele>1023.5999755859</ele>
        <time>2013-05-12T08:13:27Z</time>
      </trkpt>
      <trkpt lat="45.54135" lon="6.66363">
        <ele>1022.4000244141</ele>
        <time>2013-05-12T08:13:29Z</time>
      </trkpt>
      <trkpt lat="45.54141" lon="6.66358">
        <ele>1020.4000244141</ele>
        <time>2013-05-12T08:13:31Z</time>
      </trkpt>
      <trkpt lat="45.54147" lon="6.66358">
        <ele>1018.5999755859</ele>
        <time>2013-05-12T08:13:33Z</time>
      </trkpt>
      <trkpt lat="45.54155" lon="6.66359">
        <ele>1016.5999755859</ele>
        <time>2013-05-12T08:13:36Z</time>
      </trkpt>
      <trkpt lat="45.54161" lon="6.66362">
        <ele>1015.4000244141</ele>
        <time>2013-05-12T08:13:38Z</time>
      </trkpt>
      <trkpt lat="45.54166" lon="6.66364">
        <ele>1014.200012207</ele>
        <time>2013-05-12T08:13:40Z</time>
      </trkpt>
      <trkpt lat="45.54173" lon="6.66363">
        <ele>1012.4000244141</ele>
        <time>2013-05-12T08:13:42Z</time>
      </trkpt>
      <trkpt lat="45.5418" lon="6.66364">
        <ele>1011.200012207</ele>
        <time>2013-05-12T08:13:44Z</time>
      </trkpt>
      <trkpt lat="45.54186" lon="6.66367">
        <ele>1009.4000244141</ele>
        <time>2013-05-12T08:13:46Z</time>
      </trkpt>
      <trkpt lat="45.54191" lon="6.66369">
        <ele>1008</ele>
        <time>2013-05-12T08:13:48Z</time>
      </trkpt>
      <trkpt lat="45.54205" lon="6.6637">
        <ele>1007.5999755859</ele>
        <time>2013-05-12T08:13:52Z</time>
      </trkpt>
      <trkpt lat="45.54218" lon="6.66373">
        <ele>1006.4000244141</ele>
        <time>2013-05-12T08:13:56Z</time>
      </trkpt>
      <trkpt lat="45.54223" lon="6.66383">
        <ele>1005.4000244141</ele>
        <time>2013-05-12T08:13:58Z</time>
      </trkpt>
      <trkpt lat="45.54226" lon="6.66392">
        <ele>1003.4000244141</ele>
        <time>2013-05-12T08:14:00Z</time>
      </trkpt>
      <trkpt lat="45.54228" lon="6.66401">
        <ele>1001.5999755859</ele>
        <time>2013-05-12T08:14:02Z</time>
      </trkpt>
      <trkpt lat="45.54232" lon="6.66409">
        <ele>999.59997558594</ele>
        <time>2013-05-12T08:14:04Z</time>
      </trkpt>
      <trkpt lat="45.54233" lon="6.66417">
        <ele>998</ele>
        <time>2013-05-12T08:14:06Z</time>
      </trkpt>
      <trkpt lat="45.54234" lon="6.66422">
        <ele>995.59997558594</ele>
        <time>2013-05-12T08:14:08Z</time>
      </trkpt>
      <trkpt lat="45.54239" lon="6.66426">
        <ele>994</ele>
        <time>2013-05-12T08:14:10Z</time>
      </trkpt>
      <trkpt lat="45.54248" lon="6.66428">
        <ele>993.40002441406</ele>
        <time>2013-05-12T08:14:13Z</time>
      </trkpt>
      <trkpt lat="45.54263" lon="6.6644">
        <ele>992.20001220703</ele>
        <time>2013-05-12T08:14:20Z</time>
      </trkpt>
      <trkpt lat="45.54269" lon="6.66443">
        <ele>991.20001220703</ele>
        <time>2013-05-12T08:14:22Z</time>
      </trkpt>
      <trkpt lat="45.54279" lon="6.66446">
        <ele>990.40002441406</ele>
        <time>2013-05-12T08:14:27Z</time>
      </trkpt>
      <trkpt lat="45.54282" lon="6.66448">
        <ele>989.40002441406</ele>
        <time>2013-05-12T08:14:29Z</time>
      </trkpt>
      <trkpt lat="45.54285" lon="6.66449">
        <ele>988.40002441406</ele>
        <time>2013-05-12T08:14:31Z</time>
      </trkpt>
      <trkpt lat="45.54289" lon="6.66451">
        <ele>988</ele>
        <time>2013-05-12T08:14:33Z</time>
      </trkpt>
      <trkpt lat="45.54295" lon="6.66454">
        <ele>987.20001220703</ele>
        <time>2013-05-12T08:14:35Z</time>
      </trkpt>
      <trkpt lat="45.54299" lon="6.66456">
        <ele>986.40002441406</ele>
        <time>2013-05-12T08:14:37Z</time>
      </trkpt>
      <trkpt lat="45.54303" lon="6.66455">
        <ele>985.59997558594</ele>
        <time>2013-05-12T08:14:39Z</time>
      </trkpt>
      <trkpt lat="45.54309" lon="6.66454">
        <ele>985</ele>
        <time>2013-05-12T08:14:41Z</time>
      </trkpt>
      <trkpt lat="45.54315" lon="6.66455">
        <ele>984</ele>
        <time>2013-05-12T08:14:43Z</time>
      </trkpt>
      <trkpt lat="45.54321" lon="6.66455">
        <ele>983.40002441406</ele>
        <time>2013-05-12T08:14:45Z</time>
      </trkpt>
      <trkpt lat="45.54326" lon="6.66456">
        <ele>982.40002441406</ele>
        <time>2013-05-12T08:14:47Z</time>
      </trkpt>
      <trkpt lat="45.54333" lon="6.66452">
        <ele>981.40002441406</ele>
        <time>2013-05-12T08:14:49Z</time>
      </trkpt>
      <trkpt lat="45.54341" lon="6.66449">
        <ele>980.20001220703</ele>
        <time>2013-05-12T08:14:51Z</time>
      </trkpt>
      <trkpt lat="45.54348" lon="6.66446">
        <ele>978.59997558594</ele>
        <time>2013-05-12T08:14:53Z</time>
      </trkpt>
      <trkpt lat="45.54354" lon="6.66447">
        <ele>977.40002441406</ele>
        <time>2013-05-12T08:14:55Z</time>
      </trkpt>
      <trkpt lat="45.5436" lon="6.66446">
        <ele>976.40002441406</ele>
        <time>2013-05-12T08:14:57Z</time>
      </trkpt>
      <trkpt lat="45.54368" lon="6.66448">
        <ele>972.59997558594</ele>
        <time>2013-05-12T08:15:00Z</time>
      </trkpt>
      <trkpt lat="45.54374" lon="6.66447">
        <ele>971.59997558594</ele>
        <time>2013-05-12T08:15:02Z</time>
      </trkpt>
      <trkpt lat="45.5438" lon="6.66447">
        <ele>971</ele>
        <time>2013-05-12T08:15:04Z</time>
      </trkpt>
      <trkpt lat="45.54386" lon="6.66446">
        <ele>970.20001220703</ele>
        <time>2013-05-12T08:15:06Z</time>
      </trkpt>
      <trkpt lat="45.54391" lon="6.66453">
        <ele>969</ele>
        <time>2013-05-12T08:15:08Z</time>
      </trkpt>
      <trkpt lat="45.54395" lon="6.6646">
        <ele>968</ele>
        <time>2013-05-12T08:15:10Z</time>
      </trkpt>
      <trkpt lat="45.54399" lon="6.66465">
        <ele>966.40002441406</ele>
        <time>2013-05-12T08:15:12Z</time>
      </trkpt>
      <trkpt lat="45.54403" lon="6.66469">
        <ele>965.20001220703</ele>
        <time>2013-05-12T08:15:14Z</time>
      </trkpt>
      <trkpt lat="45.54406" lon="6.66469">
        <ele>963.59997558594</ele>
        <time>2013-05-12T08:15:16Z</time>
      </trkpt>
      <trkpt lat="45.54405" lon="6.66463">
        <ele>962.20001220703</ele>
        <time>2013-05-12T08:15:18Z</time>
      </trkpt>
      <trkpt lat="45.54404" lon="6.66456">
        <ele>960.40002441406</ele>
        <time>2013-05-12T08:15:20Z</time>
      </trkpt>
      <trkpt lat="45.54402" lon="6.6645">
        <ele>959.40002441406</ele>
        <time>2013-05-12T08:15:22Z</time>
      </trkpt>
      <trkpt lat="45.544" lon="6.66441">
        <ele>958.40002441406</ele>
        <time>2013-05-12T08:15:24Z</time>
      </trkpt>
      <trkpt lat="45.54397" lon="6.66433">
        <ele>957.59997558594</ele>
        <time>2013-05-12T08:15:26Z</time>
      </trkpt>
      <trkpt lat="45.54393" lon="6.66429">
        <ele>956.59997558594</ele>
        <time>2013-05-12T08:15:28Z</time>
      </trkpt>
      <trkpt lat="45.54388" lon="6.66425">
        <ele>955.59997558594</ele>
        <time>2013-05-12T08:15:30Z</time>
      </trkpt>
      <trkpt lat="45.54381" lon="6.6642">
        <ele>954.59997558594</ele>
        <time>2013-05-12T08:15:33Z</time>
      </trkpt>
      <trkpt lat="45.54375" lon="6.66414">
        <ele>953</ele>
        <time>2013-05-12T08:15:37Z</time>
      </trkpt>
      <trkpt lat="45.54366" lon="6.66408">
        <ele>952.20001220703</ele>
        <time>2013-05-12T08:15:41Z</time>
      </trkpt>
      <trkpt lat="45.54362" lon="6.66406">
        <ele>951.40002441406</ele>
        <time>2013-05-12T08:15:43Z</time>
      </trkpt>
      <trkpt lat="45.54358" lon="6.66402">
        <ele>950.40002441406</ele>
        <time>2013-05-12T08:15:45Z</time>
      </trkpt>
      <trkpt lat="45.54353" lon="6.66399">
        <ele>949.40002441406</ele>
        <time>2013-05-12T08:15:47Z</time>
      </trkpt>
      <trkpt lat="45.54349" lon="6.66395">
        <ele>948.40002441406</ele>
        <time>2013-05-12T08:15:49Z</time>
      </trkpt>
      <trkpt lat="45.54345" lon="6.66393">
        <ele>947.40002441406</ele>
        <time>2013-05-12T08:15:51Z</time>
      </trkpt>
      <trkpt lat="45.54341" lon="6.6639">
        <ele>946.40002441406</ele>
        <time>2013-05-12T08:15:53Z</time>
      </trkpt>
      <trkpt lat="45.54339" lon="6.66391">
        <ele>945.40002441406</ele>
        <time>2013-05-12T08:15:55Z</time>
      </trkpt>
      <trkpt lat="45.54338" lon="6.6639">
        <ele>944.40002441406</ele>
        <time>2013-05-12T08:15:57Z</time>
      </trkpt>
      <trkpt lat="45.54336" lon="6.66388">
        <ele>943.40002441406</ele>
        <time>2013-05-12T08:15:59Z</time>
      </trkpt>
      <trkpt lat="45.54336" lon="6.66388">
        <ele>942.20001220703</ele>
        <time>2013-05-12T08:16:01Z</time>
      </trkpt>
      <trkpt lat="45.54335" lon="6.66386">
        <ele>942.20001220703</ele>
        <time>2013-05-12T08:16:08Z</time>
      </trkpt>
      <trkpt lat="45.54334" lon="6.66383">
        <ele>942.20001220703</ele>
        <time>2013-05-12T08:16:23Z</time>
      </trkpt>
      <trkpt lat="45.54334" lon="6.66383">
        <ele>942.20001220703</ele>
        <time>2013-05-12T08:16:29Z</time>
      </trkpt>
      <trkpt lat="45.54333" lon="6.66383">
        <ele>942.20001220703</ele>
        <time>2013-05-12T08:16:33Z</time>
      </trkpt>
      <trkpt lat="45.54333" lon="6.66381">
        <ele>942.20001220703</ele>
        <time>2013-05-12T08:16:47Z</time>
      </trkpt>
      <trkpt lat="45.54333" lon="6.66381">
        <ele>942.20001220703</ele>
        <time>2013-05-12T08:16:53Z</time>
      </trkpt>
      <trkpt lat="45.54344" lon="6.66382">
        <ele>942.20001220703</ele>
        <time>2013-05-12T08:17:09Z</time>
      </trkpt>
      <trkpt lat="45.54347" lon="6.6638">
        <ele>942.20001220703</ele>
        <time>2013-05-12T08:17:11Z</time>
      </trkpt>
      <trkpt lat="45.54353" lon="6.66381">
        <ele>941.40002441406</ele>
        <time>2013-05-12T08:17:13Z</time>
      </trkpt>
      <trkpt lat="45.54358" lon="6.66379">
        <ele>940</ele>
        <time>2013-05-12T08:17:15Z</time>
      </trkpt>
      <trkpt lat="45.54364" lon="6.66379">
        <ele>938.40002441406</ele>
        <time>2013-05-12T08:17:17Z</time>
      </trkpt>
      <trkpt lat="45.54371" lon="6.66374">
        <ele>936.40002441406</ele>
        <time>2013-05-12T08:17:19Z</time>
      </trkpt>
      <trkpt lat="45.54375" lon="6.6637">
        <ele>934.59997558594</ele>
        <time>2013-05-12T08:17:21Z</time>
      </trkpt>
      <trkpt lat="45.54382" lon="6.66367">
        <ele>933.20001220703</ele>
        <time>2013-05-12T08:17:23Z</time>
      </trkpt>
      <trkpt lat="45.54386" lon="6.6637">
        <ele>931.59997558594</ele>
        <time>2013-05-12T08:17:25Z</time>
      </trkpt>
      <trkpt lat="45.5439" lon="6.66374">
        <ele>930.40002441406</ele>
        <time>2013-05-12T08:17:27Z</time>
      </trkpt>
      <trkpt lat="45.54396" lon="6.66377">
        <ele>929.40002441406</ele>
        <time>2013-05-12T08:17:29Z</time>
      </trkpt>
      <trkpt lat="45.54402" lon="6.66378">
        <ele>928.40002441406</ele>
        <time>2013-05-12T08:17:31Z</time>
      </trkpt>
      <trkpt lat="45.54405" lon="6.66374">
        <ele>927</ele>
        <time>2013-05-12T08:17:33Z</time>
      </trkpt>
      <trkpt lat="45.54405" lon="6.6637">
        <ele>925.40002441406</ele>
        <time>2013-05-12T08:17:35Z</time>
      </trkpt>
      <trkpt lat="45.54407" lon="6.66366">
        <ele>924.20001220703</ele>
        <time>2013-05-12T08:17:37Z</time>
      </trkpt>
      <trkpt lat="45.54411" lon="6.66372">
        <ele>922.59997558594</ele>
        <time>2013-05-12T08:17:39Z</time>
      </trkpt>
      <trkpt lat="45.54416" lon="6.66378">
        <ele>921.40002441406</ele>
        <time>2013-05-12T08:17:41Z</time>
      </trkpt>
      <trkpt lat="45.54422" lon="6.66374">
        <ele>919.20001220703</ele>
        <time>2013-05-12T08:17:45Z</time>
      </trkpt>
      <trkpt lat="45.54427" lon="6.66372">
        <ele>918</ele>
        <time>2013-05-12T08:17:47Z</time>
      </trkpt>
      <trkpt lat="45.5443" lon="6.66366">
        <ele>916.40002441406</ele>
        <time>2013-05-12T08:17:49Z</time>
      </trkpt>
      <trkpt lat="45.54433" lon="6.66361">
        <ele>915.40002441406</ele>
        <time>2013-05-12T08:17:51Z</time>
      </trkpt>
      <trkpt lat="45.54431" lon="6.66357">
        <ele>914</ele>
        <time>2013-05-12T08:17:53Z</time>
      </trkpt>
      <trkpt lat="45.54427" lon="6.66354">
        <ele>913.20001220703</ele>
        <time>2013-05-12T08:17:55Z</time>
      </trkpt>
      <trkpt lat="45.54425" lon="6.66348">
        <ele>910.59997558594</ele>
        <time>2013-05-12T08:17:57Z</time>
      </trkpt>
      <trkpt lat="45.5442" lon="6.66338">
        <ele>910.40002441406</ele>
        <time>2013-05-12T08:18:00Z</time>
      </trkpt>
      <trkpt lat="45.54418" lon="6.66333">
        <ele>909.40002441406</ele>
        <time>2013-05-12T08:18:02Z</time>
      </trkpt>
      <trkpt lat="45.54416" lon="6.6633">
        <ele>908.40002441406</ele>
        <time>2013-05-12T08:18:04Z</time>
      </trkpt>
      <trkpt lat="45.54412" lon="6.66327">
        <ele>907.20001220703</ele>
        <time>2013-05-12T08:18:06Z</time>
      </trkpt>
      <trkpt lat="45.5441" lon="6.66323">
        <ele>906</ele>
        <time>2013-05-12T08:18:08Z</time>
      </trkpt>
      <trkpt lat="45.54408" lon="6.66322">
        <ele>904.59997558594</ele>
        <time>2013-05-12T08:18:10Z</time>
      </trkpt>
      <trkpt lat="45.54411" lon="6.66318">
        <ele>903.59997558594</ele>
        <time>2013-05-12T08:18:12Z</time>
      </trkpt>
      <trkpt lat="45.54422" lon="6.66313">
        <ele>903.40002441406</ele>
        <time>2013-05-12T08:18:16Z</time>
      </trkpt>
      <trkpt lat="45.54428" lon="6.66314">
        <ele>902.59997558594</ele>
        <time>2013-05-12T08:18:18Z</time>
      </trkpt>
      <trkpt lat="45.54434" lon="6.66313">
        <ele>902</ele>
        <time>2013-05-12T08:18:20Z</time>
      </trkpt>
      <trkpt lat="45.54451" lon="6.66312">
        <ele>901.40002441406</ele>
        <time>2013-05-12T08:18:25Z</time>
      </trkpt>
      <trkpt lat="45.54452" lon="6.66307">
        <ele>901.40002441406</ele>
        <time>2013-05-12T08:18:28Z</time>
      </trkpt>
      <trkpt lat="45.5447" lon="6.66304">
        <ele>901.40002441406</ele>
        <time>2013-05-12T08:18:35Z</time>
      </trkpt>
      <trkpt lat="45.54475" lon="6.66304">
        <ele>900.40002441406</ele>
        <time>2013-05-12T08:18:37Z</time>
      </trkpt>
      <trkpt lat="45.5448" lon="6.66305">
        <ele>899.59997558594</ele>
        <time>2013-05-12T08:18:39Z</time>
      </trkpt>
      <trkpt lat="45.54494" lon="6.66309">
        <ele>899.40002441406</ele>
        <time>2013-05-12T08:18:43Z</time>
      </trkpt>
      <trkpt lat="45.54512" lon="6.66307">
        <ele>899.40002441406</ele>
        <time>2013-05-12T08:18:51Z</time>
      </trkpt>
      <trkpt lat="45.54526" lon="6.66288">
        <ele>899.20001220703</ele>
        <time>2013-05-12T08:18:58Z</time>
      </trkpt>
      <trkpt lat="45.54529" lon="6.6628">
        <ele>898.40002441406</ele>
        <time>2013-05-12T08:19:00Z</time>
      </trkpt>
      <trkpt lat="45.54533" lon="6.66272">
        <ele>897.40002441406</ele>
        <time>2013-05-12T08:19:02Z</time>
      </trkpt>
      <trkpt lat="45.54534" lon="6.66264">
        <ele>898.59997558594</ele>
        <time>2013-05-12T08:19:04Z</time>
      </trkpt>
      <trkpt lat="45.54537" lon="6.66256">
        <ele>898.40002441406</ele>
        <time>2013-05-12T08:19:06Z</time>
      </trkpt>
      <trkpt lat="45.54542" lon="6.66251">
        <ele>897.40002441406</ele>
        <time>2013-05-12T08:19:08Z</time>
      </trkpt>
      <trkpt lat="45.54546" lon="6.66246">
        <ele>896.20001220703</ele>
        <time>2013-05-12T08:19:10Z</time>
      </trkpt>
      <trkpt lat="45.5455" lon="6.66239">
        <ele>894.40002441406</ele>
        <time>2013-05-12T08:19:12Z</time>
      </trkpt>
      <trkpt lat="45.54555" lon="6.66234">
        <ele>893.20001220703</ele>
        <time>2013-05-12T08:19:14Z</time>
      </trkpt>
      <trkpt lat="45.5456" lon="6.66229">
        <ele>891.40002441406</ele>
        <time>2013-05-12T08:19:16Z</time>
      </trkpt>
      <trkpt lat="45.54566" lon="6.66227">
        <ele>890</ele>
        <time>2013-05-12T08:19:18Z</time>
      </trkpt>
      <trkpt lat="45.54573" lon="6.66233">
        <ele>885.40002441406</ele>
        <time>2013-05-12T08:19:22Z</time>
      </trkpt>
      <trkpt lat="45.54576" lon="6.66232">
        <ele>883.40002441406</ele>
        <time>2013-05-12T08:19:24Z</time>
      </trkpt>
      <trkpt lat="45.54587" lon="6.66233">
        <ele>883.40002441406</ele>
        <time>2013-05-12T08:19:29Z</time>
      </trkpt>
      <trkpt lat="45.54598" lon="6.66225">
        <ele>883.40002441406</ele>
        <time>2013-05-12T08:19:33Z</time>
      </trkpt>
      <trkpt lat="45.54612" lon="6.66228">
        <ele>882.40002441406</ele>
        <time>2013-05-12T08:19:38Z</time>
      </trkpt>
      <trkpt lat="45.54617" lon="6.66231">
        <ele>881.20001220703</ele>
        <time>2013-05-12T08:19:40Z</time>
      </trkpt>
      <trkpt lat="45.54622" lon="6.66234">
        <ele>879.40002441406</ele>
        <time>2013-05-12T08:19:42Z</time>
      </trkpt>
      <trkpt lat="45.54628" lon="6.66238">
        <ele>878</ele>
        <time>2013-05-12T08:19:44Z</time>
      </trkpt>
      <trkpt lat="45.54631" lon="6.66241">
        <ele>876.20001220703</ele>
        <time>2013-05-12T08:19:46Z</time>
      </trkpt>
      <trkpt lat="45.54637" lon="6.66243">
        <ele>874.40002441406</ele>
        <time>2013-05-12T08:19:48Z</time>
      </trkpt>
      <trkpt lat="45.54638" lon="6.66242">
        <ele>873</ele>
        <time>2013-05-12T08:19:50Z</time>
      </trkpt>
      <trkpt lat="45.54637" lon="6.66236">
        <ele>871.40002441406</ele>
        <time>2013-05-12T08:19:52Z</time>
      </trkpt>
      <trkpt lat="45.54634" lon="6.66231">
        <ele>869.40002441406</ele>
        <time>2013-05-12T08:19:54Z</time>
      </trkpt>
      <trkpt lat="45.54631" lon="6.66228">
        <ele>867.40002441406</ele>
        <time>2013-05-12T08:19:56Z</time>
      </trkpt>
      <trkpt lat="45.54631" lon="6.66226">
        <ele>865.40002441406</ele>
        <time>2013-05-12T08:19:58Z</time>
      </trkpt>
      <trkpt lat="45.54635" lon="6.66226">
        <ele>863.59997558594</ele>
        <time>2013-05-12T08:20:00Z</time>
      </trkpt>
      <trkpt lat="45.5464" lon="6.66226">
        <ele>862.20001220703</ele>
        <time>2013-05-12T08:20:02Z</time>
      </trkpt>
      <trkpt lat="45.54641" lon="6.66222">
        <ele>862</ele>
        <time>2013-05-12T08:20:05Z</time>
      </trkpt>
      <trkpt lat="45.54641" lon="6.66219">
        <ele>861</ele>
        <time>2013-05-12T08:20:07Z</time>
      </trkpt>
      <trkpt lat="45.54648" lon="6.6622">
        <ele>860</ele>
        <time>2013-05-12T08:20:09Z</time>
      </trkpt>
      <trkpt lat="45.54654" lon="6.66221">
        <ele>859.40002441406</ele>
        <time>2013-05-12T08:20:11Z</time>
      </trkpt>
      <trkpt lat="45.54661" lon="6.66221">
        <ele>858.40002441406</ele>
        <time>2013-05-12T08:20:13Z</time>
      </trkpt>
      <trkpt lat="45.5467" lon="6.66228">
        <ele>857.40002441406</ele>
        <time>2013-05-12T08:20:15Z</time>
      </trkpt>
      <trkpt lat="45.54675" lon="6.66233">
        <ele>856</ele>
        <time>2013-05-12T08:20:17Z</time>
      </trkpt>
      <trkpt lat="45.54682" lon="6.66237">
        <ele>854.40002441406</ele>
        <time>2013-05-12T08:20:19Z</time>
      </trkpt>
      <trkpt lat="45.54686" lon="6.66242">
        <ele>853.20001220703</ele>
        <time>2013-05-12T08:20:21Z</time>
      </trkpt>
      <trkpt lat="45.54692" lon="6.66251">
        <ele>852.40002441406</ele>
        <time>2013-05-12T08:20:23Z</time>
      </trkpt>
      <trkpt lat="45.54696" lon="6.66261">
        <ele>850.40002441406</ele>
        <time>2013-05-12T08:20:25Z</time>
      </trkpt>
      <trkpt lat="45.54699" lon="6.6627">
        <ele>848.40002441406</ele>
        <time>2013-05-12T08:20:27Z</time>
      </trkpt>
      <trkpt lat="45.54702" lon="6.66278">
        <ele>846.40002441406</ele>
        <time>2013-05-12T08:20:29Z</time>
      </trkpt>
      <trkpt lat="45.54705" lon="6.66285">
        <ele>845.40002441406</ele>
        <time>2013-05-12T08:20:31Z</time>
      </trkpt>
      <trkpt lat="45.54706" lon="6.66291">
        <ele>844</ele>
        <time>2013-05-12T08:20:33Z</time>
      </trkpt>
      <trkpt lat="45.5471" lon="6.66294">
        <ele>843</ele>
        <time>2013-05-12T08:20:35Z</time>
      </trkpt>
      <trkpt lat="45.54716" lon="6.66299">
        <ele>842.20001220703</ele>
        <time>2013-05-12T08:20:37Z</time>
      </trkpt>
      <trkpt lat="45.5472" lon="6.66301">
        <ele>841.40002441406</ele>
        <time>2013-05-12T08:20:39Z</time>
      </trkpt>
      <trkpt lat="45.54729" lon="6.66303">
        <ele>839.59997558594</ele>
        <time>2013-05-12T08:20:43Z</time>
      </trkpt>
      <trkpt lat="45.54732" lon="6.66305">
        <ele>838.59997558594</ele>
        <time>2013-05-12T08:20:45Z</time>
      </trkpt>
      <trkpt lat="45.54733" lon="6.66306">
        <ele>837.40002441406</ele>
        <time>2013-05-12T08:20:47Z</time>
      </trkpt>
      <trkpt lat="45.54734" lon="6.66307">
        <ele>836</ele>
        <time>2013-05-12T08:20:49Z</time>
      </trkpt>
      <trkpt lat="45.54733" lon="6.66307">
        <ele>834.40002441406</ele>
        <time>2013-05-12T08:20:51Z</time>
      </trkpt>
      <trkpt lat="45.54733" lon="6.66308">
        <ele>833</ele>
        <time>2013-05-12T08:20:53Z</time>
      </trkpt>
      <trkpt lat="45.54733" lon="6.66308">
        <ele>831.40002441406</ele>
        <time>2013-05-12T08:20:55Z</time>
      </trkpt>
      <trkpt lat="45.54733" lon="6.66308">
        <ele>830</ele>
        <time>2013-05-12T08:20:57Z</time>
      </trkpt>
      <trkpt lat="45.54734" lon="6.66309">
        <ele>828.40002441406</ele>
        <time>2013-05-12T08:20:59Z</time>
      </trkpt>
      <trkpt lat="45.54734" lon="6.66309">
        <ele>827.20001220703</ele>
        <time>2013-05-12T08:21:01Z</time>
      </trkpt>
      <trkpt lat="45.54734" lon="6.66309">
        <ele>826.40002441406</ele>
        <time>2013-05-12T08:21:03Z</time>
      </trkpt>
      <trkpt lat="45.54734" lon="6.66309">
        <ele>825.40002441406</ele>
        <time>2013-05-12T08:21:05Z</time>
      </trkpt>
      <trkpt lat="45.54734" lon="6.66309">
        <ele>823.40002441406</ele>
        <time>2013-05-12T08:21:07Z</time>
      </trkpt>
      <trkpt lat="45.54735" lon="6.66312">
        <ele>823.40002441406</ele>
        <time>2013-05-12T08:21:12Z</time>
      </trkpt>
      <trkpt lat="45.54736" lon="6.66314">
        <ele>823.40002441406</ele>
        <time>2013-05-12T08:21:17Z</time>
      </trkpt>
      <trkpt lat="45.54736" lon="6.66314">
        <ele>823.40002441406</ele>
        <time>2013-05-12T08:21:21Z</time>
      </trkpt>
      <trkpt lat="45.54736" lon="6.66314">
        <ele>824.20001220703</ele>
        <time>2013-05-12T08:21:23Z</time>
      </trkpt>
      <trkpt lat="45.54736" lon="6.66314">
        <ele>825</ele>
        <time>2013-05-12T08:21:25Z</time>
      </trkpt>
      <trkpt lat="45.54737" lon="6.66316">
        <ele>825.40002441406</ele>
        <time>2013-05-12T08:21:29Z</time>
      </trkpt>
      <trkpt lat="45.54737" lon="6.66317">
        <ele>825.40002441406</ele>
        <time>2013-05-12T08:21:35Z</time>
      </trkpt>
      <trkpt lat="45.54737" lon="6.66316">
        <ele>825.59997558594</ele>
        <time>2013-05-12T08:21:37Z</time>
      </trkpt>
      <trkpt lat="45.54737" lon="6.66317">
        <ele>826.40002441406</ele>
        <time>2013-05-12T08:21:39Z</time>
      </trkpt>
      <trkpt lat="45.54737" lon="6.66317">
        <ele>827.20001220703</ele>
        <time>2013-05-12T08:21:41Z</time>
      </trkpt>
      <trkpt lat="45.54737" lon="6.66317">
        <ele>827.40002441406</ele>
        <time>2013-05-12T08:21:47Z</time>
      </trkpt>
      <trkpt lat="45.54737" lon="6.66318">
        <ele>828</ele>
        <time>2013-05-12T08:21:49Z</time>
      </trkpt>
      <trkpt lat="45.54737" lon="6.66318">
        <ele>828.59997558594</ele>
        <time>2013-05-12T08:21:51Z</time>
      </trkpt>
      <trkpt lat="45.54737" lon="6.66318">
        <ele>829.40002441406</ele>
        <time>2013-05-12T08:21:53Z</time>
      </trkpt>
      <trkpt lat="45.54737" lon="6.66318">
        <ele>829.40002441406</ele>
        <time>2013-05-12T08:22:03Z</time>
      </trkpt>
      <trkpt lat="45.54739" lon="6.66318">
        <ele>829.40002441406</ele>
        <time>2013-05-12T08:22:15Z</time>
      </trkpt>
      <trkpt lat="45.54738" lon="6.6632">
        <ele>829.40002441406</ele>
        <time>2013-05-12T08:22:33Z</time>
      </trkpt>
      <trkpt lat="45.54739" lon="6.6632">
        <ele>829.40002441406</ele>
        <time>2013-05-12T08:22:41Z</time>
      </trkpt>
      <trkpt lat="45.54739" lon="6.6632">
        <ele>829.40002441406</ele>
        <time>2013-05-12T08:22:48Z</time>
      </trkpt>
      <trkpt lat="45.54739" lon="6.66319">
        <ele>829.40002441406</ele>
        <time>2013-05-12T08:23:06Z</time>
      </trkpt>
      <trkpt lat="45.54738" lon="6.66316">
        <ele>829.40002441406</ele>
        <time>2013-05-12T08:23:29Z</time>
      </trkpt>
      <trkpt lat="45.54738" lon="6.66315">
        <ele>829.40002441406</ele>
        <time>2013-05-12T08:23:41Z</time>
      </trkpt>
      <trkpt lat="45.54738" lon="6.66315">
        <ele>829.40002441406</ele>
        <time>2013-05-12T08:24:12Z</time>
      </trkpt>
      <trkpt lat="45.54738" lon="6.66315">
        <ele>829.40002441406</ele>
        <time>2013-05-12T08:24:26Z</time>
      </trkpt>
      <trkpt lat="45.54739" lon="6.66316">
        <ele>829.40002441406</ele>
        <time>2013-05-12T08:24:33Z</time>
      </trkpt>
      <trkpt lat="45.5474" lon="6.66317">
        <ele>829.40002441406</ele>
        <time>2013-05-12T08:24:51Z</time>
      </trkpt>
      <trkpt lat="45.5474" lon="6.66316">
        <ele>829.40002441406</ele>
        <time>2013-05-12T08:24:56Z</time>
      </trkpt>
      <trkpt lat="45.5474" lon="6.66316">
        <ele>829.40002441406</ele>
        <time>2013-05-12T08:25:06Z</time>
      </trkpt>
      <trkpt lat="45.5474" lon="6.66318">
        <ele>829.40002441406</ele>
        <time>2013-05-12T08:25:36Z</time>
      </trkpt>
      <trkpt lat="45.54742" lon="6.6632">
        <ele>829.40002441406</ele>
        <time>2013-05-12T08:25:38Z</time>
      </trkpt>
      <trkpt lat="45.54746" lon="6.66324">
        <ele>829.40002441406</ele>
        <time>2013-05-12T08:25:41Z</time>
      </trkpt>
      <trkpt lat="45.54745" lon="6.66327">
        <ele>829.40002441406</ele>
        <time>2013-05-12T08:25:44Z</time>
      </trkpt>
      <trkpt lat="45.54748" lon="6.66331">
        <ele>829.40002441406</ele>
        <time>2013-05-12T08:25:47Z</time>
      </trkpt>
      <trkpt lat="45.54753" lon="6.66332">
        <ele>829.40002441406</ele>
        <time>2013-05-12T08:25:51Z</time>
      </trkpt>
      <trkpt lat="45.54756" lon="6.66335">
        <ele>830.40002441406</ele>
        <time>2013-05-12T08:25:53Z</time>
      </trkpt>
      <trkpt lat="45.54757" lon="6.66335">
        <ele>831.20001220703</ele>
        <time>2013-05-12T08:25:55Z</time>
      </trkpt>
      <trkpt lat="45.5476" lon="6.66336">
        <ele>831.59997558594</ele>
        <time>2013-05-12T08:25:57Z</time>
      </trkpt>
      <trkpt lat="45.54762" lon="6.66336">
        <ele>832.40002441406</ele>
        <time>2013-05-12T08:25:59Z</time>
      </trkpt>
      <trkpt lat="45.54766" lon="6.66339">
        <ele>833.40002441406</ele>
        <time>2013-05-12T08:26:01Z</time>
      </trkpt>
      <trkpt lat="45.54769" lon="6.66339">
        <ele>833.59997558594</ele>
        <time>2013-05-12T08:26:03Z</time>
      </trkpt>
      <trkpt lat="45.54772" lon="6.66341">
        <ele>834.40002441406</ele>
        <time>2013-05-12T08:26:05Z</time>
      </trkpt>
      <trkpt lat="45.54776" lon="6.66344">
        <ele>835.20001220703</ele>
        <time>2013-05-12T08:26:07Z</time>
      </trkpt>
      <trkpt lat="45.54776" lon="6.66347">
        <ele>836</ele>
        <time>2013-05-12T08:26:09Z</time>
      </trkpt>
      <trkpt lat="45.54778" lon="6.66349">
        <ele>836.59997558594</ele>
        <time>2013-05-12T08:26:11Z</time>
      </trkpt>
      <trkpt lat="45.5478" lon="6.66351">
        <ele>837.40002441406</ele>
        <time>2013-05-12T08:26:13Z</time>
      </trkpt>
      <trkpt lat="45.54782" lon="6.66354">
        <ele>838</ele>
        <time>2013-05-12T08:26:15Z</time>
      </trkpt>
      <trkpt lat="45.5479" lon="6.66358">
        <ele>838.40002441406</ele>
        <time>2013-05-12T08:26:19Z</time>
      </trkpt>
      <trkpt lat="45.54792" lon="6.66359">
        <ele>839.40002441406</ele>
        <time>2013-05-12T08:26:21Z</time>
      </trkpt>
      <trkpt lat="45.54794" lon="6.66361">
        <ele>840.20001220703</ele>
        <time>2013-05-12T08:26:23Z</time>
      </trkpt>
      <trkpt lat="45.54796" lon="6.66365">
        <ele>840.59997558594</ele>
        <time>2013-05-12T08:26:25Z</time>
      </trkpt>
      <trkpt lat="45.54796" lon="6.6637">
        <ele>841.40002441406</ele>
        <time>2013-05-12T08:26:27Z</time>
      </trkpt>
      <trkpt lat="45.54797" lon="6.66376">
        <ele>842.20001220703</ele>
        <time>2013-05-12T08:26:29Z</time>
      </trkpt>
      <trkpt lat="45.54805" lon="6.66393">
        <ele>842.20001220703</ele>
        <time>2013-05-12T08:26:35Z</time>
      </trkpt>
      <trkpt lat="45.54813" lon="6.66404">
        <ele>842.20001220703</ele>
        <time>2013-05-12T08:26:40Z</time>
      </trkpt>
      <trkpt lat="45.54819" lon="6.66414">
        <ele>842.20001220703</ele>
        <time>2013-05-12T08:26:44Z</time>
      </trkpt>
      <trkpt lat="45.54823" lon="6.66427">
        <ele>842.20001220703</ele>
        <time>2013-05-12T08:26:48Z</time>
      </trkpt>
      <trkpt lat="45.54827" lon="6.66435">
        <ele>842.40002441406</ele>
        <time>2013-05-12T08:26:51Z</time>
      </trkpt>
      <trkpt lat="45.54832" lon="6.66448">
        <ele>844.40002441406</ele>
        <time>2013-05-12T08:26:55Z</time>
      </trkpt>
      <trkpt lat="45.54834" lon="6.66454">
        <ele>844.40002441406</ele>
        <time>2013-05-12T08:26:57Z</time>
      </trkpt>
      <trkpt lat="45.54835" lon="6.66459">
        <ele>844</ele>
        <time>2013-05-12T08:26:59Z</time>
      </trkpt>
      <trkpt lat="45.54838" lon="6.66465">
        <ele>843.20001220703</ele>
        <time>2013-05-12T08:27:01Z</time>
      </trkpt>
      <trkpt lat="45.54842" lon="6.66471">
        <ele>842.20001220703</ele>
        <time>2013-05-12T08:27:03Z</time>
      </trkpt>
      <trkpt lat="45.54843" lon="6.66475">
        <ele>841.40002441406</ele>
        <time>2013-05-12T08:27:05Z</time>
      </trkpt>
      <trkpt lat="45.54843" lon="6.6648">
        <ele>840.40002441406</ele>
        <time>2013-05-12T08:27:07Z</time>
      </trkpt>
      <trkpt lat="45.54846" lon="6.66488">
        <ele>839.59997558594</ele>
        <time>2013-05-12T08:27:09Z</time>
      </trkpt>
      <trkpt lat="45.54849" lon="6.66494">
        <ele>838.59997558594</ele>
        <time>2013-05-12T08:27:11Z</time>
      </trkpt>
      <trkpt lat="45.54849" lon="6.665">
        <ele>837.59997558594</ele>
        <time>2013-05-12T08:27:13Z</time>
      </trkpt>
      <trkpt lat="45.54863" lon="6.66523">
        <ele>837.59997558594</ele>
        <time>2013-05-12T08:27:20Z</time>
      </trkpt>
      <trkpt lat="45.54867" lon="6.66538">
        <ele>837.59997558594</ele>
        <time>2013-05-12T08:27:24Z</time>
      </trkpt>
      <trkpt lat="45.54874" lon="6.66565">
        <ele>837.59997558594</ele>
        <time>2013-05-12T08:27:32Z</time>
      </trkpt>
      <trkpt lat="45.5488" lon="6.66579">
        <ele>837.59997558594</ele>
        <time>2013-05-12T08:27:36Z</time>
      </trkpt>
      <trkpt lat="45.54883" lon="6.6659">
        <ele>836.59997558594</ele>
        <time>2013-05-12T08:27:39Z</time>
      </trkpt>
      <trkpt lat="45.54886" lon="6.66598">
        <ele>835.59997558594</ele>
        <time>2013-05-12T08:27:41Z</time>
      </trkpt>
      <trkpt lat="45.5489" lon="6.66606">
        <ele>834.40002441406</ele>
        <time>2013-05-12T08:27:43Z</time>
      </trkpt>
      <trkpt lat="45.54894" lon="6.66615">
        <ele>833.20001220703</ele>
        <time>2013-05-12T08:27:45Z</time>
      </trkpt>
      <trkpt lat="45.54896" lon="6.66624">
        <ele>831.59997558594</ele>
        <time>2013-05-12T08:27:47Z</time>
      </trkpt>
      <trkpt lat="45.54901" lon="6.66631">
        <ele>830.40002441406</ele>
        <time>2013-05-12T08:27:49Z</time>
      </trkpt>
      <trkpt lat="45.54903" lon="6.66636">
        <ele>828.59997558594</ele>
        <time>2013-05-12T08:27:51Z</time>
      </trkpt>
      <trkpt lat="45.54908" lon="6.66642">
        <ele>827.20001220703</ele>
        <time>2013-05-12T08:27:53Z</time>
      </trkpt>
      <trkpt lat="45.54913" lon="6.66659">
        <ele>826.59997558594</ele>
        <time>2013-05-12T08:27:57Z</time>
      </trkpt>
      <trkpt lat="45.54917" lon="6.66679">
        <ele>826.59997558594</ele>
        <time>2013-05-12T08:28:02Z</time>
      </trkpt>
      <trkpt lat="45.54919" lon="6.6669">
        <ele>826.20001220703</ele>
        <time>2013-05-12T08:28:05Z</time>
      </trkpt>
      <trkpt lat="45.5492" lon="6.66696">
        <ele>825.40002441406</ele>
        <time>2013-05-12T08:28:07Z</time>
      </trkpt>
      <trkpt lat="45.54924" lon="6.66703">
        <ele>824.40002441406</ele>
        <time>2013-05-12T08:28:09Z</time>
      </trkpt>
      <trkpt lat="45.54928" lon="6.66707">
        <ele>824</ele>
        <time>2013-05-12T08:28:11Z</time>
      </trkpt>
      <trkpt lat="45.54932" lon="6.66712">
        <ele>823</ele>
        <time>2013-05-12T08:28:13Z</time>
      </trkpt>
      <trkpt lat="45.54935" lon="6.66718">
        <ele>822</ele>
        <time>2013-05-12T08:28:15Z</time>
      </trkpt>
      <trkpt lat="45.54939" lon="6.66727">
        <ele>820.40002441406</ele>
        <time>2013-05-12T08:28:17Z</time>
      </trkpt>
      <trkpt lat="45.54942" lon="6.66734">
        <ele>819.20001220703</ele>
        <time>2013-05-12T08:28:19Z</time>
      </trkpt>
      <trkpt lat="45.54944" lon="6.6674">
        <ele>818.20001220703</ele>
        <time>2013-05-12T08:28:21Z</time>
      </trkpt>
      <trkpt lat="45.54948" lon="6.66747">
        <ele>817</ele>
        <time>2013-05-12T08:28:23Z</time>
      </trkpt>
      <trkpt lat="45.54952" lon="6.66751">
        <ele>816.20001220703</ele>
        <time>2013-05-12T08:28:25Z</time>
      </trkpt>
      <trkpt lat="45.54962" lon="6.66773">
        <ele>814.59997558594</ele>
        <time>2013-05-12T08:28:30Z</time>
      </trkpt>
      <trkpt lat="45.54965" lon="6.66781">
        <ele>813.40002441406</ele>
        <time>2013-05-12T08:28:32Z</time>
      </trkpt>
      <trkpt lat="45.54968" lon="6.66787">
        <ele>812.40002441406</ele>
        <time>2013-05-12T08:28:34Z</time>
      </trkpt>
      <trkpt lat="45.54971" lon="6.66793">
        <ele>811</ele>
        <time>2013-05-12T08:28:36Z</time>
      </trkpt>
      <trkpt lat="45.54977" lon="6.66797">
        <ele>809.40002441406</ele>
        <time>2013-05-12T08:28:38Z</time>
      </trkpt>
      <trkpt lat="45.5498" lon="6.66798">
        <ele>808</ele>
        <time>2013-05-12T08:28:40Z</time>
      </trkpt>
      <trkpt lat="45.54984" lon="6.66801">
        <ele>806.59997558594</ele>
        <time>2013-05-12T08:28:42Z</time>
      </trkpt>
      <trkpt lat="45.54985" lon="6.66803">
        <ele>805.40002441406</ele>
        <time>2013-05-12T08:28:44Z</time>
      </trkpt>
      <trkpt lat="45.54989" lon="6.66806">
        <ele>804.40002441406</ele>
        <time>2013-05-12T08:28:46Z</time>
      </trkpt>
      <trkpt lat="45.54994" lon="6.66811">
        <ele>803.40002441406</ele>
        <time>2013-05-12T08:28:48Z</time>
      </trkpt>
      <trkpt lat="45.54999" lon="6.66816">
        <ele>802.20001220703</ele>
        <time>2013-05-12T08:28:50Z</time>
      </trkpt>
      <trkpt lat="45.55006" lon="6.66818">
        <ele>800.59997558594</ele>
        <time>2013-05-12T08:28:52Z</time>
      </trkpt>
      <trkpt lat="45.55014" lon="6.66823">
        <ele>800</ele>
        <time>2013-05-12T08:28:55Z</time>
      </trkpt>
      <trkpt lat="45.55019" lon="6.66831">
        <ele>799</ele>
        <time>2013-05-12T08:28:57Z</time>
      </trkpt>
      <trkpt lat="45.55021" lon="6.66838">
        <ele>798</ele>
        <time>2013-05-12T08:28:59Z</time>
      </trkpt>
      <trkpt lat="45.55031" lon="6.66853">
        <ele>798</ele>
        <time>2013-05-12T08:29:06Z</time>
      </trkpt>
      <trkpt lat="45.55037" lon="6.66862">
        <ele>799</ele>
        <time>2013-05-12T08:29:11Z</time>
      </trkpt>
      <trkpt lat="45.55039" lon="6.66867">
        <ele>799.59997558594</ele>
        <time>2013-05-12T08:29:13Z</time>
      </trkpt>
      <trkpt lat="45.55042" lon="6.66873">
        <ele>800.40002441406</ele>
        <time>2013-05-12T08:29:15Z</time>
      </trkpt>
      <trkpt lat="45.55043" lon="6.66878">
        <ele>801.40002441406</ele>
        <time>2013-05-12T08:29:17Z</time>
      </trkpt>
      <trkpt lat="45.55045" lon="6.66885">
        <ele>802.20001220703</ele>
        <time>2013-05-12T08:29:19Z</time>
      </trkpt>
      <trkpt lat="45.55049" lon="6.66899">
        <ele>802.20001220703</ele>
        <time>2013-05-12T08:29:23Z</time>
      </trkpt>
      <trkpt lat="45.55055" lon="6.66916">
        <ele>802.20001220703</ele>
        <time>2013-05-12T08:29:28Z</time>
      </trkpt>
      <trkpt lat="45.55058" lon="6.66923">
        <ele>802.20001220703</ele>
        <time>2013-05-12T08:29:31Z</time>
      </trkpt>
      <trkpt lat="45.55067" lon="6.66938">
        <ele>802.20001220703</ele>
        <time>2013-05-12T08:29:38Z</time>
      </trkpt>
      <trkpt lat="45.55071" lon="6.66953">
        <ele>802.20001220703</ele>
        <time>2013-05-12T08:29:43Z</time>
      </trkpt>
      <trkpt lat="45.5508" lon="6.66985">
        <ele>802.20001220703</ele>
        <time>2013-05-12T08:29:52Z</time>
      </trkpt>
      <trkpt lat="45.55083" lon="6.67005">
        <ele>802</ele>
        <time>2013-05-12T08:29:58Z</time>
      </trkpt>
      <trkpt lat="45.55085" lon="6.67013">
        <ele>801</ele>
        <time>2013-05-12T08:30:00Z</time>
      </trkpt>
      <trkpt lat="45.55085" lon="6.67019">
        <ele>800</ele>
        <time>2013-05-12T08:30:02Z</time>
      </trkpt>
      <trkpt lat="45.55087" lon="6.67028">
        <ele>798.59997558594</ele>
        <time>2013-05-12T08:30:04Z</time>
      </trkpt>
      <trkpt lat="45.55088" lon="6.67034">
        <ele>797.59997558594</ele>
        <time>2013-05-12T08:30:06Z</time>
      </trkpt>
      <trkpt lat="45.55094" lon="6.67054">
        <ele>797.59997558594</ele>
        <time>2013-05-12T08:30:12Z</time>
      </trkpt>
      <trkpt lat="45.55106" lon="6.67084">
        <ele>797.59997558594</ele>
        <time>2013-05-12T08:30:21Z</time>
      </trkpt>
      <trkpt lat="45.5511" lon="6.67091">
        <ele>798.40002441406</ele>
        <time>2013-05-12T08:30:23Z</time>
      </trkpt>
      <trkpt lat="45.55116" lon="6.67103">
        <ele>800</ele>
        <time>2013-05-12T08:30:27Z</time>
      </trkpt>
      <trkpt lat="45.55123" lon="6.67116">
        <ele>800</ele>
        <time>2013-05-12T08:30:31Z</time>
      </trkpt>
      <trkpt lat="45.55131" lon="6.67134">
        <ele>800.40002441406</ele>
        <time>2013-05-12T08:30:37Z</time>
      </trkpt>
      <trkpt lat="45.55135" lon="6.67141">
        <ele>801.20001220703</ele>
        <time>2013-05-12T08:30:39Z</time>
      </trkpt>
      <trkpt lat="45.55138" lon="6.67147">
        <ele>802</ele>
        <time>2013-05-12T08:30:41Z</time>
      </trkpt>
      <trkpt lat="45.55142" lon="6.67155">
        <ele>802.20001220703</ele>
        <time>2013-05-12T08:30:44Z</time>
      </trkpt>
      <trkpt lat="45.55146" lon="6.6716">
        <ele>802.20001220703</ele>
        <time>2013-05-12T08:30:46Z</time>
      </trkpt>
      <trkpt lat="45.55151" lon="6.6717">
        <ele>802.59997558594</ele>
        <time>2013-05-12T08:30:49Z</time>
      </trkpt>
      <trkpt lat="45.55152" lon="6.67175">
        <ele>803.40002441406</ele>
        <time>2013-05-12T08:30:51Z</time>
      </trkpt>
      <trkpt lat="45.55153" lon="6.67179">
        <ele>804.20001220703</ele>
        <time>2013-05-12T08:30:53Z</time>
      </trkpt>
      <trkpt lat="45.55155" lon="6.6719">
        <ele>804.40002441406</ele>
        <time>2013-05-12T08:30:58Z</time>
      </trkpt>
      <trkpt lat="45.55156" lon="6.67193">
        <ele>804.59997558594</ele>
        <time>2013-05-12T08:31:00Z</time>
      </trkpt>
      <trkpt lat="45.55156" lon="6.67197">
        <ele>805.40002441406</ele>
        <time>2013-05-12T08:31:02Z</time>
      </trkpt>
      <trkpt lat="45.55156" lon="6.672">
        <ele>806.20001220703</ele>
        <time>2013-05-12T08:31:04Z</time>
      </trkpt>
      <trkpt lat="45.55157" lon="6.67203">
        <ele>807.20001220703</ele>
        <time>2013-05-12T08:31:06Z</time>
      </trkpt>
      <trkpt lat="45.55158" lon="6.67206">
        <ele>808</ele>
        <time>2013-05-12T08:31:08Z</time>
      </trkpt>
      <trkpt lat="45.5516" lon="6.6721">
        <ele>808.40002441406</ele>
        <time>2013-05-12T08:31:10Z</time>
      </trkpt>
      <trkpt lat="45.55162" lon="6.67219">
        <ele>808.40002441406</ele>
        <time>2013-05-12T08:31:14Z</time>
      </trkpt>
      <trkpt lat="45.55162" lon="6.67222">
        <ele>809.40002441406</ele>
        <time>2013-05-12T08:31:16Z</time>
      </trkpt>
      <trkpt lat="45.55163" lon="6.67226">
        <ele>810.20001220703</ele>
        <time>2013-05-12T08:31:18Z</time>
      </trkpt>
      <trkpt lat="45.55166" lon="6.67234">
        <ele>810.40002441406</ele>
        <time>2013-05-12T08:31:23Z</time>
      </trkpt>
      <trkpt lat="45.5517" lon="6.67243">
        <ele>810.40002441406</ele>
        <time>2013-05-12T08:31:29Z</time>
      </trkpt>
      <trkpt lat="45.55175" lon="6.67253">
        <ele>810.40002441406</ele>
        <time>2013-05-12T08:31:36Z</time>
      </trkpt>
      <trkpt lat="45.55178" lon="6.67264">
        <ele>810.40002441406</ele>
        <time>2013-05-12T08:31:43Z</time>
      </trkpt>
      <trkpt lat="45.55178" lon="6.67267">
        <ele>811.40002441406</ele>
        <time>2013-05-12T08:31:45Z</time>
      </trkpt>
      <trkpt lat="45.55177" lon="6.6727">
        <ele>812.20001220703</ele>
        <time>2013-05-12T08:31:47Z</time>
      </trkpt>
      <trkpt lat="45.55176" lon="6.67276">
        <ele>812.40002441406</ele>
        <time>2013-05-12T08:31:51Z</time>
      </trkpt>
      <trkpt lat="45.55176" lon="6.6728">
        <ele>813</ele>
        <time>2013-05-12T08:31:53Z</time>
      </trkpt>
      <trkpt lat="45.55175" lon="6.67283">
        <ele>813.40002441406</ele>
        <time>2013-05-12T08:31:55Z</time>
      </trkpt>
      <trkpt lat="45.55175" lon="6.67286">
        <ele>814</ele>
        <time>2013-05-12T08:31:57Z</time>
      </trkpt>
      <trkpt lat="45.55176" lon="6.67288">
        <ele>814.40002441406</ele>
        <time>2013-05-12T08:31:59Z</time>
      </trkpt>
      <trkpt lat="45.55177" lon="6.6729">
        <ele>815.20001220703</ele>
        <time>2013-05-12T08:32:02Z</time>
      </trkpt>
      <trkpt lat="45.55178" lon="6.67292">
        <ele>816</ele>
        <time>2013-05-12T08:32:04Z</time>
      </trkpt>
      <trkpt lat="45.55178" lon="6.67294">
        <ele>816.40002441406</ele>
        <time>2013-05-12T08:32:06Z</time>
      </trkpt>
      <trkpt lat="45.55177" lon="6.67299">
        <ele>817.40002441406</ele>
        <time>2013-05-12T08:32:09Z</time>
      </trkpt>
      <trkpt lat="45.55178" lon="6.67303">
        <ele>818.40002441406</ele>
        <time>2013-05-12T08:32:13Z</time>
      </trkpt>
      <trkpt lat="45.55177" lon="6.6731">
        <ele>819</ele>
        <time>2013-05-12T08:32:17Z</time>
      </trkpt>
      <trkpt lat="45.55176" lon="6.67313">
        <ele>819.40002441406</ele>
        <time>2013-05-12T08:32:19Z</time>
      </trkpt>
      <trkpt lat="45.55176" lon="6.67316">
        <ele>820.20001220703</ele>
        <time>2013-05-12T08:32:21Z</time>
      </trkpt>
      <trkpt lat="45.55175" lon="6.6732">
        <ele>820.59997558594</ele>
        <time>2013-05-12T08:32:23Z</time>
      </trkpt>
      <trkpt lat="45.55174" lon="6.67326">
        <ele>821.40002441406</ele>
        <time>2013-05-12T08:32:27Z</time>
      </trkpt>
      <trkpt lat="45.55175" lon="6.67329">
        <ele>822.20001220703</ele>
        <time>2013-05-12T08:32:29Z</time>
      </trkpt>
      <trkpt lat="45.55174" lon="6.67332">
        <ele>822.59997558594</ele>
        <time>2013-05-12T08:32:31Z</time>
      </trkpt>
      <trkpt lat="45.5517" lon="6.67339">
        <ele>823</ele>
        <time>2013-05-12T08:32:36Z</time>
      </trkpt>
      <trkpt lat="45.55168" lon="6.67342">
        <ele>823.59997558594</ele>
        <time>2013-05-12T08:32:38Z</time>
      </trkpt>
      <trkpt lat="45.55166" lon="6.67344">
        <ele>824.40002441406</ele>
        <time>2013-05-12T08:32:40Z</time>
      </trkpt>
      <trkpt lat="45.55163" lon="6.67348">
        <ele>825</ele>
        <time>2013-05-12T08:32:43Z</time>
      </trkpt>
      <trkpt lat="45.55161" lon="6.67351">
        <ele>825.59997558594</ele>
        <time>2013-05-12T08:32:45Z</time>
      </trkpt>
      <trkpt lat="45.55159" lon="6.67353">
        <ele>826.40002441406</ele>
        <time>2013-05-12T08:32:47Z</time>
      </trkpt>
      <trkpt lat="45.55157" lon="6.67356">
        <ele>827</ele>
        <time>2013-05-12T08:32:49Z</time>
      </trkpt>
      <trkpt lat="45.55155" lon="6.67358">
        <ele>827.40002441406</ele>
        <time>2013-05-12T08:32:51Z</time>
      </trkpt>
      <trkpt lat="45.55153" lon="6.67361">
        <ele>828.20001220703</ele>
        <time>2013-05-12T08:32:53Z</time>
      </trkpt>
      <trkpt lat="45.55151" lon="6.67363">
        <ele>829</ele>
        <time>2013-05-12T08:32:55Z</time>
      </trkpt>
      <trkpt lat="45.55146" lon="6.67368">
        <ele>829</ele>
        <time>2013-05-12T08:33:00Z</time>
      </trkpt>
      <trkpt lat="45.55144" lon="6.6737">
        <ele>829.40002441406</ele>
        <time>2013-05-12T08:33:02Z</time>
      </trkpt>
      <trkpt lat="45.55142" lon="6.67372">
        <ele>830.20001220703</ele>
        <time>2013-05-12T08:33:04Z</time>
      </trkpt>
      <trkpt lat="45.5514" lon="6.67375">
        <ele>831</ele>
        <time>2013-05-12T08:33:06Z</time>
      </trkpt>
      <trkpt lat="45.55136" lon="6.67378">
        <ele>831.40002441406</ele>
        <time>2013-05-12T08:33:09Z</time>
      </trkpt>
      <trkpt lat="45.55134" lon="6.6738">
        <ele>832.40002441406</ele>
        <time>2013-05-12T08:33:11Z</time>
      </trkpt>
      <trkpt lat="45.55133" lon="6.67382">
        <ele>833</ele>
        <time>2013-05-12T08:33:13Z</time>
      </trkpt>
      <trkpt lat="45.55132" lon="6.67384">
        <ele>833.20001220703</ele>
        <time>2013-05-12T08:33:15Z</time>
      </trkpt>
      <trkpt lat="45.55132" lon="6.67384">
        <ele>834</ele>
        <time>2013-05-12T08:33:17Z</time>
      </trkpt>
      <trkpt lat="45.5513" lon="6.67386">
        <ele>834.59997558594</ele>
        <time>2013-05-12T08:33:19Z</time>
      </trkpt>
      <trkpt lat="45.5513" lon="6.67386">
        <ele>835</ele>
        <time>2013-05-12T08:33:21Z</time>
      </trkpt>
      <trkpt lat="45.55124" lon="6.67395">
        <ele>835.59997558594</ele>
        <time>2013-05-12T08:33:29Z</time>
      </trkpt>
      <trkpt lat="45.55122" lon="6.67397">
        <ele>836.40002441406</ele>
        <time>2013-05-12T08:33:31Z</time>
      </trkpt>
      <trkpt lat="45.5512" lon="6.67397">
        <ele>837.20001220703</ele>
        <time>2013-05-12T08:33:33Z</time>
      </trkpt>
      <trkpt lat="45.55116" lon="6.67403">
        <ele>837.40002441406</ele>
        <time>2013-05-12T08:33:38Z</time>
      </trkpt>
      <trkpt lat="45.55115" lon="6.67405">
        <ele>838.20001220703</ele>
        <time>2013-05-12T08:33:40Z</time>
      </trkpt>
      <trkpt lat="45.55113" lon="6.67407">
        <ele>839</ele>
        <time>2013-05-12T08:33:42Z</time>
      </trkpt>
      <trkpt lat="45.55108" lon="6.67413">
        <ele>839.40002441406</ele>
        <time>2013-05-12T08:33:49Z</time>
      </trkpt>
      <trkpt lat="45.55105" lon="6.67413">
        <ele>840</ele>
        <time>2013-05-12T08:33:51Z</time>
      </trkpt>
      <trkpt lat="45.55103" lon="6.67414">
        <ele>840.59997558594</ele>
        <time>2013-05-12T08:33:53Z</time>
      </trkpt>
      <trkpt lat="45.55103" lon="6.67416">
        <ele>841.40002441406</ele>
        <time>2013-05-12T08:33:55Z</time>
      </trkpt>
      <trkpt lat="45.55101" lon="6.67419">
        <ele>842.20001220703</ele>
        <time>2013-05-12T08:33:59Z</time>
      </trkpt>
      <trkpt lat="45.55099" lon="6.67424">
        <ele>843</ele>
        <time>2013-05-12T08:34:01Z</time>
      </trkpt>
      <trkpt lat="45.55097" lon="6.67429">
        <ele>843.40002441406</ele>
        <time>2013-05-12T08:34:04Z</time>
      </trkpt>
      <trkpt lat="45.55096" lon="6.67432">
        <ele>844.40002441406</ele>
        <time>2013-05-12T08:34:06Z</time>
      </trkpt>
      <trkpt lat="45.55096" lon="6.67435">
        <ele>845.20001220703</ele>
        <time>2013-05-12T08:34:08Z</time>
      </trkpt>
      <trkpt lat="45.55095" lon="6.67439">
        <ele>845.40002441406</ele>
        <time>2013-05-12T08:34:11Z</time>
      </trkpt>
      <trkpt lat="45.55081" lon="6.67463">
        <ele>848</ele>
        <time>2013-05-12T08:34:28Z</time>
      </trkpt>
      <trkpt lat="45.55079" lon="6.67464">
        <ele>848.40002441406</ele>
        <time>2013-05-12T08:34:30Z</time>
      </trkpt>
      <trkpt lat="45.55078" lon="6.67465">
        <ele>849.59997558594</ele>
        <time>2013-05-12T08:34:32Z</time>
      </trkpt>
      <trkpt lat="45.55076" lon="6.67469">
        <ele>850.40002441406</ele>
        <time>2013-05-12T08:34:34Z</time>
      </trkpt>
      <trkpt lat="45.55075" lon="6.67473">
        <ele>851.40002441406</ele>
        <time>2013-05-12T08:34:36Z</time>
      </trkpt>
      <trkpt lat="45.55076" lon="6.67478">
        <ele>851.59997558594</ele>
        <time>2013-05-12T08:34:38Z</time>
      </trkpt>
      <trkpt lat="45.55071" lon="6.67485">
        <ele>851.59997558594</ele>
        <time>2013-05-12T08:34:44Z</time>
      </trkpt>
      <trkpt lat="45.55068" lon="6.6749">
        <ele>852.40002441406</ele>
        <time>2013-05-12T08:34:48Z</time>
      </trkpt>
      <trkpt lat="45.55067" lon="6.67491">
        <ele>853.40002441406</ele>
        <time>2013-05-12T08:34:50Z</time>
      </trkpt>
      <trkpt lat="45.55065" lon="6.67493">
        <ele>854</ele>
        <time>2013-05-12T08:34:52Z</time>
      </trkpt>
      <trkpt lat="45.55065" lon="6.67494">
        <ele>854.40002441406</ele>
        <time>2013-05-12T08:34:54Z</time>
      </trkpt>
      <trkpt lat="45.55063" lon="6.67496">
        <ele>855.40002441406</ele>
        <time>2013-05-12T08:34:56Z</time>
      </trkpt>
      <trkpt lat="45.55061" lon="6.67498">
        <ele>856</ele>
        <time>2013-05-12T08:34:58Z</time>
      </trkpt>
      <trkpt lat="45.5506" lon="6.67498">
        <ele>856</ele>
        <time>2013-05-12T08:35:01Z</time>
      </trkpt>
      <trkpt lat="45.55058" lon="6.67499">
        <ele>856.40002441406</ele>
        <time>2013-05-12T08:35:03Z</time>
      </trkpt>
      <trkpt lat="45.55056" lon="6.67499">
        <ele>857.40002441406</ele>
        <time>2013-05-12T08:35:05Z</time>
      </trkpt>
      <trkpt lat="45.55055" lon="6.675">
        <ele>858.20001220703</ele>
        <time>2013-05-12T08:35:07Z</time>
      </trkpt>
      <trkpt lat="45.55051" lon="6.67501">
        <ele>858.20001220703</ele>
        <time>2013-05-12T08:35:11Z</time>
      </trkpt>
      <trkpt lat="45.5505" lon="6.67503">
        <ele>858.59997558594</ele>
        <time>2013-05-12T08:35:13Z</time>
      </trkpt>
      <trkpt lat="45.55047" lon="6.67507">
        <ele>860.20001220703</ele>
        <time>2013-05-12T08:35:17Z</time>
      </trkpt>
      <trkpt lat="45.55043" lon="6.67509">
        <ele>860.20001220703</ele>
        <time>2013-05-12T08:35:21Z</time>
      </trkpt>
      <trkpt lat="45.5504" lon="6.67511">
        <ele>860.40002441406</ele>
        <time>2013-05-12T08:35:23Z</time>
      </trkpt>
      <trkpt lat="45.55037" lon="6.67513">
        <ele>861.40002441406</ele>
        <time>2013-05-12T08:35:25Z</time>
      </trkpt>
      <trkpt lat="45.55037" lon="6.67514">
        <ele>862.20001220703</ele>
        <time>2013-05-12T08:35:27Z</time>
      </trkpt>
      <trkpt lat="45.55032" lon="6.67517">
        <ele>862.20001220703</ele>
        <time>2013-05-12T08:35:31Z</time>
      </trkpt>
      <trkpt lat="45.55031" lon="6.67517">
        <ele>863</ele>
        <time>2013-05-12T08:35:34Z</time>
      </trkpt>
      <trkpt lat="45.5503" lon="6.67521">
        <ele>863.59997558594</ele>
        <time>2013-05-12T08:35:36Z</time>
      </trkpt>
      <trkpt lat="45.55027" lon="6.67523">
        <ele>864.40002441406</ele>
        <time>2013-05-12T08:35:38Z</time>
      </trkpt>
      <trkpt lat="45.55023" lon="6.67527">
        <ele>864.59997558594</ele>
        <time>2013-05-12T08:35:43Z</time>
      </trkpt>
      <trkpt lat="45.55021" lon="6.67529">
        <ele>865.40002441406</ele>
        <time>2013-05-12T08:35:45Z</time>
      </trkpt>
      <trkpt lat="45.55019" lon="6.6753">
        <ele>866.40002441406</ele>
        <time>2013-05-12T08:35:47Z</time>
      </trkpt>
      <trkpt lat="45.55017" lon="6.67533">
        <ele>866.40002441406</ele>
        <time>2013-05-12T08:35:50Z</time>
      </trkpt>
      <trkpt lat="45.55017" lon="6.67533">
        <ele>867.40002441406</ele>
        <time>2013-05-12T08:35:52Z</time>
      </trkpt>
      <trkpt lat="45.55018" lon="6.67532">
        <ele>868.20001220703</ele>
        <time>2013-05-12T08:35:54Z</time>
      </trkpt>
      <trkpt lat="45.55011" lon="6.67534">
        <ele>868.59997558594</ele>
        <time>2013-05-12T08:35:59Z</time>
      </trkpt>
      <trkpt lat="45.55008" lon="6.67533">
        <ele>869.40002441406</ele>
        <time>2013-05-12T08:36:01Z</time>
      </trkpt>
      <trkpt lat="45.55008" lon="6.67534">
        <ele>870.40002441406</ele>
        <time>2013-05-12T08:36:03Z</time>
      </trkpt>
      <trkpt lat="45.55009" lon="6.67532">
        <ele>870.59997558594</ele>
        <time>2013-05-12T08:36:06Z</time>
      </trkpt>
      <trkpt lat="45.55004" lon="6.67536">
        <ele>871.59997558594</ele>
        <time>2013-05-12T08:36:08Z</time>
      </trkpt>
      <trkpt lat="45.55002" lon="6.67536">
        <ele>872.40002441406</ele>
        <time>2013-05-12T08:36:10Z</time>
      </trkpt>
      <trkpt lat="45.54997" lon="6.67538">
        <ele>873</ele>
        <time>2013-05-12T08:36:15Z</time>
      </trkpt>
      <trkpt lat="45.54996" lon="6.67538">
        <ele>873.59997558594</ele>
        <time>2013-05-12T08:36:17Z</time>
      </trkpt>
      <trkpt lat="45.54997" lon="6.67539">
        <ele>874.40002441406</ele>
        <time>2013-05-12T08:36:19Z</time>
      </trkpt>
      <trkpt lat="45.54992" lon="6.67542">
        <ele>874.40002441406</ele>
        <time>2013-05-12T08:36:22Z</time>
      </trkpt>
      <trkpt lat="45.5499" lon="6.67542">
        <ele>875.40002441406</ele>
        <time>2013-05-12T08:36:24Z</time>
      </trkpt>
      <trkpt lat="45.54989" lon="6.67543">
        <ele>876.20001220703</ele>
        <time>2013-05-12T08:36:26Z</time>
      </trkpt>
      <trkpt lat="45.54987" lon="6.67543">
        <ele>876.40002441406</ele>
        <time>2013-05-12T08:36:30Z</time>
      </trkpt>
      <trkpt lat="45.54986" lon="6.67544">
        <ele>877.40002441406</ele>
        <time>2013-05-12T08:36:32Z</time>
      </trkpt>
      <trkpt lat="45.54989" lon="6.67544">
        <ele>878.20001220703</ele>
        <time>2013-05-12T08:36:34Z</time>
      </trkpt>
      <trkpt lat="45.54986" lon="6.67547">
        <ele>878.40002441406</ele>
        <time>2013-05-12T08:36:37Z</time>
      </trkpt>
      <trkpt lat="45.54981" lon="6.67542">
        <ele>879.20001220703</ele>
        <time>2013-05-12T08:36:39Z</time>
      </trkpt>
      <trkpt lat="45.54981" lon="6.6754">
        <ele>880</ele>
        <time>2013-05-12T08:36:41Z</time>
      </trkpt>
      <trkpt lat="45.54987" lon="6.67551">
        <ele>880.40002441406</ele>
        <time>2013-05-12T08:36:43Z</time>
      </trkpt>
      <trkpt lat="45.54974" lon="6.67558">
        <ele>881.20001220703</ele>
        <time>2013-05-12T08:36:45Z</time>
      </trkpt>
      <trkpt lat="45.54972" lon="6.67563">
        <ele>882.40002441406</ele>
        <time>2013-05-12T08:36:49Z</time>
      </trkpt>
      <trkpt lat="45.54969" lon="6.67565">
        <ele>883.20001220703</ele>
        <time>2013-05-12T08:36:52Z</time>
      </trkpt>
      <trkpt lat="45.5497" lon="6.67566">
        <ele>884</ele>
        <time>2013-05-12T08:36:54Z</time>
      </trkpt>
      <trkpt lat="45.54967" lon="6.67569">
        <ele>884.40002441406</ele>
        <time>2013-05-12T08:36:56Z</time>
      </trkpt>
      <trkpt lat="45.54967" lon="6.67571">
        <ele>885.20001220703</ele>
        <time>2013-05-12T08:36:58Z</time>
      </trkpt>
      <trkpt lat="45.54965" lon="6.67574">
        <ele>886</ele>
        <time>2013-05-12T08:37:00Z</time>
      </trkpt>
      <trkpt lat="45.54965" lon="6.67574">
        <ele>886.40002441406</ele>
        <time>2013-05-12T08:37:02Z</time>
      </trkpt>
      <trkpt lat="45.54964" lon="6.67574">
        <ele>887.40002441406</ele>
        <time>2013-05-12T08:37:05Z</time>
      </trkpt>
      <trkpt lat="45.54961" lon="6.67581">
        <ele>888.20001220703</ele>
        <time>2013-05-12T08:37:07Z</time>
      </trkpt>
      <trkpt lat="45.5496" lon="6.67581">
        <ele>888.59997558594</ele>
        <time>2013-05-12T08:37:09Z</time>
      </trkpt>
      <trkpt lat="45.54958" lon="6.67584">
        <ele>889</ele>
        <time>2013-05-12T08:37:11Z</time>
      </trkpt>
      <trkpt lat="45.54957" lon="6.67586">
        <ele>889.59997558594</ele>
        <time>2013-05-12T08:37:13Z</time>
      </trkpt>
      <trkpt lat="45.54955" lon="6.67588">
        <ele>890.40002441406</ele>
        <time>2013-05-12T08:37:15Z</time>
      </trkpt>
      <trkpt lat="45.54952" lon="6.67591">
        <ele>891.20001220703</ele>
        <time>2013-05-12T08:37:18Z</time>
      </trkpt>
      <trkpt lat="45.5495" lon="6.67591">
        <ele>892</ele>
        <time>2013-05-12T08:37:20Z</time>
      </trkpt>
      <trkpt lat="45.54949" lon="6.67591">
        <ele>892.59997558594</ele>
        <time>2013-05-12T08:37:22Z</time>
      </trkpt>
      <trkpt lat="45.54947" lon="6.67591">
        <ele>892.59997558594</ele>
        <time>2013-05-12T08:37:24Z</time>
      </trkpt>
      <trkpt lat="45.54948" lon="6.67591">
        <ele>893.40002441406</ele>
        <time>2013-05-12T08:37:26Z</time>
      </trkpt>
      <trkpt lat="45.54948" lon="6.67591">
        <ele>894.40002441406</ele>
        <time>2013-05-12T08:37:28Z</time>
      </trkpt>
      <trkpt lat="45.54948" lon="6.67589">
        <ele>894.59997558594</ele>
        <time>2013-05-12T08:37:30Z</time>
      </trkpt>
      <trkpt lat="45.54948" lon="6.67587">
        <ele>895.20001220703</ele>
        <time>2013-05-12T08:37:32Z</time>
      </trkpt>
      <trkpt lat="45.54949" lon="6.67585">
        <ele>896.20001220703</ele>
        <time>2013-05-12T08:37:34Z</time>
      </trkpt>
      <trkpt lat="45.54948" lon="6.67582">
        <ele>896.59997558594</ele>
        <time>2013-05-12T08:37:36Z</time>
      </trkpt>
      <trkpt lat="45.54949" lon="6.6758">
        <ele>897.40002441406</ele>
        <time>2013-05-12T08:37:39Z</time>
      </trkpt>
      <trkpt lat="45.54949" lon="6.6758">
        <ele>898</ele>
        <time>2013-05-12T08:37:41Z</time>
      </trkpt>
      <trkpt lat="45.54949" lon="6.67577">
        <ele>898.40002441406</ele>
        <time>2013-05-12T08:37:43Z</time>
      </trkpt>
      <trkpt lat="45.54949" lon="6.67574">
        <ele>899</ele>
        <time>2013-05-12T08:37:46Z</time>
      </trkpt>
      <trkpt lat="45.54948" lon="6.67572">
        <ele>899.59997558594</ele>
        <time>2013-05-12T08:37:48Z</time>
      </trkpt>
      <trkpt lat="45.54948" lon="6.6757">
        <ele>900.59997558594</ele>
        <time>2013-05-12T08:37:50Z</time>
      </trkpt>
      <trkpt lat="45.54948" lon="6.67566">
        <ele>901</ele>
        <time>2013-05-12T08:37:53Z</time>
      </trkpt>
      <trkpt lat="45.54948" lon="6.67562">
        <ele>901.20001220703</ele>
        <time>2013-05-12T08:37:56Z</time>
      </trkpt>
      <trkpt lat="45.54949" lon="6.67559">
        <ele>902.20001220703</ele>
        <time>2013-05-12T08:37:58Z</time>
      </trkpt>
      <trkpt lat="45.54949" lon="6.67557">
        <ele>903</ele>
        <time>2013-05-12T08:38:00Z</time>
      </trkpt>
      <trkpt lat="45.54949" lon="6.67548">
        <ele>903.40002441406</ele>
        <time>2013-05-12T08:38:05Z</time>
      </trkpt>
      <trkpt lat="45.5495" lon="6.67546">
        <ele>904.20001220703</ele>
        <time>2013-05-12T08:38:07Z</time>
      </trkpt>
      <trkpt lat="45.54951" lon="6.6754">
        <ele>905</ele>
        <time>2013-05-12T08:38:11Z</time>
      </trkpt>
      <trkpt lat="45.54952" lon="6.67539">
        <ele>905.40002441406</ele>
        <time>2013-05-12T08:38:13Z</time>
      </trkpt>
      <trkpt lat="45.54953" lon="6.67536">
        <ele>906.40002441406</ele>
        <time>2013-05-12T08:38:15Z</time>
      </trkpt>
      <trkpt lat="45.54953" lon="6.67533">
        <ele>907.20001220703</ele>
        <time>2013-05-12T08:38:17Z</time>
      </trkpt>
      <trkpt lat="45.54955" lon="6.67529">
        <ele>907.40002441406</ele>
        <time>2013-05-12T08:38:21Z</time>
      </trkpt>
      <trkpt lat="45.54955" lon="6.67525">
        <ele>908.40002441406</ele>
        <time>2013-05-12T08:38:23Z</time>
      </trkpt>
      <trkpt lat="45.54956" lon="6.67524">
        <ele>909.20001220703</ele>
        <time>2013-05-12T08:38:25Z</time>
      </trkpt>
      <trkpt lat="45.54956" lon="6.67516">
        <ele>910.20001220703</ele>
        <time>2013-05-12T08:38:30Z</time>
      </trkpt>
      <trkpt lat="45.54956" lon="6.67512">
        <ele>911</ele>
        <time>2013-05-12T08:38:32Z</time>
      </trkpt>
      <trkpt lat="45.54957" lon="6.67509">
        <ele>911.40002441406</ele>
        <time>2013-05-12T08:38:35Z</time>
      </trkpt>
      <trkpt lat="45.54958" lon="6.67507">
        <ele>912.20001220703</ele>
        <time>2013-05-12T08:38:37Z</time>
      </trkpt>
      <trkpt lat="45.5496" lon="6.67506">
        <ele>913.20001220703</ele>
        <time>2013-05-12T08:38:39Z</time>
      </trkpt>
      <trkpt lat="45.54957" lon="6.67503">
        <ele>913.40002441406</ele>
        <time>2013-05-12T08:38:43Z</time>
      </trkpt>
      <trkpt lat="45.54957" lon="6.67503">
        <ele>914.40002441406</ele>
        <time>2013-05-12T08:38:45Z</time>
      </trkpt>
      <trkpt lat="45.54955" lon="6.67503">
        <ele>915.20001220703</ele>
        <time>2013-05-12T08:38:47Z</time>
      </trkpt>
      <trkpt lat="45.54955" lon="6.67502">
        <ele>915.59997558594</ele>
        <time>2013-05-12T08:38:50Z</time>
      </trkpt>
      <trkpt lat="45.54952" lon="6.67502">
        <ele>916.40002441406</ele>
        <time>2013-05-12T08:38:52Z</time>
      </trkpt>
      <trkpt lat="45.54952" lon="6.67504">
        <ele>917.40002441406</ele>
        <time>2013-05-12T08:38:54Z</time>
      </trkpt>
      <trkpt lat="45.54951" lon="6.67507">
        <ele>917.59997558594</ele>
        <time>2013-05-12T08:38:58Z</time>
      </trkpt>
      <trkpt lat="45.5495" lon="6.67507">
        <ele>918.40002441406</ele>
        <time>2013-05-12T08:39:00Z</time>
      </trkpt>
      <trkpt lat="45.54948" lon="6.67508">
        <ele>919.40002441406</ele>
        <time>2013-05-12T08:39:02Z</time>
      </trkpt>
      <trkpt lat="45.54948" lon="6.67508">
        <ele>919.59997558594</ele>
        <time>2013-05-12T08:39:04Z</time>
      </trkpt>
      <trkpt lat="45.54948" lon="6.67508">
        <ele>920.59997558594</ele>
        <time>2013-05-12T08:39:06Z</time>
      </trkpt>
      <trkpt lat="45.54945" lon="6.67512">
        <ele>921.40002441406</ele>
        <time>2013-05-12T08:39:08Z</time>
      </trkpt>
      <trkpt lat="45.54942" lon="6.67514">
        <ele>922.20001220703</ele>
        <time>2013-05-12T08:39:14Z</time>
      </trkpt>
      <trkpt lat="45.54939" lon="6.67516">
        <ele>923.20001220703</ele>
        <time>2013-05-12T08:39:16Z</time>
      </trkpt>
      <trkpt lat="45.54937" lon="6.67519">
        <ele>923.40002441406</ele>
        <time>2013-05-12T08:39:18Z</time>
      </trkpt>
      <trkpt lat="45.54934" lon="6.67521">
        <ele>924.20001220703</ele>
        <time>2013-05-12T08:39:21Z</time>
      </trkpt>
      <trkpt lat="45.54934" lon="6.67522">
        <ele>925</ele>
        <time>2013-05-12T08:39:23Z</time>
      </trkpt>
      <trkpt lat="45.54931" lon="6.67523">
        <ele>925.59997558594</ele>
        <time>2013-05-12T08:39:25Z</time>
      </trkpt>
      <trkpt lat="45.54924" lon="6.67528">
        <ele>926</ele>
        <time>2013-05-12T08:39:32Z</time>
      </trkpt>
      <trkpt lat="45.54924" lon="6.67528">
        <ele>926.59997558594</ele>
        <time>2013-05-12T08:39:34Z</time>
      </trkpt>
      <trkpt lat="45.54922" lon="6.67529">
        <ele>927.40002441406</ele>
        <time>2013-05-12T08:39:36Z</time>
      </trkpt>
      <trkpt lat="45.54922" lon="6.67529">
        <ele>927.59997558594</ele>
        <time>2013-05-12T08:39:38Z</time>
      </trkpt>
      <trkpt lat="45.54915" lon="6.67534">
        <ele>928.40002441406</ele>
        <time>2013-05-12T08:39:44Z</time>
      </trkpt>
      <trkpt lat="45.54912" lon="6.67535">
        <ele>929.59997558594</ele>
        <time>2013-05-12T08:39:48Z</time>
      </trkpt>
      <trkpt lat="45.54909" lon="6.67536">
        <ele>930.40002441406</ele>
        <time>2013-05-12T08:39:51Z</time>
      </trkpt>
      <trkpt lat="45.54906" lon="6.67537">
        <ele>931.40002441406</ele>
        <time>2013-05-12T08:39:53Z</time>
      </trkpt>
      <trkpt lat="45.54906" lon="6.67537">
        <ele>932</ele>
        <time>2013-05-12T08:39:55Z</time>
      </trkpt>
      <trkpt lat="45.54902" lon="6.6754">
        <ele>932</ele>
        <time>2013-05-12T08:39:57Z</time>
      </trkpt>
      <trkpt lat="45.54899" lon="6.67536">
        <ele>932.40002441406</ele>
        <time>2013-05-12T08:40:01Z</time>
      </trkpt>
      <trkpt lat="45.54898" lon="6.67536">
        <ele>933.40002441406</ele>
        <time>2013-05-12T08:40:03Z</time>
      </trkpt>
      <trkpt lat="45.54893" lon="6.67538">
        <ele>934</ele>
        <time>2013-05-12T08:40:05Z</time>
      </trkpt>
      <trkpt lat="45.54892" lon="6.67541">
        <ele>934.40002441406</ele>
        <time>2013-05-12T08:40:09Z</time>
      </trkpt>
      <trkpt lat="45.54891" lon="6.67537">
        <ele>935.20001220703</ele>
        <time>2013-05-12T08:40:11Z</time>
      </trkpt>
      <trkpt lat="45.5489" lon="6.67538">
        <ele>936</ele>
        <time>2013-05-12T08:40:13Z</time>
      </trkpt>
      <trkpt lat="45.54879" lon="6.67551">
        <ele>936.40002441406</ele>
        <time>2013-05-12T08:40:19Z</time>
      </trkpt>
      <trkpt lat="45.54877" lon="6.67552">
        <ele>937.40002441406</ele>
        <time>2013-05-12T08:40:21Z</time>
      </trkpt>
      <trkpt lat="45.54872" lon="6.67557">
        <ele>938.20001220703</ele>
        <time>2013-05-12T08:40:23Z</time>
      </trkpt>
      <trkpt lat="45.54867" lon="6.67561">
        <ele>938.59997558594</ele>
        <time>2013-05-12T08:40:26Z</time>
      </trkpt>
      <trkpt lat="45.54866" lon="6.6756">
        <ele>939.40002441406</ele>
        <time>2013-05-12T08:40:28Z</time>
      </trkpt>
      <trkpt lat="45.54865" lon="6.67561">
        <ele>940.40002441406</ele>
        <time>2013-05-12T08:40:30Z</time>
      </trkpt>
      <trkpt lat="45.54859" lon="6.67564">
        <ele>940.40002441406</ele>
        <time>2013-05-12T08:40:37Z</time>
      </trkpt>
      <trkpt lat="45.54858" lon="6.67562">
        <ele>940.59997558594</ele>
        <time>2013-05-12T08:40:39Z</time>
      </trkpt>
      <trkpt lat="45.54854" lon="6.67562">
        <ele>941.40002441406</ele>
        <time>2013-05-12T08:40:41Z</time>
      </trkpt>
      <trkpt lat="45.54852" lon="6.67563">
        <ele>942.40002441406</ele>
        <time>2013-05-12T08:40:43Z</time>
      </trkpt>
      <trkpt lat="45.54846" lon="6.67562">
        <ele>942.40002441406</ele>
        <time>2013-05-12T08:40:49Z</time>
      </trkpt>
      <trkpt lat="45.54845" lon="6.67562">
        <ele>943.20001220703</ele>
        <time>2013-05-12T08:40:51Z</time>
      </trkpt>
      <trkpt lat="45.54842" lon="6.67564">
        <ele>944</ele>
        <time>2013-05-12T08:40:53Z</time>
      </trkpt>
      <trkpt lat="45.54838" lon="6.67566">
        <ele>944.40002441406</ele>
        <time>2013-05-12T08:40:55Z</time>
      </trkpt>
      <trkpt lat="45.54836" lon="6.67565">
        <ele>945.20001220703</ele>
        <time>2013-05-12T08:40:57Z</time>
      </trkpt>
      <trkpt lat="45.54834" lon="6.67565">
        <ele>946.20001220703</ele>
        <time>2013-05-12T08:40:59Z</time>
      </trkpt>
      <trkpt lat="45.54832" lon="6.67564">
        <ele>946.40002441406</ele>
        <time>2013-05-12T08:41:03Z</time>
      </trkpt>
      <trkpt lat="45.5483" lon="6.67566">
        <ele>947.40002441406</ele>
        <time>2013-05-12T08:41:05Z</time>
      </trkpt>
      <trkpt lat="45.54829" lon="6.67567">
        <ele>948</ele>
        <time>2013-05-12T08:41:07Z</time>
      </trkpt>
      <trkpt lat="45.54828" lon="6.67569">
        <ele>948.40002441406</ele>
        <time>2013-05-12T08:41:10Z</time>
      </trkpt>
      <trkpt lat="45.54827" lon="6.67571">
        <ele>949.40002441406</ele>
        <time>2013-05-12T08:41:12Z</time>
      </trkpt>
      <trkpt lat="45.54827" lon="6.6757">
        <ele>950.40002441406</ele>
        <time>2013-05-12T08:41:14Z</time>
      </trkpt>
      <trkpt lat="45.54823" lon="6.67574">
        <ele>951</ele>
        <time>2013-05-12T08:41:16Z</time>
      </trkpt>
      <trkpt lat="45.54822" lon="6.67574">
        <ele>951.59997558594</ele>
        <time>2013-05-12T08:41:18Z</time>
      </trkpt>
      <trkpt lat="45.54817" lon="6.67575">
        <ele>952.40002441406</ele>
        <time>2013-05-12T08:41:22Z</time>
      </trkpt>
      <trkpt lat="45.54811" lon="6.67575">
        <ele>952.40002441406</ele>
        <time>2013-05-12T08:41:27Z</time>
      </trkpt>
      <trkpt lat="45.54808" lon="6.67577">
        <ele>953.40002441406</ele>
        <time>2013-05-12T08:41:29Z</time>
      </trkpt>
      <trkpt lat="45.54807" lon="6.6758">
        <ele>954.20001220703</ele>
        <time>2013-05-12T08:41:31Z</time>
      </trkpt>
      <trkpt lat="45.54806" lon="6.67581">
        <ele>954.40002441406</ele>
        <time>2013-05-12T08:41:33Z</time>
      </trkpt>
      <trkpt lat="45.54805" lon="6.67584">
        <ele>954.40002441406</ele>
        <time>2013-05-12T08:41:37Z</time>
      </trkpt>
      <trkpt lat="45.54804" lon="6.67585">
        <ele>955.40002441406</ele>
        <time>2013-05-12T08:41:39Z</time>
      </trkpt>
      <trkpt lat="45.54803" lon="6.67587">
        <ele>956.20001220703</ele>
        <time>2013-05-12T08:41:41Z</time>
      </trkpt>
      <trkpt lat="45.54801" lon="6.67588">
        <ele>957.20001220703</ele>
        <time>2013-05-12T08:41:43Z</time>
      </trkpt>
      <trkpt lat="45.54799" lon="6.67588">
        <ele>958</ele>
        <time>2013-05-12T08:41:45Z</time>
      </trkpt>
      <trkpt lat="45.54798" lon="6.67588">
        <ele>958.40002441406</ele>
        <time>2013-05-12T08:41:47Z</time>
      </trkpt>
      <trkpt lat="45.54796" lon="6.67588">
        <ele>959.20001220703</ele>
        <time>2013-05-12T08:41:50Z</time>
      </trkpt>
      <trkpt lat="45.54793" lon="6.67589">
        <ele>960</ele>
        <time>2013-05-12T08:41:52Z</time>
      </trkpt>
      <trkpt lat="45.54791" lon="6.6759">
        <ele>960.59997558594</ele>
        <time>2013-05-12T08:41:54Z</time>
      </trkpt>
      <trkpt lat="45.54786" lon="6.67592">
        <ele>961.20001220703</ele>
        <time>2013-05-12T08:41:59Z</time>
      </trkpt>
      <trkpt lat="45.54784" lon="6.67593">
        <ele>962</ele>
        <time>2013-05-12T08:42:01Z</time>
      </trkpt>
      <trkpt lat="45.5478" lon="6.67594">
        <ele>962.59997558594</ele>
        <time>2013-05-12T08:42:03Z</time>
      </trkpt>
      <trkpt lat="45.54778" lon="6.67594">
        <ele>963.40002441406</ele>
        <time>2013-05-12T08:42:05Z</time>
      </trkpt>
      <trkpt lat="45.54776" lon="6.67595">
        <ele>964.20001220703</ele>
        <time>2013-05-12T08:42:07Z</time>
      </trkpt>
      <trkpt lat="45.54774" lon="6.67596">
        <ele>965</ele>
        <time>2013-05-12T08:42:09Z</time>
      </trkpt>
      <trkpt lat="45.5477" lon="6.67596">
        <ele>965.40002441406</ele>
        <time>2013-05-12T08:42:12Z</time>
      </trkpt>
      <trkpt lat="45.54769" lon="6.67596">
        <ele>966.20001220703</ele>
        <time>2013-05-12T08:42:14Z</time>
      </trkpt>
      <trkpt lat="45.54767" lon="6.67597">
        <ele>967</ele>
        <time>2013-05-12T08:42:16Z</time>
      </trkpt>
      <trkpt lat="45.54765" lon="6.67598">
        <ele>967.40002441406</ele>
        <time>2013-05-12T08:42:20Z</time>
      </trkpt>
      <trkpt lat="45.54764" lon="6.67597">
        <ele>968.20001220703</ele>
        <time>2013-05-12T08:42:22Z</time>
      </trkpt>
      <trkpt lat="45.54764" lon="6.67597">
        <ele>969</ele>
        <time>2013-05-12T08:42:24Z</time>
      </trkpt>
      <trkpt lat="45.54761" lon="6.67598">
        <ele>970</ele>
        <time>2013-05-12T08:42:27Z</time>
      </trkpt>
      <trkpt lat="45.54758" lon="6.676">
        <ele>970.59997558594</ele>
        <time>2013-05-12T08:42:29Z</time>
      </trkpt>
      <trkpt lat="45.54754" lon="6.67604">
        <ele>971.20001220703</ele>
        <time>2013-05-12T08:42:34Z</time>
      </trkpt>
      <trkpt lat="45.54753" lon="6.67604">
        <ele>971.59997558594</ele>
        <time>2013-05-12T08:42:36Z</time>
      </trkpt>
      <trkpt lat="45.54751" lon="6.67605">
        <ele>972.40002441406</ele>
        <time>2013-05-12T08:42:38Z</time>
      </trkpt>
      <trkpt lat="45.5475" lon="6.67606">
        <ele>973.40002441406</ele>
        <time>2013-05-12T08:42:40Z</time>
      </trkpt>
      <trkpt lat="45.54747" lon="6.67612">
        <ele>973.40002441406</ele>
        <time>2013-05-12T08:42:46Z</time>
      </trkpt>
      <trkpt lat="45.54746" lon="6.67614">
        <ele>974.20001220703</ele>
        <time>2013-05-12T08:42:48Z</time>
      </trkpt>
      <trkpt lat="45.54744" lon="6.67615">
        <ele>975</ele>
        <time>2013-05-12T08:42:50Z</time>
      </trkpt>
      <trkpt lat="45.54737" lon="6.67617">
        <ele>976.40002441406</ele>
        <time>2013-05-12T08:42:56Z</time>
      </trkpt>
      <trkpt lat="45.54735" lon="6.67618">
        <ele>977.20001220703</ele>
        <time>2013-05-12T08:42:58Z</time>
      </trkpt>
      <trkpt lat="45.5473" lon="6.6762">
        <ele>977.40002441406</ele>
        <time>2013-05-12T08:43:02Z</time>
      </trkpt>
      <trkpt lat="45.54728" lon="6.67621">
        <ele>978.40002441406</ele>
        <time>2013-05-12T08:43:04Z</time>
      </trkpt>
      <trkpt lat="45.54725" lon="6.67622">
        <ele>979.20001220703</ele>
        <time>2013-05-12T08:43:06Z</time>
      </trkpt>
      <trkpt lat="45.54724" lon="6.67622">
        <ele>979.40002441406</ele>
        <time>2013-05-12T08:43:08Z</time>
      </trkpt>
      <trkpt lat="45.54722" lon="6.67622">
        <ele>980.40002441406</ele>
        <time>2013-05-12T08:43:10Z</time>
      </trkpt>
      <trkpt lat="45.5472" lon="6.67621">
        <ele>981.40002441406</ele>
        <time>2013-05-12T08:43:12Z</time>
      </trkpt>
      <trkpt lat="45.54716" lon="6.67621">
        <ele>981.59997558594</ele>
        <time>2013-05-12T08:43:15Z</time>
      </trkpt>
      <trkpt lat="45.54713" lon="6.67622">
        <ele>982.40002441406</ele>
        <time>2013-05-12T08:43:17Z</time>
      </trkpt>
      <trkpt lat="45.54711" lon="6.67622">
        <ele>983.40002441406</ele>
        <time>2013-05-12T08:43:19Z</time>
      </trkpt>
      <trkpt lat="45.54711" lon="6.67622">
        <ele>983.59997558594</ele>
        <time>2013-05-12T08:43:21Z</time>
      </trkpt>
      <trkpt lat="45.5471" lon="6.67627">
        <ele>984.40002441406</ele>
        <time>2013-05-12T08:43:26Z</time>
      </trkpt>
      <trkpt lat="45.54711" lon="6.67629">
        <ele>985.20001220703</ele>
        <time>2013-05-12T08:43:28Z</time>
      </trkpt>
      <trkpt lat="45.54711" lon="6.6763">
        <ele>986</ele>
        <time>2013-05-12T08:43:30Z</time>
      </trkpt>
      <trkpt lat="45.54711" lon="6.67634">
        <ele>986</ele>
        <time>2013-05-12T08:43:33Z</time>
      </trkpt>
      <trkpt lat="45.5471" lon="6.67635">
        <ele>986</ele>
        <time>2013-05-12T08:43:35Z</time>
      </trkpt>
      <trkpt lat="45.5471" lon="6.67638">
        <ele>986.59997558594</ele>
        <time>2013-05-12T08:43:37Z</time>
      </trkpt>
      <trkpt lat="45.54711" lon="6.67639">
        <ele>987.40002441406</ele>
        <time>2013-05-12T08:43:39Z</time>
      </trkpt>
      <trkpt lat="45.54711" lon="6.67643">
        <ele>988</ele>
        <time>2013-05-12T08:43:42Z</time>
      </trkpt>
      <trkpt lat="45.54711" lon="6.67644">
        <ele>988.59997558594</ele>
        <time>2013-05-12T08:43:44Z</time>
      </trkpt>
      <trkpt lat="45.54711" lon="6.67648">
        <ele>989.40002441406</ele>
        <time>2013-05-12T08:43:46Z</time>
      </trkpt>
      <trkpt lat="45.5471" lon="6.67653">
        <ele>990</ele>
        <time>2013-05-12T08:43:52Z</time>
      </trkpt>
      <trkpt lat="45.54711" lon="6.67653">
        <ele>990.59997558594</ele>
        <time>2013-05-12T08:43:54Z</time>
      </trkpt>
      <trkpt lat="45.54713" lon="6.67654">
        <ele>991.59997558594</ele>
        <time>2013-05-12T08:43:56Z</time>
      </trkpt>
      <trkpt lat="45.54715" lon="6.67659">
        <ele>992.40002441406</ele>
        <time>2013-05-12T08:44:01Z</time>
      </trkpt>
      <trkpt lat="45.54716" lon="6.67662">
        <ele>993.20001220703</ele>
        <time>2013-05-12T08:44:03Z</time>
      </trkpt>
      <trkpt lat="45.54716" lon="6.67666">
        <ele>994.20001220703</ele>
        <time>2013-05-12T08:44:05Z</time>
      </trkpt>
      <trkpt lat="45.54716" lon="6.67666">
        <ele>994.20001220703</ele>
        <time>2013-05-12T08:44:07Z</time>
      </trkpt>
      <trkpt lat="45.54719" lon="6.67676">
        <ele>994.59997558594</ele>
        <time>2013-05-12T08:44:12Z</time>
      </trkpt>
      <trkpt lat="45.5472" lon="6.67677">
        <ele>995.40002441406</ele>
        <time>2013-05-12T08:44:14Z</time>
      </trkpt>
      <trkpt lat="45.54721" lon="6.6768">
        <ele>996.40002441406</ele>
        <time>2013-05-12T08:44:16Z</time>
      </trkpt>
      <trkpt lat="45.54721" lon="6.67683">
        <ele>996.40002441406</ele>
        <time>2013-05-12T08:44:19Z</time>
      </trkpt>
      <trkpt lat="45.54723" lon="6.67685">
        <ele>997.40002441406</ele>
        <time>2013-05-12T08:44:21Z</time>
      </trkpt>
      <trkpt lat="45.54724" lon="6.67686">
        <ele>998.40002441406</ele>
        <time>2013-05-12T08:44:23Z</time>
      </trkpt>
      <trkpt lat="45.54727" lon="6.6769">
        <ele>999.40002441406</ele>
        <time>2013-05-12T08:44:27Z</time>
      </trkpt>
      <trkpt lat="45.54727" lon="6.67692">
        <ele>1000.4000244141</ele>
        <time>2013-05-12T08:44:29Z</time>
      </trkpt>
      <trkpt lat="45.54727" lon="6.67696">
        <ele>1000.4000244141</ele>
        <time>2013-05-12T08:44:32Z</time>
      </trkpt>
      <trkpt lat="45.54726" lon="6.67697">
        <ele>1001.200012207</ele>
        <time>2013-05-12T08:44:34Z</time>
      </trkpt>
      <trkpt lat="45.54725" lon="6.67697">
        <ele>1002.200012207</ele>
        <time>2013-05-12T08:44:36Z</time>
      </trkpt>
      <trkpt lat="45.54723" lon="6.67697">
        <ele>1002.5999755859</ele>
        <time>2013-05-12T08:44:38Z</time>
      </trkpt>
      <trkpt lat="45.5472" lon="6.67697">
        <ele>1003.4000244141</ele>
        <time>2013-05-12T08:44:40Z</time>
      </trkpt>
      <trkpt lat="45.54719" lon="6.67697">
        <ele>1004</ele>
        <time>2013-05-12T08:44:42Z</time>
      </trkpt>
      <trkpt lat="45.54719" lon="6.67697">
        <ele>1004.4000244141</ele>
        <time>2013-05-12T08:44:44Z</time>
      </trkpt>
      <trkpt lat="45.54715" lon="6.677">
        <ele>1005.4000244141</ele>
        <time>2013-05-12T08:44:49Z</time>
      </trkpt>
      <trkpt lat="45.54713" lon="6.67701">
        <ele>1006.200012207</ele>
        <time>2013-05-12T08:44:51Z</time>
      </trkpt>
      <trkpt lat="45.54712" lon="6.67701">
        <ele>1006.5999755859</ele>
        <time>2013-05-12T08:44:53Z</time>
      </trkpt>
      <trkpt lat="45.5471" lon="6.67703">
        <ele>1007</ele>
        <time>2013-05-12T08:44:55Z</time>
      </trkpt>
      <trkpt lat="45.54708" lon="6.67704">
        <ele>1007.5999755859</ele>
        <time>2013-05-12T08:44:57Z</time>
      </trkpt>
      <trkpt lat="45.54706" lon="6.67707">
        <ele>1008.5999755859</ele>
        <time>2013-05-12T08:45:01Z</time>
      </trkpt>
      <trkpt lat="45.54705" lon="6.67708">
        <ele>1009.4000244141</ele>
        <time>2013-05-12T08:45:03Z</time>
      </trkpt>
      <trkpt lat="45.54704" lon="6.6771">
        <ele>1010</ele>
        <time>2013-05-12T08:45:05Z</time>
      </trkpt>
      <trkpt lat="45.54703" lon="6.67711">
        <ele>1010.5999755859</ele>
        <time>2013-05-12T08:45:07Z</time>
      </trkpt>
      <trkpt lat="45.547" lon="6.67714">
        <ele>1011.200012207</ele>
        <time>2013-05-12T08:45:11Z</time>
      </trkpt>
      <trkpt lat="45.54699" lon="6.67715">
        <ele>1012</ele>
        <time>2013-05-12T08:45:13Z</time>
      </trkpt>
      <trkpt lat="45.54698" lon="6.67717">
        <ele>1012.5999755859</ele>
        <time>2013-05-12T08:45:15Z</time>
      </trkpt>
      <trkpt lat="45.54698" lon="6.67718">
        <ele>1013.4000244141</ele>
        <time>2013-05-12T08:45:17Z</time>
      </trkpt>
      <trkpt lat="45.54696" lon="6.67721">
        <ele>1014.4000244141</ele>
        <time>2013-05-12T08:45:19Z</time>
      </trkpt>
      <trkpt lat="45.54694" lon="6.67726">
        <ele>1014.5999755859</ele>
        <time>2013-05-12T08:45:23Z</time>
      </trkpt>
      <trkpt lat="45.54692" lon="6.67728">
        <ele>1015.4000244141</ele>
        <time>2013-05-12T08:45:25Z</time>
      </trkpt>
      <trkpt lat="45.54691" lon="6.67731">
        <ele>1016.4000244141</ele>
        <time>2013-05-12T08:45:27Z</time>
      </trkpt>
      <trkpt lat="45.5469" lon="6.67733">
        <ele>1016.5999755859</ele>
        <time>2013-05-12T08:45:29Z</time>
      </trkpt>
      <trkpt lat="45.54688" lon="6.67737">
        <ele>1016.5999755859</ele>
        <time>2013-05-12T08:45:32Z</time>
      </trkpt>
      <trkpt lat="45.54686" lon="6.67739">
        <ele>1017.4000244141</ele>
        <time>2013-05-12T08:45:34Z</time>
      </trkpt>
      <trkpt lat="45.54684" lon="6.6774">
        <ele>1018.200012207</ele>
        <time>2013-05-12T08:45:36Z</time>
      </trkpt>
      <trkpt lat="45.54683" lon="6.6774">
        <ele>1019</ele>
        <time>2013-05-12T08:45:38Z</time>
      </trkpt>
      <trkpt lat="45.5468" lon="6.6774">
        <ele>1019.5999755859</ele>
        <time>2013-05-12T08:45:41Z</time>
      </trkpt>
      <trkpt lat="45.54677" lon="6.6774">
        <ele>1020.5999755859</ele>
        <time>2013-05-12T08:45:43Z</time>
      </trkpt>
      <trkpt lat="45.54674" lon="6.67741">
        <ele>1021.200012207</ele>
        <time>2013-05-12T08:45:45Z</time>
      </trkpt>
      <trkpt lat="45.54667" lon="6.67745">
        <ele>1021.200012207</ele>
        <time>2013-05-12T08:45:51Z</time>
      </trkpt>
      <trkpt lat="45.54659" lon="6.67749">
        <ele>1022.4000244141</ele>
        <time>2013-05-12T08:45:55Z</time>
      </trkpt>
      <trkpt lat="45.54657" lon="6.6775">
        <ele>1023.200012207</ele>
        <time>2013-05-12T08:45:57Z</time>
      </trkpt>
      <trkpt lat="45.54651" lon="6.67753">
        <ele>1023.4000244141</ele>
        <time>2013-05-12T08:46:03Z</time>
      </trkpt>
      <trkpt lat="45.54649" lon="6.67755">
        <ele>1024.4000244141</ele>
        <time>2013-05-12T08:46:05Z</time>
      </trkpt>
      <trkpt lat="45.54647" lon="6.67756">
        <ele>1025</ele>
        <time>2013-05-12T08:46:07Z</time>
      </trkpt>
      <trkpt lat="45.54644" lon="6.67756">
        <ele>1026</ele>
        <time>2013-05-12T08:46:10Z</time>
      </trkpt>
      <trkpt lat="45.54642" lon="6.67758">
        <ele>1027</ele>
        <time>2013-05-12T08:46:12Z</time>
      </trkpt>
      <trkpt lat="45.54642" lon="6.6776">
        <ele>1027.4000244141</ele>
        <time>2013-05-12T08:46:15Z</time>
      </trkpt>
      <trkpt lat="45.54641" lon="6.67763">
        <ele>1027.8000488281</ele>
        <time>2013-05-12T08:46:17Z</time>
      </trkpt>
      <trkpt lat="45.5464" lon="6.67764">
        <ele>1028</ele>
        <time>2013-05-12T08:46:19Z</time>
      </trkpt>
      <trkpt lat="45.54641" lon="6.67767">
        <ele>1029</ele>
        <time>2013-05-12T08:46:21Z</time>
      </trkpt>
      <trkpt lat="45.5464" lon="6.67768">
        <ele>1029.4000244141</ele>
        <time>2013-05-12T08:46:23Z</time>
      </trkpt>
      <trkpt lat="45.5464" lon="6.67769">
        <ele>1030.4000244141</ele>
        <time>2013-05-12T08:46:25Z</time>
      </trkpt>
      <trkpt lat="45.54639" lon="6.6777">
        <ele>1031</ele>
        <time>2013-05-12T08:46:27Z</time>
      </trkpt>
      <trkpt lat="45.54636" lon="6.67771">
        <ele>1031.4000244141</ele>
        <time>2013-05-12T08:46:30Z</time>
      </trkpt>
      <trkpt lat="45.54635" lon="6.67772">
        <ele>1032.4000244141</ele>
        <time>2013-05-12T08:46:32Z</time>
      </trkpt>
      <trkpt lat="45.54634" lon="6.67773">
        <ele>1033</ele>
        <time>2013-05-12T08:46:34Z</time>
      </trkpt>
      <trkpt lat="45.54632" lon="6.67774">
        <ele>1033.4000244141</ele>
        <time>2013-05-12T08:46:36Z</time>
      </trkpt>
      <trkpt lat="45.54629" lon="6.67776">
        <ele>1033.4000244141</ele>
        <time>2013-05-12T08:46:41Z</time>
      </trkpt>
      <trkpt lat="45.54624" lon="6.67777">
        <ele>1033.8000488281</ele>
        <time>2013-05-12T08:46:45Z</time>
      </trkpt>
      <trkpt lat="45.54622" lon="6.67778">
        <ele>1034.4000244141</ele>
        <time>2013-05-12T08:46:47Z</time>
      </trkpt>
      <trkpt lat="45.5462" lon="6.67779">
        <ele>1035.4000244141</ele>
        <time>2013-05-12T08:46:49Z</time>
      </trkpt>
      <trkpt lat="45.54617" lon="6.67782">
        <ele>1035.4000244141</ele>
        <time>2013-05-12T08:46:51Z</time>
      </trkpt>
      <trkpt lat="45.54612" lon="6.67786">
        <ele>1036</ele>
        <time>2013-05-12T08:46:56Z</time>
      </trkpt>
      <trkpt lat="45.5461" lon="6.67788">
        <ele>1037</ele>
        <time>2013-05-12T08:46:58Z</time>
      </trkpt>
      <trkpt lat="45.5461" lon="6.67788">
        <ele>1037.8000488281</ele>
        <time>2013-05-12T08:47:01Z</time>
      </trkpt>
      <trkpt lat="45.54604" lon="6.67793">
        <ele>1038</ele>
        <time>2013-05-12T08:47:08Z</time>
      </trkpt>
      <trkpt lat="45.54602" lon="6.67795">
        <ele>1038.8000488281</ele>
        <time>2013-05-12T08:47:10Z</time>
      </trkpt>
      <trkpt lat="45.546" lon="6.67796">
        <ele>1039.4000244141</ele>
        <time>2013-05-12T08:47:12Z</time>
      </trkpt>
      <trkpt lat="45.54592" lon="6.67801">
        <ele>1039.8000488281</ele>
        <time>2013-05-12T08:47:19Z</time>
      </trkpt>
      <trkpt lat="45.5459" lon="6.67801">
        <ele>1040.4000244141</ele>
        <time>2013-05-12T08:47:23Z</time>
      </trkpt>
      <trkpt lat="45.54589" lon="6.67807">
        <ele>1040.8000488281</ele>
        <time>2013-05-12T08:47:25Z</time>
      </trkpt>
      <trkpt lat="45.54588" lon="6.67806">
        <ele>1041.4000244141</ele>
        <time>2013-05-12T08:47:27Z</time>
      </trkpt>
      <trkpt lat="45.54587" lon="6.6781">
        <ele>1042</ele>
        <time>2013-05-12T08:47:30Z</time>
      </trkpt>
      <trkpt lat="45.54588" lon="6.67809">
        <ele>1043</ele>
        <time>2013-05-12T08:47:32Z</time>
      </trkpt>
      <trkpt lat="45.54588" lon="6.67804">
        <ele>1044.8000488281</ele>
        <time>2013-05-12T08:47:36Z</time>
      </trkpt>
      <trkpt lat="45.54588" lon="6.67803">
        <ele>1045.4000244141</ele>
        <time>2013-05-12T08:47:38Z</time>
      </trkpt>
      <trkpt lat="45.5459" lon="6.67798">
        <ele>1046</ele>
        <time>2013-05-12T08:47:41Z</time>
      </trkpt>
      <trkpt lat="45.54591" lon="6.67795">
        <ele>1046.4000244141</ele>
        <time>2013-05-12T08:47:44Z</time>
      </trkpt>
      <trkpt lat="45.54589" lon="6.67793">
        <ele>1047</ele>
        <time>2013-05-12T08:47:46Z</time>
      </trkpt>
      <trkpt lat="45.54589" lon="6.67793">
        <ele>1047.8000488281</ele>
        <time>2013-05-12T08:47:48Z</time>
      </trkpt>
      <trkpt lat="45.54585" lon="6.67792">
        <ele>1048.8000488281</ele>
        <time>2013-05-12T08:47:50Z</time>
      </trkpt>
      <trkpt lat="45.54584" lon="6.67794">
        <ele>1049.8000488281</ele>
        <time>2013-05-12T08:47:52Z</time>
      </trkpt>
      <trkpt lat="45.5458" lon="6.67795">
        <ele>1050.4000244141</ele>
        <time>2013-05-12T08:47:54Z</time>
      </trkpt>
      <trkpt lat="45.54578" lon="6.67798">
        <ele>1051.4000244141</ele>
        <time>2013-05-12T08:47:56Z</time>
      </trkpt>
      <trkpt lat="45.54575" lon="6.67798">
        <ele>1052</ele>
        <time>2013-05-12T08:47:58Z</time>
      </trkpt>
      <trkpt lat="45.54573" lon="6.67796">
        <ele>1052</ele>
        <time>2013-05-12T08:48:03Z</time>
      </trkpt>
      <trkpt lat="45.54573" lon="6.67791">
        <ele>1052.8000488281</ele>
        <time>2013-05-12T08:48:07Z</time>
      </trkpt>
      <trkpt lat="45.54574" lon="6.67789">
        <ele>1053.4000244141</ele>
        <time>2013-05-12T08:48:09Z</time>
      </trkpt>
      <trkpt lat="45.54574" lon="6.67788">
        <ele>1054</ele>
        <time>2013-05-12T08:48:11Z</time>
      </trkpt>
      <trkpt lat="45.54576" lon="6.67785">
        <ele>1054.8000488281</ele>
        <time>2013-05-12T08:48:14Z</time>
      </trkpt>
      <trkpt lat="45.54576" lon="6.67783">
        <ele>1055.4000244141</ele>
        <time>2013-05-12T08:48:16Z</time>
      </trkpt>
      <trkpt lat="45.54577" lon="6.67781">
        <ele>1056.4000244141</ele>
        <time>2013-05-12T08:48:18Z</time>
      </trkpt>
      <trkpt lat="45.54578" lon="6.67777">
        <ele>1057</ele>
        <time>2013-05-12T08:48:22Z</time>
      </trkpt>
      <trkpt lat="45.54579" lon="6.67775">
        <ele>1057.8000488281</ele>
        <time>2013-05-12T08:48:24Z</time>
      </trkpt>
      <trkpt lat="45.54579" lon="6.67772">
        <ele>1058.4000244141</ele>
        <time>2013-05-12T08:48:26Z</time>
      </trkpt>
      <trkpt lat="45.54581" lon="6.6777">
        <ele>1058.4000244141</ele>
        <time>2013-05-12T08:48:28Z</time>
      </trkpt>
      <trkpt lat="45.54581" lon="6.67768">
        <ele>1059.4000244141</ele>
        <time>2013-05-12T08:48:30Z</time>
      </trkpt>
      <trkpt lat="45.54582" lon="6.67766">
        <ele>1060</ele>
        <time>2013-05-12T08:48:32Z</time>
      </trkpt>
      <trkpt lat="45.54582" lon="6.67763">
        <ele>1060.8000488281</ele>
        <time>2013-05-12T08:48:36Z</time>
      </trkpt>
      <trkpt lat="45.5458" lon="6.67762">
        <ele>1061.4000244141</ele>
        <time>2013-05-12T08:48:38Z</time>
      </trkpt>
      <trkpt lat="45.54578" lon="6.67761">
        <ele>1062.4000244141</ele>
        <time>2013-05-12T08:48:40Z</time>
      </trkpt>
      <trkpt lat="45.54575" lon="6.6776">
        <ele>1063</ele>
        <time>2013-05-12T08:48:43Z</time>
      </trkpt>
      <trkpt lat="45.54576" lon="6.6776">
        <ele>1063.8000488281</ele>
        <time>2013-05-12T08:48:45Z</time>
      </trkpt>
      <trkpt lat="45.54575" lon="6.67757">
        <ele>1064.4000244141</ele>
        <time>2013-05-12T08:48:47Z</time>
      </trkpt>
      <trkpt lat="45.54572" lon="6.67756">
        <ele>1065</ele>
        <time>2013-05-12T08:48:51Z</time>
      </trkpt>
      <trkpt lat="45.54571" lon="6.67755">
        <ele>1065.8000488281</ele>
        <time>2013-05-12T08:48:53Z</time>
      </trkpt>
      <trkpt lat="45.54569" lon="6.67755">
        <ele>1066.4000244141</ele>
        <time>2013-05-12T08:48:55Z</time>
      </trkpt>
      <trkpt lat="45.54567" lon="6.67754">
        <ele>1067</ele>
        <time>2013-05-12T08:48:58Z</time>
      </trkpt>
      <trkpt lat="45.54567" lon="6.67752">
        <ele>1068</ele>
        <time>2013-05-12T08:49:00Z</time>
      </trkpt>
      <trkpt lat="45.54565" lon="6.67752">
        <ele>1069</ele>
        <time>2013-05-12T08:49:04Z</time>
      </trkpt>
      <trkpt lat="45.54564" lon="6.67751">
        <ele>1069.8000488281</ele>
        <time>2013-05-12T08:49:06Z</time>
      </trkpt>
      <trkpt lat="45.54563" lon="6.6775">
        <ele>1070.8000488281</ele>
        <time>2013-05-12T08:49:08Z</time>
      </trkpt>
      <trkpt lat="45.54558" lon="6.67751">
        <ele>1070.8000488281</ele>
        <time>2013-05-12T08:49:14Z</time>
      </trkpt>
      <trkpt lat="45.54555" lon="6.67751">
        <ele>1071.4000244141</ele>
        <time>2013-05-12T08:49:16Z</time>
      </trkpt>
      <trkpt lat="45.54553" lon="6.67752">
        <ele>1072.4000244141</ele>
        <time>2013-05-12T08:49:18Z</time>
      </trkpt>
      <trkpt lat="45.5455" lon="6.67753">
        <ele>1072.8000488281</ele>
        <time>2013-05-12T08:49:21Z</time>
      </trkpt>
      <trkpt lat="45.54547" lon="6.67755">
        <ele>1073.4000244141</ele>
        <time>2013-05-12T08:49:24Z</time>
      </trkpt>
      <trkpt lat="45.54545" lon="6.67757">
        <ele>1074</ele>
        <time>2013-05-12T08:49:26Z</time>
      </trkpt>
      <trkpt lat="45.54544" lon="6.67758">
        <ele>1074.8000488281</ele>
        <time>2013-05-12T08:49:28Z</time>
      </trkpt>
      <trkpt lat="45.54542" lon="6.67761">
        <ele>1075.4000244141</ele>
        <time>2013-05-12T08:49:32Z</time>
      </trkpt>
      <trkpt lat="45.54542" lon="6.67763">
        <ele>1076.4000244141</ele>
        <time>2013-05-12T08:49:34Z</time>
      </trkpt>
      <trkpt lat="45.54541" lon="6.67765">
        <ele>1076.8000488281</ele>
        <time>2013-05-12T08:49:36Z</time>
      </trkpt>
      <trkpt lat="45.5454" lon="6.67769">
        <ele>1077.4000244141</ele>
        <time>2013-05-12T08:49:39Z</time>
      </trkpt>
      <trkpt lat="45.54538" lon="6.67772">
        <ele>1078.4000244141</ele>
        <time>2013-05-12T08:49:41Z</time>
      </trkpt>
      <trkpt lat="45.54536" lon="6.67774">
        <ele>1079</ele>
        <time>2013-05-12T08:49:43Z</time>
      </trkpt>
      <trkpt lat="45.54534" lon="6.67776">
        <ele>1079.8000488281</ele>
        <time>2013-05-12T08:49:45Z</time>
      </trkpt>
      <trkpt lat="45.54532" lon="6.67778">
        <ele>1080.8000488281</ele>
        <time>2013-05-12T08:49:47Z</time>
      </trkpt>
      <trkpt lat="45.5453" lon="6.67781">
        <ele>1081</ele>
        <time>2013-05-12T08:49:51Z</time>
      </trkpt>
      <trkpt lat="45.54529" lon="6.67782">
        <ele>1081.8000488281</ele>
        <time>2013-05-12T08:49:53Z</time>
      </trkpt>
      <trkpt lat="45.54526" lon="6.67782">
        <ele>1082.4000244141</ele>
        <time>2013-05-12T08:49:55Z</time>
      </trkpt>
      <trkpt lat="45.54524" lon="6.67785">
        <ele>1083</ele>
        <time>2013-05-12T08:49:57Z</time>
      </trkpt>
      <trkpt lat="45.54521" lon="6.67786">
        <ele>1084</ele>
        <time>2013-05-12T08:50:00Z</time>
      </trkpt>
      <trkpt lat="45.54519" lon="6.67788">
        <ele>1084.8000488281</ele>
        <time>2013-05-12T08:50:02Z</time>
      </trkpt>
      <trkpt lat="45.54518" lon="6.67789">
        <ele>1085</ele>
        <time>2013-05-12T08:50:04Z</time>
      </trkpt>
      <trkpt lat="45.54516" lon="6.67795">
        <ele>1085.4000244141</ele>
        <time>2013-05-12T08:50:08Z</time>
      </trkpt>
      <trkpt lat="45.54515" lon="6.67796">
        <ele>1086</ele>
        <time>2013-05-12T08:50:10Z</time>
      </trkpt>
      <trkpt lat="45.54515" lon="6.67798">
        <ele>1087</ele>
        <time>2013-05-12T08:50:12Z</time>
      </trkpt>
      <trkpt lat="45.54513" lon="6.67802">
        <ele>1087.4000244141</ele>
        <time>2013-05-12T08:50:14Z</time>
      </trkpt>
      <trkpt lat="45.54513" lon="6.67802">
        <ele>1088.4000244141</ele>
        <time>2013-05-12T08:50:16Z</time>
      </trkpt>
      <trkpt lat="45.54511" lon="6.67804">
        <ele>1089</ele>
        <time>2013-05-12T08:50:18Z</time>
      </trkpt>
      <trkpt lat="45.54508" lon="6.67805">
        <ele>1089</ele>
        <time>2013-05-12T08:50:20Z</time>
      </trkpt>
      <trkpt lat="45.54507" lon="6.67806">
        <ele>1090</ele>
        <time>2013-05-12T08:50:24Z</time>
      </trkpt>
      <trkpt lat="45.54506" lon="6.67805">
        <ele>1090.4000244141</ele>
        <time>2013-05-12T08:50:26Z</time>
      </trkpt>
      <trkpt lat="45.54505" lon="6.67807">
        <ele>1091</ele>
        <time>2013-05-12T08:50:28Z</time>
      </trkpt>
      <trkpt lat="45.545" lon="6.67813">
        <ele>1091</ele>
        <time>2013-05-12T08:50:40Z</time>
      </trkpt>
      <trkpt lat="45.54501" lon="6.67815">
        <ele>1091</ele>
        <time>2013-05-12T08:50:46Z</time>
      </trkpt>
      <trkpt lat="45.54494" lon="6.67823">
        <ele>1091.4000244141</ele>
        <time>2013-05-12T08:50:54Z</time>
      </trkpt>
      <trkpt lat="45.54493" lon="6.67826">
        <ele>1092</ele>
        <time>2013-05-12T08:50:56Z</time>
      </trkpt>
      <trkpt lat="45.54493" lon="6.67828">
        <ele>1093</ele>
        <time>2013-05-12T08:50:58Z</time>
      </trkpt>
      <trkpt lat="45.54494" lon="6.67831">
        <ele>1093.4000244141</ele>
        <time>2013-05-12T08:51:00Z</time>
      </trkpt>
      <trkpt lat="45.5449" lon="6.67834">
        <ele>1093.4000244141</ele>
        <time>2013-05-12T08:51:04Z</time>
      </trkpt>
      <trkpt lat="45.54486" lon="6.67836">
        <ele>1094.4000244141</ele>
        <time>2013-05-12T08:51:06Z</time>
      </trkpt>
      <trkpt lat="45.54482" lon="6.67837">
        <ele>1095</ele>
        <time>2013-05-12T08:51:08Z</time>
      </trkpt>
      <trkpt lat="45.54479" lon="6.67838">
        <ele>1095.4000244141</ele>
        <time>2013-05-12T08:51:10Z</time>
      </trkpt>
      <trkpt lat="45.54475" lon="6.67839">
        <ele>1096</ele>
        <time>2013-05-12T08:51:12Z</time>
      </trkpt>
      <trkpt lat="45.54473" lon="6.6784">
        <ele>1096.8000488281</ele>
        <time>2013-05-12T08:51:14Z</time>
      </trkpt>
      <trkpt lat="45.5447" lon="6.67841">
        <ele>1097.4000244141</ele>
        <time>2013-05-12T08:51:16Z</time>
      </trkpt>
      <trkpt lat="45.54466" lon="6.67843">
        <ele>1097.4000244141</ele>
        <time>2013-05-12T08:51:22Z</time>
      </trkpt>
      <trkpt lat="45.54462" lon="6.67845">
        <ele>1097.4000244141</ele>
        <time>2013-05-12T08:51:26Z</time>
      </trkpt>
      <trkpt lat="45.5446" lon="6.67847">
        <ele>1097.4000244141</ele>
        <time>2013-05-12T08:51:33Z</time>
      </trkpt>
      <trkpt lat="45.54456" lon="6.67847">
        <ele>1097.4000244141</ele>
        <time>2013-05-12T08:51:36Z</time>
      </trkpt>
      <trkpt lat="45.5445" lon="6.67852">
        <ele>1097.4000244141</ele>
        <time>2013-05-12T08:51:43Z</time>
      </trkpt>
      <trkpt lat="45.54449" lon="6.67854">
        <ele>1098.4000244141</ele>
        <time>2013-05-12T08:51:45Z</time>
      </trkpt>
      <trkpt lat="45.54448" lon="6.67855">
        <ele>1099</ele>
        <time>2013-05-12T08:51:48Z</time>
      </trkpt>
      <trkpt lat="45.54447" lon="6.67859">
        <ele>1099.4000244141</ele>
        <time>2013-05-12T08:51:50Z</time>
      </trkpt>
      <trkpt lat="45.54447" lon="6.67861">
        <ele>1100.4000244141</ele>
        <time>2013-05-12T08:51:52Z</time>
      </trkpt>
      <trkpt lat="45.54445" lon="6.67862">
        <ele>1101</ele>
        <time>2013-05-12T08:51:54Z</time>
      </trkpt>
      <trkpt lat="45.54443" lon="6.67864">
        <ele>1102</ele>
        <time>2013-05-12T08:51:56Z</time>
      </trkpt>
      <trkpt lat="45.54441" lon="6.67866">
        <ele>1102.8000488281</ele>
        <time>2013-05-12T08:51:58Z</time>
      </trkpt>
      <trkpt lat="45.5444" lon="6.67868">
        <ele>1103.4000244141</ele>
        <time>2013-05-12T08:52:00Z</time>
      </trkpt>
      <trkpt lat="45.54438" lon="6.67869">
        <ele>1104.4000244141</ele>
        <time>2013-05-12T08:52:02Z</time>
      </trkpt>
      <trkpt lat="45.54436" lon="6.6787">
        <ele>1105</ele>
        <time>2013-05-12T08:52:04Z</time>
      </trkpt>
      <trkpt lat="45.54436" lon="6.67872">
        <ele>1106</ele>
        <time>2013-05-12T08:52:06Z</time>
      </trkpt>
      <trkpt lat="45.54436" lon="6.67871">
        <ele>1106</ele>
        <time>2013-05-12T08:52:10Z</time>
      </trkpt>
      <trkpt lat="45.54433" lon="6.67872">
        <ele>1107</ele>
        <time>2013-05-12T08:52:12Z</time>
      </trkpt>
      <trkpt lat="45.54432" lon="6.67873">
        <ele>1107.8000488281</ele>
        <time>2013-05-12T08:52:14Z</time>
      </trkpt>
      <trkpt lat="45.5443" lon="6.67879">
        <ele>1108.4000244141</ele>
        <time>2013-05-12T08:52:16Z</time>
      </trkpt>
      <trkpt lat="45.5443" lon="6.67879">
        <ele>1109.4000244141</ele>
        <time>2013-05-12T08:52:18Z</time>
      </trkpt>
      <trkpt lat="45.54429" lon="6.67881">
        <ele>1110</ele>
        <time>2013-05-12T08:52:20Z</time>
      </trkpt>
      <trkpt lat="45.54425" lon="6.67886">
        <ele>1111</ele>
        <time>2013-05-12T08:52:24Z</time>
      </trkpt>
      <trkpt lat="45.54424" lon="6.67885">
        <ele>1112</ele>
        <time>2013-05-12T08:52:26Z</time>
      </trkpt>
      <trkpt lat="45.54419" lon="6.67888">
        <ele>1112.8000488281</ele>
        <time>2013-05-12T08:52:28Z</time>
      </trkpt>
      <trkpt lat="45.54416" lon="6.67889">
        <ele>1113.8000488281</ele>
        <time>2013-05-12T08:52:30Z</time>
      </trkpt>
      <trkpt lat="45.54413" lon="6.67891">
        <ele>1114.4000244141</ele>
        <time>2013-05-12T08:52:32Z</time>
      </trkpt>
      <trkpt lat="45.54409" lon="6.67894">
        <ele>1114.4000244141</ele>
        <time>2013-05-12T08:52:35Z</time>
      </trkpt>
      <trkpt lat="45.54408" lon="6.67898">
        <ele>1115</ele>
        <time>2013-05-12T08:52:37Z</time>
      </trkpt>
      <trkpt lat="45.54406" lon="6.67904">
        <ele>1116</ele>
        <time>2013-05-12T08:52:39Z</time>
      </trkpt>
      <trkpt lat="45.54402" lon="6.67911">
        <ele>1116.4000244141</ele>
        <time>2013-05-12T08:52:43Z</time>
      </trkpt>
      <trkpt lat="45.544" lon="6.67912">
        <ele>1116.4000244141</ele>
        <time>2013-05-12T08:52:45Z</time>
      </trkpt>
      <trkpt lat="45.54398" lon="6.67914">
        <ele>1117.4000244141</ele>
        <time>2013-05-12T08:52:47Z</time>
      </trkpt>
      <trkpt lat="45.54399" lon="6.67913">
        <ele>1118</ele>
        <time>2013-05-12T08:52:49Z</time>
      </trkpt>
      <trkpt lat="45.54399" lon="6.67914">
        <ele>1118.4000244141</ele>
        <time>2013-05-12T08:52:53Z</time>
      </trkpt>
      <trkpt lat="45.54394" lon="6.67919">
        <ele>1118.4000244141</ele>
        <time>2013-05-12T08:52:57Z</time>
      </trkpt>
      <trkpt lat="45.54389" lon="6.67923">
        <ele>1118.4000244141</ele>
        <time>2013-05-12T08:53:02Z</time>
      </trkpt>
      <trkpt lat="45.54389" lon="6.67929">
        <ele>1118.4000244141</ele>
        <time>2013-05-12T08:53:05Z</time>
      </trkpt>
      <trkpt lat="45.54382" lon="6.67933">
        <ele>1118.8000488281</ele>
        <time>2013-05-12T08:53:12Z</time>
      </trkpt>
      <trkpt lat="45.5438" lon="6.67936">
        <ele>1119.4000244141</ele>
        <time>2013-05-12T08:53:14Z</time>
      </trkpt>
      <trkpt lat="45.54378" lon="6.67938">
        <ele>1120.4000244141</ele>
        <time>2013-05-12T08:53:16Z</time>
      </trkpt>
      <trkpt lat="45.54376" lon="6.67939">
        <ele>1121.4000244141</ele>
        <time>2013-05-12T08:53:18Z</time>
      </trkpt>
      <trkpt lat="45.54374" lon="6.67939">
        <ele>1122.4000244141</ele>
        <time>2013-05-12T08:53:20Z</time>
      </trkpt>
      <trkpt lat="45.54373" lon="6.67941">
        <ele>1123</ele>
        <time>2013-05-12T08:53:22Z</time>
      </trkpt>
      <trkpt lat="45.54371" lon="6.6794">
        <ele>1124</ele>
        <time>2013-05-12T08:53:24Z</time>
      </trkpt>
      <trkpt lat="45.54369" lon="6.6794">
        <ele>1124.8000488281</ele>
        <time>2013-05-12T08:53:26Z</time>
      </trkpt>
      <trkpt lat="45.54365" lon="6.67942">
        <ele>1124.8000488281</ele>
        <time>2013-05-12T08:53:30Z</time>
      </trkpt>
      <trkpt lat="45.54363" lon="6.67942">
        <ele>1125</ele>
        <time>2013-05-12T08:53:32Z</time>
      </trkpt>
      <trkpt lat="45.54361" lon="6.67943">
        <ele>1126</ele>
        <time>2013-05-12T08:53:34Z</time>
      </trkpt>
      <trkpt lat="45.54361" lon="6.67944">
        <ele>1126.8000488281</ele>
        <time>2013-05-12T08:53:36Z</time>
      </trkpt>
      <trkpt lat="45.54357" lon="6.67954">
        <ele>1126.8000488281</ele>
        <time>2013-05-12T08:53:40Z</time>
      </trkpt>
      <trkpt lat="45.54351" lon="6.67962">
        <ele>1126.8000488281</ele>
        <time>2013-05-12T08:53:49Z</time>
      </trkpt>
      <trkpt lat="45.5435" lon="6.67965">
        <ele>1126.8000488281</ele>
        <time>2013-05-12T08:53:55Z</time>
      </trkpt>
      <trkpt lat="45.54346" lon="6.67972">
        <ele>1126.8000488281</ele>
        <time>2013-05-12T08:54:01Z</time>
      </trkpt>
      <trkpt lat="45.54344" lon="6.67973">
        <ele>1126.8000488281</ele>
        <time>2013-05-12T08:54:05Z</time>
      </trkpt>
      <trkpt lat="45.54342" lon="6.67976">
        <ele>1126.8000488281</ele>
        <time>2013-05-12T08:54:10Z</time>
      </trkpt>
      <trkpt lat="45.54338" lon="6.67978">
        <ele>1126.8000488281</ele>
        <time>2013-05-12T08:54:18Z</time>
      </trkpt>
      <trkpt lat="45.54337" lon="6.67978">
        <ele>1128.4000244141</ele>
        <time>2013-05-12T08:54:25Z</time>
      </trkpt>
      <trkpt lat="45.54338" lon="6.6798">
        <ele>1129</ele>
        <time>2013-05-12T08:54:31Z</time>
      </trkpt>
      <trkpt lat="45.5434" lon="6.67975">
        <ele>1129</ele>
        <time>2013-05-12T08:54:41Z</time>
      </trkpt>
      <trkpt lat="45.54338" lon="6.67972">
        <ele>1129</ele>
        <time>2013-05-12T08:54:48Z</time>
      </trkpt>
      <trkpt lat="45.5434" lon="6.67968">
        <ele>1129</ele>
        <time>2013-05-12T08:55:02Z</time>
      </trkpt>
      <trkpt lat="45.54342" lon="6.67969">
        <ele>1129</ele>
        <time>2013-05-12T08:55:12Z</time>
      </trkpt>
      <trkpt lat="45.54342" lon="6.67969">
        <ele>1129</ele>
        <time>2013-05-12T08:55:18Z</time>
      </trkpt>
      <trkpt lat="45.54344" lon="6.6797">
        <ele>1129</ele>
        <time>2013-05-12T08:55:23Z</time>
      </trkpt>
      <trkpt lat="45.54345" lon="6.67969">
        <ele>1129</ele>
        <time>2013-05-12T08:55:36Z</time>
      </trkpt>
      <trkpt lat="45.54351" lon="6.67971">
        <ele>1129</ele>
        <time>2013-05-12T08:55:45Z</time>
      </trkpt>
      <trkpt lat="45.54354" lon="6.67972">
        <ele>1129</ele>
        <time>2013-05-12T08:55:52Z</time>
      </trkpt>
      <trkpt lat="45.54359" lon="6.67972">
        <ele>1129</ele>
        <time>2013-05-12T08:55:58Z</time>
      </trkpt>
      <trkpt lat="45.54362" lon="6.6797">
        <ele>1129.4000244141</ele>
        <time>2013-05-12T08:56:01Z</time>
      </trkpt>
      <trkpt lat="45.54365" lon="6.6797">
        <ele>1130.4000244141</ele>
        <time>2013-05-12T08:56:03Z</time>
      </trkpt>
      <trkpt lat="45.54366" lon="6.67971">
        <ele>1131</ele>
        <time>2013-05-12T08:56:05Z</time>
      </trkpt>
      <trkpt lat="45.54367" lon="6.67971">
        <ele>1131.4000244141</ele>
        <time>2013-05-12T08:56:07Z</time>
      </trkpt>
      <trkpt lat="45.54369" lon="6.6797">
        <ele>1132</ele>
        <time>2013-05-12T08:56:09Z</time>
      </trkpt>
      <trkpt lat="45.5437" lon="6.6797">
        <ele>1133</ele>
        <time>2013-05-12T08:56:11Z</time>
      </trkpt>
      <trkpt lat="45.54371" lon="6.67971">
        <ele>1133.4000244141</ele>
        <time>2013-05-12T08:56:14Z</time>
      </trkpt>
      <trkpt lat="45.54372" lon="6.67971">
        <ele>1134.4000244141</ele>
        <time>2013-05-12T08:56:16Z</time>
      </trkpt>
      <trkpt lat="45.54373" lon="6.67974">
        <ele>1135</ele>
        <time>2013-05-12T08:56:18Z</time>
      </trkpt>
      <trkpt lat="45.54376" lon="6.67978">
        <ele>1135.4000244141</ele>
        <time>2013-05-12T08:56:23Z</time>
      </trkpt>
      <trkpt lat="45.54379" lon="6.67981">
        <ele>1136</ele>
        <time>2013-05-12T08:56:27Z</time>
      </trkpt>
      <trkpt lat="45.54381" lon="6.67981">
        <ele>1137</ele>
        <time>2013-05-12T08:56:29Z</time>
      </trkpt>
      <trkpt lat="45.54386" lon="6.67985">
        <ele>1137.8000488281</ele>
        <time>2013-05-12T08:56:32Z</time>
      </trkpt>
      <trkpt lat="45.54388" lon="6.67986">
        <ele>1138.4000244141</ele>
        <time>2013-05-12T08:56:34Z</time>
      </trkpt>
      <trkpt lat="45.54389" lon="6.67989">
        <ele>1139.8000488281</ele>
        <time>2013-05-12T08:56:36Z</time>
      </trkpt>
      <trkpt lat="45.54391" lon="6.67991">
        <ele>1140.8000488281</ele>
        <time>2013-05-12T08:56:38Z</time>
      </trkpt>
      <trkpt lat="45.54392" lon="6.67994">
        <ele>1141.8000488281</ele>
        <time>2013-05-12T08:56:40Z</time>
      </trkpt>
      <trkpt lat="45.54394" lon="6.67998">
        <ele>1142.4000244141</ele>
        <time>2013-05-12T08:56:42Z</time>
      </trkpt>
      <trkpt lat="45.54394" lon="6.68001">
        <ele>1143.4000244141</ele>
        <time>2013-05-12T08:56:44Z</time>
      </trkpt>
      <trkpt lat="45.54396" lon="6.68003">
        <ele>1143.4000244141</ele>
        <time>2013-05-12T08:56:47Z</time>
      </trkpt>
      <trkpt lat="45.54401" lon="6.68006">
        <ele>1143.8000488281</ele>
        <time>2013-05-12T08:56:49Z</time>
      </trkpt>
      <trkpt lat="45.54403" lon="6.6801">
        <ele>1144.4000244141</ele>
        <time>2013-05-12T08:56:51Z</time>
      </trkpt>
      <trkpt lat="45.54405" lon="6.68011">
        <ele>1145.4000244141</ele>
        <time>2013-05-12T08:56:53Z</time>
      </trkpt>
      <trkpt lat="45.54417" lon="6.68016">
        <ele>1145.4000244141</ele>
        <time>2013-05-12T08:57:00Z</time>
      </trkpt>
      <trkpt lat="45.54429" lon="6.68024">
        <ele>1145.4000244141</ele>
        <time>2013-05-12T08:57:08Z</time>
      </trkpt>
      <trkpt lat="45.54441" lon="6.68031">
        <ele>1145.4000244141</ele>
        <time>2013-05-12T08:57:13Z</time>
      </trkpt>
      <trkpt lat="45.54446" lon="6.68035">
        <ele>1146.4000244141</ele>
        <time>2013-05-12T08:57:15Z</time>
      </trkpt>
      <trkpt lat="45.5445" lon="6.6804">
        <ele>1147</ele>
        <time>2013-05-12T08:57:17Z</time>
      </trkpt>
      <trkpt lat="45.54452" lon="6.68046">
        <ele>1147.8000488281</ele>
        <time>2013-05-12T08:57:19Z</time>
      </trkpt>
      <trkpt lat="45.54462" lon="6.68062">
        <ele>1147.8000488281</ele>
        <time>2013-05-12T08:57:24Z</time>
      </trkpt>
      <trkpt lat="45.5447" lon="6.68071">
        <ele>1147.8000488281</ele>
        <time>2013-05-12T08:57:28Z</time>
      </trkpt>
      <trkpt lat="45.54479" lon="6.68075">
        <ele>1147.8000488281</ele>
        <time>2013-05-12T08:57:32Z</time>
      </trkpt>
      <trkpt lat="45.54495" lon="6.68079">
        <ele>1147</ele>
        <time>2013-05-12T08:57:38Z</time>
      </trkpt>
      <trkpt lat="45.54499" lon="6.68083">
        <ele>1146.4000244141</ele>
        <time>2013-05-12T08:57:40Z</time>
      </trkpt>
      <trkpt lat="45.54506" lon="6.68088">
        <ele>1145.4000244141</ele>
        <time>2013-05-12T08:57:42Z</time>
      </trkpt>
      <trkpt lat="45.54508" lon="6.68091">
        <ele>1145.4000244141</ele>
        <time>2013-05-12T08:57:44Z</time>
      </trkpt>
      <trkpt lat="45.54518" lon="6.6811">
        <ele>1145.4000244141</ele>
        <time>2013-05-12T08:57:50Z</time>
      </trkpt>
      <trkpt lat="45.54522" lon="6.68125">
        <ele>1145.4000244141</ele>
        <time>2013-05-12T08:57:56Z</time>
      </trkpt>
      <trkpt lat="45.54525" lon="6.68133">
        <ele>1146</ele>
        <time>2013-05-12T08:58:00Z</time>
      </trkpt>
      <trkpt lat="45.54527" lon="6.68138">
        <ele>1147</ele>
        <time>2013-05-12T08:58:02Z</time>
      </trkpt>
      <trkpt lat="45.54531" lon="6.68146">
        <ele>1147.4000244141</ele>
        <time>2013-05-12T08:58:05Z</time>
      </trkpt>
      <trkpt lat="45.54537" lon="6.68153">
        <ele>1148</ele>
        <time>2013-05-12T08:58:08Z</time>
      </trkpt>
      <trkpt lat="45.5454" lon="6.68156">
        <ele>1149</ele>
        <time>2013-05-12T08:58:10Z</time>
      </trkpt>
      <trkpt lat="45.54542" lon="6.68161">
        <ele>1149.4000244141</ele>
        <time>2013-05-12T08:58:12Z</time>
      </trkpt>
      <trkpt lat="45.54544" lon="6.68164">
        <ele>1150</ele>
        <time>2013-05-12T08:58:15Z</time>
      </trkpt>
      <trkpt lat="45.54547" lon="6.68166">
        <ele>1150.8000488281</ele>
        <time>2013-05-12T08:58:17Z</time>
      </trkpt>
      <trkpt lat="45.54547" lon="6.68166">
        <ele>1151.8000488281</ele>
        <time>2013-05-12T08:58:19Z</time>
      </trkpt>
      <trkpt lat="45.54551" lon="6.68174">
        <ele>1151.8000488281</ele>
        <time>2013-05-12T08:58:29Z</time>
      </trkpt>
      <trkpt lat="45.54546" lon="6.68175">
        <ele>1152</ele>
        <time>2013-05-12T08:58:35Z</time>
      </trkpt>
      <trkpt lat="45.54546" lon="6.68175">
        <ele>1153</ele>
        <time>2013-05-12T08:58:37Z</time>
      </trkpt>
      <trkpt lat="45.54545" lon="6.68176">
        <ele>1153.8000488281</ele>
        <time>2013-05-12T08:58:39Z</time>
      </trkpt>
      <trkpt lat="45.54544" lon="6.68177">
        <ele>1154.4000244141</ele>
        <time>2013-05-12T08:58:42Z</time>
      </trkpt>
      <trkpt lat="45.54543" lon="6.68177">
        <ele>1155</ele>
        <time>2013-05-12T08:58:44Z</time>
      </trkpt>
      <trkpt lat="45.54541" lon="6.68177">
        <ele>1156</ele>
        <time>2013-05-12T08:58:46Z</time>
      </trkpt>
      <trkpt lat="45.54539" lon="6.68177">
        <ele>1156.8000488281</ele>
        <time>2013-05-12T08:58:49Z</time>
      </trkpt>
      <trkpt lat="45.54537" lon="6.68178">
        <ele>1157.4000244141</ele>
        <time>2013-05-12T08:58:51Z</time>
      </trkpt>
      <trkpt lat="45.54536" lon="6.68178">
        <ele>1158.4000244141</ele>
        <time>2013-05-12T08:58:53Z</time>
      </trkpt>
      <trkpt lat="45.54535" lon="6.68178">
        <ele>1159</ele>
        <time>2013-05-12T08:58:55Z</time>
      </trkpt>
      <trkpt lat="45.5453" lon="6.68178">
        <ele>1160.4000244141</ele>
        <time>2013-05-12T08:59:00Z</time>
      </trkpt>
      <trkpt lat="45.54528" lon="6.68178">
        <ele>1161</ele>
        <time>2013-05-12T08:59:02Z</time>
      </trkpt>
      <trkpt lat="45.54527" lon="6.68179">
        <ele>1162</ele>
        <time>2013-05-12T08:59:04Z</time>
      </trkpt>
      <trkpt lat="45.54523" lon="6.6818">
        <ele>1162.4000244141</ele>
        <time>2013-05-12T08:59:07Z</time>
      </trkpt>
      <trkpt lat="45.54522" lon="6.6818">
        <ele>1163.4000244141</ele>
        <time>2013-05-12T08:59:09Z</time>
      </trkpt>
      <trkpt lat="45.54521" lon="6.6818">
        <ele>1164</ele>
        <time>2013-05-12T08:59:11Z</time>
      </trkpt>
      <trkpt lat="45.54519" lon="6.6818">
        <ele>1164.4000244141</ele>
        <time>2013-05-12T08:59:13Z</time>
      </trkpt>
      <trkpt lat="45.54517" lon="6.68179">
        <ele>1165</ele>
        <time>2013-05-12T08:59:15Z</time>
      </trkpt>
      <trkpt lat="45.54516" lon="6.68178">
        <ele>1166</ele>
        <time>2013-05-12T08:59:17Z</time>
      </trkpt>
      <trkpt lat="45.54516" lon="6.68175">
        <ele>1166</ele>
        <time>2013-05-12T08:59:19Z</time>
      </trkpt>
      <trkpt lat="45.54513" lon="6.68175">
        <ele>1166.8000488281</ele>
        <time>2013-05-12T08:59:21Z</time>
      </trkpt>
      <trkpt lat="45.54512" lon="6.68174">
        <ele>1167.4000244141</ele>
        <time>2013-05-12T08:59:23Z</time>
      </trkpt>
      <trkpt lat="45.54509" lon="6.68174">
        <ele>1168.4000244141</ele>
        <time>2013-05-12T08:59:25Z</time>
      </trkpt>
      <trkpt lat="45.54508" lon="6.68174">
        <ele>1168.4000244141</ele>
        <time>2013-05-12T08:59:27Z</time>
      </trkpt>
      <trkpt lat="45.54508" lon="6.68174">
        <ele>1169.4000244141</ele>
        <time>2013-05-12T08:59:29Z</time>
      </trkpt>
      <trkpt lat="45.54508" lon="6.68174">
        <ele>1170</ele>
        <time>2013-05-12T08:59:31Z</time>
      </trkpt>
      <trkpt lat="45.54507" lon="6.68176">
        <ele>1170.4000244141</ele>
        <time>2013-05-12T08:59:34Z</time>
      </trkpt>
      <trkpt lat="45.54506" lon="6.68175">
        <ele>1171</ele>
        <time>2013-05-12T08:59:37Z</time>
      </trkpt>
      <trkpt lat="45.54503" lon="6.68175">
        <ele>1171.4000244141</ele>
        <time>2013-05-12T08:59:39Z</time>
      </trkpt>
      <trkpt lat="45.54499" lon="6.68179">
        <ele>1172.4000244141</ele>
        <time>2013-05-12T08:59:42Z</time>
      </trkpt>
      <trkpt lat="45.54496" lon="6.6818">
        <ele>1173</ele>
        <time>2013-05-12T08:59:45Z</time>
      </trkpt>
      <trkpt lat="45.54495" lon="6.6818">
        <ele>1174</ele>
        <time>2013-05-12T08:59:47Z</time>
      </trkpt>
      <trkpt lat="45.54493" lon="6.68181">
        <ele>1175</ele>
        <time>2013-05-12T08:59:49Z</time>
      </trkpt>
      <trkpt lat="45.54493" lon="6.68181">
        <ele>1175.8000488281</ele>
        <time>2013-05-12T08:59:51Z</time>
      </trkpt>
      <trkpt lat="45.54492" lon="6.68182">
        <ele>1176.4000244141</ele>
        <time>2013-05-12T08:59:53Z</time>
      </trkpt>
      <trkpt lat="45.54489" lon="6.68182">
        <ele>1177</ele>
        <time>2013-05-12T08:59:56Z</time>
      </trkpt>
      <trkpt lat="45.5449" lon="6.68182">
        <ele>1178</ele>
        <time>2013-05-12T08:59:58Z</time>
      </trkpt>
      <trkpt lat="45.54486" lon="6.68182">
        <ele>1178.4000244141</ele>
        <time>2013-05-12T09:00:00Z</time>
      </trkpt>
      <trkpt lat="45.54486" lon="6.68183">
        <ele>1178.8000488281</ele>
        <time>2013-05-12T09:00:02Z</time>
      </trkpt>
      <trkpt lat="45.54485" lon="6.68184">
        <ele>1179</ele>
        <time>2013-05-12T09:00:04Z</time>
      </trkpt>
      <trkpt lat="45.5448" lon="6.6818">
        <ele>1180.4000244141</ele>
        <time>2013-05-12T09:00:06Z</time>
      </trkpt>
      <trkpt lat="45.54479" lon="6.68179">
        <ele>1181</ele>
        <time>2013-05-12T09:00:08Z</time>
      </trkpt>
      <trkpt lat="45.54477" lon="6.6818">
        <ele>1181.4000244141</ele>
        <time>2013-05-12T09:00:11Z</time>
      </trkpt>
      <trkpt lat="45.54472" lon="6.68179">
        <ele>1182.4000244141</ele>
        <time>2013-05-12T09:00:13Z</time>
      </trkpt>
      <trkpt lat="45.54468" lon="6.68179">
        <ele>1183</ele>
        <time>2013-05-12T09:00:15Z</time>
      </trkpt>
      <trkpt lat="45.54462" lon="6.68176">
        <ele>1185</ele>
        <time>2013-05-12T09:00:19Z</time>
      </trkpt>
      <trkpt lat="45.54459" lon="6.68174">
        <ele>1185.4000244141</ele>
        <time>2013-05-12T09:00:21Z</time>
      </trkpt>
      <trkpt lat="45.54455" lon="6.68171">
        <ele>1186.4000244141</ele>
        <time>2013-05-12T09:00:23Z</time>
      </trkpt>
      <trkpt lat="45.54452" lon="6.68169">
        <ele>1187</ele>
        <time>2013-05-12T09:00:25Z</time>
      </trkpt>
      <trkpt lat="45.54449" lon="6.68168">
        <ele>1187</ele>
        <time>2013-05-12T09:00:28Z</time>
      </trkpt>
      <trkpt lat="45.54442" lon="6.68164">
        <ele>1187.8000488281</ele>
        <time>2013-05-12T09:00:33Z</time>
      </trkpt>
      <trkpt lat="45.54439" lon="6.68164">
        <ele>1188.4000244141</ele>
        <time>2013-05-12T09:00:35Z</time>
      </trkpt>
      <trkpt lat="45.54436" lon="6.68163">
        <ele>1189.4000244141</ele>
        <time>2013-05-12T09:00:37Z</time>
      </trkpt>
      <trkpt lat="45.54434" lon="6.68163">
        <ele>1190</ele>
        <time>2013-05-12T09:00:39Z</time>
      </trkpt>
      <trkpt lat="45.54431" lon="6.68163">
        <ele>1191</ele>
        <time>2013-05-12T09:00:41Z</time>
      </trkpt>
      <trkpt lat="45.54428" lon="6.68163">
        <ele>1191.4000244141</ele>
        <time>2013-05-12T09:00:43Z</time>
      </trkpt>
      <trkpt lat="45.54425" lon="6.68163">
        <ele>1191.8000488281</ele>
        <time>2013-05-12T09:00:46Z</time>
      </trkpt>
      <trkpt lat="45.54423" lon="6.68163">
        <ele>1192.8000488281</ele>
        <time>2013-05-12T09:00:48Z</time>
      </trkpt>
      <trkpt lat="45.54421" lon="6.68162">
        <ele>1193.8000488281</ele>
        <time>2013-05-12T09:00:50Z</time>
      </trkpt>
      <trkpt lat="45.54416" lon="6.68162">
        <ele>1194.4000244141</ele>
        <time>2013-05-12T09:00:54Z</time>
      </trkpt>
      <trkpt lat="45.54413" lon="6.68161">
        <ele>1194.8000488281</ele>
        <time>2013-05-12T09:00:56Z</time>
      </trkpt>
      <trkpt lat="45.54411" lon="6.68162">
        <ele>1195.4000244141</ele>
        <time>2013-05-12T09:00:58Z</time>
      </trkpt>
      <trkpt lat="45.54408" lon="6.68162">
        <ele>1196.4000244141</ele>
        <time>2013-05-12T09:01:00Z</time>
      </trkpt>
      <trkpt lat="45.54406" lon="6.68163">
        <ele>1197</ele>
        <time>2013-05-12T09:01:02Z</time>
      </trkpt>
      <trkpt lat="45.54404" lon="6.68164">
        <ele>1197.8000488281</ele>
        <time>2013-05-12T09:01:04Z</time>
      </trkpt>
      <trkpt lat="45.544" lon="6.68165">
        <ele>1198</ele>
        <time>2013-05-12T09:01:07Z</time>
      </trkpt>
      <trkpt lat="45.54399" lon="6.68164">
        <ele>1198.8000488281</ele>
        <time>2013-05-12T09:01:09Z</time>
      </trkpt>
      <trkpt lat="45.54397" lon="6.68166">
        <ele>1199.8000488281</ele>
        <time>2013-05-12T09:01:11Z</time>
      </trkpt>
      <trkpt lat="45.54394" lon="6.68168">
        <ele>1200</ele>
        <time>2013-05-12T09:01:14Z</time>
      </trkpt>
      <trkpt lat="45.54392" lon="6.68169">
        <ele>1200.8000488281</ele>
        <time>2013-05-12T09:01:16Z</time>
      </trkpt>
      <trkpt lat="45.5439" lon="6.68171">
        <ele>1201.4000244141</ele>
        <time>2013-05-12T09:01:18Z</time>
      </trkpt>
      <trkpt lat="45.54388" lon="6.68171">
        <ele>1202</ele>
        <time>2013-05-12T09:01:20Z</time>
      </trkpt>
      <trkpt lat="45.54386" lon="6.68172">
        <ele>1202.4000244141</ele>
        <time>2013-05-12T09:01:22Z</time>
      </trkpt>
      <trkpt lat="45.54383" lon="6.68173">
        <ele>1203.4000244141</ele>
        <time>2013-05-12T09:01:24Z</time>
      </trkpt>
      <trkpt lat="45.54382" lon="6.68175">
        <ele>1204</ele>
        <time>2013-05-12T09:01:26Z</time>
      </trkpt>
      <trkpt lat="45.54381" lon="6.68175">
        <ele>1204.4000244141</ele>
        <time>2013-05-12T09:01:28Z</time>
      </trkpt>
      <trkpt lat="45.54379" lon="6.68176">
        <ele>1205.4000244141</ele>
        <time>2013-05-12T09:01:30Z</time>
      </trkpt>
      <trkpt lat="45.54377" lon="6.68177">
        <ele>1206</ele>
        <time>2013-05-12T09:01:32Z</time>
      </trkpt>
      <trkpt lat="45.54376" lon="6.68178">
        <ele>1206.8000488281</ele>
        <time>2013-05-12T09:01:34Z</time>
      </trkpt>
      <trkpt lat="45.54373" lon="6.68178">
        <ele>1207.8000488281</ele>
        <time>2013-05-12T09:01:36Z</time>
      </trkpt>
      <trkpt lat="45.54368" lon="6.68178">
        <ele>1208.4000244141</ele>
        <time>2013-05-12T09:01:43Z</time>
      </trkpt>
      <trkpt lat="45.54366" lon="6.68179">
        <ele>1209</ele>
        <time>2013-05-12T09:01:45Z</time>
      </trkpt>
      <trkpt lat="45.54366" lon="6.6818">
        <ele>1210</ele>
        <time>2013-05-12T09:01:47Z</time>
      </trkpt>
      <trkpt lat="45.54364" lon="6.68181">
        <ele>1211</ele>
        <time>2013-05-12T09:01:49Z</time>
      </trkpt>
      <trkpt lat="45.54362" lon="6.68181">
        <ele>1211.8000488281</ele>
        <time>2013-05-12T09:01:51Z</time>
      </trkpt>
      <trkpt lat="45.54358" lon="6.68186">
        <ele>1212.4000244141</ele>
        <time>2013-05-12T09:01:56Z</time>
      </trkpt>
      <trkpt lat="45.54358" lon="6.68187">
        <ele>1212.8000488281</ele>
        <time>2013-05-12T09:01:58Z</time>
      </trkpt>
      <trkpt lat="45.54357" lon="6.68188">
        <ele>1213.4000244141</ele>
        <time>2013-05-12T09:02:00Z</time>
      </trkpt>
      <trkpt lat="45.54355" lon="6.6819">
        <ele>1214.4000244141</ele>
        <time>2013-05-12T09:02:02Z</time>
      </trkpt>
      <trkpt lat="45.54354" lon="6.68191">
        <ele>1215</ele>
        <time>2013-05-12T09:02:05Z</time>
      </trkpt>
      <trkpt lat="45.54353" lon="6.68191">
        <ele>1215.8000488281</ele>
        <time>2013-05-12T09:02:07Z</time>
      </trkpt>
      <trkpt lat="45.5435" lon="6.68192">
        <ele>1216.4000244141</ele>
        <time>2013-05-12T09:02:09Z</time>
      </trkpt>
      <trkpt lat="45.54343" lon="6.68193">
        <ele>1217.4000244141</ele>
        <time>2013-05-12T09:02:13Z</time>
      </trkpt>
      <trkpt lat="45.54341" lon="6.68193">
        <ele>1218</ele>
        <time>2013-05-12T09:02:15Z</time>
      </trkpt>
      <trkpt lat="45.54334" lon="6.68193">
        <ele>1218.8000488281</ele>
        <time>2013-05-12T09:02:18Z</time>
      </trkpt>
      <trkpt lat="45.5433" lon="6.68193">
        <ele>1219.4000244141</ele>
        <time>2013-05-12T09:02:20Z</time>
      </trkpt>
      <trkpt lat="45.54327" lon="6.68194">
        <ele>1220.4000244141</ele>
        <time>2013-05-12T09:02:22Z</time>
      </trkpt>
      <trkpt lat="45.54324" lon="6.68194">
        <ele>1220.4000244141</ele>
        <time>2013-05-12T09:02:24Z</time>
      </trkpt>
      <trkpt lat="45.54319" lon="6.68193">
        <ele>1220.8000488281</ele>
        <time>2013-05-12T09:02:27Z</time>
      </trkpt>
      <trkpt lat="45.54316" lon="6.68193">
        <ele>1221.4000244141</ele>
        <time>2013-05-12T09:02:29Z</time>
      </trkpt>
      <trkpt lat="45.54314" lon="6.68194">
        <ele>1221.8000488281</ele>
        <time>2013-05-12T09:02:31Z</time>
      </trkpt>
      <trkpt lat="45.54312" lon="6.68194">
        <ele>1222.4000244141</ele>
        <time>2013-05-12T09:02:33Z</time>
      </trkpt>
      <trkpt lat="45.54308" lon="6.68194">
        <ele>1223.4000244141</ele>
        <time>2013-05-12T09:02:36Z</time>
      </trkpt>
      <trkpt lat="45.54305" lon="6.68193">
        <ele>1224.4000244141</ele>
        <time>2013-05-12T09:02:38Z</time>
      </trkpt>
      <trkpt lat="45.54301" lon="6.68194">
        <ele>1225</ele>
        <time>2013-05-12T09:02:41Z</time>
      </trkpt>
      <trkpt lat="45.54297" lon="6.68195">
        <ele>1225.8000488281</ele>
        <time>2013-05-12T09:02:43Z</time>
      </trkpt>
      <trkpt lat="45.54294" lon="6.68195">
        <ele>1226.4000244141</ele>
        <time>2013-05-12T09:02:45Z</time>
      </trkpt>
      <trkpt lat="45.54292" lon="6.68195">
        <ele>1226.8000488281</ele>
        <time>2013-05-12T09:02:47Z</time>
      </trkpt>
      <trkpt lat="45.54287" lon="6.68196">
        <ele>1227.4000244141</ele>
        <time>2013-05-12T09:02:50Z</time>
      </trkpt>
      <trkpt lat="45.54283" lon="6.68197">
        <ele>1228.4000244141</ele>
        <time>2013-05-12T09:02:52Z</time>
      </trkpt>
      <trkpt lat="45.5428" lon="6.68197">
        <ele>1229</ele>
        <time>2013-05-12T09:02:54Z</time>
      </trkpt>
      <trkpt lat="45.54277" lon="6.68197">
        <ele>1230</ele>
        <time>2013-05-12T09:02:56Z</time>
      </trkpt>
      <trkpt lat="45.54274" lon="6.68197">
        <ele>1231</ele>
        <time>2013-05-12T09:02:58Z</time>
      </trkpt>
      <trkpt lat="45.5427" lon="6.68198">
        <ele>1231.8000488281</ele>
        <time>2013-05-12T09:03:00Z</time>
      </trkpt>
      <trkpt lat="45.54267" lon="6.68198">
        <ele>1232.8000488281</ele>
        <time>2013-05-12T09:03:02Z</time>
      </trkpt>
      <trkpt lat="45.54258" lon="6.68199">
        <ele>1234.8000488281</ele>
        <time>2013-05-12T09:03:06Z</time>
      </trkpt>
      <trkpt lat="45.54255" lon="6.68201">
        <ele>1235.4000244141</ele>
        <time>2013-05-12T09:03:08Z</time>
      </trkpt>
      <trkpt lat="45.54252" lon="6.68203">
        <ele>1236.4000244141</ele>
        <time>2013-05-12T09:03:11Z</time>
      </trkpt>
      <trkpt lat="45.54251" lon="6.68204">
        <ele>1237</ele>
        <time>2013-05-12T09:03:13Z</time>
      </trkpt>
      <trkpt lat="45.54245" lon="6.68209">
        <ele>1237.8000488281</ele>
        <time>2013-05-12T09:03:18Z</time>
      </trkpt>
      <trkpt lat="45.54243" lon="6.6821">
        <ele>1238.4000244141</ele>
        <time>2013-05-12T09:03:20Z</time>
      </trkpt>
      <trkpt lat="45.54241" lon="6.68211">
        <ele>1239.4000244141</ele>
        <time>2013-05-12T09:03:22Z</time>
      </trkpt>
      <trkpt lat="45.54238" lon="6.68213">
        <ele>1239.4000244141</ele>
        <time>2013-05-12T09:03:27Z</time>
      </trkpt>
      <trkpt lat="45.54238" lon="6.68214">
        <ele>1240.4000244141</ele>
        <time>2013-05-12T09:03:29Z</time>
      </trkpt>
      <trkpt lat="45.54238" lon="6.68215">
        <ele>1241.4000244141</ele>
        <time>2013-05-12T09:03:31Z</time>
      </trkpt>
      <trkpt lat="45.54234" lon="6.68216">
        <ele>1241.8000488281</ele>
        <time>2013-05-12T09:03:34Z</time>
      </trkpt>
      <trkpt lat="45.54228" lon="6.68217">
        <ele>1241.8000488281</ele>
        <time>2013-05-12T09:03:44Z</time>
      </trkpt>
      <trkpt lat="45.54226" lon="6.68218">
        <ele>1242.4000244141</ele>
        <time>2013-05-12T09:03:48Z</time>
      </trkpt>
      <trkpt lat="45.54225" lon="6.68218">
        <ele>1243.4000244141</ele>
        <time>2013-05-12T09:03:50Z</time>
      </trkpt>
      <trkpt lat="45.54223" lon="6.6822">
        <ele>1243.8000488281</ele>
        <time>2013-05-12T09:03:54Z</time>
      </trkpt>
      <trkpt lat="45.54221" lon="6.68221">
        <ele>1243.8000488281</ele>
        <time>2013-05-12T09:03:59Z</time>
      </trkpt>
      <trkpt lat="45.54221" lon="6.68221">
        <ele>1243.8000488281</ele>
        <time>2013-05-12T09:04:06Z</time>
      </trkpt>
      <trkpt lat="45.54216" lon="6.68219">
        <ele>1244</ele>
        <time>2013-05-12T09:04:11Z</time>
      </trkpt>
      <trkpt lat="45.54216" lon="6.68219">
        <ele>1244.8000488281</ele>
        <time>2013-05-12T09:04:13Z</time>
      </trkpt>
      <trkpt lat="45.54217" lon="6.68219">
        <ele>1245.4000244141</ele>
        <time>2013-05-12T09:04:15Z</time>
      </trkpt>
      <trkpt lat="45.54218" lon="6.68218">
        <ele>1245.8000488281</ele>
        <time>2013-05-12T09:04:19Z</time>
      </trkpt>
      <trkpt lat="45.54219" lon="6.6822">
        <ele>1245.8000488281</ele>
        <time>2013-05-12T09:04:27Z</time>
      </trkpt>
      <trkpt lat="45.54217" lon="6.6822">
        <ele>1245.8000488281</ele>
        <time>2013-05-12T09:04:31Z</time>
      </trkpt>
      <trkpt lat="45.54217" lon="6.68221">
        <ele>1245.8000488281</ele>
        <time>2013-05-12T09:04:38Z</time>
      </trkpt>
      <trkpt lat="45.54212" lon="6.68222">
        <ele>1245.8000488281</ele>
        <time>2013-05-12T09:04:50Z</time>
      </trkpt>
      <trkpt lat="45.54211" lon="6.68223">
        <ele>1245.8000488281</ele>
        <time>2013-05-12T09:04:58Z</time>
      </trkpt>
      <trkpt lat="45.54209" lon="6.68222">
        <ele>1245.8000488281</ele>
        <time>2013-05-12T09:05:03Z</time>
      </trkpt>
      <trkpt lat="45.54207" lon="6.68221">
        <ele>1245.8000488281</ele>
        <time>2013-05-12T09:05:08Z</time>
      </trkpt>
      <trkpt lat="45.54201" lon="6.68218">
        <ele>1246.4000244141</ele>
        <time>2013-05-12T09:05:14Z</time>
      </trkpt>
      <trkpt lat="45.54199" lon="6.68217">
        <ele>1247</ele>
        <time>2013-05-12T09:05:16Z</time>
      </trkpt>
      <trkpt lat="45.54197" lon="6.68215">
        <ele>1247.8000488281</ele>
        <time>2013-05-12T09:05:18Z</time>
      </trkpt>
      <trkpt lat="45.54193" lon="6.68211">
        <ele>1248.4000244141</ele>
        <time>2013-05-12T09:05:22Z</time>
      </trkpt>
      <trkpt lat="45.54191" lon="6.68209">
        <ele>1249</ele>
        <time>2013-05-12T09:05:24Z</time>
      </trkpt>
      <trkpt lat="45.5419" lon="6.68208">
        <ele>1249.8000488281</ele>
        <time>2013-05-12T09:05:26Z</time>
      </trkpt>
      <trkpt lat="45.54183" lon="6.68203">
        <ele>1249.8000488281</ele>
        <time>2013-05-12T09:05:32Z</time>
      </trkpt>
      <trkpt lat="45.54178" lon="6.682">
        <ele>1251.4000244141</ele>
        <time>2013-05-12T09:05:36Z</time>
      </trkpt>
      <trkpt lat="45.54175" lon="6.68197">
        <ele>1252</ele>
        <time>2013-05-12T09:05:40Z</time>
      </trkpt>
      <trkpt lat="45.54171" lon="6.68197">
        <ele>1252.8000488281</ele>
        <time>2013-05-12T09:05:44Z</time>
      </trkpt>
      <trkpt lat="45.54169" lon="6.68196">
        <ele>1253.4000244141</ele>
        <time>2013-05-12T09:05:46Z</time>
      </trkpt>
      <trkpt lat="45.54166" lon="6.68195">
        <ele>1254</ele>
        <time>2013-05-12T09:05:48Z</time>
      </trkpt>
      <trkpt lat="45.54161" lon="6.68194">
        <ele>1254.8000488281</ele>
        <time>2013-05-12T09:05:53Z</time>
      </trkpt>
      <trkpt lat="45.54159" lon="6.68193">
        <ele>1255.4000244141</ele>
        <time>2013-05-12T09:05:55Z</time>
      </trkpt>
      <trkpt lat="45.54157" lon="6.68193">
        <ele>1256</ele>
        <time>2013-05-12T09:05:57Z</time>
      </trkpt>
      <trkpt lat="45.54155" lon="6.68192">
        <ele>1256.4000244141</ele>
        <time>2013-05-12T09:05:59Z</time>
      </trkpt>
      <trkpt lat="45.54154" lon="6.68191">
        <ele>1257</ele>
        <time>2013-05-12T09:06:01Z</time>
      </trkpt>
      <trkpt lat="45.54152" lon="6.6819">
        <ele>1258</ele>
        <time>2013-05-12T09:06:03Z</time>
      </trkpt>
      <trkpt lat="45.54149" lon="6.68188">
        <ele>1258</ele>
        <time>2013-05-12T09:06:06Z</time>
      </trkpt>
      <trkpt lat="45.54145" lon="6.68184">
        <ele>1258</ele>
        <time>2013-05-12T09:06:12Z</time>
      </trkpt>
      <trkpt lat="45.54144" lon="6.68183">
        <ele>1259</ele>
        <time>2013-05-12T09:06:14Z</time>
      </trkpt>
      <trkpt lat="45.54143" lon="6.68184">
        <ele>1260</ele>
        <time>2013-05-12T09:06:16Z</time>
      </trkpt>
      <trkpt lat="45.54143" lon="6.68187">
        <ele>1260</ele>
        <time>2013-05-12T09:06:19Z</time>
      </trkpt>
      <trkpt lat="45.54145" lon="6.68193">
        <ele>1260.4000244141</ele>
        <time>2013-05-12T09:06:23Z</time>
      </trkpt>
      <trkpt lat="45.54145" lon="6.68195">
        <ele>1261.4000244141</ele>
        <time>2013-05-12T09:06:25Z</time>
      </trkpt>
      <trkpt lat="45.54147" lon="6.68197">
        <ele>1262</ele>
        <time>2013-05-12T09:06:27Z</time>
      </trkpt>
      <trkpt lat="45.5415" lon="6.682">
        <ele>1262.4000244141</ele>
        <time>2013-05-12T09:06:30Z</time>
      </trkpt>
      <trkpt lat="45.54153" lon="6.68202">
        <ele>1263.4000244141</ele>
        <time>2013-05-12T09:06:32Z</time>
      </trkpt>
      <trkpt lat="45.54154" lon="6.68206">
        <ele>1264.4000244141</ele>
        <time>2013-05-12T09:06:34Z</time>
      </trkpt>
      <trkpt lat="45.54156" lon="6.68209">
        <ele>1264.4000244141</ele>
        <time>2013-05-12T09:06:36Z</time>
      </trkpt>
      <trkpt lat="45.54159" lon="6.68213">
        <ele>1265.4000244141</ele>
        <time>2013-05-12T09:06:38Z</time>
      </trkpt>
      <trkpt lat="45.54161" lon="6.68219">
        <ele>1266</ele>
        <time>2013-05-12T09:06:40Z</time>
      </trkpt>
      <trkpt lat="45.54162" lon="6.68228">
        <ele>1266.8000488281</ele>
        <time>2013-05-12T09:06:43Z</time>
      </trkpt>
      <trkpt lat="45.54164" lon="6.68232">
        <ele>1266.8000488281</ele>
        <time>2013-05-12T09:06:45Z</time>
      </trkpt>
      <trkpt lat="45.54167" lon="6.68237">
        <ele>1267</ele>
        <time>2013-05-12T09:06:48Z</time>
      </trkpt>
      <trkpt lat="45.54168" lon="6.6824">
        <ele>1268</ele>
        <time>2013-05-12T09:06:50Z</time>
      </trkpt>
      <trkpt lat="45.5417" lon="6.68244">
        <ele>1269</ele>
        <time>2013-05-12T09:06:52Z</time>
      </trkpt>
      <trkpt lat="45.54173" lon="6.68251">
        <ele>1269</ele>
        <time>2013-05-12T09:06:56Z</time>
      </trkpt>
      <trkpt lat="45.54174" lon="6.68253">
        <ele>1270</ele>
        <time>2013-05-12T09:06:58Z</time>
      </trkpt>
      <trkpt lat="45.54174" lon="6.68253">
        <ele>1270.8000488281</ele>
        <time>2013-05-12T09:07:00Z</time>
      </trkpt>
      <trkpt lat="45.54176" lon="6.68255">
        <ele>1271</ele>
        <time>2013-05-12T09:07:03Z</time>
      </trkpt>
      <trkpt lat="45.54179" lon="6.68259">
        <ele>1271</ele>
        <time>2013-05-12T09:07:06Z</time>
      </trkpt>
      <trkpt lat="45.5418" lon="6.68263">
        <ele>1272.4000244141</ele>
        <time>2013-05-12T09:07:13Z</time>
      </trkpt>
      <trkpt lat="45.54181" lon="6.68264">
        <ele>1273</ele>
        <time>2013-05-12T09:07:15Z</time>
      </trkpt>
      <trkpt lat="45.54178" lon="6.68261">
        <ele>1273.4000244141</ele>
        <time>2013-05-12T09:07:21Z</time>
      </trkpt>
      <trkpt lat="45.54177" lon="6.6826">
        <ele>1274.4000244141</ele>
        <time>2013-05-12T09:07:23Z</time>
      </trkpt>
      <trkpt lat="45.54176" lon="6.68261">
        <ele>1275</ele>
        <time>2013-05-12T09:07:25Z</time>
      </trkpt>
      <trkpt lat="45.54168" lon="6.68255">
        <ele>1275.4000244141</ele>
        <time>2013-05-12T09:07:32Z</time>
      </trkpt>
      <trkpt lat="45.54167" lon="6.68254">
        <ele>1276.4000244141</ele>
        <time>2013-05-12T09:07:34Z</time>
      </trkpt>
      <trkpt lat="45.54167" lon="6.68256">
        <ele>1277.4000244141</ele>
        <time>2013-05-12T09:07:36Z</time>
      </trkpt>
      <trkpt lat="45.54169" lon="6.68263">
        <ele>1278.4000244141</ele>
        <time>2013-05-12T09:07:40Z</time>
      </trkpt>
      <trkpt lat="45.5417" lon="6.68265">
        <ele>1279.4000244141</ele>
        <time>2013-05-12T09:07:42Z</time>
      </trkpt>
      <trkpt lat="45.54171" lon="6.68269">
        <ele>1280.8000488281</ele>
        <time>2013-05-12T09:07:44Z</time>
      </trkpt>
      <trkpt lat="45.54172" lon="6.68271">
        <ele>1281.8000488281</ele>
        <time>2013-05-12T09:07:46Z</time>
      </trkpt>
      <trkpt lat="45.54173" lon="6.68276">
        <ele>1281.8000488281</ele>
        <time>2013-05-12T09:07:48Z</time>
      </trkpt>
      <trkpt lat="45.54175" lon="6.68278">
        <ele>1282.4000244141</ele>
        <time>2013-05-12T09:07:50Z</time>
      </trkpt>
      <trkpt lat="45.54173" lon="6.68279">
        <ele>1283.4000244141</ele>
        <time>2013-05-12T09:07:52Z</time>
      </trkpt>
      <trkpt lat="45.5417" lon="6.68277">
        <ele>1284</ele>
        <time>2013-05-12T09:07:56Z</time>
      </trkpt>
      <trkpt lat="45.54166" lon="6.68275">
        <ele>1284.8000488281</ele>
        <time>2013-05-12T09:07:58Z</time>
      </trkpt>
      <trkpt lat="45.54163" lon="6.68274">
        <ele>1285.8000488281</ele>
        <time>2013-05-12T09:08:00Z</time>
      </trkpt>
      <trkpt lat="45.54161" lon="6.68271">
        <ele>1286</ele>
        <time>2013-05-12T09:08:02Z</time>
      </trkpt>
      <trkpt lat="45.54161" lon="6.68266">
        <ele>1286.8000488281</ele>
        <time>2013-05-12T09:08:04Z</time>
      </trkpt>
      <trkpt lat="45.54157" lon="6.68264">
        <ele>1287.4000244141</ele>
        <time>2013-05-12T09:08:06Z</time>
      </trkpt>
      <trkpt lat="45.54153" lon="6.68262">
        <ele>1288</ele>
        <time>2013-05-12T09:08:09Z</time>
      </trkpt>
      <trkpt lat="45.54152" lon="6.68259">
        <ele>1289</ele>
        <time>2013-05-12T09:08:11Z</time>
      </trkpt>
      <trkpt lat="45.54149" lon="6.68258">
        <ele>1289.4000244141</ele>
        <time>2013-05-12T09:08:13Z</time>
      </trkpt>
      <trkpt lat="45.54146" lon="6.68257">
        <ele>1290</ele>
        <time>2013-05-12T09:08:15Z</time>
      </trkpt>
      <trkpt lat="45.5414" lon="6.68256">
        <ele>1290.4000244141</ele>
        <time>2013-05-12T09:08:20Z</time>
      </trkpt>
      <trkpt lat="45.54138" lon="6.68255">
        <ele>1291</ele>
        <time>2013-05-12T09:08:22Z</time>
      </trkpt>
      <trkpt lat="45.54135" lon="6.68253">
        <ele>1292</ele>
        <time>2013-05-12T09:08:24Z</time>
      </trkpt>
      <trkpt lat="45.54129" lon="6.68249">
        <ele>1292.4000244141</ele>
        <time>2013-05-12T09:08:29Z</time>
      </trkpt>
      <trkpt lat="45.54126" lon="6.68247">
        <ele>1293</ele>
        <time>2013-05-12T09:08:31Z</time>
      </trkpt>
      <trkpt lat="45.54123" lon="6.68245">
        <ele>1294</ele>
        <time>2013-05-12T09:08:33Z</time>
      </trkpt>
      <trkpt lat="45.54117" lon="6.68243">
        <ele>1294.8000488281</ele>
        <time>2013-05-12T09:08:38Z</time>
      </trkpt>
      <trkpt lat="45.54116" lon="6.68243">
        <ele>1295.4000244141</ele>
        <time>2013-05-12T09:08:40Z</time>
      </trkpt>
      <trkpt lat="45.54115" lon="6.68244">
        <ele>1296</ele>
        <time>2013-05-12T09:08:42Z</time>
      </trkpt>
      <trkpt lat="45.54115" lon="6.68247">
        <ele>1296.8000488281</ele>
        <time>2013-05-12T09:08:45Z</time>
      </trkpt>
      <trkpt lat="45.54115" lon="6.68253">
        <ele>1298</ele>
        <time>2013-05-12T09:08:49Z</time>
      </trkpt>
      <trkpt lat="45.54116" lon="6.68258">
        <ele>1298.4000244141</ele>
        <time>2013-05-12T09:08:54Z</time>
      </trkpt>
      <trkpt lat="45.54117" lon="6.68259">
        <ele>1299</ele>
        <time>2013-05-12T09:08:56Z</time>
      </trkpt>
      <trkpt lat="45.5412" lon="6.68262">
        <ele>1300</ele>
        <time>2013-05-12T09:08:58Z</time>
      </trkpt>
      <trkpt lat="45.54123" lon="6.68263">
        <ele>1300.4000244141</ele>
        <time>2013-05-12T09:09:00Z</time>
      </trkpt>
      <trkpt lat="45.54126" lon="6.68266">
        <ele>1301.4000244141</ele>
        <time>2013-05-12T09:09:02Z</time>
      </trkpt>
      <trkpt lat="45.54129" lon="6.6827">
        <ele>1302.4000244141</ele>
        <time>2013-05-12T09:09:04Z</time>
      </trkpt>
      <trkpt lat="45.54128" lon="6.68275">
        <ele>1302.4000244141</ele>
        <time>2013-05-12T09:09:06Z</time>
      </trkpt>
      <trkpt lat="45.54121" lon="6.68275">
        <ele>1302.4000244141</ele>
        <time>2013-05-12T09:09:15Z</time>
      </trkpt>
      <trkpt lat="45.54118" lon="6.68275">
        <ele>1303</ele>
        <time>2013-05-12T09:09:18Z</time>
      </trkpt>
      <trkpt lat="45.54116" lon="6.68275">
        <ele>1304</ele>
        <time>2013-05-12T09:09:20Z</time>
      </trkpt>
      <trkpt lat="45.54114" lon="6.68274">
        <ele>1304.8000488281</ele>
        <time>2013-05-12T09:09:22Z</time>
      </trkpt>
      <trkpt lat="45.54109" lon="6.68274">
        <ele>1304.8000488281</ele>
        <time>2013-05-12T09:09:28Z</time>
      </trkpt>
      <trkpt lat="45.54111" lon="6.68278">
        <ele>1305.4000244141</ele>
        <time>2013-05-12T09:09:33Z</time>
      </trkpt>
      <trkpt lat="45.54111" lon="6.6828">
        <ele>1306.4000244141</ele>
        <time>2013-05-12T09:09:35Z</time>
      </trkpt>
      <trkpt lat="45.54113" lon="6.68283">
        <ele>1306.8000488281</ele>
        <time>2013-05-12T09:09:38Z</time>
      </trkpt>
      <trkpt lat="45.54116" lon="6.68289">
        <ele>1307</ele>
        <time>2013-05-12T09:09:44Z</time>
      </trkpt>
      <trkpt lat="45.54116" lon="6.68292">
        <ele>1307.8000488281</ele>
        <time>2013-05-12T09:09:46Z</time>
      </trkpt>
      <trkpt lat="45.54118" lon="6.68294">
        <ele>1308.8000488281</ele>
        <time>2013-05-12T09:09:48Z</time>
      </trkpt>
      <trkpt lat="45.5412" lon="6.68298">
        <ele>1308.8000488281</ele>
        <time>2013-05-12T09:09:51Z</time>
      </trkpt>
      <trkpt lat="45.54121" lon="6.68302">
        <ele>1309</ele>
        <time>2013-05-12T09:09:54Z</time>
      </trkpt>
      <trkpt lat="45.54121" lon="6.68303">
        <ele>1309.8000488281</ele>
        <time>2013-05-12T09:09:56Z</time>
      </trkpt>
      <trkpt lat="45.5412" lon="6.68303">
        <ele>1310.8000488281</ele>
        <time>2013-05-12T09:09:58Z</time>
      </trkpt>
      <trkpt lat="45.54119" lon="6.68302">
        <ele>1311.4000244141</ele>
        <time>2013-05-12T09:10:00Z</time>
      </trkpt>
      <trkpt lat="45.54119" lon="6.68302">
        <ele>1312</ele>
        <time>2013-05-12T09:10:02Z</time>
      </trkpt>
      <trkpt lat="45.54117" lon="6.683">
        <ele>1313</ele>
        <time>2013-05-12T09:10:04Z</time>
      </trkpt>
      <trkpt lat="45.54114" lon="6.683">
        <ele>1313.4000244141</ele>
        <time>2013-05-12T09:10:10Z</time>
      </trkpt>
      <trkpt lat="45.54115" lon="6.68302">
        <ele>1314.4000244141</ele>
        <time>2013-05-12T09:10:12Z</time>
      </trkpt>
      <trkpt lat="45.54115" lon="6.68305">
        <ele>1315</ele>
        <time>2013-05-12T09:10:14Z</time>
      </trkpt>
      <trkpt lat="45.54118" lon="6.68309">
        <ele>1315</ele>
        <time>2013-05-12T09:10:19Z</time>
      </trkpt>
      <trkpt lat="45.54118" lon="6.6831">
        <ele>1316</ele>
        <time>2013-05-12T09:10:21Z</time>
      </trkpt>
      <trkpt lat="45.54116" lon="6.68309">
        <ele>1316.8000488281</ele>
        <time>2013-05-12T09:10:23Z</time>
      </trkpt>
      <trkpt lat="45.54115" lon="6.68308">
        <ele>1317</ele>
        <time>2013-05-12T09:10:25Z</time>
      </trkpt>
      <trkpt lat="45.54115" lon="6.68307">
        <ele>1318</ele>
        <time>2013-05-12T09:10:27Z</time>
      </trkpt>
      <trkpt lat="45.54116" lon="6.6831">
        <ele>1318.8000488281</ele>
        <time>2013-05-12T09:10:29Z</time>
      </trkpt>
      <trkpt lat="45.54116" lon="6.68323">
        <ele>1319.4000244141</ele>
        <time>2013-05-12T09:10:34Z</time>
      </trkpt>
      <trkpt lat="45.54117" lon="6.68329">
        <ele>1320.4000244141</ele>
        <time>2013-05-12T09:10:36Z</time>
      </trkpt>
      <trkpt lat="45.54119" lon="6.68334">
        <ele>1321.4000244141</ele>
        <time>2013-05-12T09:10:38Z</time>
      </trkpt>
      <trkpt lat="45.54122" lon="6.6834">
        <ele>1321.4000244141</ele>
        <time>2013-05-12T09:10:42Z</time>
      </trkpt>
      <trkpt lat="45.54126" lon="6.68346">
        <ele>1321.4000244141</ele>
        <time>2013-05-12T09:10:46Z</time>
      </trkpt>
      <trkpt lat="45.5413" lon="6.68352">
        <ele>1321.8000488281</ele>
        <time>2013-05-12T09:10:51Z</time>
      </trkpt>
      <trkpt lat="45.54132" lon="6.68354">
        <ele>1322.8000488281</ele>
        <time>2013-05-12T09:10:53Z</time>
      </trkpt>
      <trkpt lat="45.54132" lon="6.68355">
        <ele>1323.4000244141</ele>
        <time>2013-05-12T09:10:55Z</time>
      </trkpt>
      <trkpt lat="45.54134" lon="6.68357">
        <ele>1323.8000488281</ele>
        <time>2013-05-12T09:10:57Z</time>
      </trkpt>
      <trkpt lat="45.54136" lon="6.68359">
        <ele>1324.8000488281</ele>
        <time>2013-05-12T09:10:59Z</time>
      </trkpt>
      <trkpt lat="45.54136" lon="6.6836">
        <ele>1325.8000488281</ele>
        <time>2013-05-12T09:11:01Z</time>
      </trkpt>
      <trkpt lat="45.54135" lon="6.68361">
        <ele>1326</ele>
        <time>2013-05-12T09:11:03Z</time>
      </trkpt>
      <trkpt lat="45.54135" lon="6.68364">
        <ele>1326.8000488281</ele>
        <time>2013-05-12T09:11:07Z</time>
      </trkpt>
      <trkpt lat="45.54136" lon="6.68367">
        <ele>1327.4000244141</ele>
        <time>2013-05-12T09:11:09Z</time>
      </trkpt>
      <trkpt lat="45.54138" lon="6.6837">
        <ele>1328</ele>
        <time>2013-05-12T09:11:13Z</time>
      </trkpt>
      <trkpt lat="45.54139" lon="6.68374">
        <ele>1328.4000244141</ele>
        <time>2013-05-12T09:11:17Z</time>
      </trkpt>
      <trkpt lat="45.54139" lon="6.68375">
        <ele>1329.4000244141</ele>
        <time>2013-05-12T09:11:19Z</time>
      </trkpt>
      <trkpt lat="45.54138" lon="6.68374">
        <ele>1330</ele>
        <time>2013-05-12T09:11:21Z</time>
      </trkpt>
      <trkpt lat="45.54135" lon="6.68373">
        <ele>1330.4000244141</ele>
        <time>2013-05-12T09:11:27Z</time>
      </trkpt>
      <trkpt lat="45.54134" lon="6.68371">
        <ele>1331</ele>
        <time>2013-05-12T09:11:29Z</time>
      </trkpt>
      <trkpt lat="45.54132" lon="6.6837">
        <ele>1332</ele>
        <time>2013-05-12T09:11:31Z</time>
      </trkpt>
      <trkpt lat="45.5413" lon="6.68368">
        <ele>1332</ele>
        <time>2013-05-12T09:11:34Z</time>
      </trkpt>
      <trkpt lat="45.54127" lon="6.68367">
        <ele>1332.4000244141</ele>
        <time>2013-05-12T09:11:38Z</time>
      </trkpt>
      <trkpt lat="45.54125" lon="6.68367">
        <ele>1333.4000244141</ele>
        <time>2013-05-12T09:11:40Z</time>
      </trkpt>
      <trkpt lat="45.54123" lon="6.68367">
        <ele>1334</ele>
        <time>2013-05-12T09:11:42Z</time>
      </trkpt>
      <trkpt lat="45.54123" lon="6.68372">
        <ele>1334</ele>
        <time>2013-05-12T09:11:49Z</time>
      </trkpt>
      <trkpt lat="45.54123" lon="6.68374">
        <ele>1335</ele>
        <time>2013-05-12T09:11:51Z</time>
      </trkpt>
      <trkpt lat="45.54123" lon="6.68377">
        <ele>1335.8000488281</ele>
        <time>2013-05-12T09:11:53Z</time>
      </trkpt>
      <trkpt lat="45.54125" lon="6.6838">
        <ele>1336.4000244141</ele>
        <time>2013-05-12T09:11:55Z</time>
      </trkpt>
      <trkpt lat="45.54122" lon="6.68381">
        <ele>1336.8000488281</ele>
        <time>2013-05-12T09:12:03Z</time>
      </trkpt>
      <trkpt lat="45.54121" lon="6.6838">
        <ele>1337.4000244141</ele>
        <time>2013-05-12T09:12:05Z</time>
      </trkpt>
      <trkpt lat="45.54119" lon="6.68379">
        <ele>1338.4000244141</ele>
        <time>2013-05-12T09:12:07Z</time>
      </trkpt>
      <trkpt lat="45.54117" lon="6.68378">
        <ele>1338.4000244141</ele>
        <time>2013-05-12T09:12:10Z</time>
      </trkpt>
      <trkpt lat="45.54117" lon="6.68378">
        <ele>1339.4000244141</ele>
        <time>2013-05-12T09:12:12Z</time>
      </trkpt>
      <trkpt lat="45.54115" lon="6.68377">
        <ele>1340.4000244141</ele>
        <time>2013-05-12T09:12:14Z</time>
      </trkpt>
      <trkpt lat="45.54114" lon="6.6838">
        <ele>1341.4000244141</ele>
        <time>2013-05-12T09:12:20Z</time>
      </trkpt>
      <trkpt lat="45.54113" lon="6.68383">
        <ele>1342</ele>
        <time>2013-05-12T09:12:22Z</time>
      </trkpt>
      <trkpt lat="45.54113" lon="6.68385">
        <ele>1342.8000488281</ele>
        <time>2013-05-12T09:12:24Z</time>
      </trkpt>
      <trkpt lat="45.54108" lon="6.68383">
        <ele>1343</ele>
        <time>2013-05-12T09:12:29Z</time>
      </trkpt>
      <trkpt lat="45.54106" lon="6.68382">
        <ele>1344</ele>
        <time>2013-05-12T09:12:31Z</time>
      </trkpt>
      <trkpt lat="45.54106" lon="6.68383">
        <ele>1344.8000488281</ele>
        <time>2013-05-12T09:12:33Z</time>
      </trkpt>
      <trkpt lat="45.54108" lon="6.68387">
        <ele>1344.8000488281</ele>
        <time>2013-05-12T09:12:38Z</time>
      </trkpt>
      <trkpt lat="45.54111" lon="6.68392">
        <ele>1345.4000244141</ele>
        <time>2013-05-12T09:12:41Z</time>
      </trkpt>
      <trkpt lat="45.54114" lon="6.68396">
        <ele>1346</ele>
        <time>2013-05-12T09:12:43Z</time>
      </trkpt>
      <trkpt lat="45.54115" lon="6.68399">
        <ele>1346.8000488281</ele>
        <time>2013-05-12T09:12:45Z</time>
      </trkpt>
      <trkpt lat="45.54118" lon="6.68402">
        <ele>1347.4000244141</ele>
        <time>2013-05-12T09:12:48Z</time>
      </trkpt>
      <trkpt lat="45.54119" lon="6.68406">
        <ele>1348.4000244141</ele>
        <time>2013-05-12T09:12:50Z</time>
      </trkpt>
      <trkpt lat="45.54121" lon="6.68409">
        <ele>1349</ele>
        <time>2013-05-12T09:12:52Z</time>
      </trkpt>
      <trkpt lat="45.54123" lon="6.68414">
        <ele>1349.4000244141</ele>
        <time>2013-05-12T09:12:55Z</time>
      </trkpt>
      <trkpt lat="45.54124" lon="6.68416">
        <ele>1350.4000244141</ele>
        <time>2013-05-12T09:12:57Z</time>
      </trkpt>
      <trkpt lat="45.54124" lon="6.68417">
        <ele>1351</ele>
        <time>2013-05-12T09:12:59Z</time>
      </trkpt>
      <trkpt lat="45.54122" lon="6.68415">
        <ele>1352</ele>
        <time>2013-05-12T09:13:04Z</time>
      </trkpt>
      <trkpt lat="45.54121" lon="6.68413">
        <ele>1352.8000488281</ele>
        <time>2013-05-12T09:13:06Z</time>
      </trkpt>
      <trkpt lat="45.54118" lon="6.68412">
        <ele>1353.8000488281</ele>
        <time>2013-05-12T09:13:08Z</time>
      </trkpt>
      <trkpt lat="45.54114" lon="6.68413">
        <ele>1354.4000244141</ele>
        <time>2013-05-12T09:13:10Z</time>
      </trkpt>
      <trkpt lat="45.54109" lon="6.68413">
        <ele>1355.4000244141</ele>
        <time>2013-05-12T09:13:12Z</time>
      </trkpt>
      <trkpt lat="45.54107" lon="6.68413">
        <ele>1356.4000244141</ele>
        <time>2013-05-12T09:13:14Z</time>
      </trkpt>
      <trkpt lat="45.54104" lon="6.68411">
        <ele>1357.4000244141</ele>
        <time>2013-05-12T09:13:16Z</time>
      </trkpt>
      <trkpt lat="45.54102" lon="6.68412">
        <ele>1358.4000244141</ele>
        <time>2013-05-12T09:13:18Z</time>
      </trkpt>
      <trkpt lat="45.54099" lon="6.6841">
        <ele>1359</ele>
        <time>2013-05-12T09:13:20Z</time>
      </trkpt>
      <trkpt lat="45.54098" lon="6.68409">
        <ele>1360</ele>
        <time>2013-05-12T09:13:22Z</time>
      </trkpt>
      <trkpt lat="45.54097" lon="6.68409">
        <ele>1361</ele>
        <time>2013-05-12T09:13:24Z</time>
      </trkpt>
      <trkpt lat="45.54097" lon="6.68409">
        <ele>1361.8000488281</ele>
        <time>2013-05-12T09:13:28Z</time>
      </trkpt>
      <trkpt lat="45.54087" lon="6.68405">
        <ele>1362</ele>
        <time>2013-05-12T09:13:38Z</time>
      </trkpt>
      <trkpt lat="45.54085" lon="6.68404">
        <ele>1362.8000488281</ele>
        <time>2013-05-12T09:13:40Z</time>
      </trkpt>
      <trkpt lat="45.54083" lon="6.68403">
        <ele>1363.4000244141</ele>
        <time>2013-05-12T09:13:42Z</time>
      </trkpt>
      <trkpt lat="45.5408" lon="6.68403">
        <ele>1363.8000488281</ele>
        <time>2013-05-12T09:13:46Z</time>
      </trkpt>
      <trkpt lat="45.54078" lon="6.68403">
        <ele>1364.8000488281</ele>
        <time>2013-05-12T09:13:50Z</time>
      </trkpt>
      <trkpt lat="45.54078" lon="6.68405">
        <ele>1365.4000244141</ele>
        <time>2013-05-12T09:13:52Z</time>
      </trkpt>
      <trkpt lat="45.54079" lon="6.68406">
        <ele>1366.4000244141</ele>
        <time>2013-05-12T09:13:54Z</time>
      </trkpt>
      <trkpt lat="45.54078" lon="6.68414">
        <ele>1367.8000488281</ele>
        <time>2013-05-12T09:14:03Z</time>
      </trkpt>
      <trkpt lat="45.54079" lon="6.68415">
        <ele>1368.4000244141</ele>
        <time>2013-05-12T09:14:05Z</time>
      </trkpt>
      <trkpt lat="45.54079" lon="6.68415">
        <ele>1369.4000244141</ele>
        <time>2013-05-12T09:14:07Z</time>
      </trkpt>
      <trkpt lat="45.5408" lon="6.68419">
        <ele>1369.8000488281</ele>
        <time>2013-05-12T09:14:09Z</time>
      </trkpt>
      <trkpt lat="45.54083" lon="6.68423">
        <ele>1370.8000488281</ele>
        <time>2013-05-12T09:14:14Z</time>
      </trkpt>
      <trkpt lat="45.54084" lon="6.68425">
        <ele>1371.4000244141</ele>
        <time>2013-05-12T09:14:16Z</time>
      </trkpt>
      <trkpt lat="45.54084" lon="6.68427">
        <ele>1372</ele>
        <time>2013-05-12T09:14:18Z</time>
      </trkpt>
      <trkpt lat="45.54085" lon="6.6843">
        <ele>1372.4000244141</ele>
        <time>2013-05-12T09:14:21Z</time>
      </trkpt>
      <trkpt lat="45.54086" lon="6.68432">
        <ele>1373</ele>
        <time>2013-05-12T09:14:23Z</time>
      </trkpt>
      <trkpt lat="45.54088" lon="6.68433">
        <ele>1374</ele>
        <time>2013-05-12T09:14:25Z</time>
      </trkpt>
      <trkpt lat="45.54089" lon="6.68435">
        <ele>1374.4000244141</ele>
        <time>2013-05-12T09:14:27Z</time>
      </trkpt>
      <trkpt lat="45.54088" lon="6.68435">
        <ele>1375.4000244141</ele>
        <time>2013-05-12T09:14:29Z</time>
      </trkpt>
      <trkpt lat="45.54087" lon="6.68435">
        <ele>1376</ele>
        <time>2013-05-12T09:14:31Z</time>
      </trkpt>
      <trkpt lat="45.54085" lon="6.68434">
        <ele>1376.4000244141</ele>
        <time>2013-05-12T09:14:34Z</time>
      </trkpt>
      <trkpt lat="45.54084" lon="6.68434">
        <ele>1377.4000244141</ele>
        <time>2013-05-12T09:14:36Z</time>
      </trkpt>
      <trkpt lat="45.54084" lon="6.68435">
        <ele>1378.4000244141</ele>
        <time>2013-05-12T09:14:38Z</time>
      </trkpt>
      <trkpt lat="45.54083" lon="6.68439">
        <ele>1378.4000244141</ele>
        <time>2013-05-12T09:14:44Z</time>
      </trkpt>
      <trkpt lat="45.54083" lon="6.6844">
        <ele>1379</ele>
        <time>2013-05-12T09:14:46Z</time>
      </trkpt>
      <trkpt lat="45.54082" lon="6.68442">
        <ele>1380</ele>
        <time>2013-05-12T09:14:48Z</time>
      </trkpt>
      <trkpt lat="45.54081" lon="6.68444">
        <ele>1380.4000244141</ele>
        <time>2013-05-12T09:14:51Z</time>
      </trkpt>
      <trkpt lat="45.5408" lon="6.68446">
        <ele>1381</ele>
        <time>2013-05-12T09:14:54Z</time>
      </trkpt>
      <trkpt lat="45.54078" lon="6.68445">
        <ele>1382</ele>
        <time>2013-05-12T09:14:56Z</time>
      </trkpt>
      <trkpt lat="45.54078" lon="6.68446">
        <ele>1382.8000488281</ele>
        <time>2013-05-12T09:14:58Z</time>
      </trkpt>
      <trkpt lat="45.54075" lon="6.68447">
        <ele>1383.4000244141</ele>
        <time>2013-05-12T09:15:02Z</time>
      </trkpt>
      <trkpt lat="45.54076" lon="6.68446">
        <ele>1384</ele>
        <time>2013-05-12T09:15:04Z</time>
      </trkpt>
      <trkpt lat="45.54077" lon="6.68445">
        <ele>1384.8000488281</ele>
        <time>2013-05-12T09:15:06Z</time>
      </trkpt>
      <trkpt lat="45.54077" lon="6.68445">
        <ele>1385</ele>
        <time>2013-05-12T09:15:08Z</time>
      </trkpt>
      <trkpt lat="45.54078" lon="6.68444">
        <ele>1385.8000488281</ele>
        <time>2013-05-12T09:15:10Z</time>
      </trkpt>
      <trkpt lat="45.54078" lon="6.68442">
        <ele>1386.8000488281</ele>
        <time>2013-05-12T09:15:12Z</time>
      </trkpt>
      <trkpt lat="45.54078" lon="6.6844">
        <ele>1387.4000244141</ele>
        <time>2013-05-12T09:15:16Z</time>
      </trkpt>
      <trkpt lat="45.54076" lon="6.68442">
        <ele>1388</ele>
        <time>2013-05-12T09:15:18Z</time>
      </trkpt>
      <trkpt lat="45.54075" lon="6.68441">
        <ele>1389</ele>
        <time>2013-05-12T09:15:20Z</time>
      </trkpt>
      <trkpt lat="45.54075" lon="6.6844">
        <ele>1389.8000488281</ele>
        <time>2013-05-12T09:15:23Z</time>
      </trkpt>
      <trkpt lat="45.54073" lon="6.68441">
        <ele>1390.4000244141</ele>
        <time>2013-05-12T09:15:25Z</time>
      </trkpt>
      <trkpt lat="45.5407" lon="6.68441">
        <ele>1391</ele>
        <time>2013-05-12T09:15:28Z</time>
      </trkpt>
      <trkpt lat="45.54063" lon="6.68441">
        <ele>1392.4000244141</ele>
        <time>2013-05-12T09:15:32Z</time>
      </trkpt>
      <trkpt lat="45.54059" lon="6.68442">
        <ele>1393</ele>
        <time>2013-05-12T09:15:34Z</time>
      </trkpt>
      <trkpt lat="45.54056" lon="6.68443">
        <ele>1394</ele>
        <time>2013-05-12T09:15:36Z</time>
      </trkpt>
      <trkpt lat="45.54054" lon="6.68443">
        <ele>1394.8000488281</ele>
        <time>2013-05-12T09:15:38Z</time>
      </trkpt>
      <trkpt lat="45.54049" lon="6.68443">
        <ele>1395.4000244141</ele>
        <time>2013-05-12T09:15:41Z</time>
      </trkpt>
      <trkpt lat="45.54047" lon="6.68442">
        <ele>1396</ele>
        <time>2013-05-12T09:15:43Z</time>
      </trkpt>
      <trkpt lat="45.54044" lon="6.68443">
        <ele>1397</ele>
        <time>2013-05-12T09:15:45Z</time>
      </trkpt>
      <trkpt lat="45.54042" lon="6.68443">
        <ele>1397.4000244141</ele>
        <time>2013-05-12T09:15:48Z</time>
      </trkpt>
      <trkpt lat="45.54038" lon="6.68443">
        <ele>1398.4000244141</ele>
        <time>2013-05-12T09:15:50Z</time>
      </trkpt>
      <trkpt lat="45.54036" lon="6.68443">
        <ele>1399</ele>
        <time>2013-05-12T09:15:52Z</time>
      </trkpt>
      <trkpt lat="45.54031" lon="6.68445">
        <ele>1399.4000244141</ele>
        <time>2013-05-12T09:15:56Z</time>
      </trkpt>
      <trkpt lat="45.5403" lon="6.68447">
        <ele>1400.4000244141</ele>
        <time>2013-05-12T09:15:58Z</time>
      </trkpt>
      <trkpt lat="45.54029" lon="6.68448">
        <ele>1401</ele>
        <time>2013-05-12T09:16:00Z</time>
      </trkpt>
      <trkpt lat="45.54026" lon="6.6845">
        <ele>1401.4000244141</ele>
        <time>2013-05-12T09:16:02Z</time>
      </trkpt>
      <trkpt lat="45.54025" lon="6.68451">
        <ele>1402</ele>
        <time>2013-05-12T09:16:04Z</time>
      </trkpt>
      <trkpt lat="45.54023" lon="6.68453">
        <ele>1403</ele>
        <time>2013-05-12T09:16:06Z</time>
      </trkpt>
      <trkpt lat="45.54022" lon="6.68454">
        <ele>1403.4000244141</ele>
        <time>2013-05-12T09:16:08Z</time>
      </trkpt>
      <trkpt lat="45.54021" lon="6.68455">
        <ele>1404</ele>
        <time>2013-05-12T09:16:10Z</time>
      </trkpt>
      <trkpt lat="45.54019" lon="6.68458">
        <ele>1404.8000488281</ele>
        <time>2013-05-12T09:16:12Z</time>
      </trkpt>
      <trkpt lat="45.54019" lon="6.6846">
        <ele>1405.4000244141</ele>
        <time>2013-05-12T09:16:14Z</time>
      </trkpt>
      <trkpt lat="45.54016" lon="6.68461">
        <ele>1406</ele>
        <time>2013-05-12T09:16:18Z</time>
      </trkpt>
      <trkpt lat="45.54014" lon="6.68463">
        <ele>1407</ele>
        <time>2013-05-12T09:16:20Z</time>
      </trkpt>
      <trkpt lat="45.54012" lon="6.68463">
        <ele>1407.4000244141</ele>
        <time>2013-05-12T09:16:22Z</time>
      </trkpt>
      <trkpt lat="45.54008" lon="6.68465">
        <ele>1408.4000244141</ele>
        <time>2013-05-12T09:16:27Z</time>
      </trkpt>
      <trkpt lat="45.54007" lon="6.68465">
        <ele>1409.4000244141</ele>
        <time>2013-05-12T09:16:29Z</time>
      </trkpt>
      <trkpt lat="45.54003" lon="6.68465">
        <ele>1410</ele>
        <time>2013-05-12T09:16:33Z</time>
      </trkpt>
      <trkpt lat="45.54001" lon="6.68465">
        <ele>1410.8000488281</ele>
        <time>2013-05-12T09:16:35Z</time>
      </trkpt>
      <trkpt lat="45.54001" lon="6.68466">
        <ele>1411.4000244141</ele>
        <time>2013-05-12T09:16:37Z</time>
      </trkpt>
      <trkpt lat="45.54" lon="6.68467">
        <ele>1412</ele>
        <time>2013-05-12T09:16:39Z</time>
      </trkpt>
      <trkpt lat="45.53998" lon="6.68468">
        <ele>1412.4000244141</ele>
        <time>2013-05-12T09:16:42Z</time>
      </trkpt>
      <trkpt lat="45.53997" lon="6.68469">
        <ele>1413.4000244141</ele>
        <time>2013-05-12T09:16:44Z</time>
      </trkpt>
      <trkpt lat="45.53996" lon="6.68471">
        <ele>1414</ele>
        <time>2013-05-12T09:16:46Z</time>
      </trkpt>
      <trkpt lat="45.53996" lon="6.68473">
        <ele>1414.4000244141</ele>
        <time>2013-05-12T09:16:49Z</time>
      </trkpt>
      <trkpt lat="45.53996" lon="6.68474">
        <ele>1415.4000244141</ele>
        <time>2013-05-12T09:16:51Z</time>
      </trkpt>
      <trkpt lat="45.53995" lon="6.68477">
        <ele>1416</ele>
        <time>2013-05-12T09:16:53Z</time>
      </trkpt>
      <trkpt lat="45.53987" lon="6.68484">
        <ele>1417</ele>
        <time>2013-05-12T09:17:02Z</time>
      </trkpt>
      <trkpt lat="45.53985" lon="6.68486">
        <ele>1418</ele>
        <time>2013-05-12T09:17:04Z</time>
      </trkpt>
      <trkpt lat="45.53983" lon="6.68486">
        <ele>1418</ele>
        <time>2013-05-12T09:17:06Z</time>
      </trkpt>
      <trkpt lat="45.53982" lon="6.68489">
        <ele>1418.4000244141</ele>
        <time>2013-05-12T09:17:09Z</time>
      </trkpt>
      <trkpt lat="45.53981" lon="6.68491">
        <ele>1419.4000244141</ele>
        <time>2013-05-12T09:17:11Z</time>
      </trkpt>
      <trkpt lat="45.53979" lon="6.68492">
        <ele>1420</ele>
        <time>2013-05-12T09:17:13Z</time>
      </trkpt>
      <trkpt lat="45.53977" lon="6.68494">
        <ele>1420.4000244141</ele>
        <time>2013-05-12T09:17:18Z</time>
      </trkpt>
      <trkpt lat="45.53975" lon="6.68496">
        <ele>1421.4000244141</ele>
        <time>2013-05-12T09:17:20Z</time>
      </trkpt>
      <trkpt lat="45.53974" lon="6.68499">
        <ele>1422</ele>
        <time>2013-05-12T09:17:22Z</time>
      </trkpt>
      <trkpt lat="45.5397" lon="6.68503">
        <ele>1422.4000244141</ele>
        <time>2013-05-12T09:17:26Z</time>
      </trkpt>
      <trkpt lat="45.53969" lon="6.68504">
        <ele>1423.4000244141</ele>
        <time>2013-05-12T09:17:28Z</time>
      </trkpt>
      <trkpt lat="45.53968" lon="6.68507">
        <ele>1424</ele>
        <time>2013-05-12T09:17:30Z</time>
      </trkpt>
      <trkpt lat="45.53966" lon="6.68507">
        <ele>1424.4000244141</ele>
        <time>2013-05-12T09:17:32Z</time>
      </trkpt>
      <trkpt lat="45.53965" lon="6.68508">
        <ele>1425</ele>
        <time>2013-05-12T09:17:34Z</time>
      </trkpt>
      <trkpt lat="45.53964" lon="6.68511">
        <ele>1425.8000488281</ele>
        <time>2013-05-12T09:17:36Z</time>
      </trkpt>
      <trkpt lat="45.53963" lon="6.68518">
        <ele>1426.4000244141</ele>
        <time>2013-05-12T09:17:41Z</time>
      </trkpt>
      <trkpt lat="45.53962" lon="6.68521">
        <ele>1427.4000244141</ele>
        <time>2013-05-12T09:17:43Z</time>
      </trkpt>
      <trkpt lat="45.53961" lon="6.68524">
        <ele>1428</ele>
        <time>2013-05-12T09:17:45Z</time>
      </trkpt>
      <trkpt lat="45.5396" lon="6.68527">
        <ele>1428.4000244141</ele>
        <time>2013-05-12T09:17:48Z</time>
      </trkpt>
      <trkpt lat="45.53959" lon="6.68532">
        <ele>1428.4000244141</ele>
        <time>2013-05-12T09:17:54Z</time>
      </trkpt>
      <trkpt lat="45.53958" lon="6.68533">
        <ele>1429</ele>
        <time>2013-05-12T09:17:58Z</time>
      </trkpt>
      <trkpt lat="45.53959" lon="6.68535">
        <ele>1429.8000488281</ele>
        <time>2013-05-12T09:18:00Z</time>
      </trkpt>
      <trkpt lat="45.53959" lon="6.68536">
        <ele>1430.4000244141</ele>
        <time>2013-05-12T09:18:02Z</time>
      </trkpt>
      <trkpt lat="45.53958" lon="6.68543">
        <ele>1430.4000244141</ele>
        <time>2013-05-12T09:18:15Z</time>
      </trkpt>
      <trkpt lat="45.53959" lon="6.68544">
        <ele>1430.4000244141</ele>
        <time>2013-05-12T09:18:19Z</time>
      </trkpt>
      <trkpt lat="45.53957" lon="6.68547">
        <ele>1430.4000244141</ele>
        <time>2013-05-12T09:18:28Z</time>
      </trkpt>
      <trkpt lat="45.53958" lon="6.68551">
        <ele>1430.4000244141</ele>
        <time>2013-05-12T09:18:34Z</time>
      </trkpt>
      <trkpt lat="45.53958" lon="6.68553">
        <ele>1430.4000244141</ele>
        <time>2013-05-12T09:18:40Z</time>
      </trkpt>
      <trkpt lat="45.53958" lon="6.68553">
        <ele>1430.4000244141</ele>
        <time>2013-05-12T09:18:44Z</time>
      </trkpt>
      <trkpt lat="45.53961" lon="6.68552">
        <ele>1430.4000244141</ele>
        <time>2013-05-12T09:18:58Z</time>
      </trkpt>
      <trkpt lat="45.53963" lon="6.68547">
        <ele>1430.4000244141</ele>
        <time>2013-05-12T09:19:05Z</time>
      </trkpt>
      <trkpt lat="45.53963" lon="6.68544">
        <ele>1430.4000244141</ele>
        <time>2013-05-12T09:19:18Z</time>
      </trkpt>
      <trkpt lat="45.53963" lon="6.68542">
        <ele>1430.4000244141</ele>
        <time>2013-05-12T09:19:32Z</time>
      </trkpt>
      <trkpt lat="45.53963" lon="6.68543">
        <ele>1430.4000244141</ele>
        <time>2013-05-12T09:19:38Z</time>
      </trkpt>
      <trkpt lat="45.53964" lon="6.68542">
        <ele>1430.4000244141</ele>
        <time>2013-05-12T09:19:46Z</time>
      </trkpt>
      <trkpt lat="45.53963" lon="6.68542">
        <ele>1430.4000244141</ele>
        <time>2013-05-12T09:20:20Z</time>
      </trkpt>
      <trkpt lat="45.53963" lon="6.68542">
        <ele>1430.4000244141</ele>
        <time>2013-05-12T09:20:31Z</time>
      </trkpt>
      <trkpt lat="45.53962" lon="6.68543">
        <ele>1430.4000244141</ele>
        <time>2013-05-12T09:20:38Z</time>
      </trkpt>
      <trkpt lat="45.53962" lon="6.68542">
        <ele>1430.4000244141</ele>
        <time>2013-05-12T09:20:45Z</time>
      </trkpt>
      <trkpt lat="45.53962" lon="6.68541">
        <ele>1430.4000244141</ele>
        <time>2013-05-12T09:21:03Z</time>
      </trkpt>
      <trkpt lat="45.53962" lon="6.68541">
        <ele>1430.4000244141</ele>
        <time>2013-05-12T09:21:13Z</time>
      </trkpt>
      <trkpt lat="45.53963" lon="6.68541">
        <ele>1430.4000244141</ele>
        <time>2013-05-12T09:21:22Z</time>
      </trkpt>
      <trkpt lat="45.53963" lon="6.68542">
        <ele>1430.4000244141</ele>
        <time>2013-05-12T09:21:33Z</time>
      </trkpt>
      <trkpt lat="45.53959" lon="6.68544">
        <ele>1430.4000244141</ele>
        <time>2013-05-12T09:21:41Z</time>
      </trkpt>
      <trkpt lat="45.53958" lon="6.68547">
        <ele>1430.4000244141</ele>
        <time>2013-05-12T09:21:45Z</time>
      </trkpt>
      <trkpt lat="45.53957" lon="6.68548">
        <ele>1431</ele>
        <time>2013-05-12T09:21:47Z</time>
      </trkpt>
      <trkpt lat="45.53957" lon="6.68549">
        <ele>1432</ele>
        <time>2013-05-12T09:21:49Z</time>
      </trkpt>
      <trkpt lat="45.53955" lon="6.68553">
        <ele>1432.4000244141</ele>
        <time>2013-05-12T09:21:51Z</time>
      </trkpt>
      <trkpt lat="45.53953" lon="6.68557">
        <ele>1432.4000244141</ele>
        <time>2013-05-12T09:21:54Z</time>
      </trkpt>
      <trkpt lat="45.53952" lon="6.68559">
        <ele>1433.4000244141</ele>
        <time>2013-05-12T09:21:56Z</time>
      </trkpt>
      <trkpt lat="45.53951" lon="6.68561">
        <ele>1434.4000244141</ele>
        <time>2013-05-12T09:21:58Z</time>
      </trkpt>
      <trkpt lat="45.5395" lon="6.68563">
        <ele>1434.8000488281</ele>
        <time>2013-05-12T09:22:02Z</time>
      </trkpt>
      <trkpt lat="45.53948" lon="6.68566">
        <ele>1435.4000244141</ele>
        <time>2013-05-12T09:22:04Z</time>
      </trkpt>
      <trkpt lat="45.53947" lon="6.68568">
        <ele>1436.4000244141</ele>
        <time>2013-05-12T09:22:06Z</time>
      </trkpt>
      <trkpt lat="45.53945" lon="6.68572">
        <ele>1436.8000488281</ele>
        <time>2013-05-12T09:22:09Z</time>
      </trkpt>
      <trkpt lat="45.53944" lon="6.68572">
        <ele>1437.4000244141</ele>
        <time>2013-05-12T09:22:11Z</time>
      </trkpt>
      <trkpt lat="45.53943" lon="6.68574">
        <ele>1438.4000244141</ele>
        <time>2013-05-12T09:22:13Z</time>
      </trkpt>
      <trkpt lat="45.53942" lon="6.68579">
        <ele>1438.4000244141</ele>
        <time>2013-05-12T09:22:16Z</time>
      </trkpt>
      <trkpt lat="45.5394" lon="6.68584">
        <ele>1439</ele>
        <time>2013-05-12T09:22:20Z</time>
      </trkpt>
      <trkpt lat="45.53938" lon="6.68585">
        <ele>1440</ele>
        <time>2013-05-12T09:22:22Z</time>
      </trkpt>
      <trkpt lat="45.53937" lon="6.68588">
        <ele>1440.8000488281</ele>
        <time>2013-05-12T09:22:24Z</time>
      </trkpt>
      <trkpt lat="45.53937" lon="6.6859">
        <ele>1440.8000488281</ele>
        <time>2013-05-12T09:22:27Z</time>
      </trkpt>
      <trkpt lat="45.53937" lon="6.68592">
        <ele>1441</ele>
        <time>2013-05-12T09:22:29Z</time>
      </trkpt>
      <trkpt lat="45.53935" lon="6.68595">
        <ele>1441.8000488281</ele>
        <time>2013-05-12T09:22:31Z</time>
      </trkpt>
      <trkpt lat="45.53934" lon="6.68597">
        <ele>1442.4000244141</ele>
        <time>2013-05-12T09:22:33Z</time>
      </trkpt>
      <trkpt lat="45.53932" lon="6.686">
        <ele>1443</ele>
        <time>2013-05-12T09:22:35Z</time>
      </trkpt>
      <trkpt lat="45.53929" lon="6.68604">
        <ele>1443.4000244141</ele>
        <time>2013-05-12T09:22:38Z</time>
      </trkpt>
      <trkpt lat="45.53927" lon="6.68606">
        <ele>1444.4000244141</ele>
        <time>2013-05-12T09:22:40Z</time>
      </trkpt>
      <trkpt lat="45.53926" lon="6.68607">
        <ele>1445</ele>
        <time>2013-05-12T09:22:42Z</time>
      </trkpt>
      <trkpt lat="45.53924" lon="6.68609">
        <ele>1445.8000488281</ele>
        <time>2013-05-12T09:22:44Z</time>
      </trkpt>
      <trkpt lat="45.5392" lon="6.68613">
        <ele>1447</ele>
        <time>2013-05-12T09:22:52Z</time>
      </trkpt>
      <trkpt lat="45.53918" lon="6.68616">
        <ele>1448</ele>
        <time>2013-05-12T09:22:54Z</time>
      </trkpt>
      <trkpt lat="45.53918" lon="6.68616">
        <ele>1448.8000488281</ele>
        <time>2013-05-12T09:22:56Z</time>
      </trkpt>
      <trkpt lat="45.53917" lon="6.68619">
        <ele>1449</ele>
        <time>2013-05-12T09:22:59Z</time>
      </trkpt>
      <trkpt lat="45.53914" lon="6.68623">
        <ele>1449.8000488281</ele>
        <time>2013-05-12T09:23:04Z</time>
      </trkpt>
      <trkpt lat="45.53913" lon="6.68625">
        <ele>1450.8000488281</ele>
        <time>2013-05-12T09:23:06Z</time>
      </trkpt>
      <trkpt lat="45.53912" lon="6.68628">
        <ele>1451.4000244141</ele>
        <time>2013-05-12T09:23:09Z</time>
      </trkpt>
      <trkpt lat="45.53912" lon="6.6863">
        <ele>1452</ele>
        <time>2013-05-12T09:23:11Z</time>
      </trkpt>
      <trkpt lat="45.53913" lon="6.68634">
        <ele>1453</ele>
        <time>2013-05-12T09:23:13Z</time>
      </trkpt>
      <trkpt lat="45.53913" lon="6.68638">
        <ele>1453</ele>
        <time>2013-05-12T09:23:16Z</time>
      </trkpt>
      <trkpt lat="45.53913" lon="6.6864">
        <ele>1454</ele>
        <time>2013-05-12T09:23:18Z</time>
      </trkpt>
      <trkpt lat="45.53914" lon="6.68642">
        <ele>1454.8000488281</ele>
        <time>2013-05-12T09:23:20Z</time>
      </trkpt>
      <trkpt lat="45.53912" lon="6.68644">
        <ele>1455</ele>
        <time>2013-05-12T09:23:22Z</time>
      </trkpt>
      <trkpt lat="45.53911" lon="6.68647">
        <ele>1456</ele>
        <time>2013-05-12T09:23:24Z</time>
      </trkpt>
      <trkpt lat="45.53909" lon="6.68651">
        <ele>1456.8000488281</ele>
        <time>2013-05-12T09:23:26Z</time>
      </trkpt>
      <trkpt lat="45.5391" lon="6.68654">
        <ele>1457.4000244141</ele>
        <time>2013-05-12T09:23:30Z</time>
      </trkpt>
      <trkpt lat="45.53912" lon="6.68656">
        <ele>1458</ele>
        <time>2013-05-12T09:23:32Z</time>
      </trkpt>
      <trkpt lat="45.53913" lon="6.68658">
        <ele>1459</ele>
        <time>2013-05-12T09:23:34Z</time>
      </trkpt>
      <trkpt lat="45.53915" lon="6.68661">
        <ele>1459.4000244141</ele>
        <time>2013-05-12T09:23:37Z</time>
      </trkpt>
      <trkpt lat="45.53916" lon="6.68662">
        <ele>1460.4000244141</ele>
        <time>2013-05-12T09:23:39Z</time>
      </trkpt>
      <trkpt lat="45.53915" lon="6.68663">
        <ele>1461</ele>
        <time>2013-05-12T09:23:41Z</time>
      </trkpt>
      <trkpt lat="45.53918" lon="6.68666">
        <ele>1461.4000244141</ele>
        <time>2013-05-12T09:23:43Z</time>
      </trkpt>
      <trkpt lat="45.5392" lon="6.68667">
        <ele>1462</ele>
        <time>2013-05-12T09:23:45Z</time>
      </trkpt>
      <trkpt lat="45.5392" lon="6.6867">
        <ele>1463</ele>
        <time>2013-05-12T09:23:47Z</time>
      </trkpt>
      <trkpt lat="45.53924" lon="6.68674">
        <ele>1463.4000244141</ele>
        <time>2013-05-12T09:23:52Z</time>
      </trkpt>
      <trkpt lat="45.53925" lon="6.68675">
        <ele>1464.4000244141</ele>
        <time>2013-05-12T09:23:54Z</time>
      </trkpt>
      <trkpt lat="45.53927" lon="6.68676">
        <ele>1465</ele>
        <time>2013-05-12T09:23:56Z</time>
      </trkpt>
      <trkpt lat="45.53929" lon="6.6868">
        <ele>1465.4000244141</ele>
        <time>2013-05-12T09:24:00Z</time>
      </trkpt>
      <trkpt lat="45.53928" lon="6.68681">
        <ele>1466</ele>
        <time>2013-05-12T09:24:02Z</time>
      </trkpt>
      <trkpt lat="45.53928" lon="6.6868">
        <ele>1467</ele>
        <time>2013-05-12T09:24:04Z</time>
      </trkpt>
      <trkpt lat="45.53927" lon="6.68682">
        <ele>1467.8000488281</ele>
        <time>2013-05-12T09:24:06Z</time>
      </trkpt>
      <trkpt lat="45.53926" lon="6.68682">
        <ele>1468.4000244141</ele>
        <time>2013-05-12T09:24:08Z</time>
      </trkpt>
      <trkpt lat="45.53925" lon="6.68683">
        <ele>1469.4000244141</ele>
        <time>2013-05-12T09:24:10Z</time>
      </trkpt>
      <trkpt lat="45.53922" lon="6.68686">
        <ele>1469.4000244141</ele>
        <time>2013-05-12T09:24:15Z</time>
      </trkpt>
      <trkpt lat="45.53921" lon="6.68687">
        <ele>1470.4000244141</ele>
        <time>2013-05-12T09:24:17Z</time>
      </trkpt>
      <trkpt lat="45.53917" lon="6.6869">
        <ele>1471.8000488281</ele>
        <time>2013-05-12T09:24:23Z</time>
      </trkpt>
      <trkpt lat="45.53916" lon="6.68692">
        <ele>1472.4000244141</ele>
        <time>2013-05-12T09:24:25Z</time>
      </trkpt>
      <trkpt lat="45.53914" lon="6.68691">
        <ele>1473.4000244141</ele>
        <time>2013-05-12T09:24:27Z</time>
      </trkpt>
      <trkpt lat="45.53912" lon="6.68693">
        <ele>1473.4000244141</ele>
        <time>2013-05-12T09:24:29Z</time>
      </trkpt>
      <trkpt lat="45.53909" lon="6.68695">
        <ele>1474</ele>
        <time>2013-05-12T09:24:33Z</time>
      </trkpt>
      <trkpt lat="45.53907" lon="6.68696">
        <ele>1474.8000488281</ele>
        <time>2013-05-12T09:24:35Z</time>
      </trkpt>
      <trkpt lat="45.53906" lon="6.68696">
        <ele>1475.4000244141</ele>
        <time>2013-05-12T09:24:37Z</time>
      </trkpt>
      <trkpt lat="45.53903" lon="6.68698">
        <ele>1476.4000244141</ele>
        <time>2013-05-12T09:24:42Z</time>
      </trkpt>
      <trkpt lat="45.53901" lon="6.68699">
        <ele>1477</ele>
        <time>2013-05-12T09:24:44Z</time>
      </trkpt>
      <trkpt lat="45.53899" lon="6.68698">
        <ele>1477.4000244141</ele>
        <time>2013-05-12T09:24:47Z</time>
      </trkpt>
      <trkpt lat="45.53897" lon="6.68698">
        <ele>1478</ele>
        <time>2013-05-12T09:24:49Z</time>
      </trkpt>
      <trkpt lat="45.53895" lon="6.687">
        <ele>1479</ele>
        <time>2013-05-12T09:24:51Z</time>
      </trkpt>
      <trkpt lat="45.53895" lon="6.68702">
        <ele>1479.4000244141</ele>
        <time>2013-05-12T09:24:53Z</time>
      </trkpt>
      <trkpt lat="45.53893" lon="6.68702">
        <ele>1480.4000244141</ele>
        <time>2013-05-12T09:24:56Z</time>
      </trkpt>
      <trkpt lat="45.53893" lon="6.68704">
        <ele>1481.4000244141</ele>
        <time>2013-05-12T09:24:58Z</time>
      </trkpt>
      <trkpt lat="45.5389" lon="6.68707">
        <ele>1481.8000488281</ele>
        <time>2013-05-12T09:25:02Z</time>
      </trkpt>
      <trkpt lat="45.53891" lon="6.68709">
        <ele>1482.4000244141</ele>
        <time>2013-05-12T09:25:04Z</time>
      </trkpt>
      <trkpt lat="45.53891" lon="6.6871">
        <ele>1483</ele>
        <time>2013-05-12T09:25:06Z</time>
      </trkpt>
      <trkpt lat="45.53894" lon="6.68711">
        <ele>1483.8000488281</ele>
        <time>2013-05-12T09:25:08Z</time>
      </trkpt>
      <trkpt lat="45.53899" lon="6.68713">
        <ele>1484.4000244141</ele>
        <time>2013-05-12T09:25:12Z</time>
      </trkpt>
      <trkpt lat="45.53902" lon="6.68716">
        <ele>1485.4000244141</ele>
        <time>2013-05-12T09:25:14Z</time>
      </trkpt>
      <trkpt lat="45.53904" lon="6.68715">
        <ele>1486</ele>
        <time>2013-05-12T09:25:16Z</time>
      </trkpt>
      <trkpt lat="45.53907" lon="6.68715">
        <ele>1486.8000488281</ele>
        <time>2013-05-12T09:25:18Z</time>
      </trkpt>
      <trkpt lat="45.53909" lon="6.68716">
        <ele>1487.4000244141</ele>
        <time>2013-05-12T09:25:20Z</time>
      </trkpt>
      <trkpt lat="45.53914" lon="6.68718">
        <ele>1488.4000244141</ele>
        <time>2013-05-12T09:25:24Z</time>
      </trkpt>
      <trkpt lat="45.53917" lon="6.68718">
        <ele>1489</ele>
        <time>2013-05-12T09:25:26Z</time>
      </trkpt>
      <trkpt lat="45.53921" lon="6.68719">
        <ele>1490</ele>
        <time>2013-05-12T09:25:28Z</time>
      </trkpt>
      <trkpt lat="45.53925" lon="6.6872">
        <ele>1490.4000244141</ele>
        <time>2013-05-12T09:25:31Z</time>
      </trkpt>
      <trkpt lat="45.53929" lon="6.68722">
        <ele>1491.4000244141</ele>
        <time>2013-05-12T09:25:33Z</time>
      </trkpt>
      <trkpt lat="45.53932" lon="6.68723">
        <ele>1492.4000244141</ele>
        <time>2013-05-12T09:25:35Z</time>
      </trkpt>
      <trkpt lat="45.53935" lon="6.68727">
        <ele>1492.4000244141</ele>
        <time>2013-05-12T09:25:39Z</time>
      </trkpt>
      <trkpt lat="45.53937" lon="6.68729">
        <ele>1493</ele>
        <time>2013-05-12T09:25:41Z</time>
      </trkpt>
      <trkpt lat="45.5394" lon="6.6873">
        <ele>1494</ele>
        <time>2013-05-12T09:25:43Z</time>
      </trkpt>
      <trkpt lat="45.53947" lon="6.68735">
        <ele>1494.4000244141</ele>
        <time>2013-05-12T09:25:47Z</time>
      </trkpt>
      <trkpt lat="45.53949" lon="6.68739">
        <ele>1494.4000244141</ele>
        <time>2013-05-12T09:25:51Z</time>
      </trkpt>
      <trkpt lat="45.53947" lon="6.6874">
        <ele>1496</ele>
        <time>2013-05-12T09:25:55Z</time>
      </trkpt>
      <trkpt lat="45.53947" lon="6.6874">
        <ele>1497</ele>
        <time>2013-05-12T09:25:57Z</time>
      </trkpt>
      <trkpt lat="45.53946" lon="6.6874">
        <ele>1498</ele>
        <time>2013-05-12T09:25:59Z</time>
      </trkpt>
      <trkpt lat="45.53945" lon="6.68739">
        <ele>1498.8000488281</ele>
        <time>2013-05-12T09:26:01Z</time>
      </trkpt>
      <trkpt lat="45.53941" lon="6.68738">
        <ele>1499</ele>
        <time>2013-05-12T09:26:07Z</time>
      </trkpt>
      <trkpt lat="45.5394" lon="6.68738">
        <ele>1499.8000488281</ele>
        <time>2013-05-12T09:26:09Z</time>
      </trkpt>
      <trkpt lat="45.53938" lon="6.68739">
        <ele>1500.4000244141</ele>
        <time>2013-05-12T09:26:11Z</time>
      </trkpt>
      <trkpt lat="45.53936" lon="6.68738">
        <ele>1500.8000488281</ele>
        <time>2013-05-12T09:26:14Z</time>
      </trkpt>
      <trkpt lat="45.53933" lon="6.6874">
        <ele>1501.4000244141</ele>
        <time>2013-05-12T09:26:19Z</time>
      </trkpt>
      <trkpt lat="45.53935" lon="6.68739">
        <ele>1502.4000244141</ele>
        <time>2013-05-12T09:26:21Z</time>
      </trkpt>
      <trkpt lat="45.53935" lon="6.6874">
        <ele>1502.8000488281</ele>
        <time>2013-05-12T09:26:23Z</time>
      </trkpt>
      <trkpt lat="45.53934" lon="6.68744">
        <ele>1502.8000488281</ele>
        <time>2013-05-12T09:26:30Z</time>
      </trkpt>
      <trkpt lat="45.53934" lon="6.68743">
        <ele>1503.4000244141</ele>
        <time>2013-05-12T09:26:32Z</time>
      </trkpt>
      <trkpt lat="45.53934" lon="6.68743">
        <ele>1504.4000244141</ele>
        <time>2013-05-12T09:26:34Z</time>
      </trkpt>
      <trkpt lat="45.53934" lon="6.68743">
        <ele>1505</ele>
        <time>2013-05-12T09:26:36Z</time>
      </trkpt>
      <trkpt lat="45.53932" lon="6.68745">
        <ele>1505.4000244141</ele>
        <time>2013-05-12T09:26:40Z</time>
      </trkpt>
      <trkpt lat="45.53925" lon="6.68748">
        <ele>1506.4000244141</ele>
        <time>2013-05-12T09:26:42Z</time>
      </trkpt>
      <trkpt lat="45.53919" lon="6.68751">
        <ele>1507</ele>
        <time>2013-05-12T09:26:44Z</time>
      </trkpt>
      <trkpt lat="45.53915" lon="6.68754">
        <ele>1507.8000488281</ele>
        <time>2013-05-12T09:26:46Z</time>
      </trkpt>
      <trkpt lat="45.53911" lon="6.68754">
        <ele>1508.4000244141</ele>
        <time>2013-05-12T09:26:48Z</time>
      </trkpt>
      <trkpt lat="45.5391" lon="6.68756">
        <ele>1509</ele>
        <time>2013-05-12T09:26:51Z</time>
      </trkpt>
      <trkpt lat="45.53905" lon="6.68759">
        <ele>1509</ele>
        <time>2013-05-12T09:26:57Z</time>
      </trkpt>
      <trkpt lat="45.53904" lon="6.68761">
        <ele>1509.4000244141</ele>
        <time>2013-05-12T09:26:59Z</time>
      </trkpt>
      <trkpt lat="45.539" lon="6.68762">
        <ele>1510.4000244141</ele>
        <time>2013-05-12T09:27:01Z</time>
      </trkpt>
      <trkpt lat="45.53897" lon="6.68762">
        <ele>1511</ele>
        <time>2013-05-12T09:27:03Z</time>
      </trkpt>
      <trkpt lat="45.5389" lon="6.68766">
        <ele>1511.4000244141</ele>
        <time>2013-05-12T09:27:08Z</time>
      </trkpt>
      <trkpt lat="45.53885" lon="6.68763">
        <ele>1512</ele>
        <time>2013-05-12T09:27:10Z</time>
      </trkpt>
      <trkpt lat="45.53882" lon="6.68765">
        <ele>1513</ele>
        <time>2013-05-12T09:27:12Z</time>
      </trkpt>
      <trkpt lat="45.53877" lon="6.68768">
        <ele>1513</ele>
        <time>2013-05-12T09:27:17Z</time>
      </trkpt>
      <trkpt lat="45.53875" lon="6.68769">
        <ele>1514</ele>
        <time>2013-05-12T09:27:19Z</time>
      </trkpt>
      <trkpt lat="45.53874" lon="6.68768">
        <ele>1515</ele>
        <time>2013-05-12T09:27:21Z</time>
      </trkpt>
      <trkpt lat="45.53872" lon="6.68768">
        <ele>1515.4000244141</ele>
        <time>2013-05-12T09:27:24Z</time>
      </trkpt>
      <trkpt lat="45.5387" lon="6.68767">
        <ele>1516</ele>
        <time>2013-05-12T09:27:26Z</time>
      </trkpt>
      <trkpt lat="45.53868" lon="6.68768">
        <ele>1517</ele>
        <time>2013-05-12T09:27:28Z</time>
      </trkpt>
      <trkpt lat="45.53864" lon="6.6877">
        <ele>1517.4000244141</ele>
        <time>2013-05-12T09:27:31Z</time>
      </trkpt>
      <trkpt lat="45.53861" lon="6.6877">
        <ele>1519.4000244141</ele>
        <time>2013-05-12T09:27:35Z</time>
      </trkpt>
      <trkpt lat="45.5386" lon="6.68771">
        <ele>1519.4000244141</ele>
        <time>2013-05-12T09:27:37Z</time>
      </trkpt>
      <trkpt lat="45.53856" lon="6.6877">
        <ele>1520</ele>
        <time>2013-05-12T09:27:40Z</time>
      </trkpt>
      <trkpt lat="45.53855" lon="6.68771">
        <ele>1521</ele>
        <time>2013-05-12T09:27:42Z</time>
      </trkpt>
      <trkpt lat="45.53853" lon="6.6877">
        <ele>1521.4000244141</ele>
        <time>2013-05-12T09:27:44Z</time>
      </trkpt>
      <trkpt lat="45.5385" lon="6.6877">
        <ele>1521.8000488281</ele>
        <time>2013-05-12T09:27:46Z</time>
      </trkpt>
      <trkpt lat="45.53849" lon="6.6877">
        <ele>1522.4000244141</ele>
        <time>2013-05-12T09:27:48Z</time>
      </trkpt>
      <trkpt lat="45.53846" lon="6.6877">
        <ele>1523.4000244141</ele>
        <time>2013-05-12T09:27:50Z</time>
      </trkpt>
      <trkpt lat="45.53843" lon="6.68771">
        <ele>1523.4000244141</ele>
        <time>2013-05-12T09:27:52Z</time>
      </trkpt>
      <trkpt lat="45.53839" lon="6.68772">
        <ele>1523.8000488281</ele>
        <time>2013-05-12T09:27:56Z</time>
      </trkpt>
      <trkpt lat="45.53835" lon="6.68769">
        <ele>1524.4000244141</ele>
        <time>2013-05-12T09:27:58Z</time>
      </trkpt>
      <trkpt lat="45.53832" lon="6.68768">
        <ele>1525.4000244141</ele>
        <time>2013-05-12T09:28:00Z</time>
      </trkpt>
      <trkpt lat="45.5383" lon="6.68768">
        <ele>1525.4000244141</ele>
        <time>2013-05-12T09:28:02Z</time>
      </trkpt>
      <trkpt lat="45.53827" lon="6.68768">
        <ele>1526</ele>
        <time>2013-05-12T09:28:05Z</time>
      </trkpt>
      <trkpt lat="45.53826" lon="6.68768">
        <ele>1527</ele>
        <time>2013-05-12T09:28:07Z</time>
      </trkpt>
      <trkpt lat="45.53823" lon="6.68768">
        <ele>1527.8000488281</ele>
        <time>2013-05-12T09:28:09Z</time>
      </trkpt>
      <trkpt lat="45.53819" lon="6.68768">
        <ele>1528</ele>
        <time>2013-05-12T09:28:13Z</time>
      </trkpt>
      <trkpt lat="45.53817" lon="6.68767">
        <ele>1528.8000488281</ele>
        <time>2013-05-12T09:28:15Z</time>
      </trkpt>
      <trkpt lat="45.53815" lon="6.68766">
        <ele>1529.4000244141</ele>
        <time>2013-05-12T09:28:17Z</time>
      </trkpt>
      <trkpt lat="45.53812" lon="6.68765">
        <ele>1529.8000488281</ele>
        <time>2013-05-12T09:28:20Z</time>
      </trkpt>
      <trkpt lat="45.53813" lon="6.68764">
        <ele>1530.4000244141</ele>
        <time>2013-05-12T09:28:22Z</time>
      </trkpt>
      <trkpt lat="45.53811" lon="6.68765">
        <ele>1531</ele>
        <time>2013-05-12T09:28:24Z</time>
      </trkpt>
      <trkpt lat="45.53809" lon="6.68764">
        <ele>1531.8000488281</ele>
        <time>2013-05-12T09:28:26Z</time>
      </trkpt>
      <trkpt lat="45.53808" lon="6.68764">
        <ele>1532.4000244141</ele>
        <time>2013-05-12T09:28:28Z</time>
      </trkpt>
      <trkpt lat="45.53805" lon="6.68764">
        <ele>1533.4000244141</ele>
        <time>2013-05-12T09:28:30Z</time>
      </trkpt>
      <trkpt lat="45.53804" lon="6.68764">
        <ele>1534</ele>
        <time>2013-05-12T09:28:32Z</time>
      </trkpt>
      <trkpt lat="45.53798" lon="6.68765">
        <ele>1534</ele>
        <time>2013-05-12T09:28:37Z</time>
      </trkpt>
      <trkpt lat="45.53796" lon="6.68765">
        <ele>1535</ele>
        <time>2013-05-12T09:28:39Z</time>
      </trkpt>
      <trkpt lat="45.53795" lon="6.68765">
        <ele>1536</ele>
        <time>2013-05-12T09:28:41Z</time>
      </trkpt>
      <trkpt lat="45.53792" lon="6.68764">
        <ele>1536</ele>
        <time>2013-05-12T09:28:43Z</time>
      </trkpt>
      <trkpt lat="45.53787" lon="6.68765">
        <ele>1536.4000244141</ele>
        <time>2013-05-12T09:28:47Z</time>
      </trkpt>
      <trkpt lat="45.53785" lon="6.68765">
        <ele>1537.4000244141</ele>
        <time>2013-05-12T09:28:49Z</time>
      </trkpt>
      <trkpt lat="45.53783" lon="6.68765">
        <ele>1538</ele>
        <time>2013-05-12T09:28:51Z</time>
      </trkpt>
      <trkpt lat="45.53779" lon="6.68768">
        <ele>1538.4000244141</ele>
        <time>2013-05-12T09:28:55Z</time>
      </trkpt>
      <trkpt lat="45.53779" lon="6.68768">
        <ele>1539</ele>
        <time>2013-05-12T09:28:57Z</time>
      </trkpt>
      <trkpt lat="45.53778" lon="6.68771">
        <ele>1540.4000244141</ele>
        <time>2013-05-12T09:29:02Z</time>
      </trkpt>
      <trkpt lat="45.53779" lon="6.68775">
        <ele>1541.4000244141</ele>
        <time>2013-05-12T09:29:04Z</time>
      </trkpt>
      <trkpt lat="45.5378" lon="6.68778">
        <ele>1542</ele>
        <time>2013-05-12T09:29:06Z</time>
      </trkpt>
      <trkpt lat="45.53781" lon="6.68781">
        <ele>1542.4000244141</ele>
        <time>2013-05-12T09:29:09Z</time>
      </trkpt>
      <trkpt lat="45.53783" lon="6.68782">
        <ele>1543</ele>
        <time>2013-05-12T09:29:11Z</time>
      </trkpt>
      <trkpt lat="45.53785" lon="6.68783">
        <ele>1544</ele>
        <time>2013-05-12T09:29:13Z</time>
      </trkpt>
      <trkpt lat="45.53786" lon="6.68786">
        <ele>1544</ele>
        <time>2013-05-12T09:29:17Z</time>
      </trkpt>
      <trkpt lat="45.53785" lon="6.68788">
        <ele>1545</ele>
        <time>2013-05-12T09:29:19Z</time>
      </trkpt>
      <trkpt lat="45.53786" lon="6.68791">
        <ele>1545.8000488281</ele>
        <time>2013-05-12T09:29:21Z</time>
      </trkpt>
      <trkpt lat="45.53786" lon="6.68789">
        <ele>1546</ele>
        <time>2013-05-12T09:29:23Z</time>
      </trkpt>
      <trkpt lat="45.53786" lon="6.68797">
        <ele>1547</ele>
        <time>2013-05-12T09:29:29Z</time>
      </trkpt>
      <trkpt lat="45.53785" lon="6.688">
        <ele>1548</ele>
        <time>2013-05-12T09:29:31Z</time>
      </trkpt>
      <trkpt lat="45.53788" lon="6.68803">
        <ele>1548.4000244141</ele>
        <time>2013-05-12T09:29:35Z</time>
      </trkpt>
      <trkpt lat="45.53789" lon="6.68804">
        <ele>1549.4000244141</ele>
        <time>2013-05-12T09:29:37Z</time>
      </trkpt>
      <trkpt lat="45.5379" lon="6.68806">
        <ele>1550</ele>
        <time>2013-05-12T09:29:39Z</time>
      </trkpt>
      <trkpt lat="45.53794" lon="6.68809">
        <ele>1550.8000488281</ele>
        <time>2013-05-12T09:29:44Z</time>
      </trkpt>
      <trkpt lat="45.53795" lon="6.6881">
        <ele>1551.4000244141</ele>
        <time>2013-05-12T09:29:46Z</time>
      </trkpt>
      <trkpt lat="45.53795" lon="6.68812">
        <ele>1552.4000244141</ele>
        <time>2013-05-12T09:29:48Z</time>
      </trkpt>
      <trkpt lat="45.53799" lon="6.68813">
        <ele>1552.8000488281</ele>
        <time>2013-05-12T09:29:52Z</time>
      </trkpt>
      <trkpt lat="45.53801" lon="6.68814">
        <ele>1553.4000244141</ele>
        <time>2013-05-12T09:29:54Z</time>
      </trkpt>
      <trkpt lat="45.53802" lon="6.68815">
        <ele>1554.4000244141</ele>
        <time>2013-05-12T09:29:56Z</time>
      </trkpt>
      <trkpt lat="45.53801" lon="6.68816">
        <ele>1555</ele>
        <time>2013-05-12T09:30:00Z</time>
      </trkpt>
      <trkpt lat="45.53802" lon="6.68817">
        <ele>1555.8000488281</ele>
        <time>2013-05-12T09:30:02Z</time>
      </trkpt>
      <trkpt lat="45.53807" lon="6.68817">
        <ele>1556.4000244141</ele>
        <time>2013-05-12T09:30:04Z</time>
      </trkpt>
      <trkpt lat="45.53811" lon="6.68816">
        <ele>1557</ele>
        <time>2013-05-12T09:30:09Z</time>
      </trkpt>
      <trkpt lat="45.53812" lon="6.68817">
        <ele>1557.8000488281</ele>
        <time>2013-05-12T09:30:11Z</time>
      </trkpt>
      <trkpt lat="45.53814" lon="6.68817">
        <ele>1558.4000244141</ele>
        <time>2013-05-12T09:30:13Z</time>
      </trkpt>
      <trkpt lat="45.53817" lon="6.68816">
        <ele>1558.8000488281</ele>
        <time>2013-05-12T09:30:15Z</time>
      </trkpt>
      <trkpt lat="45.53819" lon="6.68817">
        <ele>1558.8000488281</ele>
        <time>2013-05-12T09:30:17Z</time>
      </trkpt>
      <trkpt lat="45.53821" lon="6.68819">
        <ele>1559.4000244141</ele>
        <time>2013-05-12T09:30:20Z</time>
      </trkpt>
      <trkpt lat="45.53823" lon="6.68821">
        <ele>1560.4000244141</ele>
        <time>2013-05-12T09:30:22Z</time>
      </trkpt>
      <trkpt lat="45.53828" lon="6.68829">
        <ele>1561</ele>
        <time>2013-05-12T09:30:27Z</time>
      </trkpt>
      <trkpt lat="45.53829" lon="6.6883">
        <ele>1562</ele>
        <time>2013-05-12T09:30:29Z</time>
      </trkpt>
      <trkpt lat="45.53831" lon="6.68832">
        <ele>1563</ele>
        <time>2013-05-12T09:30:31Z</time>
      </trkpt>
      <trkpt lat="45.53837" lon="6.68835">
        <ele>1563</ele>
        <time>2013-05-12T09:30:36Z</time>
      </trkpt>
      <trkpt lat="45.53842" lon="6.68836">
        <ele>1565</ele>
        <time>2013-05-12T09:30:40Z</time>
      </trkpt>
      <trkpt lat="45.53843" lon="6.68838">
        <ele>1565</ele>
        <time>2013-05-12T09:30:42Z</time>
      </trkpt>
      <trkpt lat="45.53847" lon="6.68842">
        <ele>1565.4000244141</ele>
        <time>2013-05-12T09:30:46Z</time>
      </trkpt>
      <trkpt lat="45.53849" lon="6.68846">
        <ele>1566.4000244141</ele>
        <time>2013-05-12T09:30:48Z</time>
      </trkpt>
      <trkpt lat="45.53851" lon="6.68847">
        <ele>1567</ele>
        <time>2013-05-12T09:30:50Z</time>
      </trkpt>
      <trkpt lat="45.53855" lon="6.68852">
        <ele>1567.4000244141</ele>
        <time>2013-05-12T09:30:55Z</time>
      </trkpt>
      <trkpt lat="45.53857" lon="6.68853">
        <ele>1568.4000244141</ele>
        <time>2013-05-12T09:30:57Z</time>
      </trkpt>
      <trkpt lat="45.53858" lon="6.68855">
        <ele>1569</ele>
        <time>2013-05-12T09:30:59Z</time>
      </trkpt>
      <trkpt lat="45.5386" lon="6.6886">
        <ele>1569.8000488281</ele>
        <time>2013-05-12T09:31:03Z</time>
      </trkpt>
      <trkpt lat="45.53861" lon="6.68864">
        <ele>1570.4000244141</ele>
        <time>2013-05-12T09:31:05Z</time>
      </trkpt>
      <trkpt lat="45.53863" lon="6.68867">
        <ele>1571.4000244141</ele>
        <time>2013-05-12T09:31:07Z</time>
      </trkpt>
      <trkpt lat="45.53865" lon="6.6887">
        <ele>1571.4000244141</ele>
        <time>2013-05-12T09:31:10Z</time>
      </trkpt>
      <trkpt lat="45.53867" lon="6.68871">
        <ele>1572.4000244141</ele>
        <time>2013-05-12T09:31:12Z</time>
      </trkpt>
      <trkpt lat="45.53869" lon="6.68874">
        <ele>1573</ele>
        <time>2013-05-12T09:31:14Z</time>
      </trkpt>
      <trkpt lat="45.5387" lon="6.68877">
        <ele>1573.4000244141</ele>
        <time>2013-05-12T09:31:16Z</time>
      </trkpt>
      <trkpt lat="45.53873" lon="6.6888">
        <ele>1573.4000244141</ele>
        <time>2013-05-12T09:31:19Z</time>
      </trkpt>
      <trkpt lat="45.53874" lon="6.68882">
        <ele>1574.4000244141</ele>
        <time>2013-05-12T09:31:21Z</time>
      </trkpt>
      <trkpt lat="45.53875" lon="6.68883">
        <ele>1575</ele>
        <time>2013-05-12T09:31:23Z</time>
      </trkpt>
      <trkpt lat="45.53878" lon="6.68886">
        <ele>1575.4000244141</ele>
        <time>2013-05-12T09:31:26Z</time>
      </trkpt>
      <trkpt lat="45.5388" lon="6.68889">
        <ele>1575.4000244141</ele>
        <time>2013-05-12T09:31:29Z</time>
      </trkpt>
      <trkpt lat="45.53882" lon="6.68892">
        <ele>1576.4000244141</ele>
        <time>2013-05-12T09:31:31Z</time>
      </trkpt>
      <trkpt lat="45.53884" lon="6.68893">
        <ele>1577</ele>
        <time>2013-05-12T09:31:33Z</time>
      </trkpt>
      <trkpt lat="45.53888" lon="6.68895">
        <ele>1577.8000488281</ele>
        <time>2013-05-12T09:31:38Z</time>
      </trkpt>
      <trkpt lat="45.53889" lon="6.68897">
        <ele>1578.8000488281</ele>
        <time>2013-05-12T09:31:40Z</time>
      </trkpt>
      <trkpt lat="45.53889" lon="6.68897">
        <ele>1579.4000244141</ele>
        <time>2013-05-12T09:31:42Z</time>
      </trkpt>
      <trkpt lat="45.53889" lon="6.68905">
        <ele>1579.4000244141</ele>
        <time>2013-05-12T09:31:46Z</time>
      </trkpt>
      <trkpt lat="45.53891" lon="6.68909">
        <ele>1580.4000244141</ele>
        <time>2013-05-12T09:31:50Z</time>
      </trkpt>
      <trkpt lat="45.53892" lon="6.68911">
        <ele>1581</ele>
        <time>2013-05-12T09:31:52Z</time>
      </trkpt>
      <trkpt lat="45.53893" lon="6.68913">
        <ele>1581.4000244141</ele>
        <time>2013-05-12T09:31:54Z</time>
      </trkpt>
      <trkpt lat="45.53894" lon="6.68919">
        <ele>1582</ele>
        <time>2013-05-12T09:31:58Z</time>
      </trkpt>
      <trkpt lat="45.53894" lon="6.6892">
        <ele>1583</ele>
        <time>2013-05-12T09:32:00Z</time>
      </trkpt>
      <trkpt lat="45.53895" lon="6.68921">
        <ele>1583.4000244141</ele>
        <time>2013-05-12T09:32:02Z</time>
      </trkpt>
      <trkpt lat="45.53895" lon="6.68923">
        <ele>1583.4000244141</ele>
        <time>2013-05-12T09:32:05Z</time>
      </trkpt>
      <trkpt lat="45.53895" lon="6.68926">
        <ele>1584.4000244141</ele>
        <time>2013-05-12T09:32:07Z</time>
      </trkpt>
      <trkpt lat="45.53895" lon="6.68928">
        <ele>1585</ele>
        <time>2013-05-12T09:32:09Z</time>
      </trkpt>
      <trkpt lat="45.53897" lon="6.68935">
        <ele>1586.4000244141</ele>
        <time>2013-05-12T09:32:17Z</time>
      </trkpt>
      <trkpt lat="45.53899" lon="6.68938">
        <ele>1587</ele>
        <time>2013-05-12T09:32:19Z</time>
      </trkpt>
      <trkpt lat="45.539" lon="6.68942">
        <ele>1587.8000488281</ele>
        <time>2013-05-12T09:32:21Z</time>
      </trkpt>
      <trkpt lat="45.53903" lon="6.68946">
        <ele>1587.8000488281</ele>
        <time>2013-05-12T09:32:25Z</time>
      </trkpt>
      <trkpt lat="45.53902" lon="6.68947">
        <ele>1588.4000244141</ele>
        <time>2013-05-12T09:32:27Z</time>
      </trkpt>
      <trkpt lat="45.53904" lon="6.6895">
        <ele>1589.4000244141</ele>
        <time>2013-05-12T09:32:29Z</time>
      </trkpt>
      <trkpt lat="45.53904" lon="6.6895">
        <ele>1589.8000488281</ele>
        <time>2013-05-12T09:32:32Z</time>
      </trkpt>
      <trkpt lat="45.53904" lon="6.6895">
        <ele>1589.8000488281</ele>
        <time>2013-05-12T09:32:42Z</time>
      </trkpt>
      <trkpt lat="45.53903" lon="6.68959">
        <ele>1589.8000488281</ele>
        <time>2013-05-12T09:32:52Z</time>
      </trkpt>
      <trkpt lat="45.53902" lon="6.68958">
        <ele>1589.8000488281</ele>
        <time>2013-05-12T09:32:58Z</time>
      </trkpt>
      <trkpt lat="45.53902" lon="6.68959">
        <ele>1589.8000488281</ele>
        <time>2013-05-12T09:33:03Z</time>
      </trkpt>
      <trkpt lat="45.53904" lon="6.6896">
        <ele>1589.8000488281</ele>
        <time>2013-05-12T09:33:07Z</time>
      </trkpt>
      <trkpt lat="45.53905" lon="6.68962">
        <ele>1589.8000488281</ele>
        <time>2013-05-12T09:33:13Z</time>
      </trkpt>
      <trkpt lat="45.53907" lon="6.68956">
        <ele>1589.8000488281</ele>
        <time>2013-05-12T09:33:29Z</time>
      </trkpt>
      <trkpt lat="45.53908" lon="6.68954">
        <ele>1589.8000488281</ele>
        <time>2013-05-12T09:33:44Z</time>
      </trkpt>
      <trkpt lat="45.53909" lon="6.68953">
        <ele>1589.8000488281</ele>
        <time>2013-05-12T09:33:46Z</time>
      </trkpt>
      <trkpt lat="45.53909" lon="6.68953">
        <ele>1589.8000488281</ele>
        <time>2013-05-12T09:33:53Z</time>
      </trkpt>
      <trkpt lat="45.53916" lon="6.68958">
        <ele>1589.8000488281</ele>
        <time>2013-05-12T09:33:59Z</time>
      </trkpt>
      <trkpt lat="45.53919" lon="6.68964">
        <ele>1589.8000488281</ele>
        <time>2013-05-12T09:34:02Z</time>
      </trkpt>
      <trkpt lat="45.53925" lon="6.68973">
        <ele>1589.8000488281</ele>
        <time>2013-05-12T09:34:06Z</time>
      </trkpt>
      <trkpt lat="45.53926" lon="6.68979">
        <ele>1590.4000244141</ele>
        <time>2013-05-12T09:34:08Z</time>
      </trkpt>
      <trkpt lat="45.53928" lon="6.68985">
        <ele>1591.4000244141</ele>
        <time>2013-05-12T09:34:10Z</time>
      </trkpt>
      <trkpt lat="45.53932" lon="6.68989">
        <ele>1592</ele>
        <time>2013-05-12T09:34:12Z</time>
      </trkpt>
      <trkpt lat="45.53934" lon="6.68994">
        <ele>1592</ele>
        <time>2013-05-12T09:34:16Z</time>
      </trkpt>
      <trkpt lat="45.53935" lon="6.69002">
        <ele>1592</ele>
        <time>2013-05-12T09:34:18Z</time>
      </trkpt>
      <trkpt lat="45.53936" lon="6.69012">
        <ele>1592</ele>
        <time>2013-05-12T09:34:22Z</time>
      </trkpt>
      <trkpt lat="45.53937" lon="6.69025">
        <ele>1592.4000244141</ele>
        <time>2013-05-12T09:34:25Z</time>
      </trkpt>
      <trkpt lat="45.53939" lon="6.69032">
        <ele>1593.4000244141</ele>
        <time>2013-05-12T09:34:27Z</time>
      </trkpt>
      <trkpt lat="45.53943" lon="6.69039">
        <ele>1594</ele>
        <time>2013-05-12T09:34:29Z</time>
      </trkpt>
      <trkpt lat="45.53951" lon="6.69046">
        <ele>1594</ele>
        <time>2013-05-12T09:34:32Z</time>
      </trkpt>
      <trkpt lat="45.53961" lon="6.69056">
        <ele>1593.4000244141</ele>
        <time>2013-05-12T09:34:37Z</time>
      </trkpt>
      <trkpt lat="45.53969" lon="6.6906">
        <ele>1592.4000244141</ele>
        <time>2013-05-12T09:34:39Z</time>
      </trkpt>
      <trkpt lat="45.53975" lon="6.69063">
        <ele>1591.4000244141</ele>
        <time>2013-05-12T09:34:41Z</time>
      </trkpt>
      <trkpt lat="45.53985" lon="6.69064">
        <ele>1591.4000244141</ele>
        <time>2013-05-12T09:34:43Z</time>
      </trkpt>
      <trkpt lat="45.5399" lon="6.69068">
        <ele>1590.4000244141</ele>
        <time>2013-05-12T09:34:45Z</time>
      </trkpt>
      <trkpt lat="45.54001" lon="6.69072">
        <ele>1588.8000488281</ele>
        <time>2013-05-12T09:34:49Z</time>
      </trkpt>
      <trkpt lat="45.54009" lon="6.69075">
        <ele>1587.4000244141</ele>
        <time>2013-05-12T09:34:51Z</time>
      </trkpt>
      <trkpt lat="45.54016" lon="6.69077">
        <ele>1586</ele>
        <time>2013-05-12T09:34:53Z</time>
      </trkpt>
      <trkpt lat="45.54021" lon="6.69081">
        <ele>1584.8000488281</ele>
        <time>2013-05-12T09:34:55Z</time>
      </trkpt>
      <trkpt lat="45.54025" lon="6.69088">
        <ele>1583</ele>
        <time>2013-05-12T09:34:57Z</time>
      </trkpt>
      <trkpt lat="45.54027" lon="6.69093">
        <ele>1581.4000244141</ele>
        <time>2013-05-12T09:34:59Z</time>
      </trkpt>
      <trkpt lat="45.5403" lon="6.69098">
        <ele>1579.8000488281</ele>
        <time>2013-05-12T09:35:01Z</time>
      </trkpt>
      <trkpt lat="45.54034" lon="6.69098">
        <ele>1577.8000488281</ele>
        <time>2013-05-12T09:35:03Z</time>
      </trkpt>
      <trkpt lat="45.54041" lon="6.69102">
        <ele>1576</ele>
        <time>2013-05-12T09:35:05Z</time>
      </trkpt>
      <trkpt lat="45.54045" lon="6.6911">
        <ele>1574.4000244141</ele>
        <time>2013-05-12T09:35:07Z</time>
      </trkpt>
      <trkpt lat="45.54046" lon="6.69112">
        <ele>1573</ele>
        <time>2013-05-12T09:35:09Z</time>
      </trkpt>
      <trkpt lat="45.54051" lon="6.69109">
        <ele>1571.4000244141</ele>
        <time>2013-05-12T09:35:11Z</time>
      </trkpt>
      <trkpt lat="45.54054" lon="6.69105">
        <ele>1571</ele>
        <time>2013-05-12T09:35:13Z</time>
      </trkpt>
      <trkpt lat="45.54056" lon="6.691">
        <ele>1569.4000244141</ele>
        <time>2013-05-12T09:35:15Z</time>
      </trkpt>
      <trkpt lat="45.5406" lon="6.69097">
        <ele>1567.8000488281</ele>
        <time>2013-05-12T09:35:17Z</time>
      </trkpt>
      <trkpt lat="45.54064" lon="6.69099">
        <ele>1566.4000244141</ele>
        <time>2013-05-12T09:35:19Z</time>
      </trkpt>
      <trkpt lat="45.54067" lon="6.69097">
        <ele>1565</ele>
        <time>2013-05-12T09:35:21Z</time>
      </trkpt>
      <trkpt lat="45.54071" lon="6.6909">
        <ele>1563.4000244141</ele>
        <time>2013-05-12T09:35:23Z</time>
      </trkpt>
      <trkpt lat="45.54071" lon="6.69084">
        <ele>1561.8000488281</ele>
        <time>2013-05-12T09:35:25Z</time>
      </trkpt>
      <trkpt lat="45.5407" lon="6.69078">
        <ele>1560</ele>
        <time>2013-05-12T09:35:27Z</time>
      </trkpt>
      <trkpt lat="45.5407" lon="6.69064">
        <ele>1560</ele>
        <time>2013-05-12T09:35:31Z</time>
      </trkpt>
      <trkpt lat="45.5407" lon="6.69059">
        <ele>1559</ele>
        <time>2013-05-12T09:35:33Z</time>
      </trkpt>
      <trkpt lat="45.5407" lon="6.69056">
        <ele>1558</ele>
        <time>2013-05-12T09:35:35Z</time>
      </trkpt>
      <trkpt lat="45.54071" lon="6.69055">
        <ele>1557</ele>
        <time>2013-05-12T09:35:37Z</time>
      </trkpt>
      <trkpt lat="45.54071" lon="6.69055">
        <ele>1556.4000244141</ele>
        <time>2013-05-12T09:35:39Z</time>
      </trkpt>
      <trkpt lat="45.54071" lon="6.69055">
        <ele>1555.4000244141</ele>
        <time>2013-05-12T09:35:41Z</time>
      </trkpt>
      <trkpt lat="45.54081" lon="6.69056">
        <ele>1555.4000244141</ele>
        <time>2013-05-12T09:35:52Z</time>
      </trkpt>
      <trkpt lat="45.54083" lon="6.69057">
        <ele>1555.4000244141</ele>
        <time>2013-05-12T09:35:56Z</time>
      </trkpt>
      <trkpt lat="45.54085" lon="6.69059">
        <ele>1554.8000488281</ele>
        <time>2013-05-12T09:35:58Z</time>
      </trkpt>
      <trkpt lat="45.54087" lon="6.6906">
        <ele>1554</ele>
        <time>2013-05-12T09:36:00Z</time>
      </trkpt>
      <trkpt lat="45.54087" lon="6.6906">
        <ele>1553</ele>
        <time>2013-05-12T09:36:02Z</time>
      </trkpt>
      <trkpt lat="45.54089" lon="6.69062">
        <ele>1552.4000244141</ele>
        <time>2013-05-12T09:36:04Z</time>
      </trkpt>
      <trkpt lat="45.54087" lon="6.69062">
        <ele>1551.4000244141</ele>
        <time>2013-05-12T09:36:06Z</time>
      </trkpt>
      <trkpt lat="45.54089" lon="6.69062">
        <ele>1550.8000488281</ele>
        <time>2013-05-12T09:36:09Z</time>
      </trkpt>
      <trkpt lat="45.5409" lon="6.69062">
        <ele>1550</ele>
        <time>2013-05-12T09:36:11Z</time>
      </trkpt>
      <trkpt lat="45.54096" lon="6.69069">
        <ele>1549.4000244141</ele>
        <time>2013-05-12T09:36:17Z</time>
      </trkpt>
      <trkpt lat="45.54101" lon="6.69072">
        <ele>1549.4000244141</ele>
        <time>2013-05-12T09:36:19Z</time>
      </trkpt>
      <trkpt lat="45.54109" lon="6.69077">
        <ele>1548.8000488281</ele>
        <time>2013-05-12T09:36:22Z</time>
      </trkpt>
      <trkpt lat="45.54115" lon="6.69081">
        <ele>1548</ele>
        <time>2013-05-12T09:36:24Z</time>
      </trkpt>
      <trkpt lat="45.5412" lon="6.69086">
        <ele>1547</ele>
        <time>2013-05-12T09:36:26Z</time>
      </trkpt>
      <trkpt lat="45.54123" lon="6.69091">
        <ele>1546</ele>
        <time>2013-05-12T09:36:28Z</time>
      </trkpt>
      <trkpt lat="45.54129" lon="6.69094">
        <ele>1545</ele>
        <time>2013-05-12T09:36:30Z</time>
      </trkpt>
      <trkpt lat="45.54133" lon="6.691">
        <ele>1545</ele>
        <time>2013-05-12T09:36:33Z</time>
      </trkpt>
      <trkpt lat="45.54137" lon="6.69104">
        <ele>1544</ele>
        <time>2013-05-12T09:36:35Z</time>
      </trkpt>
      <trkpt lat="45.54144" lon="6.69107">
        <ele>1543.4000244141</ele>
        <time>2013-05-12T09:36:37Z</time>
      </trkpt>
      <trkpt lat="45.5415" lon="6.69112">
        <ele>1542.4000244141</ele>
        <time>2013-05-12T09:36:39Z</time>
      </trkpt>
      <trkpt lat="45.54156" lon="6.69118">
        <ele>1541.8000488281</ele>
        <time>2013-05-12T09:36:41Z</time>
      </trkpt>
      <trkpt lat="45.54161" lon="6.69124">
        <ele>1540.8000488281</ele>
        <time>2013-05-12T09:36:43Z</time>
      </trkpt>
      <trkpt lat="45.54164" lon="6.6913">
        <ele>1540</ele>
        <time>2013-05-12T09:36:45Z</time>
      </trkpt>
      <trkpt lat="45.54166" lon="6.69138">
        <ele>1538.4000244141</ele>
        <time>2013-05-12T09:36:47Z</time>
      </trkpt>
      <trkpt lat="45.54171" lon="6.69142">
        <ele>1537</ele>
        <time>2013-05-12T09:36:49Z</time>
      </trkpt>
      <trkpt lat="45.54176" lon="6.69145">
        <ele>1535.8000488281</ele>
        <time>2013-05-12T09:36:51Z</time>
      </trkpt>
      <trkpt lat="45.5418" lon="6.69151">
        <ele>1534.8000488281</ele>
        <time>2013-05-12T09:36:53Z</time>
      </trkpt>
      <trkpt lat="45.54183" lon="6.69157">
        <ele>1533.8000488281</ele>
        <time>2013-05-12T09:36:55Z</time>
      </trkpt>
      <trkpt lat="45.54189" lon="6.69166">
        <ele>1533</ele>
        <time>2013-05-12T09:36:59Z</time>
      </trkpt>
      <trkpt lat="45.54193" lon="6.69174">
        <ele>1532.4000244141</ele>
        <time>2013-05-12T09:37:01Z</time>
      </trkpt>
      <trkpt lat="45.54198" lon="6.69181">
        <ele>1531.4000244141</ele>
        <time>2013-05-12T09:37:03Z</time>
      </trkpt>
      <trkpt lat="45.54202" lon="6.69188">
        <ele>1530.4000244141</ele>
        <time>2013-05-12T09:37:05Z</time>
      </trkpt>
      <trkpt lat="45.54208" lon="6.69193">
        <ele>1529</ele>
        <time>2013-05-12T09:37:07Z</time>
      </trkpt>
      <trkpt lat="45.54217" lon="6.69196">
        <ele>1528</ele>
        <time>2013-05-12T09:37:09Z</time>
      </trkpt>
      <trkpt lat="45.5422" lon="6.69202">
        <ele>1526.8000488281</ele>
        <time>2013-05-12T09:37:11Z</time>
      </trkpt>
      <trkpt lat="45.54225" lon="6.69207">
        <ele>1525.4000244141</ele>
        <time>2013-05-12T09:37:13Z</time>
      </trkpt>
      <trkpt lat="45.54232" lon="6.69211">
        <ele>1524.4000244141</ele>
        <time>2013-05-12T09:37:15Z</time>
      </trkpt>
      <trkpt lat="45.54238" lon="6.69214">
        <ele>1523</ele>
        <time>2013-05-12T09:37:17Z</time>
      </trkpt>
      <trkpt lat="45.54243" lon="6.69216">
        <ele>1522</ele>
        <time>2013-05-12T09:37:19Z</time>
      </trkpt>
      <trkpt lat="45.54247" lon="6.69222">
        <ele>1521.4000244141</ele>
        <time>2013-05-12T09:37:21Z</time>
      </trkpt>
      <trkpt lat="45.54252" lon="6.69225">
        <ele>1520.8000488281</ele>
        <time>2013-05-12T09:37:23Z</time>
      </trkpt>
      <trkpt lat="45.54256" lon="6.69231">
        <ele>1520</ele>
        <time>2013-05-12T09:37:25Z</time>
      </trkpt>
      <trkpt lat="45.54262" lon="6.69234">
        <ele>1519</ele>
        <time>2013-05-12T09:37:27Z</time>
      </trkpt>
      <trkpt lat="45.54267" lon="6.69239">
        <ele>1518</ele>
        <time>2013-05-12T09:37:29Z</time>
      </trkpt>
      <trkpt lat="45.54277" lon="6.6925">
        <ele>1515.8000488281</ele>
        <time>2013-05-12T09:37:33Z</time>
      </trkpt>
      <trkpt lat="45.54283" lon="6.69253">
        <ele>1514.4000244141</ele>
        <time>2013-05-12T09:37:35Z</time>
      </trkpt>
      <trkpt lat="45.54287" lon="6.69259">
        <ele>1513.4000244141</ele>
        <time>2013-05-12T09:37:37Z</time>
      </trkpt>
      <trkpt lat="45.54292" lon="6.6926">
        <ele>1512.4000244141</ele>
        <time>2013-05-12T09:37:39Z</time>
      </trkpt>
      <trkpt lat="45.54302" lon="6.69259">
        <ele>1512</ele>
        <time>2013-05-12T09:37:44Z</time>
      </trkpt>
      <trkpt lat="45.54307" lon="6.69253">
        <ele>1511</ele>
        <time>2013-05-12T09:37:47Z</time>
      </trkpt>
      <trkpt lat="45.54311" lon="6.6925">
        <ele>1510</ele>
        <time>2013-05-12T09:37:49Z</time>
      </trkpt>
      <trkpt lat="45.54314" lon="6.69247">
        <ele>1509</ele>
        <time>2013-05-12T09:37:51Z</time>
      </trkpt>
      <trkpt lat="45.54318" lon="6.69246">
        <ele>1507.4000244141</ele>
        <time>2013-05-12T09:37:53Z</time>
      </trkpt>
      <trkpt lat="45.54322" lon="6.69243">
        <ele>1505.4000244141</ele>
        <time>2013-05-12T09:37:55Z</time>
      </trkpt>
      <trkpt lat="45.54324" lon="6.69239">
        <ele>1504</ele>
        <time>2013-05-12T09:37:57Z</time>
      </trkpt>
      <trkpt lat="45.54326" lon="6.69234">
        <ele>1502.4000244141</ele>
        <time>2013-05-12T09:37:59Z</time>
      </trkpt>
      <trkpt lat="45.54329" lon="6.69229">
        <ele>1501</ele>
        <time>2013-05-12T09:38:01Z</time>
      </trkpt>
      <trkpt lat="45.54331" lon="6.69224">
        <ele>1499.8000488281</ele>
        <time>2013-05-12T09:38:03Z</time>
      </trkpt>
      <trkpt lat="45.54334" lon="6.6922">
        <ele>1499</ele>
        <time>2013-05-12T09:38:05Z</time>
      </trkpt>
      <trkpt lat="45.54338" lon="6.69214">
        <ele>1498.4000244141</ele>
        <time>2013-05-12T09:38:07Z</time>
      </trkpt>
      <trkpt lat="45.54341" lon="6.6921">
        <ele>1498</ele>
        <time>2013-05-12T09:38:09Z</time>
      </trkpt>
      <trkpt lat="45.54343" lon="6.69206">
        <ele>1496.8000488281</ele>
        <time>2013-05-12T09:38:11Z</time>
      </trkpt>
      <trkpt lat="45.54345" lon="6.69199">
        <ele>1495</ele>
        <time>2013-05-12T09:38:13Z</time>
      </trkpt>
      <trkpt lat="45.54346" lon="6.69192">
        <ele>1493</ele>
        <time>2013-05-12T09:38:15Z</time>
      </trkpt>
      <trkpt lat="45.54346" lon="6.69184">
        <ele>1491.8000488281</ele>
        <time>2013-05-12T09:38:17Z</time>
      </trkpt>
      <trkpt lat="45.54345" lon="6.69176">
        <ele>1490</ele>
        <time>2013-05-12T09:38:19Z</time>
      </trkpt>
      <trkpt lat="45.54345" lon="6.69166">
        <ele>1489.4000244141</ele>
        <time>2013-05-12T09:38:21Z</time>
      </trkpt>
      <trkpt lat="45.54344" lon="6.69158">
        <ele>1488.4000244141</ele>
        <time>2013-05-12T09:38:23Z</time>
      </trkpt>
      <trkpt lat="45.54343" lon="6.6915">
        <ele>1488</ele>
        <time>2013-05-12T09:38:25Z</time>
      </trkpt>
      <trkpt lat="45.54342" lon="6.69141">
        <ele>1487</ele>
        <time>2013-05-12T09:38:27Z</time>
      </trkpt>
      <trkpt lat="45.5434" lon="6.69133">
        <ele>1485.4000244141</ele>
        <time>2013-05-12T09:38:29Z</time>
      </trkpt>
      <trkpt lat="45.54338" lon="6.69126">
        <ele>1484</ele>
        <time>2013-05-12T09:38:31Z</time>
      </trkpt>
      <trkpt lat="45.54337" lon="6.69118">
        <ele>1482.4000244141</ele>
        <time>2013-05-12T09:38:33Z</time>
      </trkpt>
      <trkpt lat="45.54337" lon="6.6911">
        <ele>1481</ele>
        <time>2013-05-12T09:38:35Z</time>
      </trkpt>
      <trkpt lat="45.54336" lon="6.69102">
        <ele>1479.8000488281</ele>
        <time>2013-05-12T09:38:37Z</time>
      </trkpt>
      <trkpt lat="45.5434" lon="6.69091">
        <ele>1479</ele>
        <time>2013-05-12T09:38:40Z</time>
      </trkpt>
      <trkpt lat="45.54345" lon="6.69085">
        <ele>1478.4000244141</ele>
        <time>2013-05-12T09:38:42Z</time>
      </trkpt>
      <trkpt lat="45.5435" lon="6.6908">
        <ele>1477</ele>
        <time>2013-05-12T09:38:44Z</time>
      </trkpt>
      <trkpt lat="45.54354" lon="6.69077">
        <ele>1475.8000488281</ele>
        <time>2013-05-12T09:38:46Z</time>
      </trkpt>
      <trkpt lat="45.54362" lon="6.69063">
        <ele>1473</ele>
        <time>2013-05-12T09:38:50Z</time>
      </trkpt>
      <trkpt lat="45.54368" lon="6.69058">
        <ele>1472.4000244141</ele>
        <time>2013-05-12T09:38:52Z</time>
      </trkpt>
      <trkpt lat="45.54373" lon="6.69056">
        <ele>1471.4000244141</ele>
        <time>2013-05-12T09:38:54Z</time>
      </trkpt>
      <trkpt lat="45.54377" lon="6.69053">
        <ele>1470</ele>
        <time>2013-05-12T09:38:56Z</time>
      </trkpt>
      <trkpt lat="45.5438" lon="6.69053">
        <ele>1469</ele>
        <time>2013-05-12T09:38:58Z</time>
      </trkpt>
      <trkpt lat="45.54382" lon="6.69053">
        <ele>1468</ele>
        <time>2013-05-12T09:39:00Z</time>
      </trkpt>
      <trkpt lat="45.54383" lon="6.69051">
        <ele>1467</ele>
        <time>2013-05-12T09:39:02Z</time>
      </trkpt>
      <trkpt lat="45.54383" lon="6.69052">
        <ele>1466.8000488281</ele>
        <time>2013-05-12T09:39:04Z</time>
      </trkpt>
      <trkpt lat="45.54384" lon="6.69052">
        <ele>1466.8000488281</ele>
        <time>2013-05-12T09:39:09Z</time>
      </trkpt>
      <trkpt lat="45.54385" lon="6.69052">
        <ele>1466.8000488281</ele>
        <time>2013-05-12T09:39:16Z</time>
      </trkpt>
      <trkpt lat="45.5439" lon="6.69045">
        <ele>1466.8000488281</ele>
        <time>2013-05-12T09:39:27Z</time>
      </trkpt>
      <trkpt lat="45.54392" lon="6.69041">
        <ele>1466.4000244141</ele>
        <time>2013-05-12T09:39:29Z</time>
      </trkpt>
      <trkpt lat="45.54395" lon="6.69036">
        <ele>1465.8000488281</ele>
        <time>2013-05-12T09:39:31Z</time>
      </trkpt>
      <trkpt lat="45.54396" lon="6.69029">
        <ele>1465</ele>
        <time>2013-05-12T09:39:33Z</time>
      </trkpt>
      <trkpt lat="45.54394" lon="6.69021">
        <ele>1464</ele>
        <time>2013-05-12T09:39:35Z</time>
      </trkpt>
      <trkpt lat="45.54394" lon="6.69011">
        <ele>1462.4000244141</ele>
        <time>2013-05-12T09:39:37Z</time>
      </trkpt>
      <trkpt lat="45.54392" lon="6.69003">
        <ele>1461</ele>
        <time>2013-05-12T09:39:39Z</time>
      </trkpt>
      <trkpt lat="45.54391" lon="6.68995">
        <ele>1459.4000244141</ele>
        <time>2013-05-12T09:39:41Z</time>
      </trkpt>
      <trkpt lat="45.54391" lon="6.68986">
        <ele>1458</ele>
        <time>2013-05-12T09:39:43Z</time>
      </trkpt>
      <trkpt lat="45.54388" lon="6.68978">
        <ele>1457</ele>
        <time>2013-05-12T09:39:45Z</time>
      </trkpt>
      <trkpt lat="45.54386" lon="6.68969">
        <ele>1456</ele>
        <time>2013-05-12T09:39:47Z</time>
      </trkpt>
      <trkpt lat="45.54383" lon="6.68962">
        <ele>1455.4000244141</ele>
        <time>2013-05-12T09:39:49Z</time>
      </trkpt>
      <trkpt lat="45.5438" lon="6.68956">
        <ele>1454.8000488281</ele>
        <time>2013-05-12T09:39:51Z</time>
      </trkpt>
      <trkpt lat="45.54378" lon="6.6895">
        <ele>1454</ele>
        <time>2013-05-12T09:39:53Z</time>
      </trkpt>
      <trkpt lat="45.54374" lon="6.68945">
        <ele>1453.4000244141</ele>
        <time>2013-05-12T09:39:55Z</time>
      </trkpt>
      <trkpt lat="45.54371" lon="6.68937">
        <ele>1452.4000244141</ele>
        <time>2013-05-12T09:39:57Z</time>
      </trkpt>
      <trkpt lat="45.54373" lon="6.68931">
        <ele>1451.4000244141</ele>
        <time>2013-05-12T09:39:59Z</time>
      </trkpt>
      <trkpt lat="45.54378" lon="6.68929">
        <ele>1450.4000244141</ele>
        <time>2013-05-12T09:40:01Z</time>
      </trkpt>
      <trkpt lat="45.54384" lon="6.68929">
        <ele>1448</ele>
        <time>2013-05-12T09:40:03Z</time>
      </trkpt>
      <trkpt lat="45.54387" lon="6.68925">
        <ele>1446</ele>
        <time>2013-05-12T09:40:05Z</time>
      </trkpt>
      <trkpt lat="45.54384" lon="6.68919">
        <ele>1444.4000244141</ele>
        <time>2013-05-12T09:40:07Z</time>
      </trkpt>
      <trkpt lat="45.54377" lon="6.68917">
        <ele>1443</ele>
        <time>2013-05-12T09:40:09Z</time>
      </trkpt>
      <trkpt lat="45.54372" lon="6.68913">
        <ele>1441.4000244141</ele>
        <time>2013-05-12T09:40:11Z</time>
      </trkpt>
      <trkpt lat="45.54367" lon="6.68908">
        <ele>1440</ele>
        <time>2013-05-12T09:40:13Z</time>
      </trkpt>
      <trkpt lat="45.54362" lon="6.68902">
        <ele>1439</ele>
        <time>2013-05-12T09:40:15Z</time>
      </trkpt>
      <trkpt lat="45.54355" lon="6.68885">
        <ele>1437</ele>
        <time>2013-05-12T09:40:19Z</time>
      </trkpt>
      <trkpt lat="45.54351" lon="6.68877">
        <ele>1435.8000488281</ele>
        <time>2013-05-12T09:40:21Z</time>
      </trkpt>
      <trkpt lat="45.54347" lon="6.6887">
        <ele>1434.4000244141</ele>
        <time>2013-05-12T09:40:23Z</time>
      </trkpt>
      <trkpt lat="45.54342" lon="6.68863">
        <ele>1433</ele>
        <time>2013-05-12T09:40:25Z</time>
      </trkpt>
      <trkpt lat="45.54337" lon="6.68858">
        <ele>1432</ele>
        <time>2013-05-12T09:40:27Z</time>
      </trkpt>
      <trkpt lat="45.54333" lon="6.68853">
        <ele>1431</ele>
        <time>2013-05-12T09:40:29Z</time>
      </trkpt>
      <trkpt lat="45.54329" lon="6.68847">
        <ele>1430</ele>
        <time>2013-05-12T09:40:31Z</time>
      </trkpt>
      <trkpt lat="45.54325" lon="6.6884">
        <ele>1428.8000488281</ele>
        <time>2013-05-12T09:40:33Z</time>
      </trkpt>
      <trkpt lat="45.54321" lon="6.68834">
        <ele>1428</ele>
        <time>2013-05-12T09:40:35Z</time>
      </trkpt>
      <trkpt lat="45.54318" lon="6.68827">
        <ele>1427.4000244141</ele>
        <time>2013-05-12T09:40:37Z</time>
      </trkpt>
      <trkpt lat="45.54315" lon="6.6882">
        <ele>1426.4000244141</ele>
        <time>2013-05-12T09:40:39Z</time>
      </trkpt>
      <trkpt lat="45.54311" lon="6.68815">
        <ele>1425.8000488281</ele>
        <time>2013-05-12T09:40:41Z</time>
      </trkpt>
      <trkpt lat="45.54307" lon="6.68808">
        <ele>1425</ele>
        <time>2013-05-12T09:40:43Z</time>
      </trkpt>
      <trkpt lat="45.54302" lon="6.68802">
        <ele>1424</ele>
        <time>2013-05-12T09:40:45Z</time>
      </trkpt>
      <trkpt lat="45.54298" lon="6.68798">
        <ele>1422.8000488281</ele>
        <time>2013-05-12T09:40:47Z</time>
      </trkpt>
      <trkpt lat="45.54294" lon="6.68789">
        <ele>1421.4000244141</ele>
        <time>2013-05-12T09:40:49Z</time>
      </trkpt>
      <trkpt lat="45.54289" lon="6.68782">
        <ele>1420</ele>
        <time>2013-05-12T09:40:51Z</time>
      </trkpt>
      <trkpt lat="45.54285" lon="6.68776">
        <ele>1419.8000488281</ele>
        <time>2013-05-12T09:40:53Z</time>
      </trkpt>
      <trkpt lat="45.54282" lon="6.6877">
        <ele>1418.8000488281</ele>
        <time>2013-05-12T09:40:55Z</time>
      </trkpt>
      <trkpt lat="45.54278" lon="6.68761">
        <ele>1417.8000488281</ele>
        <time>2013-05-12T09:40:57Z</time>
      </trkpt>
      <trkpt lat="45.5427" lon="6.68734">
        <ele>1417</ele>
        <time>2013-05-12T09:41:03Z</time>
      </trkpt>
      <trkpt lat="45.5426" lon="6.68711">
        <ele>1416.8000488281</ele>
        <time>2013-05-12T09:41:09Z</time>
      </trkpt>
      <trkpt lat="45.54256" lon="6.68705">
        <ele>1415.8000488281</ele>
        <time>2013-05-12T09:41:11Z</time>
      </trkpt>
      <trkpt lat="45.54252" lon="6.68697">
        <ele>1415</ele>
        <time>2013-05-12T09:41:13Z</time>
      </trkpt>
      <trkpt lat="45.54248" lon="6.6869">
        <ele>1414.4000244141</ele>
        <time>2013-05-12T09:41:15Z</time>
      </trkpt>
      <trkpt lat="45.54245" lon="6.68683">
        <ele>1413.4000244141</ele>
        <time>2013-05-12T09:41:17Z</time>
      </trkpt>
      <trkpt lat="45.54243" lon="6.68675">
        <ele>1413</ele>
        <time>2013-05-12T09:41:19Z</time>
      </trkpt>
      <trkpt lat="45.54239" lon="6.68663">
        <ele>1411.8000488281</ele>
        <time>2013-05-12T09:41:22Z</time>
      </trkpt>
      <trkpt lat="45.54236" lon="6.68657">
        <ele>1411</ele>
        <time>2013-05-12T09:41:24Z</time>
      </trkpt>
      <trkpt lat="45.54233" lon="6.6865">
        <ele>1410</ele>
        <time>2013-05-12T09:41:26Z</time>
      </trkpt>
      <trkpt lat="45.54231" lon="6.68643">
        <ele>1409</ele>
        <time>2013-05-12T09:41:28Z</time>
      </trkpt>
      <trkpt lat="45.54228" lon="6.68635">
        <ele>1408</ele>
        <time>2013-05-12T09:41:30Z</time>
      </trkpt>
      <trkpt lat="45.54226" lon="6.68626">
        <ele>1407.4000244141</ele>
        <time>2013-05-12T09:41:32Z</time>
      </trkpt>
      <trkpt lat="45.54223" lon="6.68618">
        <ele>1406.4000244141</ele>
        <time>2013-05-12T09:41:34Z</time>
      </trkpt>
      <trkpt lat="45.54219" lon="6.68611">
        <ele>1405.4000244141</ele>
        <time>2013-05-12T09:41:36Z</time>
      </trkpt>
      <trkpt lat="45.54224" lon="6.68605">
        <ele>1402.4000244141</ele>
        <time>2013-05-12T09:41:40Z</time>
      </trkpt>
      <trkpt lat="45.54233" lon="6.68611">
        <ele>1398.4000244141</ele>
        <time>2013-05-12T09:41:45Z</time>
      </trkpt>
      <trkpt lat="45.54236" lon="6.68615">
        <ele>1398</ele>
        <time>2013-05-12T09:41:47Z</time>
      </trkpt>
      <trkpt lat="45.54238" lon="6.68619">
        <ele>1397.4000244141</ele>
        <time>2013-05-12T09:41:49Z</time>
      </trkpt>
      <trkpt lat="45.54242" lon="6.68623">
        <ele>1396.8000488281</ele>
        <time>2013-05-12T09:41:51Z</time>
      </trkpt>
      <trkpt lat="45.54247" lon="6.68627">
        <ele>1396.4000244141</ele>
        <time>2013-05-12T09:41:53Z</time>
      </trkpt>
      <trkpt lat="45.54253" lon="6.6863">
        <ele>1395.4000244141</ele>
        <time>2013-05-12T09:41:55Z</time>
      </trkpt>
      <trkpt lat="45.54257" lon="6.68635">
        <ele>1394.4000244141</ele>
        <time>2013-05-12T09:41:57Z</time>
      </trkpt>
      <trkpt lat="45.5426" lon="6.68641">
        <ele>1393</ele>
        <time>2013-05-12T09:41:59Z</time>
      </trkpt>
      <trkpt lat="45.54264" lon="6.68645">
        <ele>1392</ele>
        <time>2013-05-12T09:42:01Z</time>
      </trkpt>
      <trkpt lat="45.5427" lon="6.68649">
        <ele>1391.4000244141</ele>
        <time>2013-05-12T09:42:03Z</time>
      </trkpt>
      <trkpt lat="45.54275" lon="6.68654">
        <ele>1390.4000244141</ele>
        <time>2013-05-12T09:42:05Z</time>
      </trkpt>
      <trkpt lat="45.54281" lon="6.6866">
        <ele>1389</ele>
        <time>2013-05-12T09:42:07Z</time>
      </trkpt>
      <trkpt lat="45.54286" lon="6.68664">
        <ele>1388</ele>
        <time>2013-05-12T09:42:09Z</time>
      </trkpt>
      <trkpt lat="45.54297" lon="6.68672">
        <ele>1387.4000244141</ele>
        <time>2013-05-12T09:42:13Z</time>
      </trkpt>
      <trkpt lat="45.54304" lon="6.68674">
        <ele>1386.4000244141</ele>
        <time>2013-05-12T09:42:15Z</time>
      </trkpt>
      <trkpt lat="45.54311" lon="6.68676">
        <ele>1385.4000244141</ele>
        <time>2013-05-12T09:42:17Z</time>
      </trkpt>
      <trkpt lat="45.54321" lon="6.68679">
        <ele>1385.4000244141</ele>
        <time>2013-05-12T09:42:20Z</time>
      </trkpt>
      <trkpt lat="45.54331" lon="6.68682">
        <ele>1384.8000488281</ele>
        <time>2013-05-12T09:42:23Z</time>
      </trkpt>
      <trkpt lat="45.54333" lon="6.68684">
        <ele>1384</ele>
        <time>2013-05-12T09:42:25Z</time>
      </trkpt>
      <trkpt lat="45.54339" lon="6.68688">
        <ele>1383</ele>
        <time>2013-05-12T09:42:27Z</time>
      </trkpt>
      <trkpt lat="45.54351" lon="6.68693">
        <ele>1383</ele>
        <time>2013-05-12T09:42:31Z</time>
      </trkpt>
      <trkpt lat="45.54358" lon="6.68696">
        <ele>1382.4000244141</ele>
        <time>2013-05-12T09:42:33Z</time>
      </trkpt>
      <trkpt lat="45.5437" lon="6.68703">
        <ele>1381.4000244141</ele>
        <time>2013-05-12T09:42:37Z</time>
      </trkpt>
      <trkpt lat="45.54378" lon="6.68709">
        <ele>1380.8000488281</ele>
        <time>2013-05-12T09:42:40Z</time>
      </trkpt>
      <trkpt lat="45.54385" lon="6.68712">
        <ele>1380</ele>
        <time>2013-05-12T09:42:42Z</time>
      </trkpt>
      <trkpt lat="45.54389" lon="6.68716">
        <ele>1379</ele>
        <time>2013-05-12T09:42:44Z</time>
      </trkpt>
      <trkpt lat="45.54395" lon="6.68719">
        <ele>1378.4000244141</ele>
        <time>2013-05-12T09:42:46Z</time>
      </trkpt>
      <trkpt lat="45.544" lon="6.68722">
        <ele>1377.8000488281</ele>
        <time>2013-05-12T09:42:48Z</time>
      </trkpt>
      <trkpt lat="45.54406" lon="6.68725">
        <ele>1377</ele>
        <time>2013-05-12T09:42:50Z</time>
      </trkpt>
      <trkpt lat="45.54413" lon="6.68728">
        <ele>1376.4000244141</ele>
        <time>2013-05-12T09:42:52Z</time>
      </trkpt>
      <trkpt lat="45.5442" lon="6.68731">
        <ele>1375.4000244141</ele>
        <time>2013-05-12T09:42:54Z</time>
      </trkpt>
      <trkpt lat="45.54425" lon="6.68733">
        <ele>1374.8000488281</ele>
        <time>2013-05-12T09:42:56Z</time>
      </trkpt>
      <trkpt lat="45.54431" lon="6.68738">
        <ele>1374</ele>
        <time>2013-05-12T09:42:58Z</time>
      </trkpt>
      <trkpt lat="45.54436" lon="6.6874">
        <ele>1373</ele>
        <time>2013-05-12T09:43:00Z</time>
      </trkpt>
      <trkpt lat="45.54448" lon="6.68747">
        <ele>1372</ele>
        <time>2013-05-12T09:43:04Z</time>
      </trkpt>
      <trkpt lat="45.54453" lon="6.6875">
        <ele>1371</ele>
        <time>2013-05-12T09:43:06Z</time>
      </trkpt>
      <trkpt lat="45.54458" lon="6.68754">
        <ele>1370.4000244141</ele>
        <time>2013-05-12T09:43:08Z</time>
      </trkpt>
      <trkpt lat="45.54462" lon="6.68756">
        <ele>1369.4000244141</ele>
        <time>2013-05-12T09:43:10Z</time>
      </trkpt>
      <trkpt lat="45.54468" lon="6.68758">
        <ele>1369</ele>
        <time>2013-05-12T09:43:12Z</time>
      </trkpt>
      <trkpt lat="45.54479" lon="6.68762">
        <ele>1368.4000244141</ele>
        <time>2013-05-12T09:43:15Z</time>
      </trkpt>
      <trkpt lat="45.54486" lon="6.68765">
        <ele>1366.4000244141</ele>
        <time>2013-05-12T09:43:17Z</time>
      </trkpt>
      <trkpt lat="45.5451" lon="6.68779">
        <ele>1366.4000244141</ele>
        <time>2013-05-12T09:43:25Z</time>
      </trkpt>
      <trkpt lat="45.54524" lon="6.68784">
        <ele>1365.8000488281</ele>
        <time>2013-05-12T09:43:29Z</time>
      </trkpt>
      <trkpt lat="45.54529" lon="6.68787">
        <ele>1365</ele>
        <time>2013-05-12T09:43:31Z</time>
      </trkpt>
      <trkpt lat="45.54542" lon="6.6879">
        <ele>1364.4000244141</ele>
        <time>2013-05-12T09:43:35Z</time>
      </trkpt>
      <trkpt lat="45.5455" lon="6.6879">
        <ele>1363</ele>
        <time>2013-05-12T09:43:39Z</time>
      </trkpt>
      <trkpt lat="45.54561" lon="6.68793">
        <ele>1362.4000244141</ele>
        <time>2013-05-12T09:43:43Z</time>
      </trkpt>
      <trkpt lat="45.54565" lon="6.68795">
        <ele>1361.4000244141</ele>
        <time>2013-05-12T09:43:45Z</time>
      </trkpt>
      <trkpt lat="45.5457" lon="6.68797">
        <ele>1360.8000488281</ele>
        <time>2013-05-12T09:43:47Z</time>
      </trkpt>
      <trkpt lat="45.54577" lon="6.68799">
        <ele>1359.8000488281</ele>
        <time>2013-05-12T09:43:49Z</time>
      </trkpt>
      <trkpt lat="45.54582" lon="6.68802">
        <ele>1358.8000488281</ele>
        <time>2013-05-12T09:43:51Z</time>
      </trkpt>
      <trkpt lat="45.54589" lon="6.68806">
        <ele>1357.8000488281</ele>
        <time>2013-05-12T09:43:53Z</time>
      </trkpt>
      <trkpt lat="45.54595" lon="6.68808">
        <ele>1356.8000488281</ele>
        <time>2013-05-12T09:43:55Z</time>
      </trkpt>
      <trkpt lat="45.546" lon="6.68811">
        <ele>1356</ele>
        <time>2013-05-12T09:43:57Z</time>
      </trkpt>
      <trkpt lat="45.54607" lon="6.68814">
        <ele>1355</ele>
        <time>2013-05-12T09:43:59Z</time>
      </trkpt>
      <trkpt lat="45.5461" lon="6.68819">
        <ele>1354</ele>
        <time>2013-05-12T09:44:01Z</time>
      </trkpt>
      <trkpt lat="45.54615" lon="6.68824">
        <ele>1353</ele>
        <time>2013-05-12T09:44:03Z</time>
      </trkpt>
      <trkpt lat="45.5462" lon="6.68828">
        <ele>1352</ele>
        <time>2013-05-12T09:44:05Z</time>
      </trkpt>
      <trkpt lat="45.54624" lon="6.68834">
        <ele>1351</ele>
        <time>2013-05-12T09:44:07Z</time>
      </trkpt>
      <trkpt lat="45.54627" lon="6.68839">
        <ele>1350</ele>
        <time>2013-05-12T09:44:09Z</time>
      </trkpt>
      <trkpt lat="45.54629" lon="6.68841">
        <ele>1349</ele>
        <time>2013-05-12T09:44:11Z</time>
      </trkpt>
      <trkpt lat="45.5463" lon="6.68843">
        <ele>1348</ele>
        <time>2013-05-12T09:44:13Z</time>
      </trkpt>
      <trkpt lat="45.54631" lon="6.68845">
        <ele>1347</ele>
        <time>2013-05-12T09:44:15Z</time>
      </trkpt>
      <trkpt lat="45.54636" lon="6.68847">
        <ele>1346.4000244141</ele>
        <time>2013-05-12T09:44:17Z</time>
      </trkpt>
      <trkpt lat="45.5464" lon="6.6885">
        <ele>1345.4000244141</ele>
        <time>2013-05-12T09:44:19Z</time>
      </trkpt>
      <trkpt lat="45.54646" lon="6.68855">
        <ele>1343</ele>
        <time>2013-05-12T09:44:22Z</time>
      </trkpt>
      <trkpt lat="45.54653" lon="6.6886">
        <ele>1343</ele>
        <time>2013-05-12T09:44:25Z</time>
      </trkpt>
      <trkpt lat="45.54658" lon="6.68864">
        <ele>1342</ele>
        <time>2013-05-12T09:44:27Z</time>
      </trkpt>
      <trkpt lat="45.54663" lon="6.68868">
        <ele>1341</ele>
        <time>2013-05-12T09:44:29Z</time>
      </trkpt>
      <trkpt lat="45.54675" lon="6.68878">
        <ele>1339.4000244141</ele>
        <time>2013-05-12T09:44:34Z</time>
      </trkpt>
      <trkpt lat="45.54679" lon="6.68882">
        <ele>1338.8000488281</ele>
        <time>2013-05-12T09:44:36Z</time>
      </trkpt>
      <trkpt lat="45.54684" lon="6.68885">
        <ele>1338</ele>
        <time>2013-05-12T09:44:38Z</time>
      </trkpt>
      <trkpt lat="45.54689" lon="6.68888">
        <ele>1337</ele>
        <time>2013-05-12T09:44:40Z</time>
      </trkpt>
      <trkpt lat="45.54696" lon="6.68893">
        <ele>1336</ele>
        <time>2013-05-12T09:44:43Z</time>
      </trkpt>
      <trkpt lat="45.54699" lon="6.68896">
        <ele>1335.4000244141</ele>
        <time>2013-05-12T09:44:45Z</time>
      </trkpt>
      <trkpt lat="45.54704" lon="6.68898">
        <ele>1333.4000244141</ele>
        <time>2013-05-12T09:44:47Z</time>
      </trkpt>
      <trkpt lat="45.54709" lon="6.689">
        <ele>1332</ele>
        <time>2013-05-12T09:44:49Z</time>
      </trkpt>
      <trkpt lat="45.54712" lon="6.68902">
        <ele>1331</ele>
        <time>2013-05-12T09:44:51Z</time>
      </trkpt>
      <trkpt lat="45.54716" lon="6.68903">
        <ele>1330.4000244141</ele>
        <time>2013-05-12T09:44:53Z</time>
      </trkpt>
      <trkpt lat="45.54721" lon="6.68904">
        <ele>1329</ele>
        <time>2013-05-12T09:44:55Z</time>
      </trkpt>
      <trkpt lat="45.54725" lon="6.68905">
        <ele>1327.4000244141</ele>
        <time>2013-05-12T09:44:57Z</time>
      </trkpt>
      <trkpt lat="45.5473" lon="6.68906">
        <ele>1326.8000488281</ele>
        <time>2013-05-12T09:44:59Z</time>
      </trkpt>
      <trkpt lat="45.54734" lon="6.68906">
        <ele>1326.4000244141</ele>
        <time>2013-05-12T09:45:01Z</time>
      </trkpt>
      <trkpt lat="45.54737" lon="6.68905">
        <ele>1325</ele>
        <time>2013-05-12T09:45:03Z</time>
      </trkpt>
      <trkpt lat="45.54739" lon="6.68903">
        <ele>1323.4000244141</ele>
        <time>2013-05-12T09:45:05Z</time>
      </trkpt>
      <trkpt lat="45.54741" lon="6.68901">
        <ele>1322</ele>
        <time>2013-05-12T09:45:07Z</time>
      </trkpt>
      <trkpt lat="45.54742" lon="6.68896">
        <ele>1320.4000244141</ele>
        <time>2013-05-12T09:45:09Z</time>
      </trkpt>
      <trkpt lat="45.54741" lon="6.6889">
        <ele>1319.8000488281</ele>
        <time>2013-05-12T09:45:11Z</time>
      </trkpt>
      <trkpt lat="45.54739" lon="6.68884">
        <ele>1319</ele>
        <time>2013-05-12T09:45:13Z</time>
      </trkpt>
      <trkpt lat="45.54736" lon="6.68878">
        <ele>1318.4000244141</ele>
        <time>2013-05-12T09:45:15Z</time>
      </trkpt>
      <trkpt lat="45.54734" lon="6.68873">
        <ele>1318</ele>
        <time>2013-05-12T09:45:17Z</time>
      </trkpt>
      <trkpt lat="45.54731" lon="6.68867">
        <ele>1317.4000244141</ele>
        <time>2013-05-12T09:45:19Z</time>
      </trkpt>
      <trkpt lat="45.54728" lon="6.68861">
        <ele>1316.4000244141</ele>
        <time>2013-05-12T09:45:21Z</time>
      </trkpt>
      <trkpt lat="45.54726" lon="6.68855">
        <ele>1316</ele>
        <time>2013-05-12T09:45:23Z</time>
      </trkpt>
      <trkpt lat="45.54722" lon="6.6885">
        <ele>1315.4000244141</ele>
        <time>2013-05-12T09:45:25Z</time>
      </trkpt>
      <trkpt lat="45.5472" lon="6.68842">
        <ele>1314.4000244141</ele>
        <time>2013-05-12T09:45:27Z</time>
      </trkpt>
      <trkpt lat="45.54715" lon="6.68827">
        <ele>1313.8000488281</ele>
        <time>2013-05-12T09:45:32Z</time>
      </trkpt>
      <trkpt lat="45.54712" lon="6.68819">
        <ele>1313</ele>
        <time>2013-05-12T09:45:34Z</time>
      </trkpt>
      <trkpt lat="45.5471" lon="6.68811">
        <ele>1312</ele>
        <time>2013-05-12T09:45:36Z</time>
      </trkpt>
      <trkpt lat="45.54706" lon="6.68802">
        <ele>1311.4000244141</ele>
        <time>2013-05-12T09:45:39Z</time>
      </trkpt>
      <trkpt lat="45.54704" lon="6.68796">
        <ele>1310.8000488281</ele>
        <time>2013-05-12T09:45:41Z</time>
      </trkpt>
      <trkpt lat="45.54702" lon="6.68792">
        <ele>1310</ele>
        <time>2013-05-12T09:45:43Z</time>
      </trkpt>
      <trkpt lat="45.54704" lon="6.68791">
        <ele>1310</ele>
        <time>2013-05-12T09:45:46Z</time>
      </trkpt>
      <trkpt lat="45.54709" lon="6.68798">
        <ele>1309</ele>
        <time>2013-05-12T09:45:49Z</time>
      </trkpt>
      <trkpt lat="45.54718" lon="6.68806">
        <ele>1307.4000244141</ele>
        <time>2013-05-12T09:45:53Z</time>
      </trkpt>
      <trkpt lat="45.5472" lon="6.6881">
        <ele>1306</ele>
        <time>2013-05-12T09:45:55Z</time>
      </trkpt>
      <trkpt lat="45.54725" lon="6.68814">
        <ele>1304.8000488281</ele>
        <time>2013-05-12T09:45:57Z</time>
      </trkpt>
      <trkpt lat="45.54729" lon="6.6882">
        <ele>1303.4000244141</ele>
        <time>2013-05-12T09:45:59Z</time>
      </trkpt>
      <trkpt lat="45.54734" lon="6.68825">
        <ele>1302.4000244141</ele>
        <time>2013-05-12T09:46:01Z</time>
      </trkpt>
      <trkpt lat="45.54742" lon="6.68826">
        <ele>1301.4000244141</ele>
        <time>2013-05-12T09:46:03Z</time>
      </trkpt>
      <trkpt lat="45.54749" lon="6.68825">
        <ele>1301</ele>
        <time>2013-05-12T09:46:05Z</time>
      </trkpt>
      <trkpt lat="45.54755" lon="6.68819">
        <ele>1300</ele>
        <time>2013-05-12T09:46:07Z</time>
      </trkpt>
      <trkpt lat="45.5476" lon="6.68822">
        <ele>1299</ele>
        <time>2013-05-12T09:46:09Z</time>
      </trkpt>
      <trkpt lat="45.54762" lon="6.68822">
        <ele>1298</ele>
        <time>2013-05-12T09:46:11Z</time>
      </trkpt>
      <trkpt lat="45.54764" lon="6.68813">
        <ele>1296.4000244141</ele>
        <time>2013-05-12T09:46:13Z</time>
      </trkpt>
      <trkpt lat="45.54758" lon="6.68807">
        <ele>1295</ele>
        <time>2013-05-12T09:46:15Z</time>
      </trkpt>
      <trkpt lat="45.54754" lon="6.68802">
        <ele>1294</ele>
        <time>2013-05-12T09:46:17Z</time>
      </trkpt>
      <trkpt lat="45.54754" lon="6.68795">
        <ele>1292.4000244141</ele>
        <time>2013-05-12T09:46:19Z</time>
      </trkpt>
      <trkpt lat="45.54758" lon="6.68794">
        <ele>1291</ele>
        <time>2013-05-12T09:46:21Z</time>
      </trkpt>
      <trkpt lat="45.54763" lon="6.68796">
        <ele>1289.8000488281</ele>
        <time>2013-05-12T09:46:23Z</time>
      </trkpt>
      <trkpt lat="45.54771" lon="6.68795">
        <ele>1288.8000488281</ele>
        <time>2013-05-12T09:46:25Z</time>
      </trkpt>
      <trkpt lat="45.54773" lon="6.68798">
        <ele>1287.4000244141</ele>
        <time>2013-05-12T09:46:27Z</time>
      </trkpt>
      <trkpt lat="45.54779" lon="6.68798">
        <ele>1286.8000488281</ele>
        <time>2013-05-12T09:46:29Z</time>
      </trkpt>
      <trkpt lat="45.54783" lon="6.688">
        <ele>1285.8000488281</ele>
        <time>2013-05-12T09:46:31Z</time>
      </trkpt>
      <trkpt lat="45.54787" lon="6.68803">
        <ele>1284.4000244141</ele>
        <time>2013-05-12T09:46:33Z</time>
      </trkpt>
      <trkpt lat="45.54793" lon="6.68806">
        <ele>1283</ele>
        <time>2013-05-12T09:46:35Z</time>
      </trkpt>
      <trkpt lat="45.54797" lon="6.68808">
        <ele>1281.8000488281</ele>
        <time>2013-05-12T09:46:37Z</time>
      </trkpt>
      <trkpt lat="45.54802" lon="6.68812">
        <ele>1279.8000488281</ele>
        <time>2013-05-12T09:46:39Z</time>
      </trkpt>
      <trkpt lat="45.54808" lon="6.68815">
        <ele>1278</ele>
        <time>2013-05-12T09:46:41Z</time>
      </trkpt>
      <trkpt lat="45.54812" lon="6.68818">
        <ele>1276.4000244141</ele>
        <time>2013-05-12T09:46:43Z</time>
      </trkpt>
      <trkpt lat="45.54816" lon="6.68821">
        <ele>1275</ele>
        <time>2013-05-12T09:46:45Z</time>
      </trkpt>
      <trkpt lat="45.54822" lon="6.68826">
        <ele>1273.8000488281</ele>
        <time>2013-05-12T09:46:47Z</time>
      </trkpt>
      <trkpt lat="45.54827" lon="6.68831">
        <ele>1272.4000244141</ele>
        <time>2013-05-12T09:46:49Z</time>
      </trkpt>
      <trkpt lat="45.54836" lon="6.68834">
        <ele>1270.8000488281</ele>
        <time>2013-05-12T09:46:51Z</time>
      </trkpt>
      <trkpt lat="45.5485" lon="6.68839">
        <ele>1270</ele>
        <time>2013-05-12T09:46:55Z</time>
      </trkpt>
      <trkpt lat="45.54855" lon="6.6884">
        <ele>1269</ele>
        <time>2013-05-12T09:46:57Z</time>
      </trkpt>
      <trkpt lat="45.54861" lon="6.68845">
        <ele>1268</ele>
        <time>2013-05-12T09:46:59Z</time>
      </trkpt>
      <trkpt lat="45.54869" lon="6.68851">
        <ele>1267</ele>
        <time>2013-05-12T09:47:01Z</time>
      </trkpt>
      <trkpt lat="45.54877" lon="6.68859">
        <ele>1265.8000488281</ele>
        <time>2013-05-12T09:47:03Z</time>
      </trkpt>
      <trkpt lat="45.54891" lon="6.68868">
        <ele>1264</ele>
        <time>2013-05-12T09:47:07Z</time>
      </trkpt>
      <trkpt lat="45.54898" lon="6.68871">
        <ele>1263.4000244141</ele>
        <time>2013-05-12T09:47:09Z</time>
      </trkpt>
      <trkpt lat="45.54905" lon="6.68873">
        <ele>1262.8000488281</ele>
        <time>2013-05-12T09:47:11Z</time>
      </trkpt>
      <trkpt lat="45.54911" lon="6.68878">
        <ele>1262</ele>
        <time>2013-05-12T09:47:13Z</time>
      </trkpt>
      <trkpt lat="45.54916" lon="6.68882">
        <ele>1261</ele>
        <time>2013-05-12T09:47:15Z</time>
      </trkpt>
      <trkpt lat="45.54921" lon="6.68886">
        <ele>1260</ele>
        <time>2013-05-12T09:47:17Z</time>
      </trkpt>
      <trkpt lat="45.54926" lon="6.68889">
        <ele>1258.8000488281</ele>
        <time>2013-05-12T09:47:19Z</time>
      </trkpt>
      <trkpt lat="45.54932" lon="6.68894">
        <ele>1257.8000488281</ele>
        <time>2013-05-12T09:47:21Z</time>
      </trkpt>
      <trkpt lat="45.54936" lon="6.68896">
        <ele>1257</ele>
        <time>2013-05-12T09:47:23Z</time>
      </trkpt>
      <trkpt lat="45.54938" lon="6.68897">
        <ele>1256</ele>
        <time>2013-05-12T09:47:25Z</time>
      </trkpt>
      <trkpt lat="45.54939" lon="6.68895">
        <ele>1255</ele>
        <time>2013-05-12T09:47:27Z</time>
      </trkpt>
      <trkpt lat="45.5494" lon="6.6889">
        <ele>1254</ele>
        <time>2013-05-12T09:47:29Z</time>
      </trkpt>
      <trkpt lat="45.5494" lon="6.68884">
        <ele>1253</ele>
        <time>2013-05-12T09:47:31Z</time>
      </trkpt>
      <trkpt lat="45.54941" lon="6.68878">
        <ele>1251.8000488281</ele>
        <time>2013-05-12T09:47:33Z</time>
      </trkpt>
      <trkpt lat="45.54939" lon="6.68872">
        <ele>1250.8000488281</ele>
        <time>2013-05-12T09:47:35Z</time>
      </trkpt>
      <trkpt lat="45.54936" lon="6.68859">
        <ele>1247.8000488281</ele>
        <time>2013-05-12T09:47:38Z</time>
      </trkpt>
      <trkpt lat="45.54935" lon="6.68849">
        <ele>1247</ele>
        <time>2013-05-12T09:47:41Z</time>
      </trkpt>
      <trkpt lat="45.54933" lon="6.68842">
        <ele>1246.4000244141</ele>
        <time>2013-05-12T09:47:43Z</time>
      </trkpt>
      <trkpt lat="45.54931" lon="6.68834">
        <ele>1245.4000244141</ele>
        <time>2013-05-12T09:47:45Z</time>
      </trkpt>
      <trkpt lat="45.5493" lon="6.68824">
        <ele>1244.4000244141</ele>
        <time>2013-05-12T09:47:47Z</time>
      </trkpt>
      <trkpt lat="45.54928" lon="6.68812">
        <ele>1243</ele>
        <time>2013-05-12T09:47:49Z</time>
      </trkpt>
      <trkpt lat="45.54925" lon="6.68804">
        <ele>1242</ele>
        <time>2013-05-12T09:47:51Z</time>
      </trkpt>
      <trkpt lat="45.54923" lon="6.68795">
        <ele>1241</ele>
        <time>2013-05-12T09:47:53Z</time>
      </trkpt>
      <trkpt lat="45.54917" lon="6.6878">
        <ele>1240.4000244141</ele>
        <time>2013-05-12T09:47:56Z</time>
      </trkpt>
      <trkpt lat="45.54914" lon="6.68772">
        <ele>1239.4000244141</ele>
        <time>2013-05-12T09:47:58Z</time>
      </trkpt>
      <trkpt lat="45.54908" lon="6.68767">
        <ele>1238.4000244141</ele>
        <time>2013-05-12T09:48:00Z</time>
      </trkpt>
      <trkpt lat="45.54903" lon="6.68763">
        <ele>1237.4000244141</ele>
        <time>2013-05-12T09:48:02Z</time>
      </trkpt>
      <trkpt lat="45.54897" lon="6.6876">
        <ele>1236</ele>
        <time>2013-05-12T09:48:04Z</time>
      </trkpt>
      <trkpt lat="45.54895" lon="6.68755">
        <ele>1235</ele>
        <time>2013-05-12T09:48:06Z</time>
      </trkpt>
      <trkpt lat="45.54903" lon="6.68754">
        <ele>1233.8000488281</ele>
        <time>2013-05-12T09:48:08Z</time>
      </trkpt>
      <trkpt lat="45.54909" lon="6.68753">
        <ele>1232.4000244141</ele>
        <time>2013-05-12T09:48:10Z</time>
      </trkpt>
      <trkpt lat="45.54917" lon="6.68751">
        <ele>1231.8000488281</ele>
        <time>2013-05-12T09:48:13Z</time>
      </trkpt>
      <trkpt lat="45.54923" lon="6.68748">
        <ele>1231</ele>
        <time>2013-05-12T09:48:15Z</time>
      </trkpt>
      <trkpt lat="45.5493" lon="6.68746">
        <ele>1230</ele>
        <time>2013-05-12T09:48:17Z</time>
      </trkpt>
      <trkpt lat="45.54941" lon="6.68743">
        <ele>1229</ele>
        <time>2013-05-12T09:48:19Z</time>
      </trkpt>
      <trkpt lat="45.54956" lon="6.68748">
        <ele>1226.8000488281</ele>
        <time>2013-05-12T09:48:23Z</time>
      </trkpt>
      <trkpt lat="45.54963" lon="6.68748">
        <ele>1225</ele>
        <time>2013-05-12T09:48:25Z</time>
      </trkpt>
      <trkpt lat="45.54968" lon="6.68751">
        <ele>1224</ele>
        <time>2013-05-12T09:48:27Z</time>
      </trkpt>
      <trkpt lat="45.54975" lon="6.68756">
        <ele>1223</ele>
        <time>2013-05-12T09:48:29Z</time>
      </trkpt>
      <trkpt lat="45.54978" lon="6.68763">
        <ele>1222</ele>
        <time>2013-05-12T09:48:31Z</time>
      </trkpt>
      <trkpt lat="45.54982" lon="6.68768">
        <ele>1221</ele>
        <time>2013-05-12T09:48:33Z</time>
      </trkpt>
      <trkpt lat="45.54987" lon="6.68773">
        <ele>1220</ele>
        <time>2013-05-12T09:48:35Z</time>
      </trkpt>
      <trkpt lat="45.54994" lon="6.68775">
        <ele>1219</ele>
        <time>2013-05-12T09:48:37Z</time>
      </trkpt>
      <trkpt lat="45.55003" lon="6.68784">
        <ele>1218.4000244141</ele>
        <time>2013-05-12T09:48:40Z</time>
      </trkpt>
      <trkpt lat="45.55012" lon="6.68796">
        <ele>1217.8000488281</ele>
        <time>2013-05-12T09:48:43Z</time>
      </trkpt>
      <trkpt lat="45.55018" lon="6.68801">
        <ele>1217</ele>
        <time>2013-05-12T09:48:45Z</time>
      </trkpt>
      <trkpt lat="45.55024" lon="6.6881">
        <ele>1215.4000244141</ele>
        <time>2013-05-12T09:48:47Z</time>
      </trkpt>
      <trkpt lat="45.55026" lon="6.68812">
        <ele>1214.4000244141</ele>
        <time>2013-05-12T09:48:49Z</time>
      </trkpt>
      <trkpt lat="45.55024" lon="6.68804">
        <ele>1213</ele>
        <time>2013-05-12T09:48:51Z</time>
      </trkpt>
      <trkpt lat="45.55021" lon="6.68797">
        <ele>1212</ele>
        <time>2013-05-12T09:48:53Z</time>
      </trkpt>
      <trkpt lat="45.5502" lon="6.68789">
        <ele>1210.8000488281</ele>
        <time>2013-05-12T09:48:55Z</time>
      </trkpt>
      <trkpt lat="45.55016" lon="6.68781">
        <ele>1209.4000244141</ele>
        <time>2013-05-12T09:48:57Z</time>
      </trkpt>
      <trkpt lat="45.55013" lon="6.6877">
        <ele>1209</ele>
        <time>2013-05-12T09:49:00Z</time>
      </trkpt>
      <trkpt lat="45.5501" lon="6.68762">
        <ele>1208.4000244141</ele>
        <time>2013-05-12T09:49:02Z</time>
      </trkpt>
      <trkpt lat="45.55008" lon="6.68753">
        <ele>1207.4000244141</ele>
        <time>2013-05-12T09:49:04Z</time>
      </trkpt>
      <trkpt lat="45.55006" lon="6.68744">
        <ele>1207</ele>
        <time>2013-05-12T09:49:06Z</time>
      </trkpt>
      <trkpt lat="45.55005" lon="6.68735">
        <ele>1206.4000244141</ele>
        <time>2013-05-12T09:49:08Z</time>
      </trkpt>
      <trkpt lat="45.55" lon="6.68728">
        <ele>1205</ele>
        <time>2013-05-12T09:49:10Z</time>
      </trkpt>
      <trkpt lat="45.54994" lon="6.68724">
        <ele>1203.4000244141</ele>
        <time>2013-05-12T09:49:12Z</time>
      </trkpt>
      <trkpt lat="45.54988" lon="6.68717">
        <ele>1202</ele>
        <time>2013-05-12T09:49:14Z</time>
      </trkpt>
      <trkpt lat="45.54983" lon="6.68711">
        <ele>1201.4000244141</ele>
        <time>2013-05-12T09:49:16Z</time>
      </trkpt>
      <trkpt lat="45.5498" lon="6.68705">
        <ele>1200.4000244141</ele>
        <time>2013-05-12T09:49:18Z</time>
      </trkpt>
      <trkpt lat="45.54975" lon="6.68699">
        <ele>1199.4000244141</ele>
        <time>2013-05-12T09:49:20Z</time>
      </trkpt>
      <trkpt lat="45.54969" lon="6.68694">
        <ele>1197.4000244141</ele>
        <time>2013-05-12T09:49:22Z</time>
      </trkpt>
      <trkpt lat="45.54955" lon="6.68679">
        <ele>1197.4000244141</ele>
        <time>2013-05-12T09:49:28Z</time>
      </trkpt>
      <trkpt lat="45.54952" lon="6.68671">
        <ele>1196.8000488281</ele>
        <time>2013-05-12T09:49:30Z</time>
      </trkpt>
      <trkpt lat="45.54949" lon="6.68663">
        <ele>1196</ele>
        <time>2013-05-12T09:49:32Z</time>
      </trkpt>
      <trkpt lat="45.54946" lon="6.68654">
        <ele>1195</ele>
        <time>2013-05-12T09:49:34Z</time>
      </trkpt>
      <trkpt lat="45.54944" lon="6.68644">
        <ele>1195</ele>
        <time>2013-05-12T09:49:36Z</time>
      </trkpt>
      <trkpt lat="45.54937" lon="6.6863">
        <ele>1194.4000244141</ele>
        <time>2013-05-12T09:49:40Z</time>
      </trkpt>
      <trkpt lat="45.54927" lon="6.68613">
        <ele>1193</ele>
        <time>2013-05-12T09:49:44Z</time>
      </trkpt>
      <trkpt lat="45.5492" lon="6.68604">
        <ele>1192.4000244141</ele>
        <time>2013-05-12T09:49:47Z</time>
      </trkpt>
      <trkpt lat="45.54919" lon="6.68593">
        <ele>1191</ele>
        <time>2013-05-12T09:49:49Z</time>
      </trkpt>
      <trkpt lat="45.54921" lon="6.68584">
        <ele>1190</ele>
        <time>2013-05-12T09:49:51Z</time>
      </trkpt>
      <trkpt lat="45.54925" lon="6.68584">
        <ele>1189</ele>
        <time>2013-05-12T09:49:53Z</time>
      </trkpt>
      <trkpt lat="45.5493" lon="6.68589">
        <ele>1187.4000244141</ele>
        <time>2013-05-12T09:49:55Z</time>
      </trkpt>
      <trkpt lat="45.54934" lon="6.68593">
        <ele>1185.8000488281</ele>
        <time>2013-05-12T09:49:57Z</time>
      </trkpt>
      <trkpt lat="45.54941" lon="6.68593">
        <ele>1183.8000488281</ele>
        <time>2013-05-12T09:49:59Z</time>
      </trkpt>
      <trkpt lat="45.54946" lon="6.68594">
        <ele>1181.8000488281</ele>
        <time>2013-05-12T09:50:01Z</time>
      </trkpt>
      <trkpt lat="45.54951" lon="6.68596">
        <ele>1180</ele>
        <time>2013-05-12T09:50:03Z</time>
      </trkpt>
      <trkpt lat="45.54956" lon="6.686">
        <ele>1178.4000244141</ele>
        <time>2013-05-12T09:50:05Z</time>
      </trkpt>
      <trkpt lat="45.54961" lon="6.68605">
        <ele>1174.8000488281</ele>
        <time>2013-05-12T09:50:07Z</time>
      </trkpt>
      <trkpt lat="45.54977" lon="6.68616">
        <ele>1174.4000244141</ele>
        <time>2013-05-12T09:50:11Z</time>
      </trkpt>
      <trkpt lat="45.54983" lon="6.68617">
        <ele>1173.4000244141</ele>
        <time>2013-05-12T09:50:13Z</time>
      </trkpt>
      <trkpt lat="45.5499" lon="6.68619">
        <ele>1173</ele>
        <time>2013-05-12T09:50:15Z</time>
      </trkpt>
      <trkpt lat="45.55" lon="6.68618">
        <ele>1172</ele>
        <time>2013-05-12T09:50:17Z</time>
      </trkpt>
      <trkpt lat="45.55007" lon="6.68618">
        <ele>1170.4000244141</ele>
        <time>2013-05-12T09:50:19Z</time>
      </trkpt>
      <trkpt lat="45.55012" lon="6.68622">
        <ele>1169.4000244141</ele>
        <time>2013-05-12T09:50:21Z</time>
      </trkpt>
      <trkpt lat="45.55017" lon="6.68627">
        <ele>1167.8000488281</ele>
        <time>2013-05-12T09:50:23Z</time>
      </trkpt>
      <trkpt lat="45.55025" lon="6.68634">
        <ele>1166.4000244141</ele>
        <time>2013-05-12T09:50:25Z</time>
      </trkpt>
      <trkpt lat="45.5503" lon="6.6864">
        <ele>1165</ele>
        <time>2013-05-12T09:50:27Z</time>
      </trkpt>
      <trkpt lat="45.55037" lon="6.68643">
        <ele>1163.8000488281</ele>
        <time>2013-05-12T09:50:29Z</time>
      </trkpt>
      <trkpt lat="45.55044" lon="6.68644">
        <ele>1162.4000244141</ele>
        <time>2013-05-12T09:50:31Z</time>
      </trkpt>
      <trkpt lat="45.55052" lon="6.68647">
        <ele>1161</ele>
        <time>2013-05-12T09:50:33Z</time>
      </trkpt>
      <trkpt lat="45.55057" lon="6.68651">
        <ele>1159.8000488281</ele>
        <time>2013-05-12T09:50:35Z</time>
      </trkpt>
      <trkpt lat="45.55062" lon="6.68655">
        <ele>1158.4000244141</ele>
        <time>2013-05-12T09:50:37Z</time>
      </trkpt>
      <trkpt lat="45.5507" lon="6.68657">
        <ele>1157</ele>
        <time>2013-05-12T09:50:39Z</time>
      </trkpt>
      <trkpt lat="45.55074" lon="6.68662">
        <ele>1155.8000488281</ele>
        <time>2013-05-12T09:50:41Z</time>
      </trkpt>
      <trkpt lat="45.55078" lon="6.68668">
        <ele>1154</ele>
        <time>2013-05-12T09:50:43Z</time>
      </trkpt>
      <trkpt lat="45.5508" lon="6.68674">
        <ele>1152.8000488281</ele>
        <time>2013-05-12T09:50:45Z</time>
      </trkpt>
      <trkpt lat="45.55086" lon="6.68679">
        <ele>1151.4000244141</ele>
        <time>2013-05-12T09:50:47Z</time>
      </trkpt>
      <trkpt lat="45.55092" lon="6.68688">
        <ele>1150.4000244141</ele>
        <time>2013-05-12T09:50:49Z</time>
      </trkpt>
      <trkpt lat="45.55097" lon="6.68693">
        <ele>1149</ele>
        <time>2013-05-12T09:50:51Z</time>
      </trkpt>
      <trkpt lat="45.55102" lon="6.68698">
        <ele>1148</ele>
        <time>2013-05-12T09:50:53Z</time>
      </trkpt>
      <trkpt lat="45.55103" lon="6.68696">
        <ele>1147</ele>
        <time>2013-05-12T09:50:55Z</time>
      </trkpt>
      <trkpt lat="45.55098" lon="6.68681">
        <ele>1145.4000244141</ele>
        <time>2013-05-12T09:50:59Z</time>
      </trkpt>
      <trkpt lat="45.55096" lon="6.68672">
        <ele>1144</ele>
        <time>2013-05-12T09:51:01Z</time>
      </trkpt>
      <trkpt lat="45.55092" lon="6.68663">
        <ele>1142.8000488281</ele>
        <time>2013-05-12T09:51:03Z</time>
      </trkpt>
      <trkpt lat="45.55089" lon="6.68654">
        <ele>1141</ele>
        <time>2013-05-12T09:51:05Z</time>
      </trkpt>
      <trkpt lat="45.55086" lon="6.68647">
        <ele>1140</ele>
        <time>2013-05-12T09:51:07Z</time>
      </trkpt>
      <trkpt lat="45.55081" lon="6.68637">
        <ele>1138.8000488281</ele>
        <time>2013-05-12T09:51:09Z</time>
      </trkpt>
      <trkpt lat="45.55077" lon="6.6863">
        <ele>1137.4000244141</ele>
        <time>2013-05-12T09:51:11Z</time>
      </trkpt>
      <trkpt lat="45.55072" lon="6.68623">
        <ele>1136.4000244141</ele>
        <time>2013-05-12T09:51:13Z</time>
      </trkpt>
      <trkpt lat="45.55068" lon="6.68613">
        <ele>1135</ele>
        <time>2013-05-12T09:51:15Z</time>
      </trkpt>
      <trkpt lat="45.55063" lon="6.68604">
        <ele>1133.8000488281</ele>
        <time>2013-05-12T09:51:17Z</time>
      </trkpt>
      <trkpt lat="45.55059" lon="6.68595">
        <ele>1132</ele>
        <time>2013-05-12T09:51:19Z</time>
      </trkpt>
      <trkpt lat="45.55056" lon="6.68584">
        <ele>1130.4000244141</ele>
        <time>2013-05-12T09:51:21Z</time>
      </trkpt>
      <trkpt lat="45.55054" lon="6.68577">
        <ele>1129.8000488281</ele>
        <time>2013-05-12T09:51:23Z</time>
      </trkpt>
      <trkpt lat="45.55049" lon="6.68568">
        <ele>1128.8000488281</ele>
        <time>2013-05-12T09:51:25Z</time>
      </trkpt>
      <trkpt lat="45.55049" lon="6.68559">
        <ele>1128</ele>
        <time>2013-05-12T09:51:27Z</time>
      </trkpt>
      <trkpt lat="45.55052" lon="6.68552">
        <ele>1126.4000244141</ele>
        <time>2013-05-12T09:51:29Z</time>
      </trkpt>
      <trkpt lat="45.55067" lon="6.68533">
        <ele>1124.4000244141</ele>
        <time>2013-05-12T09:51:34Z</time>
      </trkpt>
      <trkpt lat="45.55068" lon="6.68522">
        <ele>1123.8000488281</ele>
        <time>2013-05-12T09:51:36Z</time>
      </trkpt>
      <trkpt lat="45.55071" lon="6.68513">
        <ele>1122.8000488281</ele>
        <time>2013-05-12T09:51:38Z</time>
      </trkpt>
      <trkpt lat="45.55072" lon="6.68504">
        <ele>1121</ele>
        <time>2013-05-12T09:51:40Z</time>
      </trkpt>
      <trkpt lat="45.55071" lon="6.68494">
        <ele>1118.8000488281</ele>
        <time>2013-05-12T09:51:42Z</time>
      </trkpt>
      <trkpt lat="45.55069" lon="6.68484">
        <ele>1116.8000488281</ele>
        <time>2013-05-12T09:51:44Z</time>
      </trkpt>
      <trkpt lat="45.55071" lon="6.68476">
        <ele>1114.4000244141</ele>
        <time>2013-05-12T09:51:46Z</time>
      </trkpt>
      <trkpt lat="45.5507" lon="6.68468">
        <ele>1112</ele>
        <time>2013-05-12T09:51:48Z</time>
      </trkpt>
      <trkpt lat="45.55067" lon="6.68459">
        <ele>1110</ele>
        <time>2013-05-12T09:51:50Z</time>
      </trkpt>
      <trkpt lat="45.55064" lon="6.68452">
        <ele>1108</ele>
        <time>2013-05-12T09:51:52Z</time>
      </trkpt>
      <trkpt lat="45.5506" lon="6.68442">
        <ele>1106</ele>
        <time>2013-05-12T09:51:54Z</time>
      </trkpt>
      <trkpt lat="45.55058" lon="6.68435">
        <ele>1104.8000488281</ele>
        <time>2013-05-12T09:51:56Z</time>
      </trkpt>
      <trkpt lat="45.55055" lon="6.68426">
        <ele>1103.4000244141</ele>
        <time>2013-05-12T09:51:58Z</time>
      </trkpt>
      <trkpt lat="45.55053" lon="6.68417">
        <ele>1102.4000244141</ele>
        <time>2013-05-12T09:52:00Z</time>
      </trkpt>
      <trkpt lat="45.55052" lon="6.68405">
        <ele>1101.4000244141</ele>
        <time>2013-05-12T09:52:02Z</time>
      </trkpt>
      <trkpt lat="45.55052" lon="6.68394">
        <ele>1100.4000244141</ele>
        <time>2013-05-12T09:52:04Z</time>
      </trkpt>
      <trkpt lat="45.55051" lon="6.68385">
        <ele>1099.4000244141</ele>
        <time>2013-05-12T09:52:06Z</time>
      </trkpt>
      <trkpt lat="45.55048" lon="6.68375">
        <ele>1098</ele>
        <time>2013-05-12T09:52:08Z</time>
      </trkpt>
      <trkpt lat="45.55043" lon="6.68368">
        <ele>1096.8000488281</ele>
        <time>2013-05-12T09:52:10Z</time>
      </trkpt>
      <trkpt lat="45.55029" lon="6.68345">
        <ele>1094</ele>
        <time>2013-05-12T09:52:17Z</time>
      </trkpt>
      <trkpt lat="45.55024" lon="6.68337">
        <ele>1093.4000244141</ele>
        <time>2013-05-12T09:52:19Z</time>
      </trkpt>
      <trkpt lat="45.5502" lon="6.6833">
        <ele>1092.4000244141</ele>
        <time>2013-05-12T09:52:21Z</time>
      </trkpt>
      <trkpt lat="45.55017" lon="6.6832">
        <ele>1091.8000488281</ele>
        <time>2013-05-12T09:52:23Z</time>
      </trkpt>
      <trkpt lat="45.55016" lon="6.68311">
        <ele>1091</ele>
        <time>2013-05-12T09:52:25Z</time>
      </trkpt>
      <trkpt lat="45.5502" lon="6.68301">
        <ele>1090</ele>
        <time>2013-05-12T09:52:27Z</time>
      </trkpt>
      <trkpt lat="45.55022" lon="6.68294">
        <ele>1089</ele>
        <time>2013-05-12T09:52:29Z</time>
      </trkpt>
      <trkpt lat="45.55024" lon="6.68289">
        <ele>1088</ele>
        <time>2013-05-12T09:52:31Z</time>
      </trkpt>
      <trkpt lat="45.55024" lon="6.68285">
        <ele>1087.4000244141</ele>
        <time>2013-05-12T09:52:33Z</time>
      </trkpt>
      <trkpt lat="45.55025" lon="6.68282">
        <ele>1087</ele>
        <time>2013-05-12T09:52:35Z</time>
      </trkpt>
      <trkpt lat="45.55026" lon="6.68282">
        <ele>1086</ele>
        <time>2013-05-12T09:52:37Z</time>
      </trkpt>
      <trkpt lat="45.55028" lon="6.68283">
        <ele>1085.8000488281</ele>
        <time>2013-05-12T09:52:40Z</time>
      </trkpt>
      <trkpt lat="45.55032" lon="6.68285">
        <ele>1085.8000488281</ele>
        <time>2013-05-12T09:52:45Z</time>
      </trkpt>
      <trkpt lat="45.55032" lon="6.68284">
        <ele>1085</ele>
        <time>2013-05-12T09:52:47Z</time>
      </trkpt>
      <trkpt lat="45.55034" lon="6.68286">
        <ele>1084.4000244141</ele>
        <time>2013-05-12T09:52:49Z</time>
      </trkpt>
      <trkpt lat="45.55034" lon="6.68286">
        <ele>1083.4000244141</ele>
        <time>2013-05-12T09:52:51Z</time>
      </trkpt>
      <trkpt lat="45.55034" lon="6.68289">
        <ele>1083.4000244141</ele>
        <time>2013-05-12T09:53:00Z</time>
      </trkpt>
      <trkpt lat="45.55034" lon="6.68293">
        <ele>1083.4000244141</ele>
        <time>2013-05-12T09:53:14Z</time>
      </trkpt>
      <trkpt lat="45.55036" lon="6.68295">
        <ele>1083.4000244141</ele>
        <time>2013-05-12T09:53:21Z</time>
      </trkpt>
      <trkpt lat="45.55036" lon="6.68296">
        <ele>1083.4000244141</ele>
        <time>2013-05-12T09:53:27Z</time>
      </trkpt>
      <trkpt lat="45.55034" lon="6.68299">
        <ele>1083.4000244141</ele>
        <time>2013-05-12T09:53:34Z</time>
      </trkpt>
      <trkpt lat="45.55035" lon="6.68302">
        <ele>1083.4000244141</ele>
        <time>2013-05-12T09:53:42Z</time>
      </trkpt>
      <trkpt lat="45.55036" lon="6.68301">
        <ele>1083.4000244141</ele>
        <time>2013-05-12T09:53:52Z</time>
      </trkpt>
      <trkpt lat="45.55042" lon="6.68306">
        <ele>1083.4000244141</ele>
        <time>2013-05-12T09:54:06Z</time>
      </trkpt>
      <trkpt lat="45.55044" lon="6.68308">
        <ele>1083</ele>
        <time>2013-05-12T09:54:08Z</time>
      </trkpt>
      <trkpt lat="45.55046" lon="6.6831">
        <ele>1082.4000244141</ele>
        <time>2013-05-12T09:54:10Z</time>
      </trkpt>
      <trkpt lat="45.55049" lon="6.68312">
        <ele>1081.4000244141</ele>
        <time>2013-05-12T09:54:12Z</time>
      </trkpt>
      <trkpt lat="45.55056" lon="6.68316">
        <ele>1081.4000244141</ele>
        <time>2013-05-12T09:54:20Z</time>
      </trkpt>
      <trkpt lat="45.5506" lon="6.68318">
        <ele>1081</ele>
        <time>2013-05-12T09:54:24Z</time>
      </trkpt>
      <trkpt lat="45.55062" lon="6.68317">
        <ele>1080</ele>
        <time>2013-05-12T09:54:26Z</time>
      </trkpt>
      <trkpt lat="45.55064" lon="6.68318">
        <ele>1079.4000244141</ele>
        <time>2013-05-12T09:54:28Z</time>
      </trkpt>
      <trkpt lat="45.55072" lon="6.68322">
        <ele>1079.4000244141</ele>
        <time>2013-05-12T09:54:35Z</time>
      </trkpt>
      <trkpt lat="45.55074" lon="6.68325">
        <ele>1079</ele>
        <time>2013-05-12T09:54:37Z</time>
      </trkpt>
      <trkpt lat="45.55075" lon="6.68326">
        <ele>1078.4000244141</ele>
        <time>2013-05-12T09:54:39Z</time>
      </trkpt>
      <trkpt lat="45.55078" lon="6.68327">
        <ele>1077.4000244141</ele>
        <time>2013-05-12T09:54:41Z</time>
      </trkpt>
      <trkpt lat="45.55084" lon="6.68335">
        <ele>1077.4000244141</ele>
        <time>2013-05-12T09:54:48Z</time>
      </trkpt>
      <trkpt lat="45.55086" lon="6.68338">
        <ele>1077</ele>
        <time>2013-05-12T09:54:50Z</time>
      </trkpt>
      <trkpt lat="45.55089" lon="6.68339">
        <ele>1076</ele>
        <time>2013-05-12T09:54:52Z</time>
      </trkpt>
      <trkpt lat="45.55092" lon="6.6834">
        <ele>1075.4000244141</ele>
        <time>2013-05-12T09:54:54Z</time>
      </trkpt>
      <trkpt lat="45.55099" lon="6.68348">
        <ele>1075</ele>
        <time>2013-05-12T09:55:01Z</time>
      </trkpt>
      <trkpt lat="45.55101" lon="6.6835">
        <ele>1074</ele>
        <time>2013-05-12T09:55:03Z</time>
      </trkpt>
      <trkpt lat="45.55104" lon="6.68353">
        <ele>1073.4000244141</ele>
        <time>2013-05-12T09:55:05Z</time>
      </trkpt>
      <trkpt lat="45.55107" lon="6.68357">
        <ele>1073.4000244141</ele>
        <time>2013-05-12T09:55:08Z</time>
      </trkpt>
      <trkpt lat="45.5511" lon="6.68358">
        <ele>1072.8000488281</ele>
        <time>2013-05-12T09:55:10Z</time>
      </trkpt>
      <trkpt lat="45.55113" lon="6.6836">
        <ele>1072</ele>
        <time>2013-05-12T09:55:12Z</time>
      </trkpt>
      <trkpt lat="45.55115" lon="6.68362">
        <ele>1071.4000244141</ele>
        <time>2013-05-12T09:55:14Z</time>
      </trkpt>
      <trkpt lat="45.55116" lon="6.68363">
        <ele>1071.4000244141</ele>
        <time>2013-05-12T09:55:16Z</time>
      </trkpt>
      <trkpt lat="45.55121" lon="6.68364">
        <ele>1070.4000244141</ele>
        <time>2013-05-12T09:55:21Z</time>
      </trkpt>
      <trkpt lat="45.55124" lon="6.68365">
        <ele>1070</ele>
        <time>2013-05-12T09:55:23Z</time>
      </trkpt>
      <trkpt lat="45.55125" lon="6.68365">
        <ele>1069.4000244141</ele>
        <time>2013-05-12T09:55:25Z</time>
      </trkpt>
      <trkpt lat="45.55127" lon="6.68366">
        <ele>1069.4000244141</ele>
        <time>2013-05-12T09:55:28Z</time>
      </trkpt>
      <trkpt lat="45.55132" lon="6.68368">
        <ele>1068.4000244141</ele>
        <time>2013-05-12T09:55:31Z</time>
      </trkpt>
      <trkpt lat="45.55134" lon="6.68368">
        <ele>1067.8000488281</ele>
        <time>2013-05-12T09:55:33Z</time>
      </trkpt>
      <trkpt lat="45.55136" lon="6.6837">
        <ele>1067</ele>
        <time>2013-05-12T09:55:35Z</time>
      </trkpt>
      <trkpt lat="45.55138" lon="6.68372">
        <ele>1067</ele>
        <time>2013-05-12T09:55:37Z</time>
      </trkpt>
      <trkpt lat="45.55142" lon="6.68376">
        <ele>1067</ele>
        <time>2013-05-12T09:55:40Z</time>
      </trkpt>
      <trkpt lat="45.55145" lon="6.68378">
        <ele>1066.8000488281</ele>
        <time>2013-05-12T09:55:42Z</time>
      </trkpt>
      <trkpt lat="45.55148" lon="6.68381">
        <ele>1065.8000488281</ele>
        <time>2013-05-12T09:55:44Z</time>
      </trkpt>
      <trkpt lat="45.5515" lon="6.68384">
        <ele>1065</ele>
        <time>2013-05-12T09:55:46Z</time>
      </trkpt>
      <trkpt lat="45.55155" lon="6.6839">
        <ele>1064.8000488281</ele>
        <time>2013-05-12T09:55:50Z</time>
      </trkpt>
      <trkpt lat="45.55158" lon="6.68394">
        <ele>1064</ele>
        <time>2013-05-12T09:55:52Z</time>
      </trkpt>
      <trkpt lat="45.55162" lon="6.68398">
        <ele>1063</ele>
        <time>2013-05-12T09:55:54Z</time>
      </trkpt>
      <trkpt lat="45.55173" lon="6.6841">
        <ele>1063</ele>
        <time>2013-05-12T09:55:59Z</time>
      </trkpt>
      <trkpt lat="45.55178" lon="6.68413">
        <ele>1062.4000244141</ele>
        <time>2013-05-12T09:56:01Z</time>
      </trkpt>
      <trkpt lat="45.55181" lon="6.68416">
        <ele>1061.8000488281</ele>
        <time>2013-05-12T09:56:03Z</time>
      </trkpt>
      <trkpt lat="45.55184" lon="6.68422">
        <ele>1060.8000488281</ele>
        <time>2013-05-12T09:56:05Z</time>
      </trkpt>
      <trkpt lat="45.55188" lon="6.68427">
        <ele>1059.4000244141</ele>
        <time>2013-05-12T09:56:07Z</time>
      </trkpt>
      <trkpt lat="45.55194" lon="6.68431">
        <ele>1058.8000488281</ele>
        <time>2013-05-12T09:56:09Z</time>
      </trkpt>
      <trkpt lat="45.55199" lon="6.68432">
        <ele>1058</ele>
        <time>2013-05-12T09:56:11Z</time>
      </trkpt>
      <trkpt lat="45.55204" lon="6.68434">
        <ele>1057</ele>
        <time>2013-05-12T09:56:13Z</time>
      </trkpt>
      <trkpt lat="45.5521" lon="6.68432">
        <ele>1055.4000244141</ele>
        <time>2013-05-12T09:56:17Z</time>
      </trkpt>
      <trkpt lat="45.55212" lon="6.68426">
        <ele>1054.8000488281</ele>
        <time>2013-05-12T09:56:19Z</time>
      </trkpt>
      <trkpt lat="45.55214" lon="6.6842">
        <ele>1054</ele>
        <time>2013-05-12T09:56:21Z</time>
      </trkpt>
      <trkpt lat="45.55216" lon="6.68414">
        <ele>1053</ele>
        <time>2013-05-12T09:56:23Z</time>
      </trkpt>
      <trkpt lat="45.5522" lon="6.68411">
        <ele>1051.4000244141</ele>
        <time>2013-05-12T09:56:25Z</time>
      </trkpt>
      <trkpt lat="45.55223" lon="6.68407">
        <ele>1050.4000244141</ele>
        <time>2013-05-12T09:56:27Z</time>
      </trkpt>
      <trkpt lat="45.55226" lon="6.68401">
        <ele>1048.8000488281</ele>
        <time>2013-05-12T09:56:29Z</time>
      </trkpt>
      <trkpt lat="45.55229" lon="6.68397">
        <ele>1047</ele>
        <time>2013-05-12T09:56:31Z</time>
      </trkpt>
      <trkpt lat="45.55229" lon="6.68389">
        <ele>1045.4000244141</ele>
        <time>2013-05-12T09:56:33Z</time>
      </trkpt>
      <trkpt lat="45.55232" lon="6.68381">
        <ele>1044</ele>
        <time>2013-05-12T09:56:35Z</time>
      </trkpt>
      <trkpt lat="45.55239" lon="6.68374">
        <ele>1043</ele>
        <time>2013-05-12T09:56:37Z</time>
      </trkpt>
      <trkpt lat="45.55241" lon="6.68365">
        <ele>1041.8000488281</ele>
        <time>2013-05-12T09:56:39Z</time>
      </trkpt>
      <trkpt lat="45.55242" lon="6.68356">
        <ele>1041</ele>
        <time>2013-05-12T09:56:41Z</time>
      </trkpt>
      <trkpt lat="45.55245" lon="6.68347">
        <ele>1040.4000244141</ele>
        <time>2013-05-12T09:56:43Z</time>
      </trkpt>
      <trkpt lat="45.55248" lon="6.68342">
        <ele>1039.4000244141</ele>
        <time>2013-05-12T09:56:45Z</time>
      </trkpt>
      <trkpt lat="45.55251" lon="6.68336">
        <ele>1038</ele>
        <time>2013-05-12T09:56:47Z</time>
      </trkpt>
      <trkpt lat="45.55254" lon="6.68328">
        <ele>1036</ele>
        <time>2013-05-12T09:56:49Z</time>
      </trkpt>
      <trkpt lat="45.55259" lon="6.68321">
        <ele>1034.8000488281</ele>
        <time>2013-05-12T09:56:51Z</time>
      </trkpt>
      <trkpt lat="45.55262" lon="6.68315">
        <ele>1033.4000244141</ele>
        <time>2013-05-12T09:56:53Z</time>
      </trkpt>
      <trkpt lat="45.55267" lon="6.6831">
        <ele>1032</ele>
        <time>2013-05-12T09:56:55Z</time>
      </trkpt>
      <trkpt lat="45.55272" lon="6.68304">
        <ele>1031</ele>
        <time>2013-05-12T09:56:57Z</time>
      </trkpt>
      <trkpt lat="45.55277" lon="6.68299">
        <ele>1030</ele>
        <time>2013-05-12T09:56:59Z</time>
      </trkpt>
      <trkpt lat="45.5528" lon="6.68291">
        <ele>1029</ele>
        <time>2013-05-12T09:57:01Z</time>
      </trkpt>
      <trkpt lat="45.55286" lon="6.6828">
        <ele>1027</ele>
        <time>2013-05-12T09:57:04Z</time>
      </trkpt>
      <trkpt lat="45.55296" lon="6.68277">
        <ele>1027</ele>
        <time>2013-05-12T09:57:09Z</time>
      </trkpt>
      <trkpt lat="45.55299" lon="6.68286">
        <ele>1026.4000244141</ele>
        <time>2013-05-12T09:57:11Z</time>
      </trkpt>
      <trkpt lat="45.55301" lon="6.68294">
        <ele>1025.8000488281</ele>
        <time>2013-05-12T09:57:13Z</time>
      </trkpt>
      <trkpt lat="45.553" lon="6.68301">
        <ele>1025</ele>
        <time>2013-05-12T09:57:15Z</time>
      </trkpt>
      <trkpt lat="45.55297" lon="6.68308">
        <ele>1024.4000244141</ele>
        <time>2013-05-12T09:57:17Z</time>
      </trkpt>
      <trkpt lat="45.55296" lon="6.68316">
        <ele>1023.4000244141</ele>
        <time>2013-05-12T09:57:19Z</time>
      </trkpt>
      <trkpt lat="45.55294" lon="6.68324">
        <ele>1023</ele>
        <time>2013-05-12T09:57:21Z</time>
      </trkpt>
      <trkpt lat="45.55293" lon="6.68342">
        <ele>1022.4000244141</ele>
        <time>2013-05-12T09:57:25Z</time>
      </trkpt>
      <trkpt lat="45.55292" lon="6.68351">
        <ele>1021.4000244141</ele>
        <time>2013-05-12T09:57:27Z</time>
      </trkpt>
      <trkpt lat="45.55291" lon="6.68357">
        <ele>1020.5999755859</ele>
        <time>2013-05-12T09:57:29Z</time>
      </trkpt>
      <trkpt lat="45.55287" lon="6.68364">
        <ele>1020.4000244141</ele>
        <time>2013-05-12T09:57:31Z</time>
      </trkpt>
      <trkpt lat="45.55287" lon="6.68383">
        <ele>1019.200012207</ele>
        <time>2013-05-12T09:57:35Z</time>
      </trkpt>
      <trkpt lat="45.55289" lon="6.68393">
        <ele>1018.4000244141</ele>
        <time>2013-05-12T09:57:37Z</time>
      </trkpt>
      <trkpt lat="45.55288" lon="6.68401">
        <ele>1018.200012207</ele>
        <time>2013-05-12T09:57:39Z</time>
      </trkpt>
      <trkpt lat="45.55284" lon="6.68409">
        <ele>1017.4000244141</ele>
        <time>2013-05-12T09:57:41Z</time>
      </trkpt>
      <trkpt lat="45.5528" lon="6.68416">
        <ele>1016.4000244141</ele>
        <time>2013-05-12T09:57:43Z</time>
      </trkpt>
      <trkpt lat="45.55279" lon="6.68428">
        <ele>1016</ele>
        <time>2013-05-12T09:57:46Z</time>
      </trkpt>
      <trkpt lat="45.55278" lon="6.68437">
        <ele>1013.4000244141</ele>
        <time>2013-05-12T09:57:48Z</time>
      </trkpt>
      <trkpt lat="45.55291" lon="6.68456">
        <ele>1013.200012207</ele>
        <time>2013-05-12T09:57:53Z</time>
      </trkpt>
      <trkpt lat="45.55291" lon="6.68464">
        <ele>1012.5999755859</ele>
        <time>2013-05-12T09:57:55Z</time>
      </trkpt>
      <trkpt lat="45.5529" lon="6.68474">
        <ele>1012.200012207</ele>
        <time>2013-05-12T09:57:57Z</time>
      </trkpt>
      <trkpt lat="45.55288" lon="6.68484">
        <ele>1011</ele>
        <time>2013-05-12T09:57:59Z</time>
      </trkpt>
      <trkpt lat="45.55285" lon="6.68493">
        <ele>1009.4000244141</ele>
        <time>2013-05-12T09:58:01Z</time>
      </trkpt>
      <trkpt lat="45.55284" lon="6.68499">
        <ele>1008</ele>
        <time>2013-05-12T09:58:03Z</time>
      </trkpt>
      <trkpt lat="45.55281" lon="6.68506">
        <ele>1006.5999755859</ele>
        <time>2013-05-12T09:58:05Z</time>
      </trkpt>
      <trkpt lat="45.55283" lon="6.68516">
        <ele>1005.5999755859</ele>
        <time>2013-05-12T09:58:07Z</time>
      </trkpt>
      <trkpt lat="45.55287" lon="6.68524">
        <ele>1004.5999755859</ele>
        <time>2013-05-12T09:58:09Z</time>
      </trkpt>
      <trkpt lat="45.5529" lon="6.68531">
        <ele>1003.5999755859</ele>
        <time>2013-05-12T09:58:11Z</time>
      </trkpt>
      <trkpt lat="45.55296" lon="6.68535">
        <ele>1003</ele>
        <time>2013-05-12T09:58:13Z</time>
      </trkpt>
      <trkpt lat="45.55301" lon="6.68538">
        <ele>1002.4000244141</ele>
        <time>2013-05-12T09:58:15Z</time>
      </trkpt>
      <trkpt lat="45.55305" lon="6.68541">
        <ele>1001.4000244141</ele>
        <time>2013-05-12T09:58:17Z</time>
      </trkpt>
      <trkpt lat="45.55307" lon="6.68547">
        <ele>1000.200012207</ele>
        <time>2013-05-12T09:58:19Z</time>
      </trkpt>
      <trkpt lat="45.55308" lon="6.68555">
        <ele>999</ele>
        <time>2013-05-12T09:58:21Z</time>
      </trkpt>
      <trkpt lat="45.55308" lon="6.6856">
        <ele>997.20001220703</ele>
        <time>2013-05-12T09:58:23Z</time>
      </trkpt>
      <trkpt lat="45.55308" lon="6.68566">
        <ele>995.40002441406</ele>
        <time>2013-05-12T09:58:25Z</time>
      </trkpt>
      <trkpt lat="45.55311" lon="6.68574">
        <ele>993.40002441406</ele>
        <time>2013-05-12T09:58:27Z</time>
      </trkpt>
      <trkpt lat="45.55314" lon="6.68588">
        <ele>990.59997558594</ele>
        <time>2013-05-12T09:58:31Z</time>
      </trkpt>
      <trkpt lat="45.5531" lon="6.68599">
        <ele>987.40002441406</ele>
        <time>2013-05-12T09:58:35Z</time>
      </trkpt>
      <trkpt lat="45.55311" lon="6.68615">
        <ele>987</ele>
        <time>2013-05-12T09:58:39Z</time>
      </trkpt>
      <trkpt lat="45.55312" lon="6.68635">
        <ele>986.59997558594</ele>
        <time>2013-05-12T09:58:43Z</time>
      </trkpt>
      <trkpt lat="45.55313" lon="6.6865">
        <ele>984</ele>
        <time>2013-05-12T09:58:47Z</time>
      </trkpt>
      <trkpt lat="45.55302" lon="6.68674">
        <ele>984</ele>
        <time>2013-05-12T09:58:53Z</time>
      </trkpt>
      <trkpt lat="45.55299" lon="6.68693">
        <ele>983.40002441406</ele>
        <time>2013-05-12T09:58:57Z</time>
      </trkpt>
      <trkpt lat="45.55299" lon="6.68706">
        <ele>982</ele>
        <time>2013-05-12T09:59:01Z</time>
      </trkpt>
      <trkpt lat="45.55301" lon="6.68722">
        <ele>980.40002441406</ele>
        <time>2013-05-12T09:59:06Z</time>
      </trkpt>
      <trkpt lat="45.55307" lon="6.68735">
        <ele>978.40002441406</ele>
        <time>2013-05-12T09:59:10Z</time>
      </trkpt>
      <trkpt lat="45.55313" lon="6.68772">
        <ele>974.40002441406</ele>
        <time>2013-05-12T09:59:18Z</time>
      </trkpt>
      <trkpt lat="45.55325" lon="6.68781">
        <ele>973</ele>
        <time>2013-05-12T09:59:22Z</time>
      </trkpt>
      <trkpt lat="45.55337" lon="6.68797">
        <ele>971.40002441406</ele>
        <time>2013-05-12T09:59:28Z</time>
      </trkpt>
      <trkpt lat="45.55344" lon="6.68815">
        <ele>969.40002441406</ele>
        <time>2013-05-12T09:59:32Z</time>
      </trkpt>
      <trkpt lat="45.5535" lon="6.68832">
        <ele>967.40002441406</ele>
        <time>2013-05-12T09:59:36Z</time>
      </trkpt>
      <trkpt lat="45.55353" lon="6.6885">
        <ele>964.59997558594</ele>
        <time>2013-05-12T09:59:40Z</time>
      </trkpt>
      <trkpt lat="45.55358" lon="6.68865">
        <ele>962.59997558594</ele>
        <time>2013-05-12T09:59:44Z</time>
      </trkpt>
      <trkpt lat="45.55364" lon="6.68882">
        <ele>961.40002441406</ele>
        <time>2013-05-12T09:59:48Z</time>
      </trkpt>
      <trkpt lat="45.55371" lon="6.68896">
        <ele>959.20001220703</ele>
        <time>2013-05-12T09:59:52Z</time>
      </trkpt>
      <trkpt lat="45.55374" lon="6.68911">
        <ele>957.40002441406</ele>
        <time>2013-05-12T09:59:56Z</time>
      </trkpt>
      <trkpt lat="45.55377" lon="6.68922">
        <ele>956</ele>
        <time>2013-05-12T10:00:00Z</time>
      </trkpt>
      <trkpt lat="45.55377" lon="6.68926">
        <ele>953.59997558594</ele>
        <time>2013-05-12T10:00:04Z</time>
      </trkpt>
      <trkpt lat="45.55379" lon="6.68932">
        <ele>952.59997558594</ele>
        <time>2013-05-12T10:00:12Z</time>
      </trkpt>
      <trkpt lat="45.5538" lon="6.68932">
        <ele>951.59997558594</ele>
        <time>2013-05-12T10:00:16Z</time>
      </trkpt>
      <trkpt lat="45.5538" lon="6.68933">
        <ele>950.59997558594</ele>
        <time>2013-05-12T10:00:23Z</time>
      </trkpt>
      <trkpt lat="45.55382" lon="6.68933">
        <ele>949.59997558594</ele>
        <time>2013-05-12T10:00:32Z</time>
      </trkpt>
      <trkpt lat="45.55391" lon="6.68908">
        <ele>949</ele>
        <time>2013-05-12T10:00:42Z</time>
      </trkpt>
      <trkpt lat="45.55388" lon="6.68891">
        <ele>945.59997558594</ele>
        <time>2013-05-12T10:00:48Z</time>
      </trkpt>
      <trkpt lat="45.55388" lon="6.68877">
        <ele>944</ele>
        <time>2013-05-12T10:00:52Z</time>
      </trkpt>
      <trkpt lat="45.55386" lon="6.68863">
        <ele>941.40002441406</ele>
        <time>2013-05-12T10:00:56Z</time>
      </trkpt>
      <trkpt lat="45.55386" lon="6.68847">
        <ele>939.40002441406</ele>
        <time>2013-05-12T10:01:00Z</time>
      </trkpt>
      <trkpt lat="45.55383" lon="6.68833">
        <ele>937.20001220703</ele>
        <time>2013-05-12T10:01:04Z</time>
      </trkpt>
      <trkpt lat="45.55381" lon="6.68814">
        <ele>935</ele>
        <time>2013-05-12T10:01:08Z</time>
      </trkpt>
      <trkpt lat="45.55381" lon="6.68801">
        <ele>932.59997558594</ele>
        <time>2013-05-12T10:01:12Z</time>
      </trkpt>
      <trkpt lat="45.55389" lon="6.68776">
        <ele>930.40002441406</ele>
        <time>2013-05-12T10:01:17Z</time>
      </trkpt>
      <trkpt lat="45.5539" lon="6.68756">
        <ele>928</ele>
        <time>2013-05-12T10:01:21Z</time>
      </trkpt>
      <trkpt lat="45.5539" lon="6.68743">
        <ele>925.59997558594</ele>
        <time>2013-05-12T10:01:25Z</time>
      </trkpt>
      <trkpt lat="45.55394" lon="6.68746">
        <ele>924.20001220703</ele>
        <time>2013-05-12T10:01:29Z</time>
      </trkpt>
      <trkpt lat="45.55402" lon="6.68757">
        <ele>922.40002441406</ele>
        <time>2013-05-12T10:01:33Z</time>
      </trkpt>
      <trkpt lat="45.55407" lon="6.68761">
        <ele>920.40002441406</ele>
        <time>2013-05-12T10:01:37Z</time>
      </trkpt>
      <trkpt lat="45.55404" lon="6.68743">
        <ele>918.40002441406</ele>
        <time>2013-05-12T10:01:41Z</time>
      </trkpt>
      <trkpt lat="45.55399" lon="6.68729">
        <ele>917.40002441406</ele>
        <time>2013-05-12T10:01:45Z</time>
      </trkpt>
      <trkpt lat="45.55398" lon="6.68713">
        <ele>916.40002441406</ele>
        <time>2013-05-12T10:01:49Z</time>
      </trkpt>
      <trkpt lat="45.55402" lon="6.68697">
        <ele>914.40002441406</ele>
        <time>2013-05-12T10:01:53Z</time>
      </trkpt>
      <trkpt lat="45.55405" lon="6.6868">
        <ele>912</ele>
        <time>2013-05-12T10:01:57Z</time>
      </trkpt>
      <trkpt lat="45.55417" lon="6.68672">
        <ele>907.59997558594</ele>
        <time>2013-05-12T10:02:05Z</time>
      </trkpt>
      <trkpt lat="45.55417" lon="6.68683">
        <ele>906</ele>
        <time>2013-05-12T10:02:09Z</time>
      </trkpt>
      <trkpt lat="45.55422" lon="6.68677">
        <ele>903.59997558594</ele>
        <time>2013-05-12T10:02:13Z</time>
      </trkpt>
      <trkpt lat="45.55426" lon="6.6867">
        <ele>901.40002441406</ele>
        <time>2013-05-12T10:02:17Z</time>
      </trkpt>
      <trkpt lat="45.55431" lon="6.6868">
        <ele>898.59997558594</ele>
        <time>2013-05-12T10:02:21Z</time>
      </trkpt>
      <trkpt lat="45.55434" lon="6.68691">
        <ele>897.20001220703</ele>
        <time>2013-05-12T10:02:25Z</time>
      </trkpt>
      <trkpt lat="45.55443" lon="6.68709">
        <ele>895.40002441406</ele>
        <time>2013-05-12T10:02:30Z</time>
      </trkpt>
      <trkpt lat="45.55446" lon="6.68721">
        <ele>893.20001220703</ele>
        <time>2013-05-12T10:02:34Z</time>
      </trkpt>
      <trkpt lat="45.55446" lon="6.68728">
        <ele>892.40002441406</ele>
        <time>2013-05-12T10:02:39Z</time>
      </trkpt>
      <trkpt lat="45.55448" lon="6.68711">
        <ele>891.40002441406</ele>
        <time>2013-05-12T10:02:45Z</time>
      </trkpt>
      <trkpt lat="45.55448" lon="6.68701">
        <ele>889</ele>
        <time>2013-05-12T10:02:49Z</time>
      </trkpt>
      <trkpt lat="45.5545" lon="6.6869">
        <ele>887</ele>
        <time>2013-05-12T10:02:53Z</time>
      </trkpt>
      <trkpt lat="45.55452" lon="6.68676">
        <ele>885.59997558594</ele>
        <time>2013-05-12T10:02:57Z</time>
      </trkpt>
      <trkpt lat="45.55457" lon="6.68657">
        <ele>883.59997558594</ele>
        <time>2013-05-12T10:03:03Z</time>
      </trkpt>
      <trkpt lat="45.55465" lon="6.68642">
        <ele>882.20001220703</ele>
        <time>2013-05-12T10:03:08Z</time>
      </trkpt>
      <trkpt lat="45.55473" lon="6.6863">
        <ele>880.40002441406</ele>
        <time>2013-05-12T10:03:12Z</time>
      </trkpt>
      <trkpt lat="45.55478" lon="6.6862">
        <ele>879.20001220703</ele>
        <time>2013-05-12T10:03:16Z</time>
      </trkpt>
      <trkpt lat="45.55484" lon="6.68613">
        <ele>878</ele>
        <time>2013-05-12T10:03:25Z</time>
      </trkpt>
      <trkpt lat="45.55489" lon="6.68611">
        <ele>878</ele>
        <time>2013-05-12T10:03:32Z</time>
      </trkpt>
      <trkpt lat="45.55499" lon="6.6859">
        <ele>878</ele>
        <time>2013-05-12T10:03:42Z</time>
      </trkpt>
      <trkpt lat="45.55503" lon="6.6858">
        <ele>876.40002441406</ele>
        <time>2013-05-12T10:03:46Z</time>
      </trkpt>
      <trkpt lat="45.55512" lon="6.68574">
        <ele>875.20001220703</ele>
        <time>2013-05-12T10:03:50Z</time>
      </trkpt>
      <trkpt lat="45.55523" lon="6.68561">
        <ele>873.20001220703</ele>
        <time>2013-05-12T10:03:54Z</time>
      </trkpt>
      <trkpt lat="45.55533" lon="6.68549">
        <ele>868.40002441406</ele>
        <time>2013-05-12T10:03:58Z</time>
      </trkpt>
      <trkpt lat="45.55542" lon="6.68536">
        <ele>864</ele>
        <time>2013-05-12T10:04:02Z</time>
      </trkpt>
      <trkpt lat="45.55553" lon="6.68509">
        <ele>851.40002441406</ele>
        <time>2013-05-12T10:04:09Z</time>
      </trkpt>
      <trkpt lat="45.55556" lon="6.68494">
        <ele>850</ele>
        <time>2013-05-12T10:04:13Z</time>
      </trkpt>
      <trkpt lat="45.55559" lon="6.68477">
        <ele>848.40002441406</ele>
        <time>2013-05-12T10:04:17Z</time>
      </trkpt>
      <trkpt lat="45.55563" lon="6.68454">
        <ele>847.20001220703</ele>
        <time>2013-05-12T10:04:23Z</time>
      </trkpt>
      <trkpt lat="45.55567" lon="6.6844">
        <ele>845.59997558594</ele>
        <time>2013-05-12T10:04:27Z</time>
      </trkpt>
      <trkpt lat="45.55576" lon="6.68405">
        <ele>845.20001220703</ele>
        <time>2013-05-12T10:04:36Z</time>
      </trkpt>
      <trkpt lat="45.55582" lon="6.68394">
        <ele>843.40002441406</ele>
        <time>2013-05-12T10:04:40Z</time>
      </trkpt>
      <trkpt lat="45.55589" lon="6.68385">
        <ele>842</ele>
        <time>2013-05-12T10:04:44Z</time>
      </trkpt>
      <trkpt lat="45.55594" lon="6.68402">
        <ele>840.59997558594</ele>
        <time>2013-05-12T10:04:50Z</time>
      </trkpt>
      <trkpt lat="45.55605" lon="6.68409">
        <ele>838</ele>
        <time>2013-05-12T10:04:54Z</time>
      </trkpt>
      <trkpt lat="45.55641" lon="6.68391">
        <ele>834.40002441406</ele>
        <time>2013-05-12T10:05:08Z</time>
      </trkpt>
      <trkpt lat="45.55662" lon="6.68391">
        <ele>832.40002441406</ele>
        <time>2013-05-12T10:05:15Z</time>
      </trkpt>
      <trkpt lat="45.55672" lon="6.68395">
        <ele>830.59997558594</ele>
        <time>2013-05-12T10:05:19Z</time>
      </trkpt>
      <trkpt lat="45.55683" lon="6.684">
        <ele>829.20001220703</ele>
        <time>2013-05-12T10:05:23Z</time>
      </trkpt>
      <trkpt lat="45.55694" lon="6.68407">
        <ele>827.40002441406</ele>
        <time>2013-05-12T10:05:27Z</time>
      </trkpt>
      <trkpt lat="45.55705" lon="6.68413">
        <ele>826.40002441406</ele>
        <time>2013-05-12T10:05:31Z</time>
      </trkpt>
      <trkpt lat="45.55715" lon="6.68419">
        <ele>825.40002441406</ele>
        <time>2013-05-12T10:05:35Z</time>
      </trkpt>
      <trkpt lat="45.55728" lon="6.68426">
        <ele>823.40002441406</ele>
        <time>2013-05-12T10:05:39Z</time>
      </trkpt>
      <trkpt lat="45.5575" lon="6.68466">
        <ele>821</ele>
        <time>2013-05-12T10:05:52Z</time>
      </trkpt>
      <trkpt lat="45.55767" lon="6.68512">
        <ele>821</ele>
        <time>2013-05-12T10:06:06Z</time>
      </trkpt>
      <trkpt lat="45.55788" lon="6.68545">
        <ele>821</ele>
        <time>2013-05-12T10:06:21Z</time>
      </trkpt>
      <trkpt lat="45.55816" lon="6.68584">
        <ele>820.20001220703</ele>
        <time>2013-05-12T10:06:37Z</time>
      </trkpt>
      <trkpt lat="45.55825" lon="6.68598">
        <ele>818.59997558594</ele>
        <time>2013-05-12T10:06:42Z</time>
      </trkpt>
      <trkpt lat="45.55834" lon="6.68608">
        <ele>817.40002441406</ele>
        <time>2013-05-12T10:06:46Z</time>
      </trkpt>
      <trkpt lat="45.55841" lon="6.68618">
        <ele>815.59997558594</ele>
        <time>2013-05-12T10:06:50Z</time>
      </trkpt>
      <trkpt lat="45.55853" lon="6.68633">
        <ele>814.40002441406</ele>
        <time>2013-05-12T10:06:56Z</time>
      </trkpt>
      <trkpt lat="45.55862" lon="6.68641">
        <ele>813.20001220703</ele>
        <time>2013-05-12T10:07:00Z</time>
      </trkpt>
      <trkpt lat="45.55873" lon="6.68648">
        <ele>811.59997558594</ele>
        <time>2013-05-12T10:07:04Z</time>
      </trkpt>
      <trkpt lat="45.55881" lon="6.68655">
        <ele>810.20001220703</ele>
        <time>2013-05-12T10:07:08Z</time>
      </trkpt>
      <trkpt lat="45.5589" lon="6.6866">
        <ele>808.40002441406</ele>
        <time>2013-05-12T10:07:12Z</time>
      </trkpt>
      <trkpt lat="45.55899" lon="6.68665">
        <ele>806.40002441406</ele>
        <time>2013-05-12T10:07:16Z</time>
      </trkpt>
      <trkpt lat="45.55909" lon="6.68672">
        <ele>804.40002441406</ele>
        <time>2013-05-12T10:07:20Z</time>
      </trkpt>
      <trkpt lat="45.5592" lon="6.68684">
        <ele>802</ele>
        <time>2013-05-12T10:07:24Z</time>
      </trkpt>
      <trkpt lat="45.55928" lon="6.68696">
        <ele>800.40002441406</ele>
        <time>2013-05-12T10:07:28Z</time>
      </trkpt>
      <trkpt lat="45.55935" lon="6.68706">
        <ele>798.40002441406</ele>
        <time>2013-05-12T10:07:32Z</time>
      </trkpt>
      <trkpt lat="45.55947" lon="6.68717">
        <ele>797</ele>
        <time>2013-05-12T10:07:36Z</time>
      </trkpt>
      <trkpt lat="45.55955" lon="6.68733">
        <ele>796</ele>
        <time>2013-05-12T10:07:42Z</time>
      </trkpt>
      <trkpt lat="45.55963" lon="6.68744">
        <ele>794.59997558594</ele>
        <time>2013-05-12T10:07:47Z</time>
      </trkpt>
      <trkpt lat="45.5597" lon="6.68758">
        <ele>793.59997558594</ele>
        <time>2013-05-12T10:07:52Z</time>
      </trkpt>
      <trkpt lat="45.55979" lon="6.68766">
        <ele>792.40002441406</ele>
        <time>2013-05-12T10:07:56Z</time>
      </trkpt>
      <trkpt lat="45.55989" lon="6.68777">
        <ele>791</ele>
        <time>2013-05-12T10:08:00Z</time>
      </trkpt>
      <trkpt lat="45.56004" lon="6.68792">
        <ele>789.59997558594</ele>
        <time>2013-05-12T10:08:06Z</time>
      </trkpt>
      <trkpt lat="45.56021" lon="6.68809">
        <ele>788</ele>
        <time>2013-05-12T10:08:13Z</time>
      </trkpt>
      <trkpt lat="45.56029" lon="6.68817">
        <ele>786.40002441406</ele>
        <time>2013-05-12T10:08:17Z</time>
      </trkpt>
      <trkpt lat="45.56049" lon="6.68834">
        <ele>785.20001220703</ele>
        <time>2013-05-12T10:08:25Z</time>
      </trkpt>
      <trkpt lat="45.56068" lon="6.68852">
        <ele>781.59997558594</ele>
        <time>2013-05-12T10:08:33Z</time>
      </trkpt>
      <trkpt lat="45.56075" lon="6.68863">
        <ele>780.40002441406</ele>
        <time>2013-05-12T10:08:37Z</time>
      </trkpt>
      <trkpt lat="45.56082" lon="6.68876">
        <ele>778.40002441406</ele>
        <time>2013-05-12T10:08:41Z</time>
      </trkpt>
      <trkpt lat="45.56093" lon="6.68893">
        <ele>777.59997558594</ele>
        <time>2013-05-12T10:08:46Z</time>
      </trkpt>
      <trkpt lat="45.56104" lon="6.68923">
        <ele>777.20001220703</ele>
        <time>2013-05-12T10:08:54Z</time>
      </trkpt>
      <trkpt lat="45.56108" lon="6.68939">
        <ele>775.40002441406</ele>
        <time>2013-05-12T10:08:58Z</time>
      </trkpt>
      <trkpt lat="45.56117" lon="6.68971">
        <ele>775.40002441406</ele>
        <time>2013-05-12T10:09:07Z</time>
      </trkpt>
      <trkpt lat="45.56124" lon="6.68994">
        <ele>775.40002441406</ele>
        <time>2013-05-12T10:09:14Z</time>
      </trkpt>
      <trkpt lat="45.56129" lon="6.69009">
        <ele>773.59997558594</ele>
        <time>2013-05-12T10:09:18Z</time>
      </trkpt>
      <trkpt lat="45.56144" lon="6.69022">
        <ele>772.59997558594</ele>
        <time>2013-05-12T10:09:25Z</time>
      </trkpt>
      <trkpt lat="45.56158" lon="6.69039">
        <ele>771.40002441406</ele>
        <time>2013-05-12T10:09:31Z</time>
      </trkpt>
      <trkpt lat="45.56174" lon="6.69068">
        <ele>770.40002441406</ele>
        <time>2013-05-12T10:09:41Z</time>
      </trkpt>
      <trkpt lat="45.56181" lon="6.69081">
        <ele>769.40002441406</ele>
        <time>2013-05-12T10:09:45Z</time>
      </trkpt>
      <trkpt lat="45.56189" lon="6.69094">
        <ele>768</ele>
        <time>2013-05-12T10:09:49Z</time>
      </trkpt>
      <trkpt lat="45.56195" lon="6.69109">
        <ele>766.40002441406</ele>
        <time>2013-05-12T10:09:53Z</time>
      </trkpt>
      <trkpt lat="45.56197" lon="6.69122">
        <ele>765</ele>
        <time>2013-05-12T10:09:57Z</time>
      </trkpt>
      <trkpt lat="45.562" lon="6.69138">
        <ele>763.40002441406</ele>
        <time>2013-05-12T10:10:01Z</time>
      </trkpt>
      <trkpt lat="45.56204" lon="6.69158">
        <ele>762.40002441406</ele>
        <time>2013-05-12T10:10:07Z</time>
      </trkpt>
      <trkpt lat="45.5621" lon="6.69183">
        <ele>760</ele>
        <time>2013-05-12T10:10:14Z</time>
      </trkpt>
      <trkpt lat="45.56207" lon="6.69204">
        <ele>758.40002441406</ele>
        <time>2013-05-12T10:10:18Z</time>
      </trkpt>
      <trkpt lat="45.5621" lon="6.69223">
        <ele>757.40002441406</ele>
        <time>2013-05-12T10:10:23Z</time>
      </trkpt>
      <trkpt lat="45.56216" lon="6.69238">
        <ele>756</ele>
        <time>2013-05-12T10:10:27Z</time>
      </trkpt>
      <trkpt lat="45.56223" lon="6.69251">
        <ele>754</ele>
        <time>2013-05-12T10:10:31Z</time>
      </trkpt>
      <trkpt lat="45.56229" lon="6.69274">
        <ele>753.40002441406</ele>
        <time>2013-05-12T10:10:38Z</time>
      </trkpt>
      <trkpt lat="45.56232" lon="6.6929">
        <ele>752</ele>
        <time>2013-05-12T10:10:42Z</time>
      </trkpt>
      <trkpt lat="45.56236" lon="6.69304">
        <ele>751.20001220703</ele>
        <time>2013-05-12T10:10:46Z</time>
      </trkpt>
      <trkpt lat="45.5624" lon="6.6932">
        <ele>749.20001220703</ele>
        <time>2013-05-12T10:10:50Z</time>
      </trkpt>
      <trkpt lat="45.56247" lon="6.69337">
        <ele>747.20001220703</ele>
        <time>2013-05-12T10:10:54Z</time>
      </trkpt>
      <trkpt lat="45.56258" lon="6.69362">
        <ele>745.40002441406</ele>
        <time>2013-05-12T10:11:01Z</time>
      </trkpt>
      <trkpt lat="45.56293" lon="6.69529">
        <ele>734</ele>
        <time>2013-05-12T10:11:43Z</time>
      </trkpt>
    </trkseg>
  </trk>
</gpx>